<?xml version="1.0" encoding="UTF-8" standalone="no" ?>
<gpx xmlns="http://www.topografix.com/GPX/1/1" xmlns:xsi="http://www.w3.org/2001/XMLSchema-instance" xsi:schemaLocation="http://www.topografix.com/GPX/1/1 http://www.topografix.com/GPX/1/1/gpx.xsd" version="1.1" creator="VisuGPX - https://www.visugpx.com">
  <metadata>
    <name>1. Impasse Victor à la Mosquée à Marie St Christo en Jarez</name>
  </metadata>
  <wpt lat="45.48265" lon="4.43629">
    <ele>508.5</ele>
    <name><![CDATA[Imp. Victor Hugo]]></name>
  </wpt>
  <wpt lat="45.4507" lon="4.39885">
    <ele>492</ele>
    <name><![CDATA[Grande Mosquée Mohammed VI de Saint-Étienne]]></name>
  </wpt>
  <trk>
    <name><![CDATA[1. Impasse Victor à la Mosquée à Marie St Christo en Jarez]]></name>
    <extensions>
      <line xmlns="http://www.topografix.com/GPX/gpx_style/0/2">
        <color>0000FF</color>
        <width>4</width>
      </line>
    </extensions>
    <trkseg>
      <trkpt lat="45.48255" lon="4.43641">
        <ele>508.2</ele>
        <time>2025-11-25T12:05:31.391Z</time>
      </trkpt>
      <trkpt lat="45.48252" lon="4.43647">
        <ele>508.1</ele>
        <time>2025-11-25T12:05:33.936Z</time>
      </trkpt>
      <trkpt lat="45.48249" lon="4.43655">
        <ele>507.9</ele>
      </trkpt>
      <trkpt lat="45.48245" lon="4.43663">
        <ele>507.8</ele>
      </trkpt>
      <trkpt lat="45.48242" lon="4.4367">
        <ele>507.7</ele>
      </trkpt>
      <trkpt lat="45.48238" lon="4.43678">
        <ele>507.4</ele>
      </trkpt>
      <trkpt lat="45.48235" lon="4.43686">
        <ele>507.1</ele>
      </trkpt>
      <trkpt lat="45.48231" lon="4.43694">
        <ele>506.7</ele>
      </trkpt>
      <trkpt lat="45.48228" lon="4.43701">
        <ele>506.6</ele>
      </trkpt>
      <trkpt lat="45.48224" lon="4.43709">
        <ele>506.6</ele>
        <time>2025-11-25T12:05:59.811Z</time>
      </trkpt>
      <trkpt lat="45.4822" lon="4.43714">
        <ele>506.5</ele>
      </trkpt>
      <trkpt lat="45.48216" lon="4.43718">
        <ele>506.4</ele>
      </trkpt>
      <trkpt lat="45.48211" lon="4.43723">
        <ele>506.2</ele>
      </trkpt>
      <trkpt lat="45.48207" lon="4.43727">
        <ele>505.9</ele>
        <time>2025-11-25T12:06:10.406Z</time>
      </trkpt>
      <trkpt lat="45.48207" lon="4.43727">
        <ele>505.9</ele>
        <time>2025-11-25T12:06:10.532Z</time>
      </trkpt>
      <trkpt lat="45.48204" lon="4.43716">
        <ele>505.6</ele>
        <time>2025-11-25T12:06:14.798Z</time>
      </trkpt>
      <trkpt lat="45.48201" lon="4.43709">
        <ele>505.4</ele>
        <time>2025-11-25T12:06:17.676Z</time>
      </trkpt>
      <trkpt lat="45.48197" lon="4.43703">
        <ele>505.1</ele>
        <time>2025-11-25T12:06:20.580Z</time>
      </trkpt>
      <trkpt lat="45.48194" lon="4.43692">
        <ele>505.1</ele>
      </trkpt>
      <trkpt lat="45.4819" lon="4.43681">
        <ele>505.6</ele>
        <time>2025-11-25T12:06:29.056Z</time>
      </trkpt>
      <trkpt lat="45.48187" lon="4.43673">
        <ele>506.1</ele>
      </trkpt>
      <trkpt lat="45.48184" lon="4.43664">
        <ele>506.4</ele>
        <time>2025-11-25T12:06:35.733Z</time>
      </trkpt>
      <trkpt lat="45.48182" lon="4.43658">
        <ele>506.5</ele>
      </trkpt>
      <trkpt lat="45.4818" lon="4.43652">
        <ele>506.5</ele>
      </trkpt>
      <trkpt lat="45.48177" lon="4.43647">
        <ele>506.4</ele>
      </trkpt>
      <trkpt lat="45.48175" lon="4.43641">
        <ele>506.3</ele>
      </trkpt>
      <trkpt lat="45.48173" lon="4.43635">
        <ele>506.1</ele>
      </trkpt>
      <trkpt lat="45.48171" lon="4.43629">
        <ele>505.9</ele>
      </trkpt>
      <trkpt lat="45.48169" lon="4.43623">
        <ele>505.6</ele>
      </trkpt>
      <trkpt lat="45.48167" lon="4.43618">
        <ele>505.2</ele>
      </trkpt>
      <trkpt lat="45.48164" lon="4.43612">
        <ele>505.1</ele>
      </trkpt>
      <trkpt lat="45.48162" lon="4.43606">
        <ele>505.3</ele>
      </trkpt>
      <trkpt lat="45.4816" lon="4.436">
        <ele>505.5</ele>
      </trkpt>
      <trkpt lat="45.48158" lon="4.43594">
        <ele>505.7</ele>
      </trkpt>
      <trkpt lat="45.48156" lon="4.43588">
        <ele>505.9</ele>
      </trkpt>
      <trkpt lat="45.48153" lon="4.43583">
        <ele>506</ele>
      </trkpt>
      <trkpt lat="45.48151" lon="4.43577">
        <ele>506</ele>
      </trkpt>
      <trkpt lat="45.48149" lon="4.43571">
        <ele>505.9</ele>
        <time>2025-11-25T12:07:12.767Z</time>
      </trkpt>
      <trkpt lat="45.48147" lon="4.43564">
        <ele>505.7</ele>
      </trkpt>
      <trkpt lat="45.48144" lon="4.43556">
        <ele>505.4</ele>
        <time>2025-11-25T12:07:18.594Z</time>
      </trkpt>
      <trkpt lat="45.48143" lon="4.4355">
        <ele>505.3</ele>
        <time>2025-11-25T12:07:20.757Z</time>
      </trkpt>
      <trkpt lat="45.4814" lon="4.43542">
        <ele>505.1</ele>
      </trkpt>
      <trkpt lat="45.48138" lon="4.43534">
        <ele>505.1</ele>
      </trkpt>
      <trkpt lat="45.48135" lon="4.43525">
        <ele>505.2</ele>
      </trkpt>
      <trkpt lat="45.48132" lon="4.43517">
        <ele>505.5</ele>
        <time>2025-11-25T12:07:33.577Z</time>
      </trkpt>
      <trkpt lat="45.48128" lon="4.43507">
        <ele>505.9</ele>
      </trkpt>
      <trkpt lat="45.48124" lon="4.43496">
        <ele>505.9</ele>
        <time>2025-11-25T12:07:41.962Z</time>
      </trkpt>
      <trkpt lat="45.48121" lon="4.43488">
        <ele>505.7</ele>
      </trkpt>
      <trkpt lat="45.48118" lon="4.4348">
        <ele>505.5</ele>
        <time>2025-11-25T12:07:48.328Z</time>
      </trkpt>
      <trkpt lat="45.48116" lon="4.43474">
        <ele>505.2</ele>
      </trkpt>
      <trkpt lat="45.48114" lon="4.43468">
        <ele>505.1</ele>
      </trkpt>
      <trkpt lat="45.48112" lon="4.43462">
        <ele>505</ele>
      </trkpt>
      <trkpt lat="45.4811" lon="4.43456">
        <ele>505</ele>
        <time>2025-11-25T12:07:57.652Z</time>
      </trkpt>
      <trkpt lat="45.48107" lon="4.43447">
        <ele>505</ele>
      </trkpt>
      <trkpt lat="45.48103" lon="4.43437">
        <ele>505</ele>
      </trkpt>
      <trkpt lat="45.481" lon="4.43428">
        <ele>505</ele>
      </trkpt>
      <trkpt lat="45.48097" lon="4.43418">
        <ele>505</ele>
      </trkpt>
      <trkpt lat="45.48093" lon="4.43409">
        <ele>505</ele>
      </trkpt>
      <trkpt lat="45.4809" lon="4.43399">
        <ele>505</ele>
      </trkpt>
      <trkpt lat="45.48086" lon="4.4339">
        <ele>505</ele>
      </trkpt>
      <trkpt lat="45.48083" lon="4.4338">
        <ele>505</ele>
        <time>2025-11-25T12:08:27.546Z</time>
      </trkpt>
      <trkpt lat="45.48079" lon="4.43374">
        <ele>505</ele>
        <time>2025-11-25T12:08:30.450Z</time>
      </trkpt>
      <trkpt lat="45.48077" lon="4.43368">
        <ele>505</ele>
      </trkpt>
      <trkpt lat="45.48074" lon="4.43361">
        <ele>505</ele>
      </trkpt>
      <trkpt lat="45.48072" lon="4.43355">
        <ele>505.1</ele>
      </trkpt>
      <trkpt lat="45.4807" lon="4.43348">
        <ele>505.2</ele>
      </trkpt>
      <trkpt lat="45.48067" lon="4.43342">
        <ele>505.3</ele>
      </trkpt>
      <trkpt lat="45.48065" lon="4.43335">
        <ele>505.3</ele>
      </trkpt>
      <trkpt lat="45.48062" lon="4.43329">
        <ele>505.2</ele>
      </trkpt>
      <trkpt lat="45.4806" lon="4.43322">
        <ele>505.1</ele>
        <time>2025-11-25T12:08:51.024Z</time>
      </trkpt>
      <trkpt lat="45.48058" lon="4.43316">
        <ele>505</ele>
      </trkpt>
      <trkpt lat="45.48056" lon="4.4331">
        <ele>505</ele>
      </trkpt>
      <trkpt lat="45.48053" lon="4.43304">
        <ele>504.9</ele>
      </trkpt>
      <trkpt lat="45.48051" lon="4.43298">
        <ele>504.8</ele>
        <time>2025-11-25T12:09:00.573Z</time>
      </trkpt>
      <trkpt lat="45.48048" lon="4.4329">
        <ele>504.7</ele>
      </trkpt>
      <trkpt lat="45.48045" lon="4.43282">
        <ele>504.6</ele>
      </trkpt>
      <trkpt lat="45.48042" lon="4.43274">
        <ele>504.5</ele>
      </trkpt>
      <trkpt lat="45.4804" lon="4.43266">
        <ele>504.4</ele>
      </trkpt>
      <trkpt lat="45.48037" lon="4.43258">
        <ele>504.3</ele>
      </trkpt>
      <trkpt lat="45.48034" lon="4.4325">
        <ele>504.2</ele>
      </trkpt>
      <trkpt lat="45.48031" lon="4.43242">
        <ele>504.1</ele>
      </trkpt>
      <trkpt lat="45.48028" lon="4.43234">
        <ele>504</ele>
        <time>2025-11-25T12:09:25.807Z</time>
      </trkpt>
      <trkpt lat="45.48025" lon="4.43224">
        <ele>503.8</ele>
      </trkpt>
      <trkpt lat="45.48021" lon="4.43215">
        <ele>503.6</ele>
      </trkpt>
      <trkpt lat="45.48018" lon="4.43205">
        <ele>503.5</ele>
      </trkpt>
      <trkpt lat="45.48014" lon="4.43196">
        <ele>503.5</ele>
      </trkpt>
      <trkpt lat="45.48011" lon="4.43186">
        <ele>503.4</ele>
      </trkpt>
      <trkpt lat="45.48007" lon="4.43177">
        <ele>503.3</ele>
      </trkpt>
      <trkpt lat="45.48004" lon="4.43167">
        <ele>503.1</ele>
      </trkpt>
      <trkpt lat="45.48001" lon="4.43158">
        <ele>503</ele>
      </trkpt>
      <trkpt lat="45.47997" lon="4.43148">
        <ele>502.8</ele>
      </trkpt>
      <trkpt lat="45.47994" lon="4.43138">
        <ele>502.5</ele>
      </trkpt>
      <trkpt lat="45.4799" lon="4.43129">
        <ele>502.4</ele>
      </trkpt>
      <trkpt lat="45.47987" lon="4.43119">
        <ele>502.4</ele>
      </trkpt>
      <trkpt lat="45.47983" lon="4.4311">
        <ele>502.4</ele>
      </trkpt>
      <trkpt lat="45.4798" lon="4.431">
        <ele>502.3</ele>
      </trkpt>
      <trkpt lat="45.47976" lon="4.43091">
        <ele>502.2</ele>
      </trkpt>
      <trkpt lat="45.47973" lon="4.43081">
        <ele>502</ele>
        <time>2025-11-25T12:10:26.136Z</time>
      </trkpt>
      <trkpt lat="45.47971" lon="4.43074">
        <ele>502</ele>
      </trkpt>
      <trkpt lat="45.47969" lon="4.43068">
        <ele>501.9</ele>
      </trkpt>
      <trkpt lat="45.47966" lon="4.43061">
        <ele>502</ele>
      </trkpt>
      <trkpt lat="45.47964" lon="4.43054">
        <ele>502</ele>
        <time>2025-11-25T12:10:36.625Z</time>
      </trkpt>
      <trkpt lat="45.47964" lon="4.43054">
        <ele>502</ele>
        <time>2025-11-25T12:10:36.751Z</time>
      </trkpt>
      <trkpt lat="45.47965" lon="4.43053">
        <ele>502</ele>
        <time>2025-11-25T12:10:37.304Z</time>
      </trkpt>
      <trkpt lat="45.47966" lon="4.43053">
        <ele>502</ele>
        <time>2025-11-25T12:10:37.804Z</time>
      </trkpt>
      <trkpt lat="45.47967" lon="4.43052">
        <ele>502</ele>
        <time>2025-11-25T12:10:38.415Z</time>
      </trkpt>
      <trkpt lat="45.47968" lon="4.43052">
        <ele>502</ele>
        <time>2025-11-25T12:10:38.915Z</time>
      </trkpt>
      <trkpt lat="45.47968" lon="4.43051">
        <ele>502</ele>
        <time>2025-11-25T12:10:39.265Z</time>
      </trkpt>
      <trkpt lat="45.47969" lon="4.43051">
        <ele>502</ele>
        <time>2025-11-25T12:10:39.765Z</time>
      </trkpt>
      <trkpt lat="45.47969" lon="4.4305">
        <ele>502</ele>
        <time>2025-11-25T12:10:40.115Z</time>
      </trkpt>
      <trkpt lat="45.4797" lon="4.4305">
        <ele>502</ele>
        <time>2025-11-25T12:10:40.615Z</time>
      </trkpt>
      <trkpt lat="45.4797" lon="4.43049">
        <ele>502</ele>
        <time>2025-11-25T12:10:40.965Z</time>
      </trkpt>
      <trkpt lat="45.47971" lon="4.43049">
        <ele>502</ele>
        <time>2025-11-25T12:10:41.465Z</time>
      </trkpt>
      <trkpt lat="45.47971" lon="4.43048">
        <ele>502</ele>
        <time>2025-11-25T12:10:41.815Z</time>
      </trkpt>
      <trkpt lat="45.47971" lon="4.43047">
        <ele>502</ele>
        <time>2025-11-25T12:10:42.165Z</time>
      </trkpt>
      <trkpt lat="45.47972" lon="4.43047">
        <ele>502</ele>
        <time>2025-11-25T12:10:42.665Z</time>
      </trkpt>
      <trkpt lat="45.47972" lon="4.43046">
        <ele>502</ele>
        <time>2025-11-25T12:10:43.015Z</time>
      </trkpt>
      <trkpt lat="45.47972" lon="4.43045">
        <ele>502</ele>
        <time>2025-11-25T12:10:43.365Z</time>
      </trkpt>
      <trkpt lat="45.47973" lon="4.43045">
        <ele>502</ele>
        <time>2025-11-25T12:10:43.865Z</time>
      </trkpt>
      <trkpt lat="45.47973" lon="4.43044">
        <ele>502</ele>
        <time>2025-11-25T12:10:44.215Z</time>
      </trkpt>
      <trkpt lat="45.47973" lon="4.43043">
        <ele>502</ele>
        <time>2025-11-25T12:10:44.565Z</time>
      </trkpt>
      <trkpt lat="45.47973" lon="4.43042">
        <ele>502</ele>
        <time>2025-11-25T12:10:44.915Z</time>
      </trkpt>
      <trkpt lat="45.47973" lon="4.43041">
        <ele>502</ele>
        <time>2025-11-25T12:10:45.265Z</time>
      </trkpt>
      <trkpt lat="45.47974" lon="4.4304">
        <ele>502.1</ele>
        <time>2025-11-25T12:10:45.876Z</time>
      </trkpt>
      <trkpt lat="45.47974" lon="4.43039">
        <ele>502.1</ele>
        <time>2025-11-25T12:10:46.226Z</time>
      </trkpt>
      <trkpt lat="45.47974" lon="4.43038">
        <ele>502.1</ele>
        <time>2025-11-25T12:10:46.576Z</time>
      </trkpt>
      <trkpt lat="45.47974" lon="4.43037">
        <ele>502.1</ele>
        <time>2025-11-25T12:10:46.926Z</time>
      </trkpt>
      <trkpt lat="45.47974" lon="4.43036">
        <ele>502.1</ele>
        <time>2025-11-25T12:10:47.276Z</time>
      </trkpt>
      <trkpt lat="45.47974" lon="4.43035">
        <ele>502.1</ele>
        <time>2025-11-25T12:10:47.626Z</time>
      </trkpt>
      <trkpt lat="45.47973" lon="4.43034">
        <ele>502</ele>
        <time>2025-11-25T12:10:48.237Z</time>
      </trkpt>
      <trkpt lat="45.47973" lon="4.43033">
        <ele>502</ele>
        <time>2025-11-25T12:10:48.587Z</time>
      </trkpt>
      <trkpt lat="45.47973" lon="4.43032">
        <ele>502</ele>
        <time>2025-11-25T12:10:48.937Z</time>
      </trkpt>
      <trkpt lat="45.47973" lon="4.43031">
        <ele>502</ele>
        <time>2025-11-25T12:10:49.287Z</time>
      </trkpt>
      <trkpt lat="45.47972" lon="4.4303">
        <ele>502</ele>
        <time>2025-11-25T12:10:49.898Z</time>
      </trkpt>
      <trkpt lat="45.47972" lon="4.43029">
        <ele>502</ele>
        <time>2025-11-25T12:10:50.248Z</time>
      </trkpt>
      <trkpt lat="45.47972" lon="4.43028">
        <ele>502</ele>
        <time>2025-11-25T12:10:50.598Z</time>
      </trkpt>
      <trkpt lat="45.47971" lon="4.43027">
        <ele>502</ele>
        <time>2025-11-25T12:10:51.209Z</time>
      </trkpt>
      <trkpt lat="45.4797" lon="4.43026">
        <ele>501.9</ele>
        <time>2025-11-25T12:10:51.820Z</time>
      </trkpt>
      <trkpt lat="45.4797" lon="4.43025">
        <ele>501.9</ele>
        <time>2025-11-25T12:10:52.170Z</time>
      </trkpt>
      <trkpt lat="45.47969" lon="4.43024">
        <ele>501.9</ele>
        <time>2025-11-25T12:10:52.781Z</time>
      </trkpt>
      <trkpt lat="45.47968" lon="4.43024">
        <ele>501.8</ele>
        <time>2025-11-25T12:10:53.281Z</time>
      </trkpt>
      <trkpt lat="45.47968" lon="4.43023">
        <ele>501.8</ele>
        <time>2025-11-25T12:10:53.631Z</time>
      </trkpt>
      <trkpt lat="45.47967" lon="4.43023">
        <ele>501.8</ele>
        <time>2025-11-25T12:10:54.131Z</time>
      </trkpt>
      <trkpt lat="45.47967" lon="4.43022">
        <ele>501.8</ele>
        <time>2025-11-25T12:10:54.481Z</time>
      </trkpt>
      <trkpt lat="45.47966" lon="4.43022">
        <ele>501.8</ele>
        <time>2025-11-25T12:10:54.981Z</time>
      </trkpt>
      <trkpt lat="45.47965" lon="4.43022">
        <ele>501.7</ele>
        <time>2025-11-25T12:10:55.481Z</time>
      </trkpt>
      <trkpt lat="45.47967" lon="4.43014">
        <ele>501.8</ele>
      </trkpt>
      <trkpt lat="45.47969" lon="4.43007">
        <ele>501.9</ele>
      </trkpt>
      <trkpt lat="45.47971" lon="4.42999">
        <ele>501.9</ele>
      </trkpt>
      <trkpt lat="45.47973" lon="4.42991">
        <ele>501.7</ele>
      </trkpt>
      <trkpt lat="45.47975" lon="4.42983">
        <ele>501.5</ele>
      </trkpt>
      <trkpt lat="45.47977" lon="4.42976">
        <ele>501.3</ele>
      </trkpt>
      <trkpt lat="45.47979" lon="4.42968">
        <ele>501.2</ele>
      </trkpt>
      <trkpt lat="45.47981" lon="4.4296">
        <ele>501.3</ele>
        <time>2025-11-25T12:11:18.662Z</time>
      </trkpt>
      <trkpt lat="45.47984" lon="4.42949">
        <ele>501.4</ele>
      </trkpt>
      <trkpt lat="45.47987" lon="4.42937">
        <ele>501.4</ele>
      </trkpt>
      <trkpt lat="45.4799" lon="4.42926">
        <ele>501.2</ele>
      </trkpt>
      <trkpt lat="45.47994" lon="4.42915">
        <ele>501</ele>
      </trkpt>
      <trkpt lat="45.47997" lon="4.42903">
        <ele>500.9</ele>
      </trkpt>
      <trkpt lat="45.48" lon="4.42892">
        <ele>501</ele>
      </trkpt>
      <trkpt lat="45.48003" lon="4.4288">
        <ele>500.8</ele>
      </trkpt>
      <trkpt lat="45.48006" lon="4.42869">
        <ele>500.5</ele>
        <time>2025-11-25T12:11:52.955Z</time>
      </trkpt>
      <trkpt lat="45.48009" lon="4.42859">
        <ele>500.3</ele>
      </trkpt>
      <trkpt lat="45.48012" lon="4.42849">
        <ele>500.2</ele>
      </trkpt>
      <trkpt lat="45.48014" lon="4.42839">
        <ele>500.1</ele>
      </trkpt>
      <trkpt lat="45.48017" lon="4.42829">
        <ele>500.1</ele>
      </trkpt>
      <trkpt lat="45.4802" lon="4.42819">
        <ele>500.1</ele>
      </trkpt>
      <trkpt lat="45.48023" lon="4.42809">
        <ele>499.9</ele>
      </trkpt>
      <trkpt lat="45.48025" lon="4.42799">
        <ele>499.7</ele>
      </trkpt>
      <trkpt lat="45.48028" lon="4.42789">
        <ele>499.4</ele>
      </trkpt>
      <trkpt lat="45.48031" lon="4.42779">
        <ele>499.1</ele>
      </trkpt>
      <trkpt lat="45.48034" lon="4.42769">
        <ele>498.9</ele>
      </trkpt>
      <trkpt lat="45.48036" lon="4.42759">
        <ele>498.6</ele>
      </trkpt>
      <trkpt lat="45.48039" lon="4.42749">
        <ele>498.4</ele>
      </trkpt>
      <trkpt lat="45.48042" lon="4.42739">
        <ele>498.5</ele>
      </trkpt>
      <trkpt lat="45.48045" lon="4.42729">
        <ele>498.6</ele>
      </trkpt>
      <trkpt lat="45.48047" lon="4.42719">
        <ele>498.7</ele>
      </trkpt>
      <trkpt lat="45.4805" lon="4.42709">
        <ele>498.7</ele>
        <time>2025-11-25T12:12:53.259Z</time>
      </trkpt>
      <trkpt lat="45.48051" lon="4.42709">
        <ele>498.8</ele>
        <time>2025-11-25T12:12:53.759Z</time>
      </trkpt>
      <trkpt lat="45.48052" lon="4.4271">
        <ele>498.8</ele>
        <time>2025-11-25T12:12:54.370Z</time>
      </trkpt>
      <trkpt lat="45.48053" lon="4.42711">
        <ele>498.9</ele>
        <time>2025-11-25T12:12:54.981Z</time>
      </trkpt>
      <trkpt lat="45.48054" lon="4.42711">
        <ele>498.9</ele>
        <time>2025-11-25T12:12:55.481Z</time>
      </trkpt>
      <trkpt lat="45.48055" lon="4.42711">
        <ele>499</ele>
        <time>2025-11-25T12:12:55.981Z</time>
      </trkpt>
      <trkpt lat="45.48056" lon="4.42711">
        <ele>499</ele>
        <time>2025-11-25T12:12:56.481Z</time>
      </trkpt>
      <trkpt lat="45.48057" lon="4.42712">
        <ele>499.1</ele>
        <time>2025-11-25T12:12:57.092Z</time>
      </trkpt>
      <trkpt lat="45.48058" lon="4.42712">
        <ele>499.1</ele>
        <time>2025-11-25T12:12:57.592Z</time>
      </trkpt>
      <trkpt lat="45.48059" lon="4.42712">
        <ele>499.1</ele>
        <time>2025-11-25T12:12:58.092Z</time>
      </trkpt>
      <trkpt lat="45.4806" lon="4.42711">
        <ele>499.2</ele>
        <time>2025-11-25T12:12:58.703Z</time>
      </trkpt>
      <trkpt lat="45.48061" lon="4.42711">
        <ele>499.2</ele>
        <time>2025-11-25T12:12:59.203Z</time>
      </trkpt>
      <trkpt lat="45.48062" lon="4.4271">
        <ele>499.2</ele>
        <time>2025-11-25T12:12:59.814Z</time>
      </trkpt>
      <trkpt lat="45.48063" lon="4.4271">
        <ele>499.3</ele>
        <time>2025-11-25T12:13:00.314Z</time>
      </trkpt>
      <trkpt lat="45.48064" lon="4.42709">
        <ele>499.3</ele>
        <time>2025-11-25T12:13:00.925Z</time>
      </trkpt>
      <trkpt lat="45.48065" lon="4.42709">
        <ele>499.3</ele>
        <time>2025-11-25T12:13:01.425Z</time>
      </trkpt>
      <trkpt lat="45.48066" lon="4.42708">
        <ele>499.4</ele>
        <time>2025-11-25T12:13:02.036Z</time>
      </trkpt>
      <trkpt lat="45.48067" lon="4.42707">
        <ele>499.4</ele>
        <time>2025-11-25T12:13:02.647Z</time>
      </trkpt>
      <trkpt lat="45.48067" lon="4.42706">
        <ele>499.4</ele>
        <time>2025-11-25T12:13:02.997Z</time>
      </trkpt>
      <trkpt lat="45.48068" lon="4.42705">
        <ele>499.4</ele>
        <time>2025-11-25T12:13:03.608Z</time>
      </trkpt>
      <trkpt lat="45.48069" lon="4.42704">
        <ele>499.5</ele>
        <time>2025-11-25T12:13:04.219Z</time>
      </trkpt>
      <trkpt lat="45.48069" lon="4.42703">
        <ele>499.5</ele>
        <time>2025-11-25T12:13:04.569Z</time>
      </trkpt>
      <trkpt lat="45.4807" lon="4.42702">
        <ele>499.5</ele>
        <time>2025-11-25T12:13:05.180Z</time>
      </trkpt>
      <trkpt lat="45.4807" lon="4.42701">
        <ele>499.5</ele>
        <time>2025-11-25T12:13:05.530Z</time>
      </trkpt>
      <trkpt lat="45.48071" lon="4.42699">
        <ele>499.6</ele>
        <time>2025-11-25T12:13:06.391Z</time>
      </trkpt>
      <trkpt lat="45.48071" lon="4.42698">
        <ele>499.6</ele>
        <time>2025-11-25T12:13:06.741Z</time>
      </trkpt>
      <trkpt lat="45.48072" lon="4.42697">
        <ele>499.6</ele>
        <time>2025-11-25T12:13:07.352Z</time>
      </trkpt>
      <trkpt lat="45.48072" lon="4.42695">
        <ele>499.6</ele>
        <time>2025-11-25T12:13:08.053Z</time>
      </trkpt>
      <trkpt lat="45.48072" lon="4.42693">
        <ele>499.6</ele>
        <time>2025-11-25T12:13:08.754Z</time>
      </trkpt>
      <trkpt lat="45.48072" lon="4.42692">
        <ele>499.6</ele>
        <time>2025-11-25T12:13:09.104Z</time>
      </trkpt>
      <trkpt lat="45.48072" lon="4.42691">
        <ele>499.6</ele>
        <time>2025-11-25T12:13:09.454Z</time>
      </trkpt>
      <trkpt lat="45.48072" lon="4.42689">
        <ele>499.6</ele>
        <time>2025-11-25T12:13:10.155Z</time>
      </trkpt>
      <trkpt lat="45.48072" lon="4.42688">
        <ele>499.6</ele>
        <time>2025-11-25T12:13:10.505Z</time>
      </trkpt>
      <trkpt lat="45.48072" lon="4.42686">
        <ele>499.6</ele>
        <time>2025-11-25T12:13:11.206Z</time>
      </trkpt>
      <trkpt lat="45.48072" lon="4.42685">
        <ele>499.7</ele>
        <time>2025-11-25T12:13:11.556Z</time>
      </trkpt>
      <trkpt lat="45.48072" lon="4.42684">
        <ele>499.7</ele>
        <time>2025-11-25T12:13:11.906Z</time>
      </trkpt>
      <trkpt lat="45.48071" lon="4.42682">
        <ele>499.6</ele>
        <time>2025-11-25T12:13:12.767Z</time>
      </trkpt>
      <trkpt lat="45.48071" lon="4.42681">
        <ele>499.6</ele>
        <time>2025-11-25T12:13:13.117Z</time>
      </trkpt>
      <trkpt lat="45.4807" lon="4.4268">
        <ele>499.5</ele>
        <time>2025-11-25T12:13:13.728Z</time>
      </trkpt>
      <trkpt lat="45.4807" lon="4.42678">
        <ele>499.5</ele>
        <time>2025-11-25T12:13:14.429Z</time>
      </trkpt>
      <trkpt lat="45.48069" lon="4.42677">
        <ele>499.5</ele>
        <time>2025-11-25T12:13:15.040Z</time>
      </trkpt>
      <trkpt lat="45.48068" lon="4.42676">
        <ele>499.4</ele>
        <time>2025-11-25T12:13:15.651Z</time>
      </trkpt>
      <trkpt lat="45.48067" lon="4.42675">
        <ele>499.3</ele>
        <time>2025-11-25T12:13:16.262Z</time>
      </trkpt>
      <trkpt lat="45.48067" lon="4.42674">
        <ele>499.3</ele>
        <time>2025-11-25T12:13:16.612Z</time>
      </trkpt>
      <trkpt lat="45.48066" lon="4.42673">
        <ele>499.2</ele>
        <time>2025-11-25T12:13:17.223Z</time>
      </trkpt>
      <trkpt lat="45.48065" lon="4.42672">
        <ele>499.1</ele>
        <time>2025-11-25T12:13:17.834Z</time>
      </trkpt>
      <trkpt lat="45.48064" lon="4.42672">
        <ele>499</ele>
        <time>2025-11-25T12:13:18.334Z</time>
      </trkpt>
      <trkpt lat="45.48063" lon="4.42671">
        <ele>498.9</ele>
        <time>2025-11-25T12:13:18.945Z</time>
      </trkpt>
      <trkpt lat="45.48062" lon="4.4267">
        <ele>498.8</ele>
        <time>2025-11-25T12:13:19.556Z</time>
      </trkpt>
      <trkpt lat="45.48061" lon="4.4267">
        <ele>498.7</ele>
        <time>2025-11-25T12:13:20.056Z</time>
      </trkpt>
      <trkpt lat="45.4806" lon="4.4267">
        <ele>498.6</ele>
        <time>2025-11-25T12:13:20.556Z</time>
      </trkpt>
      <trkpt lat="45.4806" lon="4.42669">
        <ele>498.5</ele>
        <time>2025-11-25T12:13:20.906Z</time>
      </trkpt>
      <trkpt lat="45.48059" lon="4.42669">
        <ele>498.4</ele>
        <time>2025-11-25T12:13:21.406Z</time>
      </trkpt>
      <trkpt lat="45.48058" lon="4.42669">
        <ele>498.3</ele>
        <time>2025-11-25T12:13:21.906Z</time>
      </trkpt>
      <trkpt lat="45.48056" lon="4.42669">
        <ele>498.1</ele>
        <time>2025-11-25T12:13:22.906Z</time>
      </trkpt>
      <trkpt lat="45.48057" lon="4.42659">
        <ele>498.2</ele>
        <time>2025-11-25T12:13:26.450Z</time>
      </trkpt>
      <trkpt lat="45.48058" lon="4.42649">
        <ele>498.3</ele>
        <time>2025-11-25T12:13:29.994Z</time>
      </trkpt>
      <trkpt lat="45.48057" lon="4.42637">
        <ele>498.2</ele>
        <time>2025-11-25T12:13:34.234Z</time>
      </trkpt>
      <trkpt lat="45.48057" lon="4.42631">
        <ele>498.1</ele>
      </trkpt>
      <trkpt lat="45.48056" lon="4.42624">
        <ele>498</ele>
      </trkpt>
      <trkpt lat="45.48056" lon="4.42618">
        <ele>498</ele>
      </trkpt>
      <trkpt lat="45.48055" lon="4.42611">
        <ele>497.9</ele>
        <time>2025-11-25T12:13:43.411Z</time>
      </trkpt>
      <trkpt lat="45.48054" lon="4.42601">
        <ele>497.8</ele>
      </trkpt>
      <trkpt lat="45.48053" lon="4.42591">
        <ele>497.7</ele>
        <time>2025-11-25T12:13:50.499Z</time>
      </trkpt>
      <trkpt lat="45.48052" lon="4.42584">
        <ele>497.6</ele>
      </trkpt>
      <trkpt lat="45.4805" lon="4.42576">
        <ele>497.4</ele>
        <time>2025-11-25T12:13:55.972Z</time>
      </trkpt>
      <trkpt lat="45.48049" lon="4.42569">
        <ele>497.3</ele>
        <time>2025-11-25T12:13:58.478Z</time>
      </trkpt>
      <trkpt lat="45.48047" lon="4.42561">
        <ele>497.1</ele>
      </trkpt>
      <trkpt lat="45.48045" lon="4.42553">
        <ele>496.8</ele>
        <time>2025-11-25T12:14:04.438Z</time>
      </trkpt>
      <trkpt lat="45.48043" lon="4.42541">
        <ele>496.4</ele>
        <time>2025-11-25T12:14:08.765Z</time>
      </trkpt>
      <trkpt lat="45.48041" lon="4.4253">
        <ele>496</ele>
      </trkpt>
      <trkpt lat="45.48038" lon="4.42519">
        <ele>495.8</ele>
        <time>2025-11-25T12:14:16.879Z</time>
      </trkpt>
      <trkpt lat="45.48036" lon="4.42512">
        <ele>495.8</ele>
      </trkpt>
      <trkpt lat="45.48034" lon="4.42505">
        <ele>495.9</ele>
      </trkpt>
      <trkpt lat="45.48032" lon="4.42498">
        <ele>496</ele>
      </trkpt>
      <trkpt lat="45.4803" lon="4.42491">
        <ele>496</ele>
        <time>2025-11-25T12:14:27.487Z</time>
      </trkpt>
      <trkpt lat="45.48027" lon="4.42479">
        <ele>495.9</ele>
        <time>2025-11-25T12:14:31.957Z</time>
      </trkpt>
      <trkpt lat="45.48025" lon="4.42472">
        <ele>495.6</ele>
        <time>2025-11-25T12:14:34.609Z</time>
      </trkpt>
      <trkpt lat="45.48023" lon="4.42466">
        <ele>495.3</ele>
      </trkpt>
      <trkpt lat="45.48021" lon="4.42459">
        <ele>495</ele>
        <time>2025-11-25T12:14:39.590Z</time>
      </trkpt>
      <trkpt lat="45.48019" lon="4.42452">
        <ele>494.7</ele>
      </trkpt>
      <trkpt lat="45.48016" lon="4.42445">
        <ele>494.3</ele>
        <time>2025-11-25T12:14:45.102Z</time>
      </trkpt>
      <trkpt lat="45.48013" lon="4.42436">
        <ele>494.2</ele>
      </trkpt>
      <trkpt lat="45.4801" lon="4.42428">
        <ele>494.2</ele>
      </trkpt>
      <trkpt lat="45.48007" lon="4.42419">
        <ele>494.4</ele>
      </trkpt>
      <trkpt lat="45.48004" lon="4.4241">
        <ele>494.7</ele>
        <time>2025-11-25T12:14:58.772Z</time>
      </trkpt>
      <trkpt lat="45.48" lon="4.42401">
        <ele>495.2</ele>
      </trkpt>
      <trkpt lat="45.47997" lon="4.42391">
        <ele>495.6</ele>
      </trkpt>
      <trkpt lat="45.47993" lon="4.42382">
        <ele>495.6</ele>
      </trkpt>
      <trkpt lat="45.47989" lon="4.42372">
        <ele>495.4</ele>
        <time>2025-11-25T12:15:14.073Z</time>
      </trkpt>
      <trkpt lat="45.47986" lon="4.42364">
        <ele>495.4</ele>
      </trkpt>
      <trkpt lat="45.47983" lon="4.42356">
        <ele>495.4</ele>
      </trkpt>
      <trkpt lat="45.47979" lon="4.42348">
        <ele>495.3</ele>
      </trkpt>
      <trkpt lat="45.47976" lon="4.4234">
        <ele>495.1</ele>
        <time>2025-11-25T12:15:27.049Z</time>
      </trkpt>
      <trkpt lat="45.47973" lon="4.42332">
        <ele>495.1</ele>
      </trkpt>
      <trkpt lat="45.47969" lon="4.42324">
        <ele>495.1</ele>
      </trkpt>
      <trkpt lat="45.47966" lon="4.42315">
        <ele>495</ele>
      </trkpt>
      <trkpt lat="45.47962" lon="4.42307">
        <ele>494.9</ele>
        <time>2025-11-25T12:15:40.582Z</time>
      </trkpt>
      <trkpt lat="45.47959" lon="4.423">
        <ele>494.8</ele>
      </trkpt>
      <trkpt lat="45.47957" lon="4.42293">
        <ele>494.8</ele>
      </trkpt>
      <trkpt lat="45.47954" lon="4.42285">
        <ele>495</ele>
      </trkpt>
      <trkpt lat="45.47951" lon="4.42278">
        <ele>495.2</ele>
        <time>2025-11-25T12:15:52.151Z</time>
      </trkpt>
      <trkpt lat="45.47949" lon="4.42272">
        <ele>495.3</ele>
      </trkpt>
      <trkpt lat="45.47946" lon="4.42266">
        <ele>495.5</ele>
      </trkpt>
      <trkpt lat="45.47944" lon="4.4226">
        <ele>495.6</ele>
      </trkpt>
      <trkpt lat="45.47942" lon="4.42255">
        <ele>495.6</ele>
      </trkpt>
      <trkpt lat="45.47939" lon="4.42249">
        <ele>495.6</ele>
      </trkpt>
      <trkpt lat="45.47937" lon="4.42243">
        <ele>495.4</ele>
      </trkpt>
      <trkpt lat="45.47934" lon="4.42237">
        <ele>495.3</ele>
      </trkpt>
      <trkpt lat="45.47932" lon="4.42231">
        <ele>495.1</ele>
        <time>2025-11-25T12:16:11.187Z</time>
      </trkpt>
      <trkpt lat="45.47928" lon="4.42222">
        <ele>494.8</ele>
      </trkpt>
      <trkpt lat="45.47924" lon="4.42213">
        <ele>494.9</ele>
        <time>2025-11-25T12:16:18.664Z</time>
      </trkpt>
      <trkpt lat="45.4792" lon="4.42204">
        <ele>494.9</ele>
      </trkpt>
      <trkpt lat="45.47916" lon="4.42194">
        <ele>494.9</ele>
        <time>2025-11-25T12:16:26.440Z</time>
      </trkpt>
      <trkpt lat="45.47913" lon="4.42188">
        <ele>494.6</ele>
      </trkpt>
      <trkpt lat="45.4791" lon="4.42181">
        <ele>494.3</ele>
        <time>2025-11-25T12:16:31.901Z</time>
      </trkpt>
      <trkpt lat="45.47907" lon="4.42176">
        <ele>493.9</ele>
      </trkpt>
      <trkpt lat="45.47903" lon="4.4217">
        <ele>493.5</ele>
        <time>2025-11-25T12:16:37.113Z</time>
      </trkpt>
      <trkpt lat="45.479" lon="4.42164">
        <ele>493.3</ele>
      </trkpt>
      <trkpt lat="45.47896" lon="4.42158">
        <ele>493.4</ele>
        <time>2025-11-25T12:16:42.590Z</time>
      </trkpt>
      <trkpt lat="45.47891" lon="4.42152">
        <ele>493.3</ele>
        <time>2025-11-25T12:16:45.860Z</time>
      </trkpt>
      <trkpt lat="45.47888" lon="4.42146">
        <ele>493.4</ele>
        <time>2025-11-25T12:16:48.445Z</time>
      </trkpt>
      <trkpt lat="45.47883" lon="4.42139">
        <ele>493.6</ele>
      </trkpt>
      <trkpt lat="45.47878" lon="4.42132">
        <ele>493.6</ele>
        <time>2025-11-25T12:16:55.457Z</time>
      </trkpt>
      <trkpt lat="45.47874" lon="4.42127">
        <ele>493.5</ele>
      </trkpt>
      <trkpt lat="45.47869" lon="4.42122">
        <ele>493.3</ele>
        <time>2025-11-25T12:17:01.166Z</time>
      </trkpt>
      <trkpt lat="45.47863" lon="4.42116">
        <ele>493</ele>
      </trkpt>
      <trkpt lat="45.47856" lon="4.42109">
        <ele>492.8</ele>
        <time>2025-11-25T12:17:09.111Z</time>
      </trkpt>
      <trkpt lat="45.4785" lon="4.42104">
        <ele>492.6</ele>
      </trkpt>
      <trkpt lat="45.47843" lon="4.42098">
        <ele>492.3</ele>
      </trkpt>
      <trkpt lat="45.47837" lon="4.42093">
        <ele>492</ele>
      </trkpt>
      <trkpt lat="45.4783" lon="4.42087">
        <ele>491.6</ele>
        <time>2025-11-25T12:17:24.239Z</time>
      </trkpt>
      <trkpt lat="45.47823" lon="4.42082">
        <ele>491.4</ele>
        <time>2025-11-25T12:17:28.156Z</time>
      </trkpt>
      <trkpt lat="45.47819" lon="4.42079">
        <ele>491.3</ele>
      </trkpt>
      <trkpt lat="45.47815" lon="4.42075">
        <ele>491.3</ele>
        <time>2025-11-25T12:17:32.852Z</time>
      </trkpt>
      <trkpt lat="45.47811" lon="4.42072">
        <ele>491.2</ele>
      </trkpt>
      <trkpt lat="45.47807" lon="4.42069">
        <ele>491.1</ele>
      </trkpt>
      <trkpt lat="45.47802" lon="4.42066">
        <ele>491.1</ele>
      </trkpt>
      <trkpt lat="45.47798" lon="4.42063">
        <ele>491.2</ele>
        <time>2025-11-25T12:17:42.344Z</time>
      </trkpt>
      <trkpt lat="45.47792" lon="4.42058">
        <ele>491.3</ele>
        <time>2025-11-25T12:17:45.821Z</time>
      </trkpt>
      <trkpt lat="45.47787" lon="4.42053">
        <ele>491.5</ele>
      </trkpt>
      <trkpt lat="45.47781" lon="4.42047">
        <ele>491.5</ele>
        <time>2025-11-25T12:17:52.544Z</time>
      </trkpt>
      <trkpt lat="45.47777" lon="4.42043">
        <ele>491.4</ele>
      </trkpt>
      <trkpt lat="45.47773" lon="4.42038">
        <ele>491.2</ele>
        <time>2025-11-25T12:17:57.643Z</time>
      </trkpt>
      <trkpt lat="45.4777" lon="4.42033">
        <ele>491.2</ele>
      </trkpt>
      <trkpt lat="45.47766" lon="4.42028">
        <ele>491.1</ele>
        <time>2025-11-25T12:18:02.601Z</time>
      </trkpt>
      <trkpt lat="45.47764" lon="4.42025">
        <ele>491.1</ele>
        <time>2025-11-25T12:18:04.053Z</time>
      </trkpt>
      <trkpt lat="45.47759" lon="4.42017">
        <ele>491</ele>
        <time>2025-11-25T12:18:07.813Z</time>
      </trkpt>
      <trkpt lat="45.47756" lon="4.42011">
        <ele>491.1</ele>
      </trkpt>
      <trkpt lat="45.47753" lon="4.42004">
        <ele>491.1</ele>
        <time>2025-11-25T12:18:13.274Z</time>
      </trkpt>
      <trkpt lat="45.47751" lon="4.41998">
        <ele>491.1</ele>
      </trkpt>
      <trkpt lat="45.47749" lon="4.41991">
        <ele>490.9</ele>
        <time>2025-11-25T12:18:18.255Z</time>
      </trkpt>
      <trkpt lat="45.47748" lon="4.41987">
        <ele>490.7</ele>
        <time>2025-11-25T12:18:19.745Z</time>
      </trkpt>
      <trkpt lat="45.47747" lon="4.41981">
        <ele>490.5</ele>
      </trkpt>
      <trkpt lat="45.47745" lon="4.41974">
        <ele>490.3</ele>
        <time>2025-11-25T12:18:24.547Z</time>
      </trkpt>
      <trkpt lat="45.47744" lon="4.41966">
        <ele>490.1</ele>
      </trkpt>
      <trkpt lat="45.47743" lon="4.41958">
        <ele>489.9</ele>
        <time>2025-11-25T12:18:30.249Z</time>
      </trkpt>
      <trkpt lat="45.47743" lon="4.4195">
        <ele>489.7</ele>
      </trkpt>
      <trkpt lat="45.47742" lon="4.41942">
        <ele>489.6</ele>
        <time>2025-11-25T12:18:35.885Z</time>
      </trkpt>
      <trkpt lat="45.47741" lon="4.41934">
        <ele>489.5</ele>
      </trkpt>
      <trkpt lat="45.4774" lon="4.41926">
        <ele>489.4</ele>
      </trkpt>
      <trkpt lat="45.47738" lon="4.41918">
        <ele>489.3</ele>
      </trkpt>
      <trkpt lat="45.47737" lon="4.4191">
        <ele>489.1</ele>
        <time>2025-11-25T12:18:47.389Z</time>
      </trkpt>
      <trkpt lat="45.47737" lon="4.41903">
        <ele>489.1</ele>
      </trkpt>
      <trkpt lat="45.47736" lon="4.41897">
        <ele>489</ele>
      </trkpt>
      <trkpt lat="45.47736" lon="4.4189">
        <ele>488.9</ele>
      </trkpt>
      <trkpt lat="45.47735" lon="4.41883">
        <ele>488.8</ele>
        <time>2025-11-25T12:18:56.915Z</time>
      </trkpt>
      <trkpt lat="45.47735" lon="4.41876">
        <ele>488.8</ele>
      </trkpt>
      <trkpt lat="45.47735" lon="4.41869">
        <ele>488.8</ele>
      </trkpt>
      <trkpt lat="45.47734" lon="4.41861">
        <ele>488.7</ele>
      </trkpt>
      <trkpt lat="45.47734" lon="4.41854">
        <ele>488.7</ele>
        <time>2025-11-25T12:19:07.103Z</time>
      </trkpt>
      <trkpt lat="45.47735" lon="4.41843">
        <ele>488.8</ele>
      </trkpt>
      <trkpt lat="45.47735" lon="4.41831">
        <ele>488.8</ele>
        <time>2025-11-25T12:19:15.189Z</time>
      </trkpt>
      <trkpt lat="45.47735" lon="4.41823">
        <ele>488.8</ele>
        <time>2025-11-25T12:19:17.996Z</time>
      </trkpt>
      <trkpt lat="45.47735" lon="4.41815">
        <ele>488.8</ele>
      </trkpt>
      <trkpt lat="45.47735" lon="4.41807">
        <ele>488.8</ele>
      </trkpt>
      <trkpt lat="45.47735" lon="4.41798">
        <ele>488.6</ele>
      </trkpt>
      <trkpt lat="45.47735" lon="4.4179">
        <ele>488.5</ele>
        <time>2025-11-25T12:19:29.575Z</time>
      </trkpt>
      <trkpt lat="45.47736" lon="4.41778">
        <ele>488.5</ele>
        <time>2025-11-25T12:19:33.815Z</time>
      </trkpt>
      <trkpt lat="45.47736" lon="4.41771">
        <ele>488.2</ele>
      </trkpt>
      <trkpt lat="45.47735" lon="4.41763">
        <ele>488</ele>
        <time>2025-11-25T12:19:39.102Z</time>
      </trkpt>
      <trkpt lat="45.47734" lon="4.41752">
        <ele>487.6</ele>
        <time>2025-11-25T12:19:42.994Z</time>
      </trkpt>
      <trkpt lat="45.47733" lon="4.41743">
        <ele>487.7</ele>
        <time>2025-11-25T12:19:46.191Z</time>
      </trkpt>
      <trkpt lat="45.47732" lon="4.41731">
        <ele>488.2</ele>
      </trkpt>
      <trkpt lat="45.47731" lon="4.4172">
        <ele>488.6</ele>
      </trkpt>
      <trkpt lat="45.47729" lon="4.41708">
        <ele>488.9</ele>
      </trkpt>
      <trkpt lat="45.47728" lon="4.41696">
        <ele>489.2</ele>
        <time>2025-11-25T12:20:02.871Z</time>
      </trkpt>
      <trkpt lat="45.47727" lon="4.41688">
        <ele>489.2</ele>
      </trkpt>
      <trkpt lat="45.47726" lon="4.4168">
        <ele>489.3</ele>
      </trkpt>
      <trkpt lat="45.47724" lon="4.41671">
        <ele>489.3</ele>
      </trkpt>
      <trkpt lat="45.47723" lon="4.41663">
        <ele>489.1</ele>
      </trkpt>
      <trkpt lat="45.47722" lon="4.41655">
        <ele>488.6</ele>
      </trkpt>
      <trkpt lat="45.47721" lon="4.41647">
        <ele>488</ele>
      </trkpt>
      <trkpt lat="45.4772" lon="4.41639">
        <ele>487.5</ele>
      </trkpt>
      <trkpt lat="45.47719" lon="4.41631">
        <ele>487.5</ele>
      </trkpt>
      <trkpt lat="45.47717" lon="4.41622">
        <ele>487.6</ele>
      </trkpt>
      <trkpt lat="45.47716" lon="4.41614">
        <ele>487.8</ele>
      </trkpt>
      <trkpt lat="45.47715" lon="4.41606">
        <ele>488</ele>
      </trkpt>
      <trkpt lat="45.47714" lon="4.41598">
        <ele>488.3</ele>
      </trkpt>
      <trkpt lat="45.47713" lon="4.4159">
        <ele>488.5</ele>
      </trkpt>
      <trkpt lat="45.47711" lon="4.41581">
        <ele>488.7</ele>
      </trkpt>
      <trkpt lat="45.4771" lon="4.41573">
        <ele>488.4</ele>
      </trkpt>
      <trkpt lat="45.47709" lon="4.41565">
        <ele>488.1</ele>
        <time>2025-11-25T12:20:49.811Z</time>
      </trkpt>
      <trkpt lat="45.47708" lon="4.41558">
        <ele>487.9</ele>
      </trkpt>
      <trkpt lat="45.47707" lon="4.41552">
        <ele>487.9</ele>
      </trkpt>
      <trkpt lat="45.47706" lon="4.41545">
        <ele>487.9</ele>
      </trkpt>
      <trkpt lat="45.47705" lon="4.41538">
        <ele>487.9</ele>
        <time>2025-11-25T12:20:59.494Z</time>
      </trkpt>
      <trkpt lat="45.47704" lon="4.41531">
        <ele>488</ele>
      </trkpt>
      <trkpt lat="45.47704" lon="4.41523">
        <ele>488.1</ele>
      </trkpt>
      <trkpt lat="45.47703" lon="4.41516">
        <ele>488.1</ele>
      </trkpt>
      <trkpt lat="45.47702" lon="4.41508">
        <ele>488.2</ele>
        <time>2025-11-25T12:21:10.127Z</time>
      </trkpt>
      <trkpt lat="45.47701" lon="4.41499">
        <ele>488.1</ele>
        <time>2025-11-25T12:21:13.324Z</time>
      </trkpt>
      <trkpt lat="45.47701" lon="4.4149">
        <ele>487.8</ele>
        <time>2025-11-25T12:21:16.482Z</time>
      </trkpt>
      <trkpt lat="45.47702" lon="4.41478">
        <ele>487.6</ele>
        <time>2025-11-25T12:21:20.722Z</time>
      </trkpt>
      <trkpt lat="45.47702" lon="4.41466">
        <ele>487.2</ele>
      </trkpt>
      <trkpt lat="45.47702" lon="4.41454">
        <ele>487</ele>
        <time>2025-11-25T12:21:29.143Z</time>
      </trkpt>
      <trkpt lat="45.47703" lon="4.41446">
        <ele>486.9</ele>
      </trkpt>
      <trkpt lat="45.47703" lon="4.41439">
        <ele>486.7</ele>
      </trkpt>
      <trkpt lat="45.47704" lon="4.41431">
        <ele>486.5</ele>
      </trkpt>
      <trkpt lat="45.47704" lon="4.41423">
        <ele>486.3</ele>
        <time>2025-11-25T12:21:40.066Z</time>
      </trkpt>
      <trkpt lat="45.47705" lon="4.41411">
        <ele>485.9</ele>
      </trkpt>
      <trkpt lat="45.47706" lon="4.41399">
        <ele>485.6</ele>
      </trkpt>
      <trkpt lat="45.47707" lon="4.41387">
        <ele>485.3</ele>
      </trkpt>
      <trkpt lat="45.47708" lon="4.41375">
        <ele>485.2</ele>
        <time>2025-11-25T12:21:57.027Z</time>
      </trkpt>
      <trkpt lat="45.47709" lon="4.41365">
        <ele>485.1</ele>
      </trkpt>
      <trkpt lat="45.4771" lon="4.41354">
        <ele>484.9</ele>
        <time>2025-11-25T12:22:04.463Z</time>
      </trkpt>
      <trkpt lat="45.47711" lon="4.41347">
        <ele>484.7</ele>
      </trkpt>
      <trkpt lat="45.47712" lon="4.41341">
        <ele>484.5</ele>
      </trkpt>
      <trkpt lat="45.47712" lon="4.41334">
        <ele>484.3</ele>
      </trkpt>
      <trkpt lat="45.47713" lon="4.41328">
        <ele>484.4</ele>
      </trkpt>
      <trkpt lat="45.47714" lon="4.41321">
        <ele>484.5</ele>
      </trkpt>
      <trkpt lat="45.47715" lon="4.41314">
        <ele>484.6</ele>
      </trkpt>
      <trkpt lat="45.47715" lon="4.41308">
        <ele>484.7</ele>
      </trkpt>
      <trkpt lat="45.47716" lon="4.41301">
        <ele>484.6</ele>
        <time>2025-11-25T12:22:23.301Z</time>
      </trkpt>
      <trkpt lat="45.47718" lon="4.41295">
        <ele>484.5</ele>
      </trkpt>
      <trkpt lat="45.47721" lon="4.41289">
        <ele>484.4</ele>
      </trkpt>
      <trkpt lat="45.47723" lon="4.41283">
        <ele>484.2</ele>
      </trkpt>
      <trkpt lat="45.47725" lon="4.41277">
        <ele>484.2</ele>
        <time>2025-11-25T12:22:32.851Z</time>
      </trkpt>
      <trkpt lat="45.47725" lon="4.41277">
        <ele>484.2</ele>
        <time>2025-11-25T12:22:32.931Z</time>
      </trkpt>
      <trkpt lat="45.47726" lon="4.41275">
        <ele>484.3</ele>
        <time>2025-11-25T12:22:33.712Z</time>
      </trkpt>
      <trkpt lat="45.47727" lon="4.41275">
        <ele>484.3</ele>
        <time>2025-11-25T12:22:34.212Z</time>
      </trkpt>
      <trkpt lat="45.47728" lon="4.41274">
        <ele>484.4</ele>
        <time>2025-11-25T12:22:34.823Z</time>
      </trkpt>
      <trkpt lat="45.47728" lon="4.41273">
        <ele>484.4</ele>
        <time>2025-11-25T12:22:35.173Z</time>
      </trkpt>
      <trkpt lat="45.47729" lon="4.41272">
        <ele>484.4</ele>
        <time>2025-11-25T12:22:35.784Z</time>
      </trkpt>
      <trkpt lat="45.47729" lon="4.41271">
        <ele>484.4</ele>
        <time>2025-11-25T12:22:36.134Z</time>
      </trkpt>
      <trkpt lat="45.4773" lon="4.4127">
        <ele>484.5</ele>
        <time>2025-11-25T12:22:36.745Z</time>
      </trkpt>
      <trkpt lat="45.4773" lon="4.41269">
        <ele>484.5</ele>
        <time>2025-11-25T12:22:37.095Z</time>
      </trkpt>
      <trkpt lat="45.47731" lon="4.41267">
        <ele>484.5</ele>
        <time>2025-11-25T12:22:37.956Z</time>
      </trkpt>
      <trkpt lat="45.47731" lon="4.41265">
        <ele>484.5</ele>
        <time>2025-11-25T12:22:38.657Z</time>
      </trkpt>
      <trkpt lat="45.47731" lon="4.41264">
        <ele>484.5</ele>
        <time>2025-11-25T12:22:39.007Z</time>
      </trkpt>
      <trkpt lat="45.47731" lon="4.41263">
        <ele>484.5</ele>
        <time>2025-11-25T12:22:39.357Z</time>
      </trkpt>
      <trkpt lat="45.47732" lon="4.41262">
        <ele>484.5</ele>
        <time>2025-11-25T12:22:39.968Z</time>
      </trkpt>
      <trkpt lat="45.47732" lon="4.4126">
        <ele>484.5</ele>
        <time>2025-11-25T12:22:40.669Z</time>
      </trkpt>
      <trkpt lat="45.47732" lon="4.41259">
        <ele>484.5</ele>
        <time>2025-11-25T12:22:41.019Z</time>
      </trkpt>
      <trkpt lat="45.47732" lon="4.41258">
        <ele>484.5</ele>
        <time>2025-11-25T12:22:41.369Z</time>
      </trkpt>
      <trkpt lat="45.47731" lon="4.41257">
        <ele>484.4</ele>
        <time>2025-11-25T12:22:41.980Z</time>
      </trkpt>
      <trkpt lat="45.47731" lon="4.41255">
        <ele>484.4</ele>
        <time>2025-11-25T12:22:42.681Z</time>
      </trkpt>
      <trkpt lat="45.47731" lon="4.41254">
        <ele>484.4</ele>
        <time>2025-11-25T12:22:43.031Z</time>
      </trkpt>
      <trkpt lat="45.47731" lon="4.41253">
        <ele>484.4</ele>
        <time>2025-11-25T12:22:43.381Z</time>
      </trkpt>
      <trkpt lat="45.47731" lon="4.41252">
        <ele>484.3</ele>
        <time>2025-11-25T12:22:43.731Z</time>
      </trkpt>
      <trkpt lat="45.4773" lon="4.41251">
        <ele>484.3</ele>
        <time>2025-11-25T12:22:44.342Z</time>
      </trkpt>
      <trkpt lat="45.4773" lon="4.41249">
        <ele>484.3</ele>
        <time>2025-11-25T12:22:45.043Z</time>
      </trkpt>
      <trkpt lat="45.47729" lon="4.41248">
        <ele>484.2</ele>
        <time>2025-11-25T12:22:45.654Z</time>
      </trkpt>
      <trkpt lat="45.47729" lon="4.41247">
        <ele>484.2</ele>
        <time>2025-11-25T12:22:46.004Z</time>
      </trkpt>
      <trkpt lat="45.47728" lon="4.41246">
        <ele>484.1</ele>
        <time>2025-11-25T12:22:46.615Z</time>
      </trkpt>
      <trkpt lat="45.47727" lon="4.41245">
        <ele>484.1</ele>
        <time>2025-11-25T12:22:47.226Z</time>
      </trkpt>
      <trkpt lat="45.47727" lon="4.41244">
        <ele>484.1</ele>
        <time>2025-11-25T12:22:47.576Z</time>
      </trkpt>
      <trkpt lat="45.47726" lon="4.41243">
        <ele>484.1</ele>
        <time>2025-11-25T12:22:48.187Z</time>
      </trkpt>
      <trkpt lat="45.47725" lon="4.41242">
        <ele>484</ele>
        <time>2025-11-25T12:22:48.798Z</time>
      </trkpt>
      <trkpt lat="45.47724" lon="4.41241">
        <ele>484</ele>
        <time>2025-11-25T12:22:49.409Z</time>
      </trkpt>
      <trkpt lat="45.47723" lon="4.41241">
        <ele>484</ele>
        <time>2025-11-25T12:22:49.909Z</time>
      </trkpt>
      <trkpt lat="45.47722" lon="4.4124">
        <ele>484</ele>
        <time>2025-11-25T12:22:50.520Z</time>
      </trkpt>
      <trkpt lat="45.47721" lon="4.4124">
        <ele>484</ele>
        <time>2025-11-25T12:22:51.020Z</time>
      </trkpt>
      <trkpt lat="45.4772" lon="4.4124">
        <ele>484</ele>
        <time>2025-11-25T12:22:51.520Z</time>
      </trkpt>
      <trkpt lat="45.47719" lon="4.4124">
        <ele>484</ele>
        <time>2025-11-25T12:22:52.020Z</time>
      </trkpt>
      <trkpt lat="45.47718" lon="4.4124">
        <ele>484</ele>
        <time>2025-11-25T12:22:52.520Z</time>
      </trkpt>
      <trkpt lat="45.47717" lon="4.4124">
        <ele>484</ele>
        <time>2025-11-25T12:22:53.020Z</time>
      </trkpt>
      <trkpt lat="45.47716" lon="4.4124">
        <ele>484</ele>
        <time>2025-11-25T12:22:53.520Z</time>
      </trkpt>
      <trkpt lat="45.47715" lon="4.4124">
        <ele>484</ele>
        <time>2025-11-25T12:22:54.020Z</time>
      </trkpt>
      <trkpt lat="45.47713" lon="4.41241">
        <ele>484</ele>
        <time>2025-11-25T12:22:55.080Z</time>
      </trkpt>
      <trkpt lat="45.47712" lon="4.41241">
        <ele>484</ele>
        <time>2025-11-25T12:22:55.580Z</time>
      </trkpt>
      <trkpt lat="45.47711" lon="4.41242">
        <ele>484</ele>
        <time>2025-11-25T12:22:56.191Z</time>
      </trkpt>
      <trkpt lat="45.4771" lon="4.41243">
        <ele>484</ele>
        <time>2025-11-25T12:22:56.802Z</time>
      </trkpt>
      <trkpt lat="45.47709" lon="4.41244">
        <ele>484</ele>
        <time>2025-11-25T12:22:57.413Z</time>
      </trkpt>
      <trkpt lat="45.47708" lon="4.41245">
        <ele>484</ele>
        <time>2025-11-25T12:22:58.024Z</time>
      </trkpt>
      <trkpt lat="45.47703" lon="4.41245">
        <ele>484</ele>
        <time>2025-11-25T12:23:00.526Z</time>
      </trkpt>
      <trkpt lat="45.47698" lon="4.41243">
        <ele>484</ele>
        <time>2025-11-25T12:23:03.124Z</time>
      </trkpt>
      <trkpt lat="45.47692" lon="4.41243">
        <ele>483.7</ele>
        <time>2025-11-25T12:23:06.126Z</time>
      </trkpt>
      <trkpt lat="45.47687" lon="4.41243">
        <ele>483</ele>
      </trkpt>
      <trkpt lat="45.47682" lon="4.41243">
        <ele>482.3</ele>
        <time>2025-11-25T12:23:11.130Z</time>
      </trkpt>
      <trkpt lat="45.47677" lon="4.41235">
        <ele>481.8</ele>
      </trkpt>
      <trkpt lat="45.47672" lon="4.41226">
        <ele>481.5</ele>
        <time>2025-11-25T12:23:18.916Z</time>
      </trkpt>
      <trkpt lat="45.4767" lon="4.41217">
        <ele>481.3</ele>
      </trkpt>
      <trkpt lat="45.47667" lon="4.41207">
        <ele>481</ele>
        <time>2025-11-25T12:23:26.037Z</time>
      </trkpt>
      <trkpt lat="45.47665" lon="4.412">
        <ele>480.7</ele>
      </trkpt>
      <trkpt lat="45.47663" lon="4.41194">
        <ele>480.4</ele>
      </trkpt>
      <trkpt lat="45.4766" lon="4.41187">
        <ele>480.3</ele>
      </trkpt>
      <trkpt lat="45.47658" lon="4.4118">
        <ele>480.1</ele>
        <time>2025-11-25T12:23:36.527Z</time>
      </trkpt>
      <trkpt lat="45.47656" lon="4.41174">
        <ele>479.9</ele>
      </trkpt>
      <trkpt lat="45.47654" lon="4.41167">
        <ele>479.7</ele>
        <time>2025-11-25T12:23:41.508Z</time>
      </trkpt>
      <trkpt lat="45.4765" lon="4.41157">
        <ele>479.3</ele>
        <time>2025-11-25T12:23:45.547Z</time>
      </trkpt>
      <trkpt lat="45.47647" lon="4.4115">
        <ele>479.1</ele>
        <time>2025-11-25T12:23:48.425Z</time>
      </trkpt>
      <trkpt lat="45.47642" lon="4.41141">
        <ele>479.1</ele>
        <time>2025-11-25T12:23:52.454Z</time>
      </trkpt>
      <trkpt lat="45.47644" lon="4.41138">
        <ele>479.4</ele>
        <time>2025-11-25T12:23:53.892Z</time>
      </trkpt>
      <trkpt lat="45.47641" lon="4.41133">
        <ele>479.1</ele>
      </trkpt>
      <trkpt lat="45.47638" lon="4.41128">
        <ele>478.9</ele>
        <time>2025-11-25T12:23:58.773Z</time>
      </trkpt>
      <trkpt lat="45.47634" lon="4.41124">
        <ele>478.7</ele>
      </trkpt>
      <trkpt lat="45.4763" lon="4.4112">
        <ele>478.5</ele>
      </trkpt>
      <trkpt lat="45.47626" lon="4.41115">
        <ele>478.4</ele>
      </trkpt>
      <trkpt lat="45.47622" lon="4.41111">
        <ele>478.4</ele>
        <time>2025-11-25T12:24:08.757Z</time>
      </trkpt>
      <trkpt lat="45.47616" lon="4.41109">
        <ele>478</ele>
      </trkpt>
      <trkpt lat="45.4761" lon="4.41107">
        <ele>477.6</ele>
      </trkpt>
      <trkpt lat="45.47604" lon="4.41104">
        <ele>477.1</ele>
      </trkpt>
      <trkpt lat="45.47598" lon="4.41102">
        <ele>476.6</ele>
        <time>2025-11-25T12:24:20.828Z</time>
      </trkpt>
      <trkpt lat="45.47591" lon="4.41102">
        <ele>476.2</ele>
      </trkpt>
      <trkpt lat="45.47585" lon="4.41103">
        <ele>475.8</ele>
      </trkpt>
      <trkpt lat="45.47578" lon="4.41103">
        <ele>475.6</ele>
      </trkpt>
      <trkpt lat="45.47571" lon="4.41103">
        <ele>475.6</ele>
        <time>2025-11-25T12:24:34.596Z</time>
      </trkpt>
      <trkpt lat="45.47566" lon="4.41105">
        <ele>475.6</ele>
      </trkpt>
      <trkpt lat="45.47561" lon="4.41107">
        <ele>475.7</ele>
      </trkpt>
      <trkpt lat="45.47556" lon="4.41108">
        <ele>475.8</ele>
      </trkpt>
      <trkpt lat="45.47551" lon="4.4111">
        <ele>476.1</ele>
        <time>2025-11-25T12:24:44.812Z</time>
      </trkpt>
      <trkpt lat="45.47547" lon="4.41111">
        <ele>476.3</ele>
      </trkpt>
      <trkpt lat="45.47542" lon="4.41113">
        <ele>476.5</ele>
      </trkpt>
      <trkpt lat="45.47538" lon="4.41114">
        <ele>476.7</ele>
      </trkpt>
      <trkpt lat="45.47533" lon="4.41115">
        <ele>477</ele>
        <time>2025-11-25T12:24:53.859Z</time>
      </trkpt>
      <trkpt lat="45.47526" lon="4.41117">
        <ele>477.5</ele>
        <time>2025-11-25T12:24:57.874Z</time>
      </trkpt>
      <trkpt lat="45.47521" lon="4.41119">
        <ele>477.9</ele>
        <time>2025-11-25T12:25:00.312Z</time>
      </trkpt>
      <trkpt lat="45.47515" lon="4.41121">
        <ele>478.6</ele>
      </trkpt>
      <trkpt lat="45.4751" lon="4.41124">
        <ele>479.4</ele>
      </trkpt>
      <trkpt lat="45.47504" lon="4.41126">
        <ele>480.4</ele>
      </trkpt>
      <trkpt lat="45.47499" lon="4.41129">
        <ele>481.2</ele>
      </trkpt>
      <trkpt lat="45.47493" lon="4.41131">
        <ele>481</ele>
      </trkpt>
      <trkpt lat="45.47487" lon="4.41133">
        <ele>480.6</ele>
      </trkpt>
      <trkpt lat="45.47482" lon="4.41136">
        <ele>479.8</ele>
      </trkpt>
      <trkpt lat="45.47476" lon="4.41138">
        <ele>478.8</ele>
        <time>2025-11-25T12:25:23.673Z</time>
      </trkpt>
      <trkpt lat="45.47471" lon="4.41142">
        <ele>479.1</ele>
      </trkpt>
      <trkpt lat="45.47465" lon="4.41147">
        <ele>480.1</ele>
      </trkpt>
      <trkpt lat="45.4746" lon="4.41151">
        <ele>480.6</ele>
      </trkpt>
      <trkpt lat="45.47455" lon="4.41155">
        <ele>480.5</ele>
      </trkpt>
      <trkpt lat="45.47449" lon="4.41159">
        <ele>479.9</ele>
      </trkpt>
      <trkpt lat="45.47444" lon="4.41164">
        <ele>479</ele>
      </trkpt>
      <trkpt lat="45.47438" lon="4.41168">
        <ele>479.5</ele>
      </trkpt>
      <trkpt lat="45.47433" lon="4.41172">
        <ele>480.3</ele>
        <time>2025-11-25T12:25:48.337Z</time>
      </trkpt>
      <trkpt lat="45.47426" lon="4.41179">
        <ele>480.8</ele>
      </trkpt>
      <trkpt lat="45.47419" lon="4.41185">
        <ele>480.4</ele>
      </trkpt>
      <trkpt lat="45.47412" lon="4.41192">
        <ele>480.2</ele>
      </trkpt>
      <trkpt lat="45.47405" lon="4.41199">
        <ele>481.2</ele>
      </trkpt>
      <trkpt lat="45.47398" lon="4.41205">
        <ele>482.1</ele>
      </trkpt>
      <trkpt lat="45.47391" lon="4.41212">
        <ele>481.9</ele>
      </trkpt>
      <trkpt lat="45.47384" lon="4.41218">
        <ele>481.7</ele>
      </trkpt>
      <trkpt lat="45.47377" lon="4.41225">
        <ele>482.4</ele>
        <time>2025-11-25T12:26:21.671Z</time>
      </trkpt>
      <trkpt lat="45.4737" lon="4.41228">
        <ele>482.8</ele>
      </trkpt>
      <trkpt lat="45.47362" lon="4.4123">
        <ele>483</ele>
      </trkpt>
      <trkpt lat="45.47355" lon="4.41233">
        <ele>483.4</ele>
      </trkpt>
      <trkpt lat="45.47347" lon="4.41235">
        <ele>483.8</ele>
        <time>2025-11-25T12:26:37.309Z</time>
      </trkpt>
      <trkpt lat="45.4734" lon="4.41236">
        <ele>483.6</ele>
      </trkpt>
      <trkpt lat="45.47332" lon="4.41236">
        <ele>483.6</ele>
      </trkpt>
      <trkpt lat="45.47325" lon="4.41237">
        <ele>483.7</ele>
      </trkpt>
      <trkpt lat="45.47318" lon="4.41238">
        <ele>483.7</ele>
      </trkpt>
      <trkpt lat="45.4731" lon="4.41238">
        <ele>483.8</ele>
      </trkpt>
      <trkpt lat="45.47303" lon="4.41239">
        <ele>483.8</ele>
      </trkpt>
      <trkpt lat="45.47296" lon="4.4124">
        <ele>483.7</ele>
      </trkpt>
      <trkpt lat="45.47289" lon="4.41241">
        <ele>483.6</ele>
      </trkpt>
      <trkpt lat="45.47281" lon="4.41241">
        <ele>483.5</ele>
      </trkpt>
      <trkpt lat="45.47274" lon="4.41242">
        <ele>483.4</ele>
      </trkpt>
      <trkpt lat="45.47267" lon="4.41243">
        <ele>483.3</ele>
      </trkpt>
      <trkpt lat="45.47259" lon="4.41243">
        <ele>483.2</ele>
      </trkpt>
      <trkpt lat="45.47252" lon="4.41244">
        <ele>483</ele>
      </trkpt>
      <trkpt lat="45.47245" lon="4.41245">
        <ele>483</ele>
      </trkpt>
      <trkpt lat="45.47237" lon="4.41245">
        <ele>483</ele>
      </trkpt>
      <trkpt lat="45.4723" lon="4.41246">
        <ele>483</ele>
        <time>2025-11-25T12:27:36.233Z</time>
      </trkpt>
      <trkpt lat="45.47225" lon="4.41246">
        <ele>483</ele>
      </trkpt>
      <trkpt lat="45.47221" lon="4.41247">
        <ele>483</ele>
      </trkpt>
      <trkpt lat="45.47216" lon="4.41247">
        <ele>483</ele>
      </trkpt>
      <trkpt lat="45.47211" lon="4.41247">
        <ele>483</ele>
      </trkpt>
      <trkpt lat="45.47207" lon="4.41248">
        <ele>483</ele>
      </trkpt>
      <trkpt lat="45.47202" lon="4.41248">
        <ele>483</ele>
      </trkpt>
      <trkpt lat="45.47197" lon="4.41248">
        <ele>483</ele>
      </trkpt>
      <trkpt lat="45.47193" lon="4.41249">
        <ele>483.1</ele>
      </trkpt>
      <trkpt lat="45.47188" lon="4.41249">
        <ele>483.2</ele>
      </trkpt>
      <trkpt lat="45.47183" lon="4.41249">
        <ele>483.4</ele>
      </trkpt>
      <trkpt lat="45.47178" lon="4.41249">
        <ele>483.5</ele>
      </trkpt>
      <trkpt lat="45.47174" lon="4.4125">
        <ele>483.7</ele>
      </trkpt>
      <trkpt lat="45.47169" lon="4.4125">
        <ele>483.9</ele>
      </trkpt>
      <trkpt lat="45.47164" lon="4.4125">
        <ele>484.2</ele>
      </trkpt>
      <trkpt lat="45.4716" lon="4.41251">
        <ele>484.4</ele>
      </trkpt>
      <trkpt lat="45.47155" lon="4.41251">
        <ele>484.7</ele>
        <time>2025-11-25T12:28:13.854Z</time>
      </trkpt>
      <trkpt lat="45.4715" lon="4.41251">
        <ele>484.8</ele>
      </trkpt>
      <trkpt lat="45.47144" lon="4.41251">
        <ele>485</ele>
      </trkpt>
      <trkpt lat="45.47139" lon="4.4125">
        <ele>485.1</ele>
      </trkpt>
      <trkpt lat="45.47133" lon="4.4125">
        <ele>485.1</ele>
      </trkpt>
      <trkpt lat="45.47128" lon="4.4125">
        <ele>485</ele>
      </trkpt>
      <trkpt lat="45.47122" lon="4.4125">
        <ele>485</ele>
      </trkpt>
      <trkpt lat="45.47117" lon="4.4125">
        <ele>485</ele>
      </trkpt>
      <trkpt lat="45.47112" lon="4.4125">
        <ele>484.9</ele>
      </trkpt>
      <trkpt lat="45.47106" lon="4.41249">
        <ele>485.1</ele>
      </trkpt>
      <trkpt lat="45.47101" lon="4.41249">
        <ele>485.2</ele>
      </trkpt>
      <trkpt lat="45.47095" lon="4.41249">
        <ele>485.4</ele>
      </trkpt>
      <trkpt lat="45.4709" lon="4.41249">
        <ele>485.6</ele>
      </trkpt>
      <trkpt lat="45.47084" lon="4.41249">
        <ele>485.7</ele>
      </trkpt>
      <trkpt lat="45.47079" lon="4.41248">
        <ele>485.9</ele>
      </trkpt>
      <trkpt lat="45.47073" lon="4.41248">
        <ele>486</ele>
      </trkpt>
      <trkpt lat="45.47068" lon="4.41248">
        <ele>486.2</ele>
        <time>2025-11-25T12:28:56.960Z</time>
      </trkpt>
      <trkpt lat="45.47062" lon="4.41246">
        <ele>486</ele>
      </trkpt>
      <trkpt lat="45.47055" lon="4.41243">
        <ele>485.8</ele>
      </trkpt>
      <trkpt lat="45.47049" lon="4.41241">
        <ele>486</ele>
      </trkpt>
      <trkpt lat="45.47043" lon="4.41238">
        <ele>486.3</ele>
      </trkpt>
      <trkpt lat="45.47036" lon="4.41236">
        <ele>486.5</ele>
      </trkpt>
      <trkpt lat="45.4703" lon="4.41233">
        <ele>486.7</ele>
      </trkpt>
      <trkpt lat="45.47023" lon="4.41231">
        <ele>487</ele>
      </trkpt>
      <trkpt lat="45.47017" lon="4.41228">
        <ele>487.2</ele>
        <time>2025-11-25T12:29:23.444Z</time>
      </trkpt>
      <trkpt lat="45.47012" lon="4.41225">
        <ele>487.2</ele>
      </trkpt>
      <trkpt lat="45.47006" lon="4.41222">
        <ele>487.3</ele>
      </trkpt>
      <trkpt lat="45.47001" lon="4.41219">
        <ele>487.2</ele>
      </trkpt>
      <trkpt lat="45.46995" lon="4.41216">
        <ele>487</ele>
      </trkpt>
      <trkpt lat="45.4699" lon="4.41212">
        <ele>486.8</ele>
      </trkpt>
      <trkpt lat="45.46984" lon="4.41209">
        <ele>486.6</ele>
      </trkpt>
      <trkpt lat="45.46979" lon="4.41206">
        <ele>486.5</ele>
      </trkpt>
      <trkpt lat="45.46973" lon="4.41203">
        <ele>486.5</ele>
        <time>2025-11-25T12:29:47.438Z</time>
      </trkpt>
      <trkpt lat="45.46969" lon="4.41201">
        <ele>486.5</ele>
      </trkpt>
      <trkpt lat="45.46964" lon="4.412">
        <ele>486.6</ele>
      </trkpt>
      <trkpt lat="45.4696" lon="4.41198">
        <ele>486.6</ele>
      </trkpt>
      <trkpt lat="45.46956" lon="4.41197">
        <ele>486.6</ele>
      </trkpt>
      <trkpt lat="45.46951" lon="4.41195">
        <ele>486.6</ele>
      </trkpt>
      <trkpt lat="45.46947" lon="4.41193">
        <ele>486.9</ele>
      </trkpt>
      <trkpt lat="45.46942" lon="4.41192">
        <ele>487.2</ele>
      </trkpt>
      <trkpt lat="45.46938" lon="4.4119">
        <ele>487.3</ele>
        <time>2025-11-25T12:30:05.198Z</time>
      </trkpt>
      <trkpt lat="45.46933" lon="4.41189">
        <ele>487.4</ele>
      </trkpt>
      <trkpt lat="45.46928" lon="4.41189">
        <ele>487.6</ele>
      </trkpt>
      <trkpt lat="45.46923" lon="4.41188">
        <ele>487.6</ele>
      </trkpt>
      <trkpt lat="45.46919" lon="4.41188">
        <ele>487.7</ele>
      </trkpt>
      <trkpt lat="45.46914" lon="4.41187">
        <ele>487.8</ele>
      </trkpt>
      <trkpt lat="45.46909" lon="4.41186">
        <ele>487.9</ele>
      </trkpt>
      <trkpt lat="45.46904" lon="4.41186">
        <ele>488</ele>
      </trkpt>
      <trkpt lat="45.46899" lon="4.41185">
        <ele>488.1</ele>
        <time>2025-11-25T12:30:25.069Z</time>
      </trkpt>
      <trkpt lat="45.46894" lon="4.41185">
        <ele>488.2</ele>
      </trkpt>
      <trkpt lat="45.4689" lon="4.41185">
        <ele>488.3</ele>
      </trkpt>
      <trkpt lat="45.46885" lon="4.41185">
        <ele>488.3</ele>
      </trkpt>
      <trkpt lat="45.46881" lon="4.41185">
        <ele>488.3</ele>
      </trkpt>
      <trkpt lat="45.46876" lon="4.41185">
        <ele>488.3</ele>
      </trkpt>
      <trkpt lat="45.46871" lon="4.41185">
        <ele>488.3</ele>
      </trkpt>
      <trkpt lat="45.46867" lon="4.41185">
        <ele>488.3</ele>
      </trkpt>
      <trkpt lat="45.46862" lon="4.41185">
        <ele>488.3</ele>
        <time>2025-11-25T12:30:43.285Z</time>
      </trkpt>
      <trkpt lat="45.46857" lon="4.41186">
        <ele>488.3</ele>
      </trkpt>
      <trkpt lat="45.46852" lon="4.41186">
        <ele>488.2</ele>
      </trkpt>
      <trkpt lat="45.46846" lon="4.41187">
        <ele>488.2</ele>
      </trkpt>
      <trkpt lat="45.46841" lon="4.41188">
        <ele>488.1</ele>
      </trkpt>
      <trkpt lat="45.46836" lon="4.41188">
        <ele>488.1</ele>
      </trkpt>
      <trkpt lat="45.46831" lon="4.41189">
        <ele>488.1</ele>
      </trkpt>
      <trkpt lat="45.46825" lon="4.41189">
        <ele>488.1</ele>
      </trkpt>
      <trkpt lat="45.4682" lon="4.4119">
        <ele>488.1</ele>
        <time>2025-11-25T12:31:04.614Z</time>
      </trkpt>
      <trkpt lat="45.46813" lon="4.41191">
        <ele>488</ele>
      </trkpt>
      <trkpt lat="45.46805" lon="4.41192">
        <ele>487.9</ele>
      </trkpt>
      <trkpt lat="45.46798" lon="4.41193">
        <ele>487.9</ele>
      </trkpt>
      <trkpt lat="45.4679" lon="4.41194">
        <ele>488</ele>
        <time>2025-11-25T12:31:19.656Z</time>
      </trkpt>
      <trkpt lat="45.46784" lon="4.41195">
        <ele>488</ele>
      </trkpt>
      <trkpt lat="45.46777" lon="4.41195">
        <ele>488.1</ele>
        <time>2025-11-25T12:31:26.320Z</time>
      </trkpt>
      <trkpt lat="45.4677" lon="4.41195">
        <ele>488</ele>
      </trkpt>
      <trkpt lat="45.46764" lon="4.41194">
        <ele>488</ele>
      </trkpt>
      <trkpt lat="45.46757" lon="4.41194">
        <ele>488</ele>
      </trkpt>
      <trkpt lat="45.46751" lon="4.41194">
        <ele>488</ele>
      </trkpt>
      <trkpt lat="45.46744" lon="4.41193">
        <ele>488</ele>
      </trkpt>
      <trkpt lat="45.46737" lon="4.41193">
        <ele>488</ele>
      </trkpt>
      <trkpt lat="45.46731" lon="4.41192">
        <ele>488</ele>
      </trkpt>
      <trkpt lat="45.46724" lon="4.41192">
        <ele>488</ele>
        <time>2025-11-25T12:31:52.713Z</time>
      </trkpt>
      <trkpt lat="45.46719" lon="4.4119">
        <ele>488.1</ele>
      </trkpt>
      <trkpt lat="45.46714" lon="4.41188">
        <ele>488.2</ele>
      </trkpt>
      <trkpt lat="45.46709" lon="4.41186">
        <ele>488.3</ele>
      </trkpt>
      <trkpt lat="45.46704" lon="4.41184">
        <ele>488.4</ele>
        <time>2025-11-25T12:32:03.321Z</time>
      </trkpt>
      <trkpt lat="45.46696" lon="4.4118">
        <ele>488.5</ele>
        <time>2025-11-25T12:32:07.128Z</time>
      </trkpt>
      <trkpt lat="45.46691" lon="4.41178">
        <ele>488.5</ele>
      </trkpt>
      <trkpt lat="45.46686" lon="4.41175">
        <ele>488.5</ele>
      </trkpt>
      <trkpt lat="45.46681" lon="4.41173">
        <ele>488.6</ele>
      </trkpt>
      <trkpt lat="45.46676" lon="4.4117">
        <ele>488.7</ele>
      </trkpt>
      <trkpt lat="45.4667" lon="4.41168">
        <ele>488.9</ele>
      </trkpt>
      <trkpt lat="45.46665" lon="4.41165">
        <ele>489.1</ele>
      </trkpt>
      <trkpt lat="45.4666" lon="4.41163">
        <ele>489.2</ele>
      </trkpt>
      <trkpt lat="45.46655" lon="4.4116">
        <ele>489.2</ele>
      </trkpt>
      <trkpt lat="45.4665" lon="4.41158">
        <ele>489.3</ele>
      </trkpt>
      <trkpt lat="45.46645" lon="4.41155">
        <ele>489.4</ele>
      </trkpt>
      <trkpt lat="45.4664" lon="4.41153">
        <ele>489.5</ele>
      </trkpt>
      <trkpt lat="45.46635" lon="4.4115">
        <ele>489.6</ele>
      </trkpt>
      <trkpt lat="45.46629" lon="4.41148">
        <ele>489.7</ele>
      </trkpt>
      <trkpt lat="45.46624" lon="4.41145">
        <ele>489.8</ele>
      </trkpt>
      <trkpt lat="45.46619" lon="4.41143">
        <ele>489.9</ele>
      </trkpt>
      <trkpt lat="45.46614" lon="4.4114">
        <ele>490</ele>
        <time>2025-11-25T12:32:50.945Z</time>
      </trkpt>
      <trkpt lat="45.46608" lon="4.4114">
        <ele>490</ele>
      </trkpt>
      <trkpt lat="45.46601" lon="4.41139">
        <ele>490</ele>
        <time>2025-11-25T12:32:57.112Z</time>
      </trkpt>
      <trkpt lat="45.46597" lon="4.41138">
        <ele>490.1</ele>
      </trkpt>
      <trkpt lat="45.46592" lon="4.41138">
        <ele>490.1</ele>
      </trkpt>
      <trkpt lat="45.46588" lon="4.41137">
        <ele>490.2</ele>
      </trkpt>
      <trkpt lat="45.46583" lon="4.41136">
        <ele>490.2</ele>
      </trkpt>
      <trkpt lat="45.46579" lon="4.41135">
        <ele>490.4</ele>
      </trkpt>
      <trkpt lat="45.46574" lon="4.41135">
        <ele>490.6</ele>
      </trkpt>
      <trkpt lat="45.4657" lon="4.41134">
        <ele>490.8</ele>
      </trkpt>
      <trkpt lat="45.46565" lon="4.41133">
        <ele>490.9</ele>
        <time>2025-11-25T12:33:15.234Z</time>
      </trkpt>
      <trkpt lat="45.4656" lon="4.41132">
        <ele>491.2</ele>
      </trkpt>
      <trkpt lat="45.46554" lon="4.4113">
        <ele>491.3</ele>
        <time>2025-11-25T12:33:20.825Z</time>
      </trkpt>
      <trkpt lat="45.46549" lon="4.41129">
        <ele>491.4</ele>
      </trkpt>
      <trkpt lat="45.46543" lon="4.41128">
        <ele>491.4</ele>
        <time>2025-11-25T12:33:26.393Z</time>
      </trkpt>
      <trkpt lat="45.46536" lon="4.41127">
        <ele>491.4</ele>
      </trkpt>
      <trkpt lat="45.46528" lon="4.41125">
        <ele>491.5</ele>
        <time>2025-11-25T12:33:34.389Z</time>
      </trkpt>
      <trkpt lat="45.46524" lon="4.41123">
        <ele>491.6</ele>
      </trkpt>
      <trkpt lat="45.46519" lon="4.41122">
        <ele>491.6</ele>
      </trkpt>
      <trkpt lat="45.46515" lon="4.4112">
        <ele>491.7</ele>
      </trkpt>
      <trkpt lat="45.4651" lon="4.41119">
        <ele>491.7</ele>
      </trkpt>
      <trkpt lat="45.46506" lon="4.41117">
        <ele>491.8</ele>
      </trkpt>
      <trkpt lat="45.46501" lon="4.41115">
        <ele>491.8</ele>
      </trkpt>
      <trkpt lat="45.46497" lon="4.41114">
        <ele>491.9</ele>
      </trkpt>
      <trkpt lat="45.46492" lon="4.41112">
        <ele>492</ele>
        <time>2025-11-25T12:33:52.810Z</time>
      </trkpt>
      <trkpt lat="45.46485" lon="4.41109">
        <ele>492</ele>
      </trkpt>
      <trkpt lat="45.46478" lon="4.41106">
        <ele>492</ele>
      </trkpt>
      <trkpt lat="45.46471" lon="4.41103">
        <ele>492</ele>
      </trkpt>
      <trkpt lat="45.46464" lon="4.41101">
        <ele>492</ele>
      </trkpt>
      <trkpt lat="45.46457" lon="4.41098">
        <ele>492</ele>
      </trkpt>
      <trkpt lat="45.4645" lon="4.41095">
        <ele>492</ele>
      </trkpt>
      <trkpt lat="45.46443" lon="4.41092">
        <ele>492</ele>
      </trkpt>
      <trkpt lat="45.46436" lon="4.41089">
        <ele>492</ele>
        <time>2025-11-25T12:34:21.617Z</time>
      </trkpt>
      <trkpt lat="45.4643" lon="4.41087">
        <ele>492</ele>
      </trkpt>
      <trkpt lat="45.46425" lon="4.41085">
        <ele>492</ele>
      </trkpt>
      <trkpt lat="45.46419" lon="4.41083">
        <ele>492</ele>
      </trkpt>
      <trkpt lat="45.46413" lon="4.41081">
        <ele>492.1</ele>
        <time>2025-11-25T12:34:33.789Z</time>
      </trkpt>
      <trkpt lat="45.46405" lon="4.41078">
        <ele>492.4</ele>
      </trkpt>
      <trkpt lat="45.46396" lon="4.41075">
        <ele>492.7</ele>
        <time>2025-11-25T12:34:42.350Z</time>
      </trkpt>
      <trkpt lat="45.46391" lon="4.41073">
        <ele>492.9</ele>
      </trkpt>
      <trkpt lat="45.46385" lon="4.41071">
        <ele>493</ele>
      </trkpt>
      <trkpt lat="45.4638" lon="4.41068">
        <ele>493</ele>
      </trkpt>
      <trkpt lat="45.46374" lon="4.41066">
        <ele>493</ele>
        <time>2025-11-25T12:34:53.919Z</time>
      </trkpt>
      <trkpt lat="45.46366" lon="4.41063">
        <ele>493</ele>
      </trkpt>
      <trkpt lat="45.46357" lon="4.4106">
        <ele>493.2</ele>
        <time>2025-11-25T12:35:02.617Z</time>
      </trkpt>
      <trkpt lat="45.46351" lon="4.41057">
        <ele>493.4</ele>
      </trkpt>
      <trkpt lat="45.46345" lon="4.41054">
        <ele>493.6</ele>
      </trkpt>
      <trkpt lat="45.46339" lon="4.41051">
        <ele>493.8</ele>
      </trkpt>
      <trkpt lat="45.46333" lon="4.41048">
        <ele>494</ele>
        <time>2025-11-25T12:35:15.391Z</time>
      </trkpt>
      <trkpt lat="45.46327" lon="4.41045">
        <ele>494</ele>
      </trkpt>
      <trkpt lat="45.46321" lon="4.41042">
        <ele>494</ele>
      </trkpt>
      <trkpt lat="45.46315" lon="4.41039">
        <ele>494</ele>
      </trkpt>
      <trkpt lat="45.46309" lon="4.41036">
        <ele>494</ele>
        <time>2025-11-25T12:35:28.366Z</time>
      </trkpt>
      <trkpt lat="45.46303" lon="4.41034">
        <ele>494.1</ele>
      </trkpt>
      <trkpt lat="45.46297" lon="4.41031">
        <ele>494.4</ele>
      </trkpt>
      <trkpt lat="45.46291" lon="4.41029">
        <ele>494.6</ele>
      </trkpt>
      <trkpt lat="45.46285" lon="4.41027">
        <ele>494.9</ele>
      </trkpt>
      <trkpt lat="45.46279" lon="4.41024">
        <ele>495.5</ele>
      </trkpt>
      <trkpt lat="45.46273" lon="4.41022">
        <ele>495.7</ele>
      </trkpt>
      <trkpt lat="45.46267" lon="4.41019">
        <ele>495.7</ele>
      </trkpt>
      <trkpt lat="45.46261" lon="4.41017">
        <ele>495.6</ele>
        <time>2025-11-25T12:35:53.198Z</time>
      </trkpt>
      <trkpt lat="45.46255" lon="4.41015">
        <ele>495.3</ele>
      </trkpt>
      <trkpt lat="45.46248" lon="4.41012">
        <ele>495</ele>
        <time>2025-11-25T12:35:59.791Z</time>
      </trkpt>
      <trkpt lat="45.4624" lon="4.41009">
        <ele>495</ele>
      </trkpt>
      <trkpt lat="45.46232" lon="4.41005">
        <ele>495</ele>
      </trkpt>
      <trkpt lat="45.46223" lon="4.41002">
        <ele>495</ele>
      </trkpt>
      <trkpt lat="45.46215" lon="4.40998">
        <ele>495.1</ele>
        <time>2025-11-25T12:36:17.096Z</time>
      </trkpt>
      <trkpt lat="45.46209" lon="4.40996">
        <ele>495.2</ele>
      </trkpt>
      <trkpt lat="45.46204" lon="4.40993">
        <ele>495.2</ele>
      </trkpt>
      <trkpt lat="45.46198" lon="4.40991">
        <ele>495.3</ele>
      </trkpt>
      <trkpt lat="45.46192" lon="4.40989">
        <ele>495.5</ele>
      </trkpt>
      <trkpt lat="45.46187" lon="4.40986">
        <ele>495.6</ele>
      </trkpt>
      <trkpt lat="45.46181" lon="4.40984">
        <ele>495.8</ele>
      </trkpt>
      <trkpt lat="45.46175" lon="4.40982">
        <ele>495.9</ele>
      </trkpt>
      <trkpt lat="45.4617" lon="4.4098">
        <ele>496</ele>
      </trkpt>
      <trkpt lat="45.46164" lon="4.40977">
        <ele>496</ele>
      </trkpt>
      <trkpt lat="45.46158" lon="4.40975">
        <ele>496</ele>
      </trkpt>
      <trkpt lat="45.46152" lon="4.40973">
        <ele>496</ele>
      </trkpt>
      <trkpt lat="45.46147" lon="4.4097">
        <ele>496.1</ele>
      </trkpt>
      <trkpt lat="45.46141" lon="4.40968">
        <ele>496.2</ele>
      </trkpt>
      <trkpt lat="45.46135" lon="4.40966">
        <ele>496.3</ele>
      </trkpt>
      <trkpt lat="45.4613" lon="4.40963">
        <ele>496.5</ele>
      </trkpt>
      <trkpt lat="45.46124" lon="4.40961">
        <ele>496.7</ele>
        <time>2025-11-25T12:37:04.152Z</time>
      </trkpt>
      <trkpt lat="45.46119" lon="4.40959">
        <ele>496.8</ele>
      </trkpt>
      <trkpt lat="45.46114" lon="4.40958">
        <ele>497</ele>
      </trkpt>
      <trkpt lat="45.46109" lon="4.40956">
        <ele>497</ele>
      </trkpt>
      <trkpt lat="45.46104" lon="4.40955">
        <ele>496.9</ele>
      </trkpt>
      <trkpt lat="45.46098" lon="4.40953">
        <ele>496.9</ele>
      </trkpt>
      <trkpt lat="45.46093" lon="4.40951">
        <ele>496.8</ele>
      </trkpt>
      <trkpt lat="45.46088" lon="4.4095">
        <ele>496.8</ele>
      </trkpt>
      <trkpt lat="45.46083" lon="4.40948">
        <ele>496.9</ele>
        <time>2025-11-25T12:37:25.371Z</time>
      </trkpt>
      <trkpt lat="45.46078" lon="4.40946">
        <ele>497</ele>
      </trkpt>
      <trkpt lat="45.46073" lon="4.40943">
        <ele>497</ele>
      </trkpt>
      <trkpt lat="45.46068" lon="4.40941">
        <ele>497</ele>
      </trkpt>
      <trkpt lat="45.46063" lon="4.40939">
        <ele>497</ele>
      </trkpt>
      <trkpt lat="45.46057" lon="4.40936">
        <ele>497</ele>
      </trkpt>
      <trkpt lat="45.46052" lon="4.40934">
        <ele>497</ele>
      </trkpt>
      <trkpt lat="45.46047" lon="4.40931">
        <ele>497</ele>
      </trkpt>
      <trkpt lat="45.46042" lon="4.40929">
        <ele>497</ele>
        <time>2025-11-25T12:37:47.140Z</time>
      </trkpt>
      <trkpt lat="45.46037" lon="4.40927">
        <ele>497</ele>
      </trkpt>
      <trkpt lat="45.46033" lon="4.40925">
        <ele>497</ele>
      </trkpt>
      <trkpt lat="45.46028" lon="4.40922">
        <ele>497</ele>
      </trkpt>
      <trkpt lat="45.46023" lon="4.4092">
        <ele>497.1</ele>
        <time>2025-11-25T12:37:57.074Z</time>
      </trkpt>
      <trkpt lat="45.46018" lon="4.40917">
        <ele>497.4</ele>
      </trkpt>
      <trkpt lat="45.46012" lon="4.40913">
        <ele>497.6</ele>
        <time>2025-11-25T12:38:03.244Z</time>
      </trkpt>
      <trkpt lat="45.46006" lon="4.40908">
        <ele>497.8</ele>
      </trkpt>
      <trkpt lat="45.45999" lon="4.40902">
        <ele>498</ele>
        <time>2025-11-25T12:38:10.576Z</time>
      </trkpt>
      <trkpt lat="45.45994" lon="4.40897">
        <ele>497.9</ele>
      </trkpt>
      <trkpt lat="45.45989" lon="4.40891">
        <ele>498</ele>
      </trkpt>
      <trkpt lat="45.45983" lon="4.40886">
        <ele>498.1</ele>
      </trkpt>
      <trkpt lat="45.45978" lon="4.4088">
        <ele>498.3</ele>
        <time>2025-11-25T12:38:23.580Z</time>
      </trkpt>
      <trkpt lat="45.45973" lon="4.40873">
        <ele>498.6</ele>
      </trkpt>
      <trkpt lat="45.45969" lon="4.40866">
        <ele>498.6</ele>
      </trkpt>
      <trkpt lat="45.45964" lon="4.40858">
        <ele>498.4</ele>
      </trkpt>
      <trkpt lat="45.45959" lon="4.40851">
        <ele>498</ele>
        <time>2025-11-25T12:38:37.554Z</time>
      </trkpt>
      <trkpt lat="45.45956" lon="4.40846">
        <ele>497.8</ele>
      </trkpt>
      <trkpt lat="45.45952" lon="4.4084">
        <ele>497.5</ele>
      </trkpt>
      <trkpt lat="45.45949" lon="4.40835">
        <ele>497.3</ele>
      </trkpt>
      <trkpt lat="45.45945" lon="4.40829">
        <ele>497.2</ele>
        <time>2025-11-25T12:38:48.125Z</time>
      </trkpt>
      <trkpt lat="45.45939" lon="4.4082">
        <ele>497.4</ele>
        <time>2025-11-25T12:38:52.243Z</time>
      </trkpt>
      <trkpt lat="45.45936" lon="4.40814">
        <ele>497.5</ele>
      </trkpt>
      <trkpt lat="45.45933" lon="4.40807">
        <ele>497.6</ele>
        <time>2025-11-25T12:38:57.597Z</time>
      </trkpt>
      <trkpt lat="45.45935" lon="4.40799">
        <ele>497.7</ele>
        <time>2025-11-25T12:39:00.650Z</time>
      </trkpt>
      <trkpt lat="45.45934" lon="4.4079">
        <ele>497.8</ele>
        <time>2025-11-25T12:39:03.710Z</time>
      </trkpt>
      <trkpt lat="45.45932" lon="4.40782">
        <ele>497.6</ele>
        <time>2025-11-25T12:39:06.758Z</time>
      </trkpt>
      <trkpt lat="45.45928" lon="4.40775">
        <ele>497.5</ele>
        <time>2025-11-25T12:39:09.809Z</time>
      </trkpt>
      <trkpt lat="45.45923" lon="4.4077">
        <ele>497.4</ele>
        <time>2025-11-25T12:39:12.865Z</time>
      </trkpt>
      <trkpt lat="45.45918" lon="4.40767">
        <ele>497</ele>
        <time>2025-11-25T12:39:15.918Z</time>
      </trkpt>
      <trkpt lat="45.45914" lon="4.40762">
        <ele>496.9</ele>
      </trkpt>
      <trkpt lat="45.45909" lon="4.40757">
        <ele>496.9</ele>
        <time>2025-11-25T12:39:21.541Z</time>
      </trkpt>
      <trkpt lat="45.45905" lon="4.40748">
        <ele>496.7</ele>
      </trkpt>
      <trkpt lat="45.459" lon="4.40739">
        <ele>496.4</ele>
        <time>2025-11-25T12:39:29.245Z</time>
      </trkpt>
      <trkpt lat="45.45896" lon="4.40732">
        <ele>495.9</ele>
      </trkpt>
      <trkpt lat="45.45892" lon="4.40725">
        <ele>495.5</ele>
      </trkpt>
      <trkpt lat="45.45888" lon="4.40718">
        <ele>495.4</ele>
      </trkpt>
      <trkpt lat="45.45885" lon="4.40712">
        <ele>496.1</ele>
      </trkpt>
      <trkpt lat="45.45881" lon="4.40705">
        <ele>496.4</ele>
      </trkpt>
      <trkpt lat="45.45877" lon="4.40698">
        <ele>496.2</ele>
      </trkpt>
      <trkpt lat="45.45873" lon="4.40691">
        <ele>495.8</ele>
      </trkpt>
      <trkpt lat="45.45869" lon="4.40684">
        <ele>495.2</ele>
      </trkpt>
      <trkpt lat="45.45865" lon="4.40677">
        <ele>494.7</ele>
      </trkpt>
      <trkpt lat="45.45861" lon="4.4067">
        <ele>494</ele>
      </trkpt>
      <trkpt lat="45.45857" lon="4.40663">
        <ele>494.2</ele>
      </trkpt>
      <trkpt lat="45.45854" lon="4.40657">
        <ele>494.4</ele>
      </trkpt>
      <trkpt lat="45.4585" lon="4.4065">
        <ele>494.5</ele>
      </trkpt>
      <trkpt lat="45.45846" lon="4.40643">
        <ele>494.3</ele>
      </trkpt>
      <trkpt lat="45.45842" lon="4.40636">
        <ele>493.9</ele>
      </trkpt>
      <trkpt lat="45.45838" lon="4.40629">
        <ele>493.4</ele>
        <time>2025-11-25T12:40:18.805Z</time>
      </trkpt>
      <trkpt lat="45.45833" lon="4.40619">
        <ele>493</ele>
      </trkpt>
      <trkpt lat="45.45828" lon="4.40608">
        <ele>493</ele>
        <time>2025-11-25T12:40:27.799Z</time>
      </trkpt>
      <trkpt lat="45.45826" lon="4.40597">
        <ele>493</ele>
      </trkpt>
      <trkpt lat="45.45824" lon="4.40585">
        <ele>493</ele>
        <time>2025-11-25T12:40:35.865Z</time>
      </trkpt>
      <trkpt lat="45.45826" lon="4.40575">
        <ele>493</ele>
        <time>2025-11-25T12:40:39.727Z</time>
      </trkpt>
      <trkpt lat="45.45826" lon="4.40564">
        <ele>493</ele>
        <time>2025-11-25T12:40:43.593Z</time>
      </trkpt>
      <trkpt lat="45.45823" lon="4.40553">
        <ele>492.7</ele>
        <time>2025-11-25T12:40:47.469Z</time>
      </trkpt>
      <trkpt lat="45.45819" lon="4.40543">
        <ele>491.9</ele>
        <time>2025-11-25T12:40:51.579Z</time>
      </trkpt>
      <trkpt lat="45.45812" lon="4.40536">
        <ele>492.2</ele>
        <time>2025-11-25T12:40:55.686Z</time>
      </trkpt>
      <trkpt lat="45.45804" lon="4.40531">
        <ele>493.1</ele>
        <time>2025-11-25T12:41:00.320Z</time>
      </trkpt>
      <trkpt lat="45.458" lon="4.40531">
        <ele>493.2</ele>
      </trkpt>
      <trkpt lat="45.45795" lon="4.4053">
        <ele>493.4</ele>
        <time>2025-11-25T12:41:04.932Z</time>
      </trkpt>
      <trkpt lat="45.45791" lon="4.40532">
        <ele>493.5</ele>
      </trkpt>
      <trkpt lat="45.45786" lon="4.40534">
        <ele>493.7</ele>
        <time>2025-11-25T12:41:09.542Z</time>
      </trkpt>
      <trkpt lat="45.45781" lon="4.40527">
        <ele>493.8</ele>
      </trkpt>
      <trkpt lat="45.45776" lon="4.4052">
        <ele>493.7</ele>
      </trkpt>
      <trkpt lat="45.45771" lon="4.40512">
        <ele>493.7</ele>
      </trkpt>
      <trkpt lat="45.45766" lon="4.40505">
        <ele>493.9</ele>
        <time>2025-11-25T12:41:23.442Z</time>
      </trkpt>
      <trkpt lat="45.45763" lon="4.405">
        <ele>494.1</ele>
      </trkpt>
      <trkpt lat="45.4576" lon="4.40495">
        <ele>494.2</ele>
      </trkpt>
      <trkpt lat="45.45756" lon="4.40489">
        <ele>494.5</ele>
      </trkpt>
      <trkpt lat="45.45753" lon="4.40484">
        <ele>494.7</ele>
        <time>2025-11-25T12:41:33.478Z</time>
      </trkpt>
      <trkpt lat="45.45749" lon="4.40478">
        <ele>494.9</ele>
      </trkpt>
      <trkpt lat="45.45746" lon="4.40471">
        <ele>494</ele>
      </trkpt>
      <trkpt lat="45.45742" lon="4.40465">
        <ele>492.8</ele>
      </trkpt>
      <trkpt lat="45.45738" lon="4.40458">
        <ele>492.4</ele>
      </trkpt>
      <trkpt lat="45.45734" lon="4.40452">
        <ele>492.8</ele>
      </trkpt>
      <trkpt lat="45.45731" lon="4.40445">
        <ele>493.9</ele>
      </trkpt>
      <trkpt lat="45.45727" lon="4.40439">
        <ele>494.7</ele>
      </trkpt>
      <trkpt lat="45.45723" lon="4.40432">
        <ele>495.4</ele>
        <time>2025-11-25T12:41:57.039Z</time>
      </trkpt>
      <trkpt lat="45.45719" lon="4.40425">
        <ele>495.1</ele>
      </trkpt>
      <trkpt lat="45.45715" lon="4.40418">
        <ele>495</ele>
      </trkpt>
      <trkpt lat="45.45711" lon="4.40411">
        <ele>494.7</ele>
      </trkpt>
      <trkpt lat="45.45707" lon="4.40404">
        <ele>494.7</ele>
      </trkpt>
      <trkpt lat="45.45703" lon="4.40397">
        <ele>495.1</ele>
      </trkpt>
      <trkpt lat="45.45699" lon="4.4039">
        <ele>496</ele>
      </trkpt>
      <trkpt lat="45.45695" lon="4.40383">
        <ele>496.7</ele>
      </trkpt>
      <trkpt lat="45.45691" lon="4.40376">
        <ele>496.3</ele>
        <time>2025-11-25T12:42:22.443Z</time>
      </trkpt>
      <trkpt lat="45.45686" lon="4.40367">
        <ele>496.4</ele>
      </trkpt>
      <trkpt lat="45.45681" lon="4.40357">
        <ele>496.7</ele>
      </trkpt>
      <trkpt lat="45.45675" lon="4.40348">
        <ele>496.8</ele>
      </trkpt>
      <trkpt lat="45.4567" lon="4.40339">
        <ele>497.9</ele>
      </trkpt>
      <trkpt lat="45.45665" lon="4.40329">
        <ele>498.3</ele>
      </trkpt>
      <trkpt lat="45.4566" lon="4.4032">
        <ele>497.4</ele>
      </trkpt>
      <trkpt lat="45.45654" lon="4.4031">
        <ele>497.3</ele>
      </trkpt>
      <trkpt lat="45.45649" lon="4.40301">
        <ele>497.8</ele>
        <time>2025-11-25T12:42:56.260Z</time>
      </trkpt>
      <trkpt lat="45.45645" lon="4.40294">
        <ele>498.4</ele>
      </trkpt>
      <trkpt lat="45.4564" lon="4.40286">
        <ele>499.4</ele>
        <time>2025-11-25T12:43:03.049Z</time>
      </trkpt>
      <trkpt lat="45.45636" lon="4.40281">
        <ele>499.3</ele>
      </trkpt>
      <trkpt lat="45.45633" lon="4.40276">
        <ele>498.6</ele>
      </trkpt>
      <trkpt lat="45.45629" lon="4.40271">
        <ele>497.9</ele>
      </trkpt>
      <trkpt lat="45.45625" lon="4.40266">
        <ele>497.7</ele>
      </trkpt>
      <trkpt lat="45.45621" lon="4.4026">
        <ele>497.9</ele>
      </trkpt>
      <trkpt lat="45.45618" lon="4.40255">
        <ele>498.6</ele>
      </trkpt>
      <trkpt lat="45.45614" lon="4.4025">
        <ele>499.7</ele>
      </trkpt>
      <trkpt lat="45.4561" lon="4.40245">
        <ele>499.2</ele>
        <time>2025-11-25T12:43:23.677Z</time>
      </trkpt>
      <trkpt lat="45.45605" lon="4.40237">
        <ele>498.2</ele>
      </trkpt>
      <trkpt lat="45.456" lon="4.40229">
        <ele>498.1</ele>
      </trkpt>
      <trkpt lat="45.45594" lon="4.40221">
        <ele>499.1</ele>
      </trkpt>
      <trkpt lat="45.45589" lon="4.40213">
        <ele>500</ele>
        <time>2025-11-25T12:43:39.110Z</time>
      </trkpt>
      <trkpt lat="45.45585" lon="4.40207">
        <ele>500.8</ele>
      </trkpt>
      <trkpt lat="45.4558" lon="4.402">
        <ele>500.8</ele>
      </trkpt>
      <trkpt lat="45.45576" lon="4.40194">
        <ele>500.7</ele>
      </trkpt>
      <trkpt lat="45.45571" lon="4.40187">
        <ele>500.5</ele>
      </trkpt>
      <trkpt lat="45.45567" lon="4.40181">
        <ele>500.5</ele>
      </trkpt>
      <trkpt lat="45.45562" lon="4.40174">
        <ele>500.6</ele>
      </trkpt>
      <trkpt lat="45.45558" lon="4.40168">
        <ele>500.9</ele>
      </trkpt>
      <trkpt lat="45.45553" lon="4.40161">
        <ele>500.8</ele>
        <time>2025-11-25T12:44:04.742Z</time>
      </trkpt>
      <trkpt lat="45.45553" lon="4.40154">
        <ele>500.5</ele>
      </trkpt>
      <trkpt lat="45.45553" lon="4.40146">
        <ele>500.3</ele>
        <time>2025-11-25T12:44:10.016Z</time>
      </trkpt>
      <trkpt lat="45.45552" lon="4.40135">
        <ele>500.1</ele>
      </trkpt>
      <trkpt lat="45.45551" lon="4.40124">
        <ele>500.4</ele>
        <time>2025-11-25T12:44:17.977Z</time>
      </trkpt>
      <trkpt lat="45.4555" lon="4.40119">
        <ele>500.6</ele>
        <time>2025-11-25T12:44:19.777Z</time>
      </trkpt>
      <trkpt lat="45.45547" lon="4.40114">
        <ele>500.6</ele>
      </trkpt>
      <trkpt lat="45.45543" lon="4.40108">
        <ele>500.6</ele>
        <time>2025-11-25T12:44:24.930Z</time>
      </trkpt>
      <trkpt lat="45.45545" lon="4.401">
        <ele>500.7</ele>
        <time>2025-11-25T12:44:27.712Z</time>
      </trkpt>
      <trkpt lat="45.45549" lon="4.40095">
        <ele>500.6</ele>
      </trkpt>
      <trkpt lat="45.45552" lon="4.4009">
        <ele>500.4</ele>
      </trkpt>
      <trkpt lat="45.45556" lon="4.40084">
        <ele>500</ele>
      </trkpt>
      <trkpt lat="45.45559" lon="4.40079">
        <ele>500.2</ele>
        <time>2025-11-25T12:44:37.960Z</time>
      </trkpt>
      <trkpt lat="45.45554" lon="4.40074">
        <ele>500.7</ele>
      </trkpt>
      <trkpt lat="45.45549" lon="4.40069">
        <ele>501.2</ele>
      </trkpt>
      <trkpt lat="45.45544" lon="4.40064">
        <ele>501.4</ele>
      </trkpt>
      <trkpt lat="45.45539" lon="4.40059">
        <ele>501.4</ele>
      </trkpt>
      <trkpt lat="45.45533" lon="4.40053">
        <ele>501.2</ele>
      </trkpt>
      <trkpt lat="45.45528" lon="4.40048">
        <ele>501</ele>
      </trkpt>
      <trkpt lat="45.45523" lon="4.40043">
        <ele>500.9</ele>
      </trkpt>
      <trkpt lat="45.45518" lon="4.40038">
        <ele>500.8</ele>
        <time>2025-11-25T12:45:03.368Z</time>
      </trkpt>
      <trkpt lat="45.45513" lon="4.40033">
        <ele>500.6</ele>
      </trkpt>
      <trkpt lat="45.45508" lon="4.40028">
        <ele>500.3</ele>
      </trkpt>
      <trkpt lat="45.45502" lon="4.40023">
        <ele>499.8</ele>
      </trkpt>
      <trkpt lat="45.45497" lon="4.40019">
        <ele>499.3</ele>
      </trkpt>
      <trkpt lat="45.45492" lon="4.40014">
        <ele>498.8</ele>
      </trkpt>
      <trkpt lat="45.45487" lon="4.40009">
        <ele>498.5</ele>
      </trkpt>
      <trkpt lat="45.45481" lon="4.40004">
        <ele>498.2</ele>
      </trkpt>
      <trkpt lat="45.45476" lon="4.39999">
        <ele>498</ele>
        <time>2025-11-25T12:45:28.261Z</time>
      </trkpt>
      <trkpt lat="45.4547" lon="4.39993">
        <ele>497.8</ele>
        <time>2025-11-25T12:45:31.689Z</time>
      </trkpt>
      <trkpt lat="45.45467" lon="4.39983">
        <ele>497.5</ele>
        <time>2025-11-25T12:45:35.506Z</time>
      </trkpt>
      <trkpt lat="45.45459" lon="4.39978">
        <ele>497.6</ele>
        <time>2025-11-25T12:45:39.815Z</time>
      </trkpt>
      <trkpt lat="45.45455" lon="4.39974">
        <ele>497.6</ele>
      </trkpt>
      <trkpt lat="45.45451" lon="4.39971">
        <ele>497.7</ele>
      </trkpt>
      <trkpt lat="45.45447" lon="4.39967">
        <ele>497.7</ele>
      </trkpt>
      <trkpt lat="45.45444" lon="4.39964">
        <ele>497.7</ele>
      </trkpt>
      <trkpt lat="45.4544" lon="4.3996">
        <ele>497.6</ele>
      </trkpt>
      <trkpt lat="45.45436" lon="4.39956">
        <ele>497.6</ele>
      </trkpt>
      <trkpt lat="45.45432" lon="4.39953">
        <ele>497.6</ele>
      </trkpt>
      <trkpt lat="45.45428" lon="4.39949">
        <ele>497.7</ele>
      </trkpt>
      <trkpt lat="45.45424" lon="4.39945">
        <ele>497.7</ele>
      </trkpt>
      <trkpt lat="45.4542" lon="4.39942">
        <ele>497.8</ele>
      </trkpt>
      <trkpt lat="45.45416" lon="4.39938">
        <ele>497.8</ele>
      </trkpt>
      <trkpt lat="45.45413" lon="4.39935">
        <ele>497.5</ele>
      </trkpt>
      <trkpt lat="45.45409" lon="4.39931">
        <ele>497.4</ele>
      </trkpt>
      <trkpt lat="45.45405" lon="4.39927">
        <ele>497.2</ele>
      </trkpt>
      <trkpt lat="45.45401" lon="4.39924">
        <ele>497.1</ele>
      </trkpt>
      <trkpt lat="45.45397" lon="4.3992">
        <ele>497</ele>
        <time>2025-11-25T12:46:17.218Z</time>
      </trkpt>
      <trkpt lat="45.45393" lon="4.39916">
        <ele>497</ele>
      </trkpt>
      <trkpt lat="45.45388" lon="4.39913">
        <ele>497</ele>
      </trkpt>
      <trkpt lat="45.45384" lon="4.39909">
        <ele>497</ele>
      </trkpt>
      <trkpt lat="45.45379" lon="4.39905">
        <ele>497</ele>
        <time>2025-11-25T12:46:27.644Z</time>
      </trkpt>
      <trkpt lat="45.45373" lon="4.39896">
        <ele>497</ele>
      </trkpt>
      <trkpt lat="45.45367" lon="4.39887">
        <ele>497</ele>
        <time>2025-11-25T12:46:36.266Z</time>
      </trkpt>
      <trkpt lat="45.4537" lon="4.39879">
        <ele>497</ele>
        <time>2025-11-25T12:46:39.529Z</time>
      </trkpt>
      <trkpt lat="45.45367" lon="4.39876">
        <ele>497</ele>
        <time>2025-11-25T12:46:41.404Z</time>
      </trkpt>
      <trkpt lat="45.4536" lon="4.3987">
        <ele>497</ele>
        <time>2025-11-25T12:46:45.620Z</time>
      </trkpt>
      <trkpt lat="45.45354" lon="4.39874">
        <ele>496.9</ele>
        <time>2025-11-25T12:46:48.970Z</time>
      </trkpt>
      <trkpt lat="45.45353" lon="4.39869">
        <ele>496.8</ele>
        <time>2025-11-25T12:46:50.493Z</time>
      </trkpt>
      <trkpt lat="45.45351" lon="4.39866">
        <ele>496.7</ele>
        <time>2025-11-25T12:46:51.987Z</time>
      </trkpt>
      <trkpt lat="45.4535" lon="4.3986">
        <ele>496.5</ele>
        <time>2025-11-25T12:46:54.234Z</time>
      </trkpt>
      <trkpt lat="45.45345" lon="4.39863">
        <ele>496.4</ele>
      </trkpt>
      <trkpt lat="45.4534" lon="4.39865">
        <ele>496.3</ele>
        <time>2025-11-25T12:46:59.466Z</time>
      </trkpt>
      <trkpt lat="45.45335" lon="4.39867">
        <ele>496.2</ele>
      </trkpt>
      <trkpt lat="45.45329" lon="4.39868">
        <ele>496</ele>
        <time>2025-11-25T12:47:04.888Z</time>
      </trkpt>
      <trkpt lat="45.45323" lon="4.39868">
        <ele>495.6</ele>
      </trkpt>
      <trkpt lat="45.45317" lon="4.39867">
        <ele>495.2</ele>
        <time>2025-11-25T12:47:11.096Z</time>
      </trkpt>
      <trkpt lat="45.45312" lon="4.39866">
        <ele>494.8</ele>
      </trkpt>
      <trkpt lat="45.45307" lon="4.39866">
        <ele>494.4</ele>
      </trkpt>
      <trkpt lat="45.45302" lon="4.39865">
        <ele>494.4</ele>
      </trkpt>
      <trkpt lat="45.45297" lon="4.39864">
        <ele>494.5</ele>
      </trkpt>
      <trkpt lat="45.45292" lon="4.39863">
        <ele>494.6</ele>
      </trkpt>
      <trkpt lat="45.45287" lon="4.39863">
        <ele>494.7</ele>
      </trkpt>
      <trkpt lat="45.45282" lon="4.39862">
        <ele>494.9</ele>
      </trkpt>
      <trkpt lat="45.45277" lon="4.39861">
        <ele>495</ele>
        <time>2025-11-25T12:47:31.028Z</time>
      </trkpt>
      <trkpt lat="45.45276" lon="4.39871">
        <ele>495.3</ele>
        <time>2025-11-25T12:47:34.567Z</time>
      </trkpt>
      <trkpt lat="45.45268" lon="4.39869">
        <ele>495.2</ele>
        <time>2025-11-25T12:47:38.602Z</time>
      </trkpt>
      <trkpt lat="45.45263" lon="4.39868">
        <ele>495.1</ele>
        <time>2025-11-25T12:47:41.090Z</time>
      </trkpt>
      <trkpt lat="45.45256" lon="4.39866">
        <ele>495</ele>
      </trkpt>
      <trkpt lat="45.45248" lon="4.39864">
        <ele>494.9</ele>
        <time>2025-11-25T12:47:49.120Z</time>
      </trkpt>
      <trkpt lat="45.45243" lon="4.39863">
        <ele>494.8</ele>
      </trkpt>
      <trkpt lat="45.45238" lon="4.39863">
        <ele>494.6</ele>
      </trkpt>
      <trkpt lat="45.45233" lon="4.39862">
        <ele>494.4</ele>
      </trkpt>
      <trkpt lat="45.45228" lon="4.39861">
        <ele>494.2</ele>
        <time>2025-11-25T12:47:59.005Z</time>
      </trkpt>
      <trkpt lat="45.45222" lon="4.39861">
        <ele>494</ele>
      </trkpt>
      <trkpt lat="45.45216" lon="4.39862">
        <ele>494</ele>
      </trkpt>
      <trkpt lat="45.4521" lon="4.39862">
        <ele>494</ele>
      </trkpt>
      <trkpt lat="45.45204" lon="4.39862">
        <ele>494</ele>
        <time>2025-11-25T12:48:10.967Z</time>
      </trkpt>
      <trkpt lat="45.45198" lon="4.39861">
        <ele>494</ele>
      </trkpt>
      <trkpt lat="45.45192" lon="4.3986">
        <ele>493.8</ele>
      </trkpt>
      <trkpt lat="45.45186" lon="4.39859">
        <ele>493.6</ele>
      </trkpt>
      <trkpt lat="45.4518" lon="4.39859">
        <ele>493.3</ele>
      </trkpt>
      <trkpt lat="45.45173" lon="4.39858">
        <ele>493.1</ele>
      </trkpt>
      <trkpt lat="45.45167" lon="4.39857">
        <ele>492.9</ele>
      </trkpt>
      <trkpt lat="45.45161" lon="4.39856">
        <ele>492.8</ele>
      </trkpt>
      <trkpt lat="45.45155" lon="4.39855">
        <ele>492.8</ele>
        <time>2025-11-25T12:48:35.810Z</time>
      </trkpt>
      <trkpt lat="45.45147" lon="4.39854">
        <ele>492.8</ele>
      </trkpt>
      <trkpt lat="45.45138" lon="4.39853">
        <ele>492.7</ele>
      </trkpt>
      <trkpt lat="45.4513" lon="4.39853">
        <ele>492.5</ele>
      </trkpt>
      <trkpt lat="45.45122" lon="4.39852">
        <ele>492.2</ele>
      </trkpt>
      <trkpt lat="45.45113" lon="4.39851">
        <ele>492</ele>
      </trkpt>
      <trkpt lat="45.45105" lon="4.3985">
        <ele>492</ele>
      </trkpt>
      <trkpt lat="45.45096" lon="4.39849">
        <ele>492</ele>
      </trkpt>
      <trkpt lat="45.45088" lon="4.39849">
        <ele>492</ele>
      </trkpt>
      <trkpt lat="45.4508" lon="4.39848">
        <ele>492</ele>
      </trkpt>
      <trkpt lat="45.45071" lon="4.39847">
        <ele>492</ele>
      </trkpt>
      <trkpt lat="45.45063" lon="4.39846">
        <ele>492</ele>
      </trkpt>
      <trkpt lat="45.45055" lon="4.39845">
        <ele>492</ele>
      </trkpt>
      <trkpt lat="45.45046" lon="4.39844">
        <ele>492</ele>
      </trkpt>
      <trkpt lat="45.45038" lon="4.39844">
        <ele>492</ele>
      </trkpt>
      <trkpt lat="45.45029" lon="4.39843">
        <ele>492</ele>
      </trkpt>
      <trkpt lat="45.45021" lon="4.39842">
        <ele>492.2</ele>
        <time>2025-11-25T12:48:36.000Z</time>
      </trkpt>
      <trkpt lat="45.45027" lon="4.39843">
        <ele>492</ele>
      </trkpt>
      <trkpt lat="45.45032" lon="4.39843">
        <ele>492</ele>
      </trkpt>
      <trkpt lat="45.45038" lon="4.39844">
        <ele>492</ele>
      </trkpt>
      <trkpt lat="45.45044" lon="4.39845">
        <ele>492</ele>
      </trkpt>
      <trkpt lat="45.45049" lon="4.39845">
        <ele>492</ele>
      </trkpt>
      <trkpt lat="45.45055" lon="4.39846">
        <ele>492</ele>
      </trkpt>
      <trkpt lat="45.45061" lon="4.39847">
        <ele>492</ele>
      </trkpt>
      <trkpt lat="45.45066" lon="4.39848">
        <ele>492</ele>
      </trkpt>
      <trkpt lat="45.45072" lon="4.39848">
        <ele>492</ele>
      </trkpt>
      <trkpt lat="45.45078" lon="4.39849">
        <ele>492</ele>
      </trkpt>
      <trkpt lat="45.45083" lon="4.3985">
        <ele>492</ele>
      </trkpt>
      <trkpt lat="45.45089" lon="4.3985">
        <ele>492</ele>
      </trkpt>
      <trkpt lat="45.45095" lon="4.39851">
        <ele>492</ele>
      </trkpt>
      <trkpt lat="45.451" lon="4.39852">
        <ele>492</ele>
      </trkpt>
      <trkpt lat="45.45106" lon="4.39852">
        <ele>492</ele>
      </trkpt>
      <trkpt lat="45.45112" lon="4.39853">
        <ele>492</ele>
      </trkpt>
      <trkpt lat="45.45117" lon="4.39854">
        <ele>492.2</ele>
      </trkpt>
      <trkpt lat="45.45123" lon="4.39854">
        <ele>492.3</ele>
      </trkpt>
      <trkpt lat="45.45129" lon="4.39855">
        <ele>492.5</ele>
      </trkpt>
      <trkpt lat="45.45134" lon="4.39856">
        <ele>492.7</ele>
      </trkpt>
      <trkpt lat="45.4514" lon="4.39856">
        <ele>492.8</ele>
      </trkpt>
      <trkpt lat="45.45145" lon="4.39857">
        <ele>492.9</ele>
      </trkpt>
      <trkpt lat="45.45151" lon="4.39858">
        <ele>492.9</ele>
      </trkpt>
      <trkpt lat="45.45157" lon="4.39859">
        <ele>492.9</ele>
      </trkpt>
      <trkpt lat="45.45162" lon="4.39859">
        <ele>492.9</ele>
      </trkpt>
      <trkpt lat="45.45168" lon="4.3986">
        <ele>493</ele>
      </trkpt>
      <trkpt lat="45.45174" lon="4.39861">
        <ele>493.2</ele>
      </trkpt>
      <trkpt lat="45.45179" lon="4.39861">
        <ele>493.5</ele>
      </trkpt>
      <trkpt lat="45.45185" lon="4.39862">
        <ele>493.7</ele>
      </trkpt>
      <trkpt lat="45.45191" lon="4.39863">
        <ele>493.9</ele>
      </trkpt>
      <trkpt lat="45.45196" lon="4.39863">
        <ele>494</ele>
      </trkpt>
      <trkpt lat="45.45202" lon="4.39864">
        <ele>494</ele>
        <time>2025-11-25T12:50:07.000Z</time>
      </trkpt>
      <trkpt lat="45.4521" lon="4.39866">
        <ele>494.1</ele>
      </trkpt>
      <trkpt lat="45.45218" lon="4.39868">
        <ele>494.2</ele>
      </trkpt>
      <trkpt lat="45.45226" lon="4.3987">
        <ele>494.4</ele>
      </trkpt>
      <trkpt lat="45.45234" lon="4.39873">
        <ele>494.7</ele>
      </trkpt>
      <trkpt lat="45.45242" lon="4.39875">
        <ele>494.9</ele>
      </trkpt>
      <trkpt lat="45.4525" lon="4.39877">
        <ele>495</ele>
      </trkpt>
      <trkpt lat="45.45258" lon="4.39879">
        <ele>495.2</ele>
      </trkpt>
      <trkpt lat="45.45266" lon="4.39881">
        <ele>495.4</ele>
      </trkpt>
      <trkpt lat="45.45274" lon="4.39883">
        <ele>495.7</ele>
      </trkpt>
      <trkpt lat="45.45282" lon="4.39885">
        <ele>495.9</ele>
      </trkpt>
      <trkpt lat="45.4529" lon="4.39887">
        <ele>495.9</ele>
      </trkpt>
      <trkpt lat="45.45298" lon="4.3989">
        <ele>496</ele>
      </trkpt>
      <trkpt lat="45.45306" lon="4.39892">
        <ele>496</ele>
      </trkpt>
      <trkpt lat="45.45314" lon="4.39894">
        <ele>496.3</ele>
      </trkpt>
      <trkpt lat="45.45322" lon="4.39896">
        <ele>496.4</ele>
      </trkpt>
      <trkpt lat="45.4533" lon="4.39898">
        <ele>496.6</ele>
        <time>2025-11-25T12:51:12.000Z</time>
      </trkpt>
      <trkpt lat="45.45336" lon="4.39902">
        <ele>496.6</ele>
      </trkpt>
      <trkpt lat="45.45342" lon="4.39906">
        <ele>496.6</ele>
      </trkpt>
      <trkpt lat="45.45348" lon="4.39909">
        <ele>496.7</ele>
      </trkpt>
      <trkpt lat="45.45354" lon="4.39913">
        <ele>496.8</ele>
        <time>2025-11-25T12:51:25.000Z</time>
      </trkpt>
      <trkpt lat="45.45358" lon="4.39919">
        <ele>496.9</ele>
      </trkpt>
      <trkpt lat="45.45363" lon="4.39924">
        <ele>497</ele>
      </trkpt>
      <trkpt lat="45.45367" lon="4.3993">
        <ele>497</ele>
      </trkpt>
      <trkpt lat="45.45371" lon="4.39935">
        <ele>497</ele>
      </trkpt>
      <trkpt lat="45.45375" lon="4.39941">
        <ele>497</ele>
      </trkpt>
      <trkpt lat="45.4538" lon="4.39946">
        <ele>497</ele>
      </trkpt>
      <trkpt lat="45.45384" lon="4.39952">
        <ele>497</ele>
      </trkpt>
      <trkpt lat="45.45388" lon="4.39958">
        <ele>497</ele>
      </trkpt>
      <trkpt lat="45.45392" lon="4.39963">
        <ele>497.1</ele>
      </trkpt>
      <trkpt lat="45.45397" lon="4.39969">
        <ele>497.3</ele>
      </trkpt>
      <trkpt lat="45.45401" lon="4.39974">
        <ele>497.5</ele>
      </trkpt>
      <trkpt lat="45.45405" lon="4.3998">
        <ele>497.7</ele>
      </trkpt>
      <trkpt lat="45.45409" lon="4.39985">
        <ele>497.9</ele>
      </trkpt>
      <trkpt lat="45.45414" lon="4.39991">
        <ele>498</ele>
      </trkpt>
      <trkpt lat="45.45418" lon="4.39996">
        <ele>498</ele>
      </trkpt>
      <trkpt lat="45.45422" lon="4.40002">
        <ele>498.1</ele>
        <time>2025-11-25T12:52:11.000Z</time>
      </trkpt>
      <trkpt lat="45.45427" lon="4.40009">
        <ele>498.4</ele>
      </trkpt>
      <trkpt lat="45.45432" lon="4.40016">
        <ele>498.5</ele>
      </trkpt>
      <trkpt lat="45.45437" lon="4.40023">
        <ele>498.4</ele>
      </trkpt>
      <trkpt lat="45.45442" lon="4.4003">
        <ele>498.3</ele>
      </trkpt>
      <trkpt lat="45.45447" lon="4.40036">
        <ele>498.7</ele>
      </trkpt>
      <trkpt lat="45.45452" lon="4.40043">
        <ele>499.1</ele>
      </trkpt>
      <trkpt lat="45.45457" lon="4.4005">
        <ele>499.3</ele>
      </trkpt>
      <trkpt lat="45.45462" lon="4.40057">
        <ele>499.4</ele>
      </trkpt>
      <trkpt lat="45.45467" lon="4.40064">
        <ele>499.4</ele>
      </trkpt>
      <trkpt lat="45.45472" lon="4.40071">
        <ele>499.6</ele>
      </trkpt>
      <trkpt lat="45.45477" lon="4.40078">
        <ele>499.7</ele>
      </trkpt>
      <trkpt lat="45.45482" lon="4.40085">
        <ele>499.8</ele>
      </trkpt>
      <trkpt lat="45.45487" lon="4.40091">
        <ele>500.3</ele>
      </trkpt>
      <trkpt lat="45.45492" lon="4.40098">
        <ele>500.4</ele>
      </trkpt>
      <trkpt lat="45.45497" lon="4.40105">
        <ele>500.2</ele>
      </trkpt>
      <trkpt lat="45.45502" lon="4.40112">
        <ele>500.1</ele>
      </trkpt>
      <trkpt lat="45.45507" lon="4.40119">
        <ele>500.6</ele>
      </trkpt>
      <trkpt lat="45.45512" lon="4.40126">
        <ele>500.9</ele>
      </trkpt>
      <trkpt lat="45.45517" lon="4.40133">
        <ele>500.9</ele>
      </trkpt>
      <trkpt lat="45.45522" lon="4.4014">
        <ele>500.6</ele>
      </trkpt>
      <trkpt lat="45.45527" lon="4.40146">
        <ele>500.3</ele>
      </trkpt>
      <trkpt lat="45.45532" lon="4.40153">
        <ele>500.5</ele>
      </trkpt>
      <trkpt lat="45.45537" lon="4.4016">
        <ele>500.8</ele>
      </trkpt>
      <trkpt lat="45.45542" lon="4.40167">
        <ele>501</ele>
      </trkpt>
      <trkpt lat="45.45547" lon="4.40174">
        <ele>500.7</ele>
      </trkpt>
      <trkpt lat="45.45552" lon="4.40181">
        <ele>500.5</ele>
      </trkpt>
      <trkpt lat="45.45557" lon="4.40188">
        <ele>500.3</ele>
      </trkpt>
      <trkpt lat="45.45562" lon="4.40195">
        <ele>500.2</ele>
      </trkpt>
      <trkpt lat="45.45567" lon="4.40201">
        <ele>500.1</ele>
      </trkpt>
      <trkpt lat="45.45572" lon="4.40208">
        <ele>500.2</ele>
      </trkpt>
      <trkpt lat="45.45577" lon="4.40215">
        <ele>500.4</ele>
      </trkpt>
      <trkpt lat="45.45582" lon="4.40222">
        <ele>500.9</ele>
        <time>2025-11-25T12:54:03.000Z</time>
      </trkpt>
      <trkpt lat="45.45586" lon="4.40227">
        <ele>499.8</ele>
      </trkpt>
      <trkpt lat="45.45589" lon="4.40233">
        <ele>498.7</ele>
      </trkpt>
      <trkpt lat="45.45593" lon="4.40238">
        <ele>498.2</ele>
      </trkpt>
      <trkpt lat="45.45597" lon="4.40244">
        <ele>498.1</ele>
      </trkpt>
      <trkpt lat="45.456" lon="4.40249">
        <ele>498.4</ele>
      </trkpt>
      <trkpt lat="45.45604" lon="4.40255">
        <ele>498.2</ele>
      </trkpt>
      <trkpt lat="45.45607" lon="4.4026">
        <ele>497.6</ele>
      </trkpt>
      <trkpt lat="45.45611" lon="4.40266">
        <ele>496.6</ele>
      </trkpt>
      <trkpt lat="45.45615" lon="4.40271">
        <ele>496</ele>
      </trkpt>
      <trkpt lat="45.45618" lon="4.40276">
        <ele>495.7</ele>
      </trkpt>
      <trkpt lat="45.45622" lon="4.40282">
        <ele>496.3</ele>
      </trkpt>
      <trkpt lat="45.45626" lon="4.40287">
        <ele>496.9</ele>
      </trkpt>
      <trkpt lat="45.45629" lon="4.40293">
        <ele>497.5</ele>
      </trkpt>
      <trkpt lat="45.45633" lon="4.40298">
        <ele>498.1</ele>
      </trkpt>
      <trkpt lat="45.45636" lon="4.40304">
        <ele>498.6</ele>
      </trkpt>
      <trkpt lat="45.4564" lon="4.40309">
        <ele>498.4</ele>
        <time>2025-11-25T12:54:45.000Z</time>
      </trkpt>
      <trkpt lat="45.45643" lon="4.40315">
        <ele>497.6</ele>
      </trkpt>
      <trkpt lat="45.45646" lon="4.4032">
        <ele>497.1</ele>
      </trkpt>
      <trkpt lat="45.4565" lon="4.40326">
        <ele>496.9</ele>
      </trkpt>
      <trkpt lat="45.45653" lon="4.40332">
        <ele>497</ele>
      </trkpt>
      <trkpt lat="45.45656" lon="4.40337">
        <ele>497.2</ele>
      </trkpt>
      <trkpt lat="45.45659" lon="4.40343">
        <ele>497.4</ele>
      </trkpt>
      <trkpt lat="45.45663" lon="4.40348">
        <ele>497.7</ele>
      </trkpt>
      <trkpt lat="45.45666" lon="4.40354">
        <ele>498.1</ele>
      </trkpt>
      <trkpt lat="45.45669" lon="4.4036">
        <ele>497.9</ele>
      </trkpt>
      <trkpt lat="45.45672" lon="4.40365">
        <ele>496.9</ele>
      </trkpt>
      <trkpt lat="45.45675" lon="4.40371">
        <ele>496</ele>
      </trkpt>
      <trkpt lat="45.45679" lon="4.40377">
        <ele>495.5</ele>
      </trkpt>
      <trkpt lat="45.45682" lon="4.40382">
        <ele>495.3</ele>
      </trkpt>
      <trkpt lat="45.45685" lon="4.40388">
        <ele>495.4</ele>
      </trkpt>
      <trkpt lat="45.45688" lon="4.40393">
        <ele>495.6</ele>
      </trkpt>
      <trkpt lat="45.45692" lon="4.40399">
        <ele>495.8</ele>
      </trkpt>
      <trkpt lat="45.45695" lon="4.40405">
        <ele>495.8</ele>
      </trkpt>
      <trkpt lat="45.45698" lon="4.4041">
        <ele>495.3</ele>
      </trkpt>
      <trkpt lat="45.45701" lon="4.40416">
        <ele>495</ele>
      </trkpt>
      <trkpt lat="45.45704" lon="4.40422">
        <ele>494.5</ele>
      </trkpt>
      <trkpt lat="45.45708" lon="4.40427">
        <ele>494.2</ele>
      </trkpt>
      <trkpt lat="45.45711" lon="4.40433">
        <ele>494.1</ele>
      </trkpt>
      <trkpt lat="45.45714" lon="4.40438">
        <ele>494.4</ele>
      </trkpt>
      <trkpt lat="45.45717" lon="4.40444">
        <ele>494.9</ele>
      </trkpt>
      <trkpt lat="45.45721" lon="4.4045">
        <ele>494.6</ele>
      </trkpt>
      <trkpt lat="45.45724" lon="4.40455">
        <ele>493.6</ele>
      </trkpt>
      <trkpt lat="45.45727" lon="4.40461">
        <ele>492.5</ele>
      </trkpt>
      <trkpt lat="45.4573" lon="4.40467">
        <ele>492</ele>
      </trkpt>
      <trkpt lat="45.45733" lon="4.40472">
        <ele>492</ele>
      </trkpt>
      <trkpt lat="45.45737" lon="4.40478">
        <ele>492.5</ele>
      </trkpt>
      <trkpt lat="45.4574" lon="4.40483">
        <ele>493</ele>
      </trkpt>
      <trkpt lat="45.45743" lon="4.40489">
        <ele>493.6</ele>
        <time>2025-11-25T12:56:06.000Z</time>
      </trkpt>
      <trkpt lat="45.45746" lon="4.40496">
        <ele>494.2</ele>
      </trkpt>
      <trkpt lat="45.4575" lon="4.40504">
        <ele>494.8</ele>
      </trkpt>
      <trkpt lat="45.45753" lon="4.40511">
        <ele>494.5</ele>
      </trkpt>
      <trkpt lat="45.45756" lon="4.40519">
        <ele>494.2</ele>
      </trkpt>
      <trkpt lat="45.45759" lon="4.40526">
        <ele>494</ele>
      </trkpt>
      <trkpt lat="45.45763" lon="4.40533">
        <ele>493.9</ele>
      </trkpt>
      <trkpt lat="45.45766" lon="4.40541">
        <ele>493.8</ele>
      </trkpt>
      <trkpt lat="45.45769" lon="4.40548">
        <ele>493.8</ele>
        <time>2025-11-25T12:56:31.000Z</time>
      </trkpt>
      <trkpt lat="45.45769" lon="4.40555">
        <ele>493.7</ele>
      </trkpt>
      <trkpt lat="45.45768" lon="4.40562">
        <ele>493.5</ele>
      </trkpt>
      <trkpt lat="45.45768" lon="4.40568">
        <ele>493.3</ele>
      </trkpt>
      <trkpt lat="45.45767" lon="4.40575">
        <ele>493.2</ele>
        <time>2025-11-25T12:56:40.000Z</time>
      </trkpt>
      <trkpt lat="45.45762" lon="4.40581">
        <ele>493</ele>
      </trkpt>
      <trkpt lat="45.45757" lon="4.40586">
        <ele>493</ele>
      </trkpt>
      <trkpt lat="45.45752" lon="4.40592">
        <ele>493</ele>
      </trkpt>
      <trkpt lat="45.45747" lon="4.40598">
        <ele>492.8</ele>
      </trkpt>
      <trkpt lat="45.45742" lon="4.40603">
        <ele>492.6</ele>
      </trkpt>
      <trkpt lat="45.45737" lon="4.40609">
        <ele>492.5</ele>
      </trkpt>
      <trkpt lat="45.45732" lon="4.40614">
        <ele>492.4</ele>
      </trkpt>
      <trkpt lat="45.45727" lon="4.4062">
        <ele>492.4</ele>
        <time>2025-11-25T12:57:06.000Z</time>
      </trkpt>
      <trkpt lat="45.45721" lon="4.40626">
        <ele>492.5</ele>
      </trkpt>
      <trkpt lat="45.45715" lon="4.40632">
        <ele>492.5</ele>
      </trkpt>
      <trkpt lat="45.4571" lon="4.40639">
        <ele>492.5</ele>
      </trkpt>
      <trkpt lat="45.45704" lon="4.40645">
        <ele>493</ele>
      </trkpt>
      <trkpt lat="45.45698" lon="4.40651">
        <ele>493.5</ele>
      </trkpt>
      <trkpt lat="45.45692" lon="4.40657">
        <ele>493.7</ele>
      </trkpt>
      <trkpt lat="45.45686" lon="4.40663">
        <ele>493.5</ele>
      </trkpt>
      <trkpt lat="45.4568" lon="4.40669">
        <ele>493.4</ele>
      </trkpt>
      <trkpt lat="45.45674" lon="4.40676">
        <ele>493.3</ele>
      </trkpt>
      <trkpt lat="45.45669" lon="4.40682">
        <ele>493</ele>
      </trkpt>
      <trkpt lat="45.45663" lon="4.40688">
        <ele>492.9</ele>
      </trkpt>
      <trkpt lat="45.45657" lon="4.40694">
        <ele>492.9</ele>
      </trkpt>
      <trkpt lat="45.45651" lon="4.407">
        <ele>493.2</ele>
      </trkpt>
      <trkpt lat="45.45645" lon="4.40706">
        <ele>493</ele>
      </trkpt>
      <trkpt lat="45.45639" lon="4.40713">
        <ele>492.4</ele>
      </trkpt>
      <trkpt lat="45.45634" lon="4.40719">
        <ele>492.4</ele>
      </trkpt>
      <trkpt lat="45.45628" lon="4.40725">
        <ele>492.5</ele>
      </trkpt>
      <trkpt lat="45.45622" lon="4.40731">
        <ele>492.9</ele>
      </trkpt>
      <trkpt lat="45.45616" lon="4.40737">
        <ele>493.1</ele>
      </trkpt>
      <trkpt lat="45.4561" lon="4.40743">
        <ele>493.2</ele>
      </trkpt>
      <trkpt lat="45.45604" lon="4.4075">
        <ele>493.2</ele>
      </trkpt>
      <trkpt lat="45.45598" lon="4.40756">
        <ele>493.2</ele>
      </trkpt>
      <trkpt lat="45.45593" lon="4.40762">
        <ele>493</ele>
      </trkpt>
      <trkpt lat="45.45587" lon="4.40768">
        <ele>492.7</ele>
      </trkpt>
      <trkpt lat="45.45581" lon="4.40774">
        <ele>492.6</ele>
      </trkpt>
      <trkpt lat="45.45575" lon="4.40781">
        <ele>492.6</ele>
      </trkpt>
      <trkpt lat="45.45569" lon="4.40787">
        <ele>492.6</ele>
      </trkpt>
      <trkpt lat="45.45563" lon="4.40793">
        <ele>492.4</ele>
      </trkpt>
      <trkpt lat="45.45558" lon="4.40799">
        <ele>492</ele>
      </trkpt>
      <trkpt lat="45.45552" lon="4.40805">
        <ele>491.8</ele>
      </trkpt>
      <trkpt lat="45.45546" lon="4.40811">
        <ele>492.3</ele>
      </trkpt>
      <trkpt lat="45.4554" lon="4.40818">
        <ele>492.7</ele>
      </trkpt>
      <trkpt lat="45.45534" lon="4.40824">
        <ele>492.8</ele>
      </trkpt>
      <trkpt lat="45.45528" lon="4.4083">
        <ele>492.8</ele>
      </trkpt>
      <trkpt lat="45.45523" lon="4.40836">
        <ele>492.9</ele>
      </trkpt>
      <trkpt lat="45.45517" lon="4.40842">
        <ele>493</ele>
      </trkpt>
      <trkpt lat="45.45511" lon="4.40848">
        <ele>492.6</ele>
      </trkpt>
      <trkpt lat="45.45505" lon="4.40855">
        <ele>491.9</ele>
      </trkpt>
      <trkpt lat="45.45499" lon="4.40861">
        <ele>491</ele>
      </trkpt>
      <trkpt lat="45.45493" lon="4.40867">
        <ele>490.8</ele>
      </trkpt>
      <trkpt lat="45.45487" lon="4.40873">
        <ele>490.7</ele>
      </trkpt>
      <trkpt lat="45.45482" lon="4.40879">
        <ele>490.8</ele>
      </trkpt>
      <trkpt lat="45.45476" lon="4.40885">
        <ele>490.9</ele>
      </trkpt>
      <trkpt lat="45.4547" lon="4.40892">
        <ele>490.8</ele>
      </trkpt>
      <trkpt lat="45.45464" lon="4.40898">
        <ele>490.5</ele>
      </trkpt>
      <trkpt lat="45.45458" lon="4.40904">
        <ele>490.3</ele>
      </trkpt>
      <trkpt lat="45.45452" lon="4.4091">
        <ele>490.1</ele>
      </trkpt>
      <trkpt lat="45.45447" lon="4.40916">
        <ele>490.1</ele>
      </trkpt>
      <trkpt lat="45.45441" lon="4.40922">
        <ele>490</ele>
      </trkpt>
      <trkpt lat="45.45435" lon="4.40929">
        <ele>489.9</ele>
      </trkpt>
      <trkpt lat="45.45429" lon="4.40935">
        <ele>489.7</ele>
      </trkpt>
      <trkpt lat="45.45423" lon="4.40941">
        <ele>489.4</ele>
      </trkpt>
      <trkpt lat="45.45417" lon="4.40947">
        <ele>489</ele>
      </trkpt>
      <trkpt lat="45.45411" lon="4.40953">
        <ele>488.8</ele>
      </trkpt>
      <trkpt lat="45.45406" lon="4.4096">
        <ele>488.6</ele>
      </trkpt>
      <trkpt lat="45.454" lon="4.40966">
        <ele>488.4</ele>
      </trkpt>
      <trkpt lat="45.45394" lon="4.40972">
        <ele>488.2</ele>
      </trkpt>
      <trkpt lat="45.45388" lon="4.40978">
        <ele>488</ele>
      </trkpt>
      <trkpt lat="45.45382" lon="4.40984">
        <ele>488</ele>
      </trkpt>
      <trkpt lat="45.45376" lon="4.4099">
        <ele>488</ele>
      </trkpt>
      <trkpt lat="45.45371" lon="4.40997">
        <ele>488</ele>
      </trkpt>
      <trkpt lat="45.45365" lon="4.41003">
        <ele>488</ele>
      </trkpt>
      <trkpt lat="45.45359" lon="4.41009">
        <ele>488</ele>
      </trkpt>
      <trkpt lat="45.45353" lon="4.41015">
        <ele>488</ele>
        <time>2025-11-25T13:00:59.000Z</time>
      </trkpt>
      <trkpt lat="45.45353" lon="4.41022">
        <ele>488</ele>
      </trkpt>
      <trkpt lat="45.45352" lon="4.41029">
        <ele>488</ele>
      </trkpt>
      <trkpt lat="45.45352" lon="4.41035">
        <ele>488.3</ele>
      </trkpt>
      <trkpt lat="45.45351" lon="4.41042">
        <ele>488.6</ele>
        <time>2025-11-25T13:01:08.000Z</time>
      </trkpt>
      <trkpt lat="45.45357" lon="4.4105">
        <ele>488.4</ele>
      </trkpt>
      <trkpt lat="45.45362" lon="4.41058">
        <ele>488.1</ele>
      </trkpt>
      <trkpt lat="45.45368" lon="4.41066">
        <ele>488.3</ele>
      </trkpt>
      <trkpt lat="45.45374" lon="4.41075">
        <ele>488.4</ele>
      </trkpt>
      <trkpt lat="45.45379" lon="4.41083">
        <ele>488.3</ele>
      </trkpt>
      <trkpt lat="45.45385" lon="4.41091">
        <ele>488.5</ele>
      </trkpt>
      <trkpt lat="45.45391" lon="4.41099">
        <ele>488.5</ele>
      </trkpt>
      <trkpt lat="45.45396" lon="4.41107">
        <ele>488.6</ele>
      </trkpt>
      <trkpt lat="45.45402" lon="4.41115">
        <ele>488.7</ele>
      </trkpt>
      <trkpt lat="45.45408" lon="4.41123">
        <ele>488.8</ele>
      </trkpt>
      <trkpt lat="45.45413" lon="4.41131">
        <ele>488.9</ele>
      </trkpt>
      <trkpt lat="45.45419" lon="4.4114">
        <ele>489</ele>
      </trkpt>
      <trkpt lat="45.45425" lon="4.41148">
        <ele>489.4</ele>
      </trkpt>
      <trkpt lat="45.4543" lon="4.41156">
        <ele>489.9</ele>
      </trkpt>
      <trkpt lat="45.45436" lon="4.41164">
        <ele>490.5</ele>
      </trkpt>
      <trkpt lat="45.45442" lon="4.41172">
        <ele>490.9</ele>
      </trkpt>
      <trkpt lat="45.45447" lon="4.4118">
        <ele>491.2</ele>
      </trkpt>
      <trkpt lat="45.45453" lon="4.41188">
        <ele>491.7</ele>
      </trkpt>
      <trkpt lat="45.45459" lon="4.41196">
        <ele>492</ele>
      </trkpt>
      <trkpt lat="45.45464" lon="4.41205">
        <ele>492.5</ele>
      </trkpt>
      <trkpt lat="45.4547" lon="4.41213">
        <ele>492.9</ele>
      </trkpt>
      <trkpt lat="45.45475" lon="4.41221">
        <ele>493.6</ele>
      </trkpt>
      <trkpt lat="45.45481" lon="4.41229">
        <ele>494.7</ele>
      </trkpt>
      <trkpt lat="45.45487" lon="4.41237">
        <ele>495.6</ele>
      </trkpt>
      <trkpt lat="45.45492" lon="4.41245">
        <ele>496.3</ele>
      </trkpt>
      <trkpt lat="45.45498" lon="4.41253">
        <ele>497.3</ele>
      </trkpt>
      <trkpt lat="45.45504" lon="4.41261">
        <ele>498.7</ele>
      </trkpt>
      <trkpt lat="45.45509" lon="4.4127">
        <ele>499.2</ele>
      </trkpt>
      <trkpt lat="45.45515" lon="4.41278">
        <ele>498.8</ele>
      </trkpt>
      <trkpt lat="45.45521" lon="4.41286">
        <ele>497.9</ele>
      </trkpt>
      <trkpt lat="45.45526" lon="4.41294">
        <ele>497.2</ele>
      </trkpt>
      <trkpt lat="45.45532" lon="4.41302">
        <ele>497.3</ele>
        <time>2025-11-25T13:03:17.000Z</time>
      </trkpt>
      <trkpt lat="45.45532" lon="4.413">
        <ele>497.3</ele>
        <time>2025-11-25T13:03:18.000Z</time>
      </trkpt>
      <trkpt lat="45.45531" lon="4.4131">
        <ele>497.5</ele>
      </trkpt>
      <trkpt lat="45.4553" lon="4.4132">
        <ele>498.1</ele>
        <time>2025-11-25T13:03:25.000Z</time>
      </trkpt>
      <trkpt lat="45.45527" lon="4.41326">
        <ele>498.5</ele>
      </trkpt>
      <trkpt lat="45.45524" lon="4.41331">
        <ele>498.9</ele>
        <time>2025-11-25T13:03:29.000Z</time>
      </trkpt>
      <trkpt lat="45.45519" lon="4.41332">
        <ele>499</ele>
      </trkpt>
      <trkpt lat="45.45514" lon="4.41334">
        <ele>499</ele>
      </trkpt>
      <trkpt lat="45.45509" lon="4.41335">
        <ele>499.3</ele>
      </trkpt>
      <trkpt lat="45.45505" lon="4.41336">
        <ele>499.5</ele>
      </trkpt>
      <trkpt lat="45.455" lon="4.41337">
        <ele>499.7</ele>
      </trkpt>
      <trkpt lat="45.45495" lon="4.41339">
        <ele>500.2</ele>
      </trkpt>
      <trkpt lat="45.4549" lon="4.4134">
        <ele>500.7</ele>
      </trkpt>
      <trkpt lat="45.45485" lon="4.41341">
        <ele>501</ele>
        <time>2025-11-25T13:03:49.000Z</time>
      </trkpt>
      <trkpt lat="45.4548" lon="4.41346">
        <ele>501.1</ele>
      </trkpt>
      <trkpt lat="45.45474" lon="4.41351">
        <ele>500.8</ele>
      </trkpt>
      <trkpt lat="45.45469" lon="4.41355">
        <ele>500.7</ele>
      </trkpt>
      <trkpt lat="45.45463" lon="4.4136">
        <ele>501</ele>
        <time>2025-11-25T13:04:02.000Z</time>
      </trkpt>
      <trkpt lat="45.45459" lon="4.41366">
        <ele>501.2</ele>
      </trkpt>
      <trkpt lat="45.45456" lon="4.41372">
        <ele>501.3</ele>
      </trkpt>
      <trkpt lat="45.45452" lon="4.41378">
        <ele>501</ele>
      </trkpt>
      <trkpt lat="45.45448" lon="4.41384">
        <ele>500.6</ele>
      </trkpt>
      <trkpt lat="45.45445" lon="4.4139">
        <ele>500</ele>
      </trkpt>
      <trkpt lat="45.45441" lon="4.41396">
        <ele>500.6</ele>
      </trkpt>
      <trkpt lat="45.45437" lon="4.41402">
        <ele>501.3</ele>
      </trkpt>
      <trkpt lat="45.45433" lon="4.41408">
        <ele>501.9</ele>
      </trkpt>
      <trkpt lat="45.4543" lon="4.41414">
        <ele>502.5</ele>
      </trkpt>
      <trkpt lat="45.45426" lon="4.4142">
        <ele>502.8</ele>
      </trkpt>
      <trkpt lat="45.45422" lon="4.41426">
        <ele>502.6</ele>
      </trkpt>
      <trkpt lat="45.45419" lon="4.41431">
        <ele>502.3</ele>
      </trkpt>
      <trkpt lat="45.45415" lon="4.41437">
        <ele>501.9</ele>
      </trkpt>
      <trkpt lat="45.45411" lon="4.41443">
        <ele>501.9</ele>
      </trkpt>
      <trkpt lat="45.45408" lon="4.41449">
        <ele>502.1</ele>
      </trkpt>
      <trkpt lat="45.45404" lon="4.41455">
        <ele>502.3</ele>
      </trkpt>
      <trkpt lat="45.454" lon="4.41461">
        <ele>502.3</ele>
      </trkpt>
      <trkpt lat="45.45396" lon="4.41467">
        <ele>502.1</ele>
      </trkpt>
      <trkpt lat="45.45393" lon="4.41473">
        <ele>501.8</ele>
      </trkpt>
      <trkpt lat="45.45389" lon="4.41479">
        <ele>501.8</ele>
      </trkpt>
      <trkpt lat="45.45385" lon="4.41485">
        <ele>502.1</ele>
      </trkpt>
      <trkpt lat="45.45382" lon="4.41491">
        <ele>502.6</ele>
      </trkpt>
      <trkpt lat="45.45378" lon="4.41497">
        <ele>503.1</ele>
      </trkpt>
      <trkpt lat="45.45374" lon="4.41503">
        <ele>503.4</ele>
      </trkpt>
      <trkpt lat="45.4537" lon="4.41509">
        <ele>503.5</ele>
      </trkpt>
      <trkpt lat="45.45367" lon="4.41515">
        <ele>503.3</ele>
      </trkpt>
      <trkpt lat="45.45363" lon="4.41521">
        <ele>502.9</ele>
      </trkpt>
      <trkpt lat="45.45359" lon="4.41527">
        <ele>502.5</ele>
      </trkpt>
      <trkpt lat="45.45356" lon="4.41533">
        <ele>503</ele>
      </trkpt>
      <trkpt lat="45.45352" lon="4.41539">
        <ele>503.5</ele>
      </trkpt>
      <trkpt lat="45.45348" lon="4.41545">
        <ele>504</ele>
      </trkpt>
      <trkpt lat="45.45345" lon="4.41551">
        <ele>504.5</ele>
      </trkpt>
      <trkpt lat="45.45341" lon="4.41557">
        <ele>504.9</ele>
      </trkpt>
      <trkpt lat="45.45337" lon="4.41562">
        <ele>504.8</ele>
      </trkpt>
      <trkpt lat="45.45333" lon="4.41568">
        <ele>504.6</ele>
      </trkpt>
      <trkpt lat="45.4533" lon="4.41574">
        <ele>504.5</ele>
      </trkpt>
      <trkpt lat="45.45326" lon="4.4158">
        <ele>504.8</ele>
      </trkpt>
      <trkpt lat="45.45322" lon="4.41586">
        <ele>505.3</ele>
      </trkpt>
      <trkpt lat="45.45319" lon="4.41592">
        <ele>505.8</ele>
      </trkpt>
      <trkpt lat="45.45315" lon="4.41598">
        <ele>506.1</ele>
      </trkpt>
      <trkpt lat="45.45311" lon="4.41604">
        <ele>506.1</ele>
      </trkpt>
      <trkpt lat="45.45308" lon="4.4161">
        <ele>506</ele>
      </trkpt>
      <trkpt lat="45.45304" lon="4.41616">
        <ele>505.9</ele>
      </trkpt>
      <trkpt lat="45.453" lon="4.41622">
        <ele>506.2</ele>
      </trkpt>
      <trkpt lat="45.45296" lon="4.41628">
        <ele>506.5</ele>
      </trkpt>
      <trkpt lat="45.45293" lon="4.41634">
        <ele>507</ele>
      </trkpt>
      <trkpt lat="45.45289" lon="4.4164">
        <ele>507.5</ele>
      </trkpt>
      <trkpt lat="45.45285" lon="4.41646">
        <ele>508</ele>
      </trkpt>
      <trkpt lat="45.45282" lon="4.41652">
        <ele>508.4</ele>
      </trkpt>
      <trkpt lat="45.45278" lon="4.41658">
        <ele>508.6</ele>
      </trkpt>
      <trkpt lat="45.45274" lon="4.41664">
        <ele>508.6</ele>
      </trkpt>
      <trkpt lat="45.4527" lon="4.4167">
        <ele>508.7</ele>
      </trkpt>
      <trkpt lat="45.45267" lon="4.41676">
        <ele>509</ele>
      </trkpt>
      <trkpt lat="45.45263" lon="4.41682">
        <ele>509.3</ele>
      </trkpt>
      <trkpt lat="45.45259" lon="4.41687">
        <ele>509.7</ele>
      </trkpt>
      <trkpt lat="45.45256" lon="4.41693">
        <ele>510.2</ele>
      </trkpt>
      <trkpt lat="45.45252" lon="4.41699">
        <ele>510.4</ele>
      </trkpt>
      <trkpt lat="45.45248" lon="4.41705">
        <ele>510.3</ele>
      </trkpt>
      <trkpt lat="45.45245" lon="4.41711">
        <ele>510.2</ele>
      </trkpt>
      <trkpt lat="45.45241" lon="4.41717">
        <ele>510.2</ele>
      </trkpt>
      <trkpt lat="45.45237" lon="4.41723">
        <ele>510.4</ele>
      </trkpt>
      <trkpt lat="45.45233" lon="4.41729">
        <ele>510.7</ele>
      </trkpt>
      <trkpt lat="45.4523" lon="4.41735">
        <ele>511.3</ele>
      </trkpt>
      <trkpt lat="45.45226" lon="4.41741">
        <ele>512</ele>
        <time>2025-11-25T13:07:01.000Z</time>
      </trkpt>
      <trkpt lat="45.45228" lon="4.4175">
        <ele>511.7</ele>
      </trkpt>
      <trkpt lat="45.45231" lon="4.41759">
        <ele>510.9</ele>
      </trkpt>
      <trkpt lat="45.45233" lon="4.41767">
        <ele>510.4</ele>
      </trkpt>
      <trkpt lat="45.45236" lon="4.41776">
        <ele>510</ele>
      </trkpt>
      <trkpt lat="45.45238" lon="4.41785">
        <ele>510.1</ele>
      </trkpt>
      <trkpt lat="45.4524" lon="4.41794">
        <ele>510.1</ele>
      </trkpt>
      <trkpt lat="45.45243" lon="4.41802">
        <ele>510</ele>
      </trkpt>
      <trkpt lat="45.45245" lon="4.41811">
        <ele>510.4</ele>
        <time>2025-11-25T13:07:27.000Z</time>
      </trkpt>
      <trkpt lat="45.45248" lon="4.41816">
        <ele>510.8</ele>
      </trkpt>
      <trkpt lat="45.4525" lon="4.41822">
        <ele>511.3</ele>
      </trkpt>
      <trkpt lat="45.45253" lon="4.41827">
        <ele>512</ele>
      </trkpt>
      <trkpt lat="45.45256" lon="4.41833">
        <ele>512.7</ele>
      </trkpt>
      <trkpt lat="45.45258" lon="4.41838">
        <ele>512.9</ele>
      </trkpt>
      <trkpt lat="45.45261" lon="4.41844">
        <ele>513</ele>
      </trkpt>
      <trkpt lat="45.45264" lon="4.41849">
        <ele>513.1</ele>
      </trkpt>
      <trkpt lat="45.45267" lon="4.41855">
        <ele>513.2</ele>
      </trkpt>
      <trkpt lat="45.45269" lon="4.4186">
        <ele>513.3</ele>
      </trkpt>
      <trkpt lat="45.45272" lon="4.41865">
        <ele>513.4</ele>
      </trkpt>
      <trkpt lat="45.45275" lon="4.41871">
        <ele>513.5</ele>
      </trkpt>
      <trkpt lat="45.45277" lon="4.41876">
        <ele>513.6</ele>
      </trkpt>
      <trkpt lat="45.4528" lon="4.41882">
        <ele>513.7</ele>
      </trkpt>
      <trkpt lat="45.45283" lon="4.41887">
        <ele>513.8</ele>
      </trkpt>
      <trkpt lat="45.45285" lon="4.41893">
        <ele>513.9</ele>
      </trkpt>
      <trkpt lat="45.45288" lon="4.41898">
        <ele>514</ele>
        <time>2025-11-25T13:08:05.000Z</time>
      </trkpt>
      <trkpt lat="45.45292" lon="4.41903">
        <ele>514</ele>
      </trkpt>
      <trkpt lat="45.45296" lon="4.41907">
        <ele>514</ele>
      </trkpt>
      <trkpt lat="45.453" lon="4.41912">
        <ele>514</ele>
      </trkpt>
      <trkpt lat="45.45304" lon="4.41916">
        <ele>514</ele>
        <time>2025-11-25T13:08:15.000Z</time>
      </trkpt>
      <trkpt lat="45.45311" lon="4.4192">
        <ele>513.6</ele>
      </trkpt>
      <trkpt lat="45.45319" lon="4.41924">
        <ele>513.3</ele>
      </trkpt>
      <trkpt lat="45.45326" lon="4.41928">
        <ele>513.1</ele>
      </trkpt>
      <trkpt lat="45.45333" lon="4.41932">
        <ele>513.1</ele>
      </trkpt>
      <trkpt lat="45.4534" lon="4.41936">
        <ele>513.5</ele>
      </trkpt>
      <trkpt lat="45.45348" lon="4.4194">
        <ele>513.8</ele>
      </trkpt>
      <trkpt lat="45.45355" lon="4.41944">
        <ele>514</ele>
      </trkpt>
      <trkpt lat="45.45362" lon="4.41948">
        <ele>514.2</ele>
        <time>2025-11-25T13:08:46.000Z</time>
      </trkpt>
      <trkpt lat="45.45366" lon="4.41953">
        <ele>514.4</ele>
      </trkpt>
      <trkpt lat="45.45371" lon="4.41958">
        <ele>514.5</ele>
      </trkpt>
      <trkpt lat="45.45375" lon="4.41963">
        <ele>514.5</ele>
      </trkpt>
      <trkpt lat="45.45379" lon="4.41968">
        <ele>514.4</ele>
        <time>2025-11-25T13:08:57.000Z</time>
      </trkpt>
      <trkpt lat="45.45383" lon="4.41974">
        <ele>514.3</ele>
      </trkpt>
      <trkpt lat="45.45387" lon="4.4198">
        <ele>514.6</ele>
      </trkpt>
      <trkpt lat="45.45391" lon="4.41986">
        <ele>514.8</ele>
      </trkpt>
      <trkpt lat="45.45395" lon="4.41992">
        <ele>514.9</ele>
      </trkpt>
      <trkpt lat="45.45399" lon="4.41998">
        <ele>514.8</ele>
      </trkpt>
      <trkpt lat="45.45403" lon="4.42004">
        <ele>515.2</ele>
      </trkpt>
      <trkpt lat="45.45407" lon="4.4201">
        <ele>515.8</ele>
      </trkpt>
      <trkpt lat="45.45412" lon="4.42016">
        <ele>516.2</ele>
      </trkpt>
      <trkpt lat="45.45416" lon="4.42022">
        <ele>516.4</ele>
      </trkpt>
      <trkpt lat="45.4542" lon="4.42028">
        <ele>516.4</ele>
      </trkpt>
      <trkpt lat="45.45424" lon="4.42034">
        <ele>516.8</ele>
      </trkpt>
      <trkpt lat="45.45428" lon="4.4204">
        <ele>517.1</ele>
      </trkpt>
      <trkpt lat="45.45432" lon="4.42046">
        <ele>517.3</ele>
      </trkpt>
      <trkpt lat="45.45436" lon="4.42052">
        <ele>517.5</ele>
      </trkpt>
      <trkpt lat="45.4544" lon="4.42058">
        <ele>517.5</ele>
      </trkpt>
      <trkpt lat="45.45444" lon="4.42064">
        <ele>517.3</ele>
        <time>2025-11-25T13:09:44.000Z</time>
      </trkpt>
      <trkpt lat="45.45447" lon="4.4207">
        <ele>517.5</ele>
      </trkpt>
      <trkpt lat="45.45451" lon="4.42076">
        <ele>517.5</ele>
      </trkpt>
      <trkpt lat="45.45454" lon="4.42082">
        <ele>517.4</ele>
      </trkpt>
      <trkpt lat="45.45457" lon="4.42088">
        <ele>517.9</ele>
      </trkpt>
      <trkpt lat="45.45461" lon="4.42094">
        <ele>518.2</ele>
      </trkpt>
      <trkpt lat="45.45464" lon="4.421">
        <ele>518.3</ele>
      </trkpt>
      <trkpt lat="45.45467" lon="4.42106">
        <ele>518.2</ele>
      </trkpt>
      <trkpt lat="45.45471" lon="4.42112">
        <ele>517.8</ele>
      </trkpt>
      <trkpt lat="45.45474" lon="4.42118">
        <ele>518</ele>
      </trkpt>
      <trkpt lat="45.45477" lon="4.42124">
        <ele>518.2</ele>
      </trkpt>
      <trkpt lat="45.45481" lon="4.4213">
        <ele>518.3</ele>
      </trkpt>
      <trkpt lat="45.45484" lon="4.42136">
        <ele>518.2</ele>
      </trkpt>
      <trkpt lat="45.45488" lon="4.42142">
        <ele>518.1</ele>
      </trkpt>
      <trkpt lat="45.45491" lon="4.42148">
        <ele>518.1</ele>
      </trkpt>
      <trkpt lat="45.45494" lon="4.42154">
        <ele>517.7</ele>
      </trkpt>
      <trkpt lat="45.45498" lon="4.4216">
        <ele>517.2</ele>
      </trkpt>
      <trkpt lat="45.45501" lon="4.42166">
        <ele>516.7</ele>
      </trkpt>
      <trkpt lat="45.45504" lon="4.42172">
        <ele>517.4</ele>
      </trkpt>
      <trkpt lat="45.45508" lon="4.42178">
        <ele>518</ele>
      </trkpt>
      <trkpt lat="45.45511" lon="4.42184">
        <ele>518.5</ele>
      </trkpt>
      <trkpt lat="45.45514" lon="4.4219">
        <ele>518.9</ele>
      </trkpt>
      <trkpt lat="45.45518" lon="4.42196">
        <ele>518.9</ele>
      </trkpt>
      <trkpt lat="45.45521" lon="4.42202">
        <ele>518.7</ele>
      </trkpt>
      <trkpt lat="45.45524" lon="4.42208">
        <ele>518.4</ele>
      </trkpt>
      <trkpt lat="45.45528" lon="4.42214">
        <ele>517.9</ele>
      </trkpt>
      <trkpt lat="45.45531" lon="4.4222">
        <ele>518.1</ele>
      </trkpt>
      <trkpt lat="45.45534" lon="4.42226">
        <ele>518.8</ele>
      </trkpt>
      <trkpt lat="45.45538" lon="4.42232">
        <ele>519.6</ele>
      </trkpt>
      <trkpt lat="45.45541" lon="4.42238">
        <ele>520.1</ele>
      </trkpt>
      <trkpt lat="45.45544" lon="4.42244">
        <ele>520.4</ele>
      </trkpt>
      <trkpt lat="45.45548" lon="4.4225">
        <ele>520.5</ele>
      </trkpt>
      <trkpt lat="45.45551" lon="4.42256">
        <ele>519.8</ele>
        <time>2025-11-25T13:11:10.000Z</time>
      </trkpt>
      <trkpt lat="45.45554" lon="4.42262">
        <ele>519.5</ele>
      </trkpt>
      <trkpt lat="45.45556" lon="4.42269">
        <ele>519.2</ele>
      </trkpt>
      <trkpt lat="45.45559" lon="4.42275">
        <ele>519</ele>
      </trkpt>
      <trkpt lat="45.45561" lon="4.42281">
        <ele>519</ele>
        <time>2025-11-25T13:11:20.000Z</time>
      </trkpt>
      <trkpt lat="45.45563" lon="4.42292">
        <ele>519.7</ele>
      </trkpt>
      <trkpt lat="45.45564" lon="4.42304">
        <ele>520.3</ele>
      </trkpt>
      <trkpt lat="45.45566" lon="4.42315">
        <ele>520.7</ele>
      </trkpt>
      <trkpt lat="45.45568" lon="4.42326">
        <ele>521.2</ele>
      </trkpt>
      <trkpt lat="45.45569" lon="4.42337">
        <ele>521.7</ele>
      </trkpt>
      <trkpt lat="45.45571" lon="4.42349">
        <ele>521.9</ele>
      </trkpt>
      <trkpt lat="45.45572" lon="4.4236">
        <ele>522.1</ele>
      </trkpt>
      <trkpt lat="45.45574" lon="4.42371">
        <ele>522.8</ele>
        <time>2025-11-25T13:11:52.000Z</time>
      </trkpt>
      <trkpt lat="45.45577" lon="4.42378">
        <ele>523.2</ele>
      </trkpt>
      <trkpt lat="45.45579" lon="4.42384">
        <ele>523.7</ele>
      </trkpt>
      <trkpt lat="45.45582" lon="4.42391">
        <ele>524.1</ele>
      </trkpt>
      <trkpt lat="45.45584" lon="4.42397">
        <ele>524.2</ele>
        <time>2025-11-25T13:12:03.000Z</time>
      </trkpt>
      <trkpt lat="45.45587" lon="4.42404">
        <ele>524</ele>
      </trkpt>
      <trkpt lat="45.45591" lon="4.4241">
        <ele>524</ele>
      </trkpt>
      <trkpt lat="45.45594" lon="4.42417">
        <ele>524.2</ele>
      </trkpt>
      <trkpt lat="45.45598" lon="4.42424">
        <ele>524.2</ele>
      </trkpt>
      <trkpt lat="45.45601" lon="4.4243">
        <ele>524.3</ele>
      </trkpt>
      <trkpt lat="45.45605" lon="4.42437">
        <ele>524.6</ele>
      </trkpt>
      <trkpt lat="45.45608" lon="4.42443">
        <ele>524.9</ele>
      </trkpt>
      <trkpt lat="45.45612" lon="4.4245">
        <ele>525.2</ele>
      </trkpt>
      <trkpt lat="45.45615" lon="4.42457">
        <ele>525.3</ele>
      </trkpt>
      <trkpt lat="45.45618" lon="4.42463">
        <ele>525.4</ele>
      </trkpt>
      <trkpt lat="45.45622" lon="4.4247">
        <ele>525.5</ele>
      </trkpt>
      <trkpt lat="45.45625" lon="4.42477">
        <ele>526</ele>
      </trkpt>
      <trkpt lat="45.45629" lon="4.42483">
        <ele>526.6</ele>
      </trkpt>
      <trkpt lat="45.45632" lon="4.4249">
        <ele>527</ele>
      </trkpt>
      <trkpt lat="45.45636" lon="4.42496">
        <ele>527.2</ele>
      </trkpt>
      <trkpt lat="45.45639" lon="4.42503">
        <ele>527.3</ele>
        <time>2025-11-25T13:12:49.000Z</time>
      </trkpt>
      <trkpt lat="45.45643" lon="4.4251">
        <ele>527.5</ele>
      </trkpt>
      <trkpt lat="45.45648" lon="4.42517">
        <ele>527.6</ele>
      </trkpt>
      <trkpt lat="45.45652" lon="4.42524">
        <ele>527.8</ele>
      </trkpt>
      <trkpt lat="45.45656" lon="4.42532">
        <ele>527.8</ele>
      </trkpt>
      <trkpt lat="45.4566" lon="4.42539">
        <ele>527.9</ele>
      </trkpt>
      <trkpt lat="45.45665" lon="4.42546">
        <ele>528.2</ele>
      </trkpt>
      <trkpt lat="45.45669" lon="4.42553">
        <ele>528.6</ele>
      </trkpt>
      <trkpt lat="45.45673" lon="4.4256">
        <ele>529.1</ele>
        <time>2025-11-25T13:13:15.000Z</time>
      </trkpt>
      <trkpt lat="45.45681" lon="4.42563">
        <ele>529</ele>
        <time>2025-11-25T13:13:19.000Z</time>
      </trkpt>
      <trkpt lat="45.45687" lon="4.42567">
        <ele>529.1</ele>
      </trkpt>
      <trkpt lat="45.45693" lon="4.42572">
        <ele>529.2</ele>
      </trkpt>
      <trkpt lat="45.45699" lon="4.42576">
        <ele>529.2</ele>
      </trkpt>
      <trkpt lat="45.45706" lon="4.4258">
        <ele>529.1</ele>
      </trkpt>
      <trkpt lat="45.45712" lon="4.42584">
        <ele>529</ele>
      </trkpt>
      <trkpt lat="45.45718" lon="4.42589">
        <ele>529.6</ele>
      </trkpt>
      <trkpt lat="45.45724" lon="4.42593">
        <ele>530.3</ele>
      </trkpt>
      <trkpt lat="45.4573" lon="4.42597">
        <ele>530.9</ele>
        <time>2025-11-25T13:13:47.000Z</time>
      </trkpt>
      <trkpt lat="45.45736" lon="4.42597">
        <ele>530.5</ele>
      </trkpt>
      <trkpt lat="45.45742" lon="4.42598">
        <ele>530.1</ele>
      </trkpt>
      <trkpt lat="45.45748" lon="4.42598">
        <ele>529.7</ele>
      </trkpt>
      <trkpt lat="45.45755" lon="4.42598">
        <ele>529.6</ele>
      </trkpt>
      <trkpt lat="45.45761" lon="4.42598">
        <ele>529.7</ele>
      </trkpt>
      <trkpt lat="45.45767" lon="4.42599">
        <ele>529.8</ele>
      </trkpt>
      <trkpt lat="45.45773" lon="4.42599">
        <ele>529.9</ele>
      </trkpt>
      <trkpt lat="45.45779" lon="4.42599">
        <ele>529.9</ele>
        <time>2025-11-25T13:14:11.000Z</time>
      </trkpt>
      <trkpt lat="45.45784" lon="4.42601">
        <ele>529.8</ele>
      </trkpt>
      <trkpt lat="45.45789" lon="4.42602">
        <ele>529.8</ele>
      </trkpt>
      <trkpt lat="45.45794" lon="4.42604">
        <ele>529.7</ele>
      </trkpt>
      <trkpt lat="45.45799" lon="4.42605">
        <ele>529.5</ele>
        <time>2025-11-25T13:14:21.000Z</time>
      </trkpt>
      <trkpt lat="45.45803" lon="4.42608">
        <ele>529.7</ele>
      </trkpt>
      <trkpt lat="45.45807" lon="4.42611">
        <ele>529.8</ele>
      </trkpt>
      <trkpt lat="45.45811" lon="4.42614">
        <ele>529.9</ele>
      </trkpt>
      <trkpt lat="45.45815" lon="4.42617">
        <ele>530</ele>
        <time>2025-11-25T13:14:30.000Z</time>
      </trkpt>
      <trkpt lat="45.45819" lon="4.42623">
        <ele>530.5</ele>
      </trkpt>
      <trkpt lat="45.45822" lon="4.42629">
        <ele>531</ele>
      </trkpt>
      <trkpt lat="45.45826" lon="4.42634">
        <ele>531.4</ele>
      </trkpt>
      <trkpt lat="45.4583" lon="4.4264">
        <ele>531.8</ele>
      </trkpt>
      <trkpt lat="45.45833" lon="4.42646">
        <ele>532.6</ele>
      </trkpt>
      <trkpt lat="45.45837" lon="4.42652">
        <ele>533.3</ele>
      </trkpt>
      <trkpt lat="45.4584" lon="4.42658">
        <ele>534</ele>
      </trkpt>
      <trkpt lat="45.45844" lon="4.42664">
        <ele>534.5</ele>
      </trkpt>
      <trkpt lat="45.45848" lon="4.42669">
        <ele>534.7</ele>
      </trkpt>
      <trkpt lat="45.45851" lon="4.42675">
        <ele>534.8</ele>
      </trkpt>
      <trkpt lat="45.45855" lon="4.42681">
        <ele>534.9</ele>
      </trkpt>
      <trkpt lat="45.45859" lon="4.42687">
        <ele>535.2</ele>
      </trkpt>
      <trkpt lat="45.45862" lon="4.42693">
        <ele>535.7</ele>
      </trkpt>
      <trkpt lat="45.45866" lon="4.42698">
        <ele>536.1</ele>
      </trkpt>
      <trkpt lat="45.45869" lon="4.42704">
        <ele>536.5</ele>
      </trkpt>
      <trkpt lat="45.45873" lon="4.4271">
        <ele>536.8</ele>
        <time>2025-11-25T13:15:14.000Z</time>
      </trkpt>
      <trkpt lat="45.45876" lon="4.4272">
        <ele>537.6</ele>
      </trkpt>
      <trkpt lat="45.45879" lon="4.42729">
        <ele>538.2</ele>
      </trkpt>
      <trkpt lat="45.45882" lon="4.42739">
        <ele>538.7</ele>
      </trkpt>
      <trkpt lat="45.45885" lon="4.42748">
        <ele>539.1</ele>
        <time>2025-11-25T13:15:29.000Z</time>
      </trkpt>
      <trkpt lat="45.45886" lon="4.42755">
        <ele>539.4</ele>
      </trkpt>
      <trkpt lat="45.45886" lon="4.42762">
        <ele>539.6</ele>
      </trkpt>
      <trkpt lat="45.45887" lon="4.42769">
        <ele>539.8</ele>
      </trkpt>
      <trkpt lat="45.45887" lon="4.42776">
        <ele>540.1</ele>
      </trkpt>
      <trkpt lat="45.45888" lon="4.42783">
        <ele>540.3</ele>
      </trkpt>
      <trkpt lat="45.45888" lon="4.4279">
        <ele>540.5</ele>
      </trkpt>
      <trkpt lat="45.45889" lon="4.42797">
        <ele>540.7</ele>
      </trkpt>
      <trkpt lat="45.4589" lon="4.42805">
        <ele>540.9</ele>
      </trkpt>
      <trkpt lat="45.4589" lon="4.42812">
        <ele>540.7</ele>
      </trkpt>
      <trkpt lat="45.45891" lon="4.42819">
        <ele>540.4</ele>
      </trkpt>
      <trkpt lat="45.45891" lon="4.42826">
        <ele>540.1</ele>
      </trkpt>
      <trkpt lat="45.45892" lon="4.42833">
        <ele>539.8</ele>
      </trkpt>
      <trkpt lat="45.45892" lon="4.4284">
        <ele>539.2</ele>
      </trkpt>
      <trkpt lat="45.45893" lon="4.42847">
        <ele>538.6</ele>
      </trkpt>
      <trkpt lat="45.45893" lon="4.42854">
        <ele>538</ele>
      </trkpt>
      <trkpt lat="45.45894" lon="4.42861">
        <ele>537.3</ele>
        <time>2025-11-25T13:16:09.000Z</time>
      </trkpt>
      <trkpt lat="45.45897" lon="4.42869">
        <ele>536.1</ele>
      </trkpt>
      <trkpt lat="45.45899" lon="4.42877">
        <ele>535.1</ele>
      </trkpt>
      <trkpt lat="45.45902" lon="4.42885">
        <ele>534</ele>
      </trkpt>
      <trkpt lat="45.45904" lon="4.42893">
        <ele>533.6</ele>
      </trkpt>
      <trkpt lat="45.45907" lon="4.429">
        <ele>534</ele>
      </trkpt>
      <trkpt lat="45.45909" lon="4.42908">
        <ele>534.6</ele>
      </trkpt>
      <trkpt lat="45.45912" lon="4.42916">
        <ele>535.6</ele>
      </trkpt>
      <trkpt lat="45.45914" lon="4.42924">
        <ele>536.8</ele>
        <time>2025-11-25T13:16:33.000Z</time>
      </trkpt>
      <trkpt lat="45.45914" lon="4.42934">
        <ele>538.1</ele>
        <time>2025-11-25T13:16:36.000Z</time>
      </trkpt>
      <trkpt lat="45.45911" lon="4.42942">
        <ele>538.6</ele>
      </trkpt>
      <trkpt lat="45.45909" lon="4.42951">
        <ele>539</ele>
      </trkpt>
      <trkpt lat="45.45906" lon="4.42959">
        <ele>539.3</ele>
      </trkpt>
      <trkpt lat="45.45903" lon="4.42967">
        <ele>539.5</ele>
        <time>2025-11-25T13:16:49.000Z</time>
      </trkpt>
      <trkpt lat="45.45902" lon="4.42975">
        <ele>540</ele>
      </trkpt>
      <trkpt lat="45.459" lon="4.42983">
        <ele>540.7</ele>
        <time>2025-11-25T13:16:55.000Z</time>
      </trkpt>
      <trkpt lat="45.45899" lon="4.4299">
        <ele>541.4</ele>
      </trkpt>
      <trkpt lat="45.45899" lon="4.42997">
        <ele>542.1</ele>
      </trkpt>
      <trkpt lat="45.45898" lon="4.43003">
        <ele>542.7</ele>
      </trkpt>
      <trkpt lat="45.45898" lon="4.4301">
        <ele>543.3</ele>
      </trkpt>
      <trkpt lat="45.45897" lon="4.43017">
        <ele>543.9</ele>
      </trkpt>
      <trkpt lat="45.45896" lon="4.43024">
        <ele>544.4</ele>
      </trkpt>
      <trkpt lat="45.45896" lon="4.43031">
        <ele>544.9</ele>
      </trkpt>
      <trkpt lat="45.45895" lon="4.43038">
        <ele>545.2</ele>
      </trkpt>
      <trkpt lat="45.45894" lon="4.43044">
        <ele>545.5</ele>
      </trkpt>
      <trkpt lat="45.45894" lon="4.43051">
        <ele>545.8</ele>
      </trkpt>
      <trkpt lat="45.45893" lon="4.43058">
        <ele>546</ele>
      </trkpt>
      <trkpt lat="45.45893" lon="4.43065">
        <ele>546.5</ele>
      </trkpt>
      <trkpt lat="45.45892" lon="4.43072">
        <ele>546.9</ele>
      </trkpt>
      <trkpt lat="45.45891" lon="4.43078">
        <ele>547.3</ele>
      </trkpt>
      <trkpt lat="45.45891" lon="4.43085">
        <ele>547.7</ele>
      </trkpt>
      <trkpt lat="45.4589" lon="4.43092">
        <ele>548</ele>
        <time>2025-11-25T13:17:34.000Z</time>
      </trkpt>
      <trkpt lat="45.4589" lon="4.43102">
        <ele>548.8</ele>
      </trkpt>
      <trkpt lat="45.45891" lon="4.43112">
        <ele>549.5</ele>
      </trkpt>
      <trkpt lat="45.45891" lon="4.43122">
        <ele>549.6</ele>
      </trkpt>
      <trkpt lat="45.45891" lon="4.43132">
        <ele>549.6</ele>
        <time>2025-11-25T13:17:48.000Z</time>
      </trkpt>
      <trkpt lat="45.45892" lon="4.4314">
        <ele>549.9</ele>
      </trkpt>
      <trkpt lat="45.45893" lon="4.43147">
        <ele>550.4</ele>
      </trkpt>
      <trkpt lat="45.45894" lon="4.43155">
        <ele>550.8</ele>
      </trkpt>
      <trkpt lat="45.45895" lon="4.43163">
        <ele>551.2</ele>
      </trkpt>
      <trkpt lat="45.45896" lon="4.4317">
        <ele>551.7</ele>
      </trkpt>
      <trkpt lat="45.45897" lon="4.43178">
        <ele>552.3</ele>
      </trkpt>
      <trkpt lat="45.45898" lon="4.43185">
        <ele>552.9</ele>
      </trkpt>
      <trkpt lat="45.45899" lon="4.43193">
        <ele>553.4</ele>
        <time>2025-11-25T13:18:10.000Z</time>
      </trkpt>
      <trkpt lat="45.45902" lon="4.43204">
        <ele>554.3</ele>
      </trkpt>
      <trkpt lat="45.45906" lon="4.43215">
        <ele>555.2</ele>
      </trkpt>
      <trkpt lat="45.45909" lon="4.43226">
        <ele>556.1</ele>
      </trkpt>
      <trkpt lat="45.45913" lon="4.43237">
        <ele>557.1</ele>
      </trkpt>
      <trkpt lat="45.45916" lon="4.43248">
        <ele>557.9</ele>
      </trkpt>
      <trkpt lat="45.45919" lon="4.43259">
        <ele>558.8</ele>
      </trkpt>
      <trkpt lat="45.45923" lon="4.4327">
        <ele>559.6</ele>
      </trkpt>
      <trkpt lat="45.45926" lon="4.43281">
        <ele>560.1</ele>
        <time>2025-11-25T13:18:43.000Z</time>
      </trkpt>
      <trkpt lat="45.45927" lon="4.43293">
        <ele>560.6</ele>
      </trkpt>
      <trkpt lat="45.45927" lon="4.43305">
        <ele>561.1</ele>
        <time>2025-11-25T13:18:52.000Z</time>
      </trkpt>
      <trkpt lat="45.45926" lon="4.43314">
        <ele>561.3</ele>
      </trkpt>
      <trkpt lat="45.45926" lon="4.43322">
        <ele>561.6</ele>
      </trkpt>
      <trkpt lat="45.45925" lon="4.43331">
        <ele>561.8</ele>
      </trkpt>
      <trkpt lat="45.45925" lon="4.43339">
        <ele>561.8</ele>
      </trkpt>
      <trkpt lat="45.45924" lon="4.43348">
        <ele>561.8</ele>
      </trkpt>
      <trkpt lat="45.45923" lon="4.43356">
        <ele>561.8</ele>
      </trkpt>
      <trkpt lat="45.45923" lon="4.43365">
        <ele>561.8</ele>
      </trkpt>
      <trkpt lat="45.45922" lon="4.43373">
        <ele>561.9</ele>
        <time>2025-11-25T13:19:16.000Z</time>
      </trkpt>
      <trkpt lat="45.45923" lon="4.43382">
        <ele>561.9</ele>
      </trkpt>
      <trkpt lat="45.45924" lon="4.4339">
        <ele>562</ele>
      </trkpt>
      <trkpt lat="45.45925" lon="4.43399">
        <ele>562.3</ele>
      </trkpt>
      <trkpt lat="45.45926" lon="4.43407">
        <ele>562.7</ele>
        <time>2025-11-25T13:19:28.000Z</time>
      </trkpt>
      <trkpt lat="45.45928" lon="4.43414">
        <ele>562.9</ele>
      </trkpt>
      <trkpt lat="45.45929" lon="4.4342">
        <ele>562.9</ele>
      </trkpt>
      <trkpt lat="45.45931" lon="4.43427">
        <ele>562.8</ele>
      </trkpt>
      <trkpt lat="45.45932" lon="4.43433">
        <ele>562.7</ele>
        <time>2025-11-25T13:19:37.000Z</time>
      </trkpt>
      <trkpt lat="45.45936" lon="4.43442">
        <ele>562.4</ele>
      </trkpt>
      <trkpt lat="45.45939" lon="4.4345">
        <ele>562</ele>
      </trkpt>
      <trkpt lat="45.45943" lon="4.43459">
        <ele>561.6</ele>
      </trkpt>
      <trkpt lat="45.45946" lon="4.43467">
        <ele>561.6</ele>
        <time>2025-11-25T13:19:51.000Z</time>
      </trkpt>
      <trkpt lat="45.45948" lon="4.43474">
        <ele>561.9</ele>
      </trkpt>
      <trkpt lat="45.4595" lon="4.4348">
        <ele>562.6</ele>
      </trkpt>
      <trkpt lat="45.45952" lon="4.43487">
        <ele>563.1</ele>
      </trkpt>
      <trkpt lat="45.45954" lon="4.43494">
        <ele>563.6</ele>
      </trkpt>
      <trkpt lat="45.45956" lon="4.435">
        <ele>564.1</ele>
      </trkpt>
      <trkpt lat="45.45958" lon="4.43507">
        <ele>564.7</ele>
      </trkpt>
      <trkpt lat="45.4596" lon="4.43513">
        <ele>565.2</ele>
      </trkpt>
      <trkpt lat="45.45962" lon="4.4352">
        <ele>565.5</ele>
        <time>2025-11-25T13:20:11.000Z</time>
      </trkpt>
      <trkpt lat="45.45965" lon="4.43525">
        <ele>565.7</ele>
      </trkpt>
      <trkpt lat="45.45968" lon="4.43531">
        <ele>565.8</ele>
      </trkpt>
      <trkpt lat="45.4597" lon="4.43536">
        <ele>565.9</ele>
      </trkpt>
      <trkpt lat="45.45973" lon="4.43542">
        <ele>566.1</ele>
      </trkpt>
      <trkpt lat="45.45976" lon="4.43547">
        <ele>566.4</ele>
      </trkpt>
      <trkpt lat="45.45979" lon="4.43552">
        <ele>566.7</ele>
      </trkpt>
      <trkpt lat="45.45981" lon="4.43558">
        <ele>567</ele>
      </trkpt>
      <trkpt lat="45.45984" lon="4.43563">
        <ele>567.3</ele>
      </trkpt>
      <trkpt lat="45.45987" lon="4.43568">
        <ele>567.6</ele>
      </trkpt>
      <trkpt lat="45.4599" lon="4.43574">
        <ele>567.9</ele>
      </trkpt>
      <trkpt lat="45.45992" lon="4.43579">
        <ele>568.2</ele>
      </trkpt>
      <trkpt lat="45.45995" lon="4.43585">
        <ele>568.5</ele>
      </trkpt>
      <trkpt lat="45.45998" lon="4.4359">
        <ele>569</ele>
      </trkpt>
      <trkpt lat="45.46001" lon="4.43595">
        <ele>569.4</ele>
      </trkpt>
      <trkpt lat="45.46003" lon="4.43601">
        <ele>569.7</ele>
      </trkpt>
      <trkpt lat="45.46006" lon="4.43606">
        <ele>570</ele>
      </trkpt>
      <trkpt lat="45.46009" lon="4.43611">
        <ele>570.3</ele>
      </trkpt>
      <trkpt lat="45.46012" lon="4.43617">
        <ele>570.7</ele>
      </trkpt>
      <trkpt lat="45.46014" lon="4.43622">
        <ele>571.1</ele>
      </trkpt>
      <trkpt lat="45.46017" lon="4.43628">
        <ele>571.6</ele>
      </trkpt>
      <trkpt lat="45.4602" lon="4.43633">
        <ele>572</ele>
      </trkpt>
      <trkpt lat="45.46023" lon="4.43638">
        <ele>572.6</ele>
      </trkpt>
      <trkpt lat="45.46025" lon="4.43644">
        <ele>573.1</ele>
      </trkpt>
      <trkpt lat="45.46028" lon="4.43649">
        <ele>573.7</ele>
      </trkpt>
      <trkpt lat="45.46031" lon="4.43654">
        <ele>574.1</ele>
      </trkpt>
      <trkpt lat="45.46034" lon="4.4366">
        <ele>574.5</ele>
      </trkpt>
      <trkpt lat="45.46036" lon="4.43665">
        <ele>574.9</ele>
      </trkpt>
      <trkpt lat="45.46039" lon="4.43671">
        <ele>575.3</ele>
      </trkpt>
      <trkpt lat="45.46042" lon="4.43676">
        <ele>575.7</ele>
      </trkpt>
      <trkpt lat="45.46045" lon="4.43681">
        <ele>576.1</ele>
      </trkpt>
      <trkpt lat="45.46047" lon="4.43687">
        <ele>576.4</ele>
      </trkpt>
      <trkpt lat="45.4605" lon="4.43692">
        <ele>576.8</ele>
        <time>2025-11-25T13:21:26.000Z</time>
      </trkpt>
      <trkpt lat="45.46057" lon="4.43697">
        <ele>577.1</ele>
      </trkpt>
      <trkpt lat="45.46064" lon="4.43702">
        <ele>577.4</ele>
        <time>2025-11-25T13:21:34.000Z</time>
      </trkpt>
      <trkpt lat="45.46063" lon="4.43711">
        <ele>577.9</ele>
      </trkpt>
      <trkpt lat="45.46062" lon="4.43721">
        <ele>578.3</ele>
      </trkpt>
      <trkpt lat="45.4606" lon="4.4373">
        <ele>578.9</ele>
      </trkpt>
      <trkpt lat="45.46059" lon="4.43739">
        <ele>579.5</ele>
        <time>2025-11-25T13:21:47.000Z</time>
      </trkpt>
      <trkpt lat="45.46056" lon="4.43747">
        <ele>579.8</ele>
      </trkpt>
      <trkpt lat="45.46054" lon="4.43754">
        <ele>580.4</ele>
      </trkpt>
      <trkpt lat="45.46051" lon="4.43762">
        <ele>580.9</ele>
      </trkpt>
      <trkpt lat="45.46049" lon="4.43769">
        <ele>581.5</ele>
      </trkpt>
      <trkpt lat="45.46046" lon="4.43777">
        <ele>581.9</ele>
      </trkpt>
      <trkpt lat="45.46043" lon="4.43784">
        <ele>582.2</ele>
      </trkpt>
      <trkpt lat="45.46041" lon="4.43792">
        <ele>582.6</ele>
      </trkpt>
      <trkpt lat="45.46038" lon="4.43799">
        <ele>582.9</ele>
        <time>2025-11-25T13:22:11.000Z</time>
      </trkpt>
      <trkpt lat="45.46038" lon="4.43811">
        <ele>583.8</ele>
      </trkpt>
      <trkpt lat="45.46038" lon="4.43824">
        <ele>584.7</ele>
      </trkpt>
      <trkpt lat="45.46037" lon="4.43836">
        <ele>585.5</ele>
      </trkpt>
      <trkpt lat="45.46037" lon="4.43848">
        <ele>586.4</ele>
        <time>2025-11-25T13:22:28.000Z</time>
      </trkpt>
      <trkpt lat="45.46037" lon="4.43858">
        <ele>587.2</ele>
      </trkpt>
      <trkpt lat="45.46038" lon="4.43869">
        <ele>588</ele>
      </trkpt>
      <trkpt lat="45.46038" lon="4.43879">
        <ele>588.8</ele>
      </trkpt>
      <trkpt lat="45.46039" lon="4.43889">
        <ele>589.6</ele>
      </trkpt>
      <trkpt lat="45.46039" lon="4.439">
        <ele>590.4</ele>
      </trkpt>
      <trkpt lat="45.46039" lon="4.4391">
        <ele>591.2</ele>
      </trkpt>
      <trkpt lat="45.4604" lon="4.4392">
        <ele>592</ele>
      </trkpt>
      <trkpt lat="45.4604" lon="4.43931">
        <ele>592.8</ele>
      </trkpt>
      <trkpt lat="45.4604" lon="4.43941">
        <ele>593.6</ele>
      </trkpt>
      <trkpt lat="45.46041" lon="4.43951">
        <ele>594.2</ele>
      </trkpt>
      <trkpt lat="45.46041" lon="4.43961">
        <ele>594.8</ele>
      </trkpt>
      <trkpt lat="45.46042" lon="4.43972">
        <ele>595.5</ele>
      </trkpt>
      <trkpt lat="45.46042" lon="4.43982">
        <ele>596.2</ele>
      </trkpt>
      <trkpt lat="45.46042" lon="4.43992">
        <ele>597</ele>
      </trkpt>
      <trkpt lat="45.46043" lon="4.44003">
        <ele>597.7</ele>
      </trkpt>
      <trkpt lat="45.46043" lon="4.44013">
        <ele>598.1</ele>
        <time>2025-11-25T13:23:26.000Z</time>
      </trkpt>
      <trkpt lat="45.46044" lon="4.4402">
        <ele>598.5</ele>
      </trkpt>
      <trkpt lat="45.46046" lon="4.44026">
        <ele>598.9</ele>
      </trkpt>
      <trkpt lat="45.46047" lon="4.44033">
        <ele>599.2</ele>
      </trkpt>
      <trkpt lat="45.46048" lon="4.44039">
        <ele>599.6</ele>
      </trkpt>
      <trkpt lat="45.46049" lon="4.44046">
        <ele>600</ele>
      </trkpt>
      <trkpt lat="45.46051" lon="4.44052">
        <ele>600.3</ele>
      </trkpt>
      <trkpt lat="45.46052" lon="4.44059">
        <ele>600.7</ele>
      </trkpt>
      <trkpt lat="45.46053" lon="4.44066">
        <ele>601</ele>
      </trkpt>
      <trkpt lat="45.46054" lon="4.44072">
        <ele>601.4</ele>
      </trkpt>
      <trkpt lat="45.46056" lon="4.44079">
        <ele>601.8</ele>
      </trkpt>
      <trkpt lat="45.46057" lon="4.44085">
        <ele>602.2</ele>
      </trkpt>
      <trkpt lat="45.46058" lon="4.44092">
        <ele>602.4</ele>
      </trkpt>
      <trkpt lat="45.46059" lon="4.44098">
        <ele>602.7</ele>
      </trkpt>
      <trkpt lat="45.46061" lon="4.44105">
        <ele>602.9</ele>
      </trkpt>
      <trkpt lat="45.46062" lon="4.44111">
        <ele>603.1</ele>
      </trkpt>
      <trkpt lat="45.46063" lon="4.44118">
        <ele>603.8</ele>
        <time>2025-11-25T13:24:04.000Z</time>
      </trkpt>
      <trkpt lat="45.46065" lon="4.44127">
        <ele>604.7</ele>
      </trkpt>
      <trkpt lat="45.46068" lon="4.44135">
        <ele>605.5</ele>
      </trkpt>
      <trkpt lat="45.4607" lon="4.44144">
        <ele>606.1</ele>
      </trkpt>
      <trkpt lat="45.46072" lon="4.44153">
        <ele>606.4</ele>
      </trkpt>
      <trkpt lat="45.46074" lon="4.44161">
        <ele>606.7</ele>
      </trkpt>
      <trkpt lat="45.46077" lon="4.4417">
        <ele>607.2</ele>
      </trkpt>
      <trkpt lat="45.46079" lon="4.44178">
        <ele>607.8</ele>
      </trkpt>
      <trkpt lat="45.46081" lon="4.44187">
        <ele>608.5</ele>
        <time>2025-11-25T13:24:30.000Z</time>
      </trkpt>
      <trkpt lat="45.46081" lon="4.44194">
        <ele>608.8</ele>
      </trkpt>
      <trkpt lat="45.46082" lon="4.44201">
        <ele>609.3</ele>
      </trkpt>
      <trkpt lat="45.46082" lon="4.44208">
        <ele>609.9</ele>
      </trkpt>
      <trkpt lat="45.46083" lon="4.44216">
        <ele>610.4</ele>
      </trkpt>
      <trkpt lat="45.46083" lon="4.44223">
        <ele>611</ele>
      </trkpt>
      <trkpt lat="45.46084" lon="4.4423">
        <ele>611.6</ele>
      </trkpt>
      <trkpt lat="45.46084" lon="4.44237">
        <ele>612.1</ele>
      </trkpt>
      <trkpt lat="45.46085" lon="4.44244">
        <ele>612.7</ele>
      </trkpt>
      <trkpt lat="45.46085" lon="4.44251">
        <ele>613.2</ele>
      </trkpt>
      <trkpt lat="45.46085" lon="4.44258">
        <ele>614</ele>
      </trkpt>
      <trkpt lat="45.46086" lon="4.44265">
        <ele>614.8</ele>
      </trkpt>
      <trkpt lat="45.46086" lon="4.44273">
        <ele>615.6</ele>
      </trkpt>
      <trkpt lat="45.46087" lon="4.4428">
        <ele>616.4</ele>
      </trkpt>
      <trkpt lat="45.46087" lon="4.44287">
        <ele>617.2</ele>
      </trkpt>
      <trkpt lat="45.46088" lon="4.44294">
        <ele>618</ele>
      </trkpt>
      <trkpt lat="45.46088" lon="4.44301">
        <ele>618.7</ele>
        <time>2025-11-25T13:25:10.000Z</time>
      </trkpt>
      <trkpt lat="45.46091" lon="4.4431">
        <ele>619.6</ele>
      </trkpt>
      <trkpt lat="45.46093" lon="4.44319">
        <ele>620.5</ele>
      </trkpt>
      <trkpt lat="45.46096" lon="4.44328">
        <ele>621.4</ele>
      </trkpt>
      <trkpt lat="45.46098" lon="4.44338">
        <ele>622.3</ele>
      </trkpt>
      <trkpt lat="45.46101" lon="4.44347">
        <ele>623.1</ele>
      </trkpt>
      <trkpt lat="45.46103" lon="4.44356">
        <ele>623.7</ele>
      </trkpt>
      <trkpt lat="45.46106" lon="4.44365">
        <ele>624.1</ele>
      </trkpt>
      <trkpt lat="45.46108" lon="4.44374">
        <ele>624.5</ele>
        <time>2025-11-25T13:25:38.000Z</time>
      </trkpt>
      <trkpt lat="45.46112" lon="4.44384">
        <ele>624.8</ele>
      </trkpt>
      <trkpt lat="45.46115" lon="4.44393">
        <ele>624.9</ele>
      </trkpt>
      <trkpt lat="45.46119" lon="4.44403">
        <ele>624.7</ele>
      </trkpt>
      <trkpt lat="45.46122" lon="4.44412">
        <ele>624.6</ele>
      </trkpt>
      <trkpt lat="45.46126" lon="4.44422">
        <ele>624.4</ele>
      </trkpt>
      <trkpt lat="45.46129" lon="4.44431">
        <ele>624.2</ele>
      </trkpt>
      <trkpt lat="45.46133" lon="4.44441">
        <ele>624</ele>
      </trkpt>
      <trkpt lat="45.46136" lon="4.44451">
        <ele>624</ele>
      </trkpt>
      <trkpt lat="45.4614" lon="4.4446">
        <ele>624</ele>
      </trkpt>
      <trkpt lat="45.46143" lon="4.4447">
        <ele>624.1</ele>
      </trkpt>
      <trkpt lat="45.46147" lon="4.44479">
        <ele>624.5</ele>
      </trkpt>
      <trkpt lat="45.4615" lon="4.44489">
        <ele>624.8</ele>
      </trkpt>
      <trkpt lat="45.46154" lon="4.44498">
        <ele>625</ele>
      </trkpt>
      <trkpt lat="45.46157" lon="4.44508">
        <ele>625</ele>
      </trkpt>
      <trkpt lat="45.46161" lon="4.44517">
        <ele>625</ele>
      </trkpt>
      <trkpt lat="45.46164" lon="4.44527">
        <ele>625</ele>
        <time>2025-11-25T13:26:38.000Z</time>
      </trkpt>
      <trkpt lat="45.46166" lon="4.44537">
        <ele>625.3</ele>
      </trkpt>
      <trkpt lat="45.46168" lon="4.44547">
        <ele>625.7</ele>
        <time>2025-11-25T13:26:46.000Z</time>
      </trkpt>
      <trkpt lat="45.46171" lon="4.44553">
        <ele>625.9</ele>
      </trkpt>
      <trkpt lat="45.46173" lon="4.44558">
        <ele>626</ele>
      </trkpt>
      <trkpt lat="45.46176" lon="4.44564">
        <ele>626.1</ele>
      </trkpt>
      <trkpt lat="45.46178" lon="4.44569">
        <ele>626.2</ele>
      </trkpt>
      <trkpt lat="45.46181" lon="4.44575">
        <ele>626.3</ele>
      </trkpt>
      <trkpt lat="45.46183" lon="4.4458">
        <ele>626.5</ele>
      </trkpt>
      <trkpt lat="45.46186" lon="4.44586">
        <ele>626.6</ele>
      </trkpt>
      <trkpt lat="45.46188" lon="4.44591">
        <ele>626.6</ele>
        <time>2025-11-25T13:27:04.000Z</time>
      </trkpt>
      <trkpt lat="45.46196" lon="4.44596">
        <ele>627</ele>
      </trkpt>
      <trkpt lat="45.46204" lon="4.44601">
        <ele>627.2</ele>
      </trkpt>
      <trkpt lat="45.46211" lon="4.44605">
        <ele>627.5</ele>
      </trkpt>
      <trkpt lat="45.46219" lon="4.4461">
        <ele>627.8</ele>
        <time>2025-11-25T13:27:21.000Z</time>
      </trkpt>
      <trkpt lat="45.46224" lon="4.44611">
        <ele>628.1</ele>
      </trkpt>
      <trkpt lat="45.46229" lon="4.44612">
        <ele>628.3</ele>
      </trkpt>
      <trkpt lat="45.46234" lon="4.44614">
        <ele>628.5</ele>
      </trkpt>
      <trkpt lat="45.46239" lon="4.44615">
        <ele>628.8</ele>
      </trkpt>
      <trkpt lat="45.46244" lon="4.44616">
        <ele>629.1</ele>
      </trkpt>
      <trkpt lat="45.46249" lon="4.44617">
        <ele>629.4</ele>
      </trkpt>
      <trkpt lat="45.46254" lon="4.44618">
        <ele>629.6</ele>
      </trkpt>
      <trkpt lat="45.46259" lon="4.4462">
        <ele>629.7</ele>
      </trkpt>
      <trkpt lat="45.46263" lon="4.44621">
        <ele>629.9</ele>
      </trkpt>
      <trkpt lat="45.46268" lon="4.44622">
        <ele>630</ele>
      </trkpt>
      <trkpt lat="45.46273" lon="4.44623">
        <ele>630.2</ele>
      </trkpt>
      <trkpt lat="45.46278" lon="4.44624">
        <ele>630.4</ele>
      </trkpt>
      <trkpt lat="45.46283" lon="4.44625">
        <ele>630.4</ele>
      </trkpt>
      <trkpt lat="45.46288" lon="4.44627">
        <ele>630.5</ele>
      </trkpt>
      <trkpt lat="45.46293" lon="4.44628">
        <ele>630.6</ele>
      </trkpt>
      <trkpt lat="45.46298" lon="4.44629">
        <ele>630.7</ele>
        <time>2025-11-25T13:28:01.000Z</time>
      </trkpt>
      <trkpt lat="45.46304" lon="4.4463">
        <ele>630.7</ele>
      </trkpt>
      <trkpt lat="45.46311" lon="4.4463">
        <ele>630.5</ele>
      </trkpt>
      <trkpt lat="45.46317" lon="4.44631">
        <ele>630.4</ele>
      </trkpt>
      <trkpt lat="45.46323" lon="4.44631">
        <ele>630.2</ele>
      </trkpt>
      <trkpt lat="45.46329" lon="4.44632">
        <ele>630.1</ele>
      </trkpt>
      <trkpt lat="45.46336" lon="4.44632">
        <ele>630</ele>
      </trkpt>
      <trkpt lat="45.46342" lon="4.44633">
        <ele>630.1</ele>
      </trkpt>
      <trkpt lat="45.46348" lon="4.44633">
        <ele>630.2</ele>
        <time>2025-11-25T13:28:26.000Z</time>
      </trkpt>
      <trkpt lat="45.46355" lon="4.44635">
        <ele>630.4</ele>
      </trkpt>
      <trkpt lat="45.46362" lon="4.44636">
        <ele>630.6</ele>
      </trkpt>
      <trkpt lat="45.46368" lon="4.44638">
        <ele>630.9</ele>
      </trkpt>
      <trkpt lat="45.46375" lon="4.4464">
        <ele>631.1</ele>
      </trkpt>
      <trkpt lat="45.46382" lon="4.44641">
        <ele>631.3</ele>
      </trkpt>
      <trkpt lat="45.46389" lon="4.44643">
        <ele>631.6</ele>
      </trkpt>
      <trkpt lat="45.46395" lon="4.44644">
        <ele>631.7</ele>
      </trkpt>
      <trkpt lat="45.46402" lon="4.44646">
        <ele>631.9</ele>
        <time>2025-11-25T13:28:53.000Z</time>
      </trkpt>
      <trkpt lat="45.46408" lon="4.44647">
        <ele>631.9</ele>
      </trkpt>
      <trkpt lat="45.46414" lon="4.44648">
        <ele>632</ele>
      </trkpt>
      <trkpt lat="45.46419" lon="4.44648">
        <ele>631.9</ele>
      </trkpt>
      <trkpt lat="45.46425" lon="4.44649">
        <ele>631.7</ele>
        <time>2025-11-25T13:29:05.000Z</time>
      </trkpt>
      <trkpt lat="45.4643" lon="4.44651">
        <ele>631.6</ele>
      </trkpt>
      <trkpt lat="45.46435" lon="4.44653">
        <ele>631.5</ele>
      </trkpt>
      <trkpt lat="45.46439" lon="4.44654">
        <ele>631.4</ele>
      </trkpt>
      <trkpt lat="45.46444" lon="4.44656">
        <ele>631.3</ele>
        <time>2025-11-25T13:29:15.000Z</time>
      </trkpt>
      <trkpt lat="45.4645" lon="4.4466">
        <ele>630.8</ele>
      </trkpt>
      <trkpt lat="45.46457" lon="4.44664">
        <ele>630.2</ele>
      </trkpt>
      <trkpt lat="45.46463" lon="4.44668">
        <ele>629.4</ele>
      </trkpt>
      <trkpt lat="45.46469" lon="4.44672">
        <ele>628.5</ele>
        <time>2025-11-25T13:29:29.000Z</time>
      </trkpt>
      <trkpt lat="45.46473" lon="4.44677">
        <ele>627.9</ele>
      </trkpt>
      <trkpt lat="45.46476" lon="4.44681">
        <ele>627.2</ele>
        <time>2025-11-25T13:29:33.000Z</time>
      </trkpt>
      <trkpt lat="45.46482" lon="4.44691">
        <ele>626</ele>
      </trkpt>
      <trkpt lat="45.46487" lon="4.44701">
        <ele>625</ele>
      </trkpt>
      <trkpt lat="45.46493" lon="4.44711">
        <ele>624.2</ele>
      </trkpt>
      <trkpt lat="45.46498" lon="4.44721">
        <ele>623.4</ele>
      </trkpt>
      <trkpt lat="45.46504" lon="4.4473">
        <ele>622.5</ele>
      </trkpt>
      <trkpt lat="45.46509" lon="4.4474">
        <ele>621.7</ele>
      </trkpt>
      <trkpt lat="45.46515" lon="4.4475">
        <ele>620.9</ele>
      </trkpt>
      <trkpt lat="45.4652" lon="4.4476">
        <ele>620.4</ele>
        <time>2025-11-25T13:30:09.000Z</time>
      </trkpt>
      <trkpt lat="45.46524" lon="4.44765">
        <ele>619.9</ele>
      </trkpt>
      <trkpt lat="45.46528" lon="4.4477">
        <ele>619.5</ele>
      </trkpt>
      <trkpt lat="45.46531" lon="4.44775">
        <ele>619.3</ele>
      </trkpt>
      <trkpt lat="45.46535" lon="4.44781">
        <ele>619.2</ele>
      </trkpt>
      <trkpt lat="45.46539" lon="4.44786">
        <ele>619.2</ele>
      </trkpt>
      <trkpt lat="45.46543" lon="4.44791">
        <ele>619</ele>
      </trkpt>
      <trkpt lat="45.46546" lon="4.44796">
        <ele>618.9</ele>
      </trkpt>
      <trkpt lat="45.4655" lon="4.44801">
        <ele>618.6</ele>
        <time>2025-11-25T13:30:29.000Z</time>
      </trkpt>
      <trkpt lat="45.46555" lon="4.4481">
        <ele>618.5</ele>
      </trkpt>
      <trkpt lat="45.46559" lon="4.44819">
        <ele>618.3</ele>
        <time>2025-11-25T13:30:37.000Z</time>
      </trkpt>
      <trkpt lat="45.46562" lon="4.44828">
        <ele>618.4</ele>
      </trkpt>
      <trkpt lat="45.46566" lon="4.44836">
        <ele>618.4</ele>
      </trkpt>
      <trkpt lat="45.46569" lon="4.44845">
        <ele>618.3</ele>
      </trkpt>
      <trkpt lat="45.46572" lon="4.44854">
        <ele>618.1</ele>
      </trkpt>
      <trkpt lat="45.46575" lon="4.44862">
        <ele>617.8</ele>
      </trkpt>
      <trkpt lat="45.46579" lon="4.44871">
        <ele>617.7</ele>
      </trkpt>
      <trkpt lat="45.46582" lon="4.44879">
        <ele>617.7</ele>
      </trkpt>
      <trkpt lat="45.46585" lon="4.44888">
        <ele>617.6</ele>
        <time>2025-11-25T13:31:05.000Z</time>
      </trkpt>
      <trkpt lat="45.4659" lon="4.44897">
        <ele>617.7</ele>
      </trkpt>
      <trkpt lat="45.46595" lon="4.44906">
        <ele>618</ele>
      </trkpt>
      <trkpt lat="45.46599" lon="4.44914">
        <ele>618.2</ele>
      </trkpt>
      <trkpt lat="45.46604" lon="4.44923">
        <ele>618.6</ele>
        <time>2025-11-25T13:31:20.000Z</time>
      </trkpt>
      <trkpt lat="45.46608" lon="4.44928">
        <ele>618.7</ele>
      </trkpt>
      <trkpt lat="45.46611" lon="4.44933">
        <ele>618.9</ele>
      </trkpt>
      <trkpt lat="45.46615" lon="4.44937">
        <ele>619.1</ele>
      </trkpt>
      <trkpt lat="45.46618" lon="4.44942">
        <ele>619.3</ele>
      </trkpt>
      <trkpt lat="45.46622" lon="4.44947">
        <ele>619.5</ele>
      </trkpt>
      <trkpt lat="45.46625" lon="4.44952">
        <ele>619.6</ele>
      </trkpt>
      <trkpt lat="45.46629" lon="4.44956">
        <ele>619.8</ele>
      </trkpt>
      <trkpt lat="45.46632" lon="4.44961">
        <ele>620.1</ele>
        <time>2025-11-25T13:31:40.000Z</time>
      </trkpt>
      <trkpt lat="45.46637" lon="4.44966">
        <ele>620.1</ele>
      </trkpt>
      <trkpt lat="45.46643" lon="4.44971">
        <ele>620.2</ele>
      </trkpt>
      <trkpt lat="45.46648" lon="4.44975">
        <ele>620.1</ele>
      </trkpt>
      <trkpt lat="45.46653" lon="4.4498">
        <ele>619.9</ele>
        <time>2025-11-25T13:31:52.000Z</time>
      </trkpt>
      <trkpt lat="45.46657" lon="4.44984">
        <ele>619.9</ele>
      </trkpt>
      <trkpt lat="45.46661" lon="4.44989">
        <ele>619.7</ele>
      </trkpt>
      <trkpt lat="45.46665" lon="4.44993">
        <ele>619.6</ele>
      </trkpt>
      <trkpt lat="45.46669" lon="4.44997">
        <ele>619.4</ele>
      </trkpt>
      <trkpt lat="45.46672" lon="4.45001">
        <ele>619.3</ele>
      </trkpt>
      <trkpt lat="45.46676" lon="4.45006">
        <ele>619</ele>
      </trkpt>
      <trkpt lat="45.4668" lon="4.4501">
        <ele>618.8</ele>
      </trkpt>
      <trkpt lat="45.46684" lon="4.45014">
        <ele>618.5</ele>
        <time>2025-11-25T13:32:12.000Z</time>
      </trkpt>
      <trkpt lat="45.46688" lon="4.45021">
        <ele>618.4</ele>
      </trkpt>
      <trkpt lat="45.46692" lon="4.45027">
        <ele>618.4</ele>
      </trkpt>
      <trkpt lat="45.46696" lon="4.45034">
        <ele>618</ele>
      </trkpt>
      <trkpt lat="45.467" lon="4.45041">
        <ele>617.5</ele>
      </trkpt>
      <trkpt lat="45.46703" lon="4.45047">
        <ele>617.1</ele>
      </trkpt>
      <trkpt lat="45.46707" lon="4.45054">
        <ele>616.6</ele>
      </trkpt>
      <trkpt lat="45.46711" lon="4.4506">
        <ele>616</ele>
      </trkpt>
      <trkpt lat="45.46715" lon="4.45067">
        <ele>615.3</ele>
        <time>2025-11-25T13:32:36.000Z</time>
      </trkpt>
      <trkpt lat="45.46717" lon="4.45075">
        <ele>614.9</ele>
      </trkpt>
      <trkpt lat="45.4672" lon="4.45082">
        <ele>614.5</ele>
      </trkpt>
      <trkpt lat="45.46722" lon="4.4509">
        <ele>613.9</ele>
      </trkpt>
      <trkpt lat="45.46724" lon="4.45097">
        <ele>613.2</ele>
        <time>2025-11-25T13:32:47.000Z</time>
      </trkpt>
      <trkpt lat="45.46726" lon="4.45106">
        <ele>612.6</ele>
      </trkpt>
      <trkpt lat="45.46727" lon="4.45115">
        <ele>611.9</ele>
      </trkpt>
      <trkpt lat="45.46729" lon="4.45124">
        <ele>611</ele>
      </trkpt>
      <trkpt lat="45.46731" lon="4.45133">
        <ele>610.2</ele>
      </trkpt>
      <trkpt lat="45.46732" lon="4.45141">
        <ele>609.5</ele>
      </trkpt>
      <trkpt lat="45.46734" lon="4.4515">
        <ele>608.8</ele>
      </trkpt>
      <trkpt lat="45.46735" lon="4.45159">
        <ele>608</ele>
      </trkpt>
      <trkpt lat="45.46737" lon="4.45168">
        <ele>607.2</ele>
        <time>2025-11-25T13:33:13.000Z</time>
      </trkpt>
      <trkpt lat="45.46741" lon="4.45177">
        <ele>605.6</ele>
      </trkpt>
      <trkpt lat="45.46746" lon="4.45187">
        <ele>604.2</ele>
      </trkpt>
      <trkpt lat="45.4675" lon="4.45196">
        <ele>603</ele>
      </trkpt>
      <trkpt lat="45.46754" lon="4.45205">
        <ele>602.7</ele>
        <time>2025-11-25T13:33:29.000Z</time>
      </trkpt>
      <trkpt lat="45.46759" lon="4.45209">
        <ele>602.2</ele>
        <time>2025-11-25T13:33:31.000Z</time>
      </trkpt>
      <trkpt lat="45.46758" lon="4.45221">
        <ele>602.1</ele>
        <time>2025-11-25T13:33:36.000Z</time>
      </trkpt>
      <trkpt lat="45.46762" lon="4.45229">
        <ele>601.4</ele>
      </trkpt>
      <trkpt lat="45.46765" lon="4.45238">
        <ele>600.6</ele>
      </trkpt>
      <trkpt lat="45.46769" lon="4.45246">
        <ele>599.9</ele>
      </trkpt>
      <trkpt lat="45.46772" lon="4.45254">
        <ele>599.3</ele>
        <time>2025-11-25T13:33:49.000Z</time>
      </trkpt>
      <trkpt lat="45.46777" lon="4.45262">
        <ele>598.7</ele>
      </trkpt>
      <trkpt lat="45.46781" lon="4.4527">
        <ele>598</ele>
      </trkpt>
      <trkpt lat="45.46786" lon="4.45278">
        <ele>597.4</ele>
      </trkpt>
      <trkpt lat="45.4679" lon="4.45286">
        <ele>597</ele>
        <time>2025-11-25T13:34:04.000Z</time>
      </trkpt>
      <trkpt lat="45.46795" lon="4.45292">
        <ele>596.6</ele>
      </trkpt>
      <trkpt lat="45.46799" lon="4.45299">
        <ele>596.3</ele>
      </trkpt>
      <trkpt lat="45.46804" lon="4.45305">
        <ele>596.1</ele>
      </trkpt>
      <trkpt lat="45.46808" lon="4.45311">
        <ele>595.7</ele>
      </trkpt>
      <trkpt lat="45.46813" lon="4.45317">
        <ele>595.3</ele>
      </trkpt>
      <trkpt lat="45.46817" lon="4.45324">
        <ele>595.1</ele>
      </trkpt>
      <trkpt lat="45.46822" lon="4.4533">
        <ele>595</ele>
      </trkpt>
      <trkpt lat="45.46826" lon="4.45336">
        <ele>595</ele>
        <time>2025-11-25T13:34:29.000Z</time>
      </trkpt>
      <trkpt lat="45.46831" lon="4.45345">
        <ele>595</ele>
      </trkpt>
      <trkpt lat="45.46835" lon="4.45353">
        <ele>594.9</ele>
        <time>2025-11-25T13:34:36.000Z</time>
      </trkpt>
      <trkpt lat="45.4684" lon="4.45358">
        <ele>594.8</ele>
      </trkpt>
      <trkpt lat="45.46844" lon="4.45363">
        <ele>594.6</ele>
      </trkpt>
      <trkpt lat="45.46849" lon="4.45368">
        <ele>594.6</ele>
      </trkpt>
      <trkpt lat="45.46853" lon="4.45373">
        <ele>594.6</ele>
        <time>2025-11-25T13:34:48.000Z</time>
      </trkpt>
      <trkpt lat="45.46859" lon="4.45378">
        <ele>594.6</ele>
      </trkpt>
      <trkpt lat="45.46864" lon="4.45384">
        <ele>594.8</ele>
      </trkpt>
      <trkpt lat="45.4687" lon="4.45389">
        <ele>595</ele>
      </trkpt>
      <trkpt lat="45.46876" lon="4.45394">
        <ele>595.1</ele>
      </trkpt>
      <trkpt lat="45.46881" lon="4.45399">
        <ele>595.1</ele>
      </trkpt>
      <trkpt lat="45.46887" lon="4.45405">
        <ele>595</ele>
      </trkpt>
      <trkpt lat="45.46892" lon="4.4541">
        <ele>595</ele>
      </trkpt>
      <trkpt lat="45.46898" lon="4.45415">
        <ele>595</ele>
      </trkpt>
      <trkpt lat="45.46904" lon="4.4542">
        <ele>594.9</ele>
      </trkpt>
      <trkpt lat="45.46909" lon="4.45426">
        <ele>594.8</ele>
      </trkpt>
      <trkpt lat="45.46915" lon="4.45431">
        <ele>594.5</ele>
      </trkpt>
      <trkpt lat="45.46921" lon="4.45436">
        <ele>594.3</ele>
      </trkpt>
      <trkpt lat="45.46926" lon="4.45441">
        <ele>594.1</ele>
      </trkpt>
      <trkpt lat="45.46932" lon="4.45447">
        <ele>594</ele>
      </trkpt>
      <trkpt lat="45.46937" lon="4.45452">
        <ele>594.1</ele>
      </trkpt>
      <trkpt lat="45.46943" lon="4.45457">
        <ele>594</ele>
        <time>2025-11-25T13:35:41.000Z</time>
      </trkpt>
      <trkpt lat="45.46948" lon="4.45464">
        <ele>593.8</ele>
      </trkpt>
      <trkpt lat="45.46953" lon="4.45471">
        <ele>593.4</ele>
      </trkpt>
      <trkpt lat="45.46958" lon="4.45478">
        <ele>593.3</ele>
      </trkpt>
      <trkpt lat="45.46963" lon="4.45485">
        <ele>593.2</ele>
      </trkpt>
      <trkpt lat="45.46967" lon="4.45492">
        <ele>593.1</ele>
      </trkpt>
      <trkpt lat="45.46972" lon="4.45499">
        <ele>593</ele>
      </trkpt>
      <trkpt lat="45.46977" lon="4.45506">
        <ele>592.9</ele>
      </trkpt>
      <trkpt lat="45.46982" lon="4.45513">
        <ele>592.9</ele>
        <time>2025-11-25T13:36:09.000Z</time>
      </trkpt>
      <trkpt lat="45.46988" lon="4.4552">
        <ele>592.7</ele>
      </trkpt>
      <trkpt lat="45.46994" lon="4.45526">
        <ele>592.5</ele>
      </trkpt>
      <trkpt lat="45.47" lon="4.45533">
        <ele>592.3</ele>
      </trkpt>
      <trkpt lat="45.47007" lon="4.45539">
        <ele>591.8</ele>
      </trkpt>
      <trkpt lat="45.47013" lon="4.45546">
        <ele>591.2</ele>
      </trkpt>
      <trkpt lat="45.47019" lon="4.45552">
        <ele>590.5</ele>
      </trkpt>
      <trkpt lat="45.47025" lon="4.45559">
        <ele>589.8</ele>
      </trkpt>
      <trkpt lat="45.47031" lon="4.45565">
        <ele>589.5</ele>
        <time>2025-11-25T13:36:40.000Z</time>
      </trkpt>
      <trkpt lat="45.47036" lon="4.45572">
        <ele>589.5</ele>
      </trkpt>
      <trkpt lat="45.4704" lon="4.45578">
        <ele>589.3</ele>
      </trkpt>
      <trkpt lat="45.47045" lon="4.45585">
        <ele>589.1</ele>
      </trkpt>
      <trkpt lat="45.47049" lon="4.45591">
        <ele>588.9</ele>
      </trkpt>
      <trkpt lat="45.47054" lon="4.45598">
        <ele>588.9</ele>
      </trkpt>
      <trkpt lat="45.47058" lon="4.45604">
        <ele>588.8</ele>
      </trkpt>
      <trkpt lat="45.47063" lon="4.45611">
        <ele>588.7</ele>
      </trkpt>
      <trkpt lat="45.47067" lon="4.45617">
        <ele>588.3</ele>
        <time>2025-11-25T13:37:05.000Z</time>
      </trkpt>
      <trkpt lat="45.47071" lon="4.45621">
        <ele>588</ele>
      </trkpt>
      <trkpt lat="45.47075" lon="4.45625">
        <ele>587.7</ele>
      </trkpt>
      <trkpt lat="45.47079" lon="4.45629">
        <ele>587.5</ele>
      </trkpt>
      <trkpt lat="45.47083" lon="4.45633">
        <ele>587.4</ele>
      </trkpt>
      <trkpt lat="45.47087" lon="4.45637">
        <ele>587.4</ele>
      </trkpt>
      <trkpt lat="45.47091" lon="4.45641">
        <ele>587.4</ele>
      </trkpt>
      <trkpt lat="45.47095" lon="4.45645">
        <ele>587.2</ele>
      </trkpt>
      <trkpt lat="45.47099" lon="4.45649">
        <ele>587.1</ele>
      </trkpt>
      <trkpt lat="45.47102" lon="4.45653">
        <ele>587</ele>
      </trkpt>
      <trkpt lat="45.47106" lon="4.45657">
        <ele>586.8</ele>
      </trkpt>
      <trkpt lat="45.4711" lon="4.45661">
        <ele>586.7</ele>
      </trkpt>
      <trkpt lat="45.47114" lon="4.45665">
        <ele>586.8</ele>
      </trkpt>
      <trkpt lat="45.47118" lon="4.45669">
        <ele>586.9</ele>
      </trkpt>
      <trkpt lat="45.47122" lon="4.45673">
        <ele>587</ele>
      </trkpt>
      <trkpt lat="45.47126" lon="4.45677">
        <ele>587</ele>
      </trkpt>
      <trkpt lat="45.4713" lon="4.45681">
        <ele>587</ele>
        <time>2025-11-25T13:37:44.000Z</time>
      </trkpt>
      <trkpt lat="45.47134" lon="4.45684">
        <ele>586.9</ele>
      </trkpt>
      <trkpt lat="45.47139" lon="4.45686">
        <ele>586.7</ele>
      </trkpt>
      <trkpt lat="45.47143" lon="4.45688">
        <ele>586.6</ele>
      </trkpt>
      <trkpt lat="45.47148" lon="4.45691">
        <ele>586.5</ele>
      </trkpt>
      <trkpt lat="45.47152" lon="4.45693">
        <ele>586.5</ele>
      </trkpt>
      <trkpt lat="45.47157" lon="4.45696">
        <ele>586.4</ele>
      </trkpt>
      <trkpt lat="45.47161" lon="4.45698">
        <ele>586.3</ele>
      </trkpt>
      <trkpt lat="45.47166" lon="4.45701">
        <ele>586.3</ele>
      </trkpt>
      <trkpt lat="45.4717" lon="4.45703">
        <ele>586.2</ele>
      </trkpt>
      <trkpt lat="45.47174" lon="4.45706">
        <ele>586.1</ele>
      </trkpt>
      <trkpt lat="45.47179" lon="4.45708">
        <ele>586.1</ele>
      </trkpt>
      <trkpt lat="45.47183" lon="4.45711">
        <ele>586</ele>
      </trkpt>
      <trkpt lat="45.47188" lon="4.45713">
        <ele>585.9</ele>
      </trkpt>
      <trkpt lat="45.47192" lon="4.45716">
        <ele>585.8</ele>
      </trkpt>
      <trkpt lat="45.47197" lon="4.45718">
        <ele>585.8</ele>
      </trkpt>
      <trkpt lat="45.47201" lon="4.45721">
        <ele>585.9</ele>
      </trkpt>
      <trkpt lat="45.47205" lon="4.45723">
        <ele>586</ele>
      </trkpt>
      <trkpt lat="45.4721" lon="4.45725">
        <ele>586</ele>
      </trkpt>
      <trkpt lat="45.47214" lon="4.45728">
        <ele>586</ele>
      </trkpt>
      <trkpt lat="45.47219" lon="4.4573">
        <ele>586</ele>
      </trkpt>
      <trkpt lat="45.47223" lon="4.45733">
        <ele>586</ele>
      </trkpt>
      <trkpt lat="45.47228" lon="4.45735">
        <ele>585.9</ele>
      </trkpt>
      <trkpt lat="45.47232" lon="4.45738">
        <ele>585.8</ele>
      </trkpt>
      <trkpt lat="45.47237" lon="4.4574">
        <ele>585.8</ele>
      </trkpt>
      <trkpt lat="45.47241" lon="4.45743">
        <ele>585.8</ele>
      </trkpt>
      <trkpt lat="45.47245" lon="4.45745">
        <ele>585.9</ele>
      </trkpt>
      <trkpt lat="45.4725" lon="4.45748">
        <ele>585.9</ele>
      </trkpt>
      <trkpt lat="45.47254" lon="4.4575">
        <ele>585.8</ele>
      </trkpt>
      <trkpt lat="45.47259" lon="4.45753">
        <ele>585.7</ele>
      </trkpt>
      <trkpt lat="45.47263" lon="4.45755">
        <ele>585.5</ele>
      </trkpt>
      <trkpt lat="45.47268" lon="4.45758">
        <ele>585.4</ele>
      </trkpt>
      <trkpt lat="45.47272" lon="4.4576">
        <ele>585.4</ele>
        <time>2025-11-25T13:39:00.000Z</time>
      </trkpt>
      <trkpt lat="45.4728" lon="4.45763">
        <ele>585.5</ele>
      </trkpt>
      <trkpt lat="45.47287" lon="4.45766">
        <ele>585.6</ele>
      </trkpt>
      <trkpt lat="45.47295" lon="4.45769">
        <ele>585.7</ele>
      </trkpt>
      <trkpt lat="45.47302" lon="4.45772">
        <ele>585.8</ele>
        <time>2025-11-25T13:39:16.000Z</time>
      </trkpt>
      <trkpt lat="45.47309" lon="4.45772">
        <ele>585.7</ele>
      </trkpt>
      <trkpt lat="45.47315" lon="4.45773">
        <ele>585.5</ele>
      </trkpt>
      <trkpt lat="45.47322" lon="4.45773">
        <ele>585.2</ele>
      </trkpt>
      <trkpt lat="45.47328" lon="4.45773">
        <ele>585</ele>
        <time>2025-11-25T13:39:29.000Z</time>
      </trkpt>
      <trkpt lat="45.47337" lon="4.45771">
        <ele>584.6</ele>
      </trkpt>
      <trkpt lat="45.47346" lon="4.4577">
        <ele>584.3</ele>
      </trkpt>
      <trkpt lat="45.47355" lon="4.45768">
        <ele>583.9</ele>
      </trkpt>
      <trkpt lat="45.47364" lon="4.45766">
        <ele>583.4</ele>
      </trkpt>
      <trkpt lat="45.47372" lon="4.45764">
        <ele>582.7</ele>
      </trkpt>
      <trkpt lat="45.47381" lon="4.45763">
        <ele>582</ele>
      </trkpt>
      <trkpt lat="45.4739" lon="4.45761">
        <ele>581.3</ele>
      </trkpt>
      <trkpt lat="45.47399" lon="4.45759">
        <ele>580.6</ele>
        <time>2025-11-25T13:40:05.000Z</time>
      </trkpt>
      <trkpt lat="45.47407" lon="4.45755">
        <ele>579.8</ele>
      </trkpt>
      <trkpt lat="45.47416" lon="4.4575">
        <ele>579.1</ele>
      </trkpt>
      <trkpt lat="45.47424" lon="4.45746">
        <ele>578.4</ele>
      </trkpt>
      <trkpt lat="45.47432" lon="4.45741">
        <ele>577.8</ele>
        <time>2025-11-25T13:40:22.000Z</time>
      </trkpt>
      <trkpt lat="45.47439" lon="4.45733">
        <ele>577.3</ele>
      </trkpt>
      <trkpt lat="45.47446" lon="4.45726">
        <ele>576.9</ele>
      </trkpt>
      <trkpt lat="45.47452" lon="4.45718">
        <ele>576.3</ele>
      </trkpt>
      <trkpt lat="45.47459" lon="4.4571">
        <ele>575.5</ele>
        <time>2025-11-25T13:40:40.000Z</time>
      </trkpt>
      <trkpt lat="45.47464" lon="4.45706">
        <ele>575</ele>
      </trkpt>
      <trkpt lat="45.47469" lon="4.45702">
        <ele>574.5</ele>
      </trkpt>
      <trkpt lat="45.47475" lon="4.45698">
        <ele>574</ele>
      </trkpt>
      <trkpt lat="45.4748" lon="4.45694">
        <ele>573.7</ele>
      </trkpt>
      <trkpt lat="45.47485" lon="4.4569">
        <ele>573.5</ele>
      </trkpt>
      <trkpt lat="45.4749" lon="4.45686">
        <ele>573.4</ele>
      </trkpt>
      <trkpt lat="45.47495" lon="4.45682">
        <ele>573.2</ele>
      </trkpt>
      <trkpt lat="45.475" lon="4.45678">
        <ele>573</ele>
      </trkpt>
      <trkpt lat="45.47505" lon="4.45673">
        <ele>572.8</ele>
      </trkpt>
      <trkpt lat="45.47511" lon="4.45669">
        <ele>572.6</ele>
      </trkpt>
      <trkpt lat="45.47516" lon="4.45665">
        <ele>572.4</ele>
      </trkpt>
      <trkpt lat="45.47521" lon="4.45661">
        <ele>572.1</ele>
      </trkpt>
      <trkpt lat="45.47526" lon="4.45657">
        <ele>571.7</ele>
      </trkpt>
      <trkpt lat="45.47531" lon="4.45653">
        <ele>571.3</ele>
      </trkpt>
      <trkpt lat="45.47536" lon="4.45649">
        <ele>570.8</ele>
      </trkpt>
      <trkpt lat="45.47542" lon="4.45645">
        <ele>570.2</ele>
      </trkpt>
      <trkpt lat="45.47547" lon="4.45641">
        <ele>569.7</ele>
      </trkpt>
      <trkpt lat="45.47552" lon="4.45637">
        <ele>569.2</ele>
      </trkpt>
      <trkpt lat="45.47557" lon="4.45633">
        <ele>568.7</ele>
      </trkpt>
      <trkpt lat="45.47562" lon="4.45629">
        <ele>568.2</ele>
      </trkpt>
      <trkpt lat="45.47567" lon="4.45625">
        <ele>567.6</ele>
      </trkpt>
      <trkpt lat="45.47572" lon="4.45621">
        <ele>567.1</ele>
      </trkpt>
      <trkpt lat="45.47578" lon="4.45617">
        <ele>566.6</ele>
      </trkpt>
      <trkpt lat="45.47583" lon="4.45613">
        <ele>566.1</ele>
      </trkpt>
      <trkpt lat="45.47588" lon="4.45608">
        <ele>565.8</ele>
      </trkpt>
      <trkpt lat="45.47593" lon="4.45604">
        <ele>565.5</ele>
      </trkpt>
      <trkpt lat="45.47598" lon="4.456">
        <ele>565.3</ele>
      </trkpt>
      <trkpt lat="45.47603" lon="4.45596">
        <ele>565.1</ele>
      </trkpt>
      <trkpt lat="45.47609" lon="4.45592">
        <ele>564.9</ele>
      </trkpt>
      <trkpt lat="45.47614" lon="4.45588">
        <ele>564.5</ele>
      </trkpt>
      <trkpt lat="45.47619" lon="4.45584">
        <ele>564.1</ele>
      </trkpt>
      <trkpt lat="45.47624" lon="4.4558">
        <ele>563.6</ele>
        <time>2025-11-25T13:42:14.000Z</time>
      </trkpt>
      <trkpt lat="45.47628" lon="4.45575">
        <ele>563.1</ele>
      </trkpt>
      <trkpt lat="45.47633" lon="4.45571">
        <ele>562.7</ele>
      </trkpt>
      <trkpt lat="45.47637" lon="4.45566">
        <ele>562.2</ele>
      </trkpt>
      <trkpt lat="45.47642" lon="4.45561">
        <ele>561.6</ele>
      </trkpt>
      <trkpt lat="45.47646" lon="4.45557">
        <ele>561</ele>
      </trkpt>
      <trkpt lat="45.4765" lon="4.45552">
        <ele>560.3</ele>
      </trkpt>
      <trkpt lat="45.47655" lon="4.45547">
        <ele>559.6</ele>
      </trkpt>
      <trkpt lat="45.47659" lon="4.45543">
        <ele>559</ele>
      </trkpt>
      <trkpt lat="45.47663" lon="4.45538">
        <ele>558.4</ele>
      </trkpt>
      <trkpt lat="45.47668" lon="4.45533">
        <ele>557.8</ele>
      </trkpt>
      <trkpt lat="45.47672" lon="4.45528">
        <ele>557</ele>
      </trkpt>
      <trkpt lat="45.47677" lon="4.45524">
        <ele>556.1</ele>
      </trkpt>
      <trkpt lat="45.47681" lon="4.45519">
        <ele>555.3</ele>
      </trkpt>
      <trkpt lat="45.47685" lon="4.45514">
        <ele>554.5</ele>
      </trkpt>
      <trkpt lat="45.4769" lon="4.4551">
        <ele>553.8</ele>
      </trkpt>
      <trkpt lat="45.47694" lon="4.45505">
        <ele>553.1</ele>
        <time>2025-11-25T13:42:58.000Z</time>
      </trkpt>
      <trkpt lat="45.47699" lon="4.45502">
        <ele>552.1</ele>
      </trkpt>
      <trkpt lat="45.47703" lon="4.45498">
        <ele>551.2</ele>
        <time>2025-11-25T13:43:03.000Z</time>
      </trkpt>
      <trkpt lat="45.4771" lon="4.45496">
        <ele>549.9</ele>
      </trkpt>
      <trkpt lat="45.47716" lon="4.45494">
        <ele>548.7</ele>
      </trkpt>
      <trkpt lat="45.47723" lon="4.45491">
        <ele>547.6</ele>
      </trkpt>
      <trkpt lat="45.47729" lon="4.45489">
        <ele>546.3</ele>
        <time>2025-11-25T13:43:17.000Z</time>
      </trkpt>
      <trkpt lat="45.47735" lon="4.45485">
        <ele>545.4</ele>
      </trkpt>
      <trkpt lat="45.4774" lon="4.45481">
        <ele>544.5</ele>
        <time>2025-11-25T13:43:23.000Z</time>
      </trkpt>
      <trkpt lat="45.47745" lon="4.45474">
        <ele>544</ele>
      </trkpt>
      <trkpt lat="45.4775" lon="4.45467">
        <ele>542.8</ele>
        <time>2025-11-25T13:43:30.000Z</time>
      </trkpt>
      <trkpt lat="45.47752" lon="4.4546">
        <ele>542.1</ele>
      </trkpt>
      <trkpt lat="45.47754" lon="4.45454">
        <ele>541.6</ele>
      </trkpt>
      <trkpt lat="45.47755" lon="4.45447">
        <ele>541.1</ele>
      </trkpt>
      <trkpt lat="45.47757" lon="4.4544">
        <ele>540.7</ele>
        <time>2025-11-25T13:43:40.000Z</time>
      </trkpt>
      <trkpt lat="45.47761" lon="4.45437">
        <ele>539.9</ele>
      </trkpt>
      <trkpt lat="45.47765" lon="4.45434">
        <ele>539</ele>
      </trkpt>
      <trkpt lat="45.4777" lon="4.45431">
        <ele>538.1</ele>
      </trkpt>
      <trkpt lat="45.47774" lon="4.45428">
        <ele>537.2</ele>
      </trkpt>
      <trkpt lat="45.47778" lon="4.45424">
        <ele>536.2</ele>
      </trkpt>
      <trkpt lat="45.47782" lon="4.45421">
        <ele>534.8</ele>
      </trkpt>
      <trkpt lat="45.47786" lon="4.45418">
        <ele>533.5</ele>
      </trkpt>
      <trkpt lat="45.47791" lon="4.45415">
        <ele>532.4</ele>
      </trkpt>
      <trkpt lat="45.47795" lon="4.45412">
        <ele>531.3</ele>
      </trkpt>
      <trkpt lat="45.47799" lon="4.45409">
        <ele>530.4</ele>
      </trkpt>
      <trkpt lat="45.47803" lon="4.45406">
        <ele>529.4</ele>
      </trkpt>
      <trkpt lat="45.47807" lon="4.45403">
        <ele>528.8</ele>
      </trkpt>
      <trkpt lat="45.47811" lon="4.45399">
        <ele>528.5</ele>
      </trkpt>
      <trkpt lat="45.47816" lon="4.45396">
        <ele>528.3</ele>
      </trkpt>
      <trkpt lat="45.4782" lon="4.45393">
        <ele>528.1</ele>
      </trkpt>
      <trkpt lat="45.47824" lon="4.4539">
        <ele>527.9</ele>
        <time>2025-11-25T13:44:18.000Z</time>
      </trkpt>
      <trkpt lat="45.47831" lon="4.45388">
        <ele>527.2</ele>
      </trkpt>
      <trkpt lat="45.47838" lon="4.45385">
        <ele>526</ele>
        <time>2025-11-25T13:44:25.000Z</time>
      </trkpt>
      <trkpt lat="45.47842" lon="4.45386">
        <ele>525.3</ele>
        <time>2025-11-25T13:44:27.000Z</time>
      </trkpt>
      <trkpt lat="45.47848" lon="4.45393">
        <ele>524.1</ele>
      </trkpt>
      <trkpt lat="45.47854" lon="4.45399">
        <ele>522.7</ele>
        <time>2025-11-25T13:44:34.000Z</time>
      </trkpt>
      <trkpt lat="45.4786" lon="4.45397">
        <ele>521.9</ele>
        <time>2025-11-25T13:44:38.000Z</time>
      </trkpt>
      <trkpt lat="45.47863" lon="4.45388">
        <ele>521.6</ele>
      </trkpt>
      <trkpt lat="45.47866" lon="4.45379">
        <ele>520.7</ele>
      </trkpt>
      <trkpt lat="45.47868" lon="4.45369">
        <ele>519.9</ele>
      </trkpt>
      <trkpt lat="45.47871" lon="4.4536">
        <ele>519.2</ele>
        <time>2025-11-25T13:44:52.000Z</time>
      </trkpt>
      <trkpt lat="45.47872" lon="4.45353">
        <ele>518.5</ele>
      </trkpt>
      <trkpt lat="45.47874" lon="4.45346">
        <ele>517.9</ele>
      </trkpt>
      <trkpt lat="45.47875" lon="4.45338">
        <ele>517.3</ele>
      </trkpt>
      <trkpt lat="45.47876" lon="4.45331">
        <ele>516.9</ele>
      </trkpt>
      <trkpt lat="45.47877" lon="4.45324">
        <ele>516.7</ele>
      </trkpt>
      <trkpt lat="45.47879" lon="4.45317">
        <ele>516.5</ele>
      </trkpt>
      <trkpt lat="45.4788" lon="4.45309">
        <ele>516.3</ele>
      </trkpt>
      <trkpt lat="45.47881" lon="4.45302">
        <ele>516</ele>
        <time>2025-11-25T13:45:13.000Z</time>
      </trkpt>
      <trkpt lat="45.47886" lon="4.45297">
        <ele>515.1</ele>
      </trkpt>
      <trkpt lat="45.47891" lon="4.45291">
        <ele>514.4</ele>
      </trkpt>
      <trkpt lat="45.47896" lon="4.45286">
        <ele>513.9</ele>
      </trkpt>
      <trkpt lat="45.47901" lon="4.45281">
        <ele>513.6</ele>
      </trkpt>
      <trkpt lat="45.47905" lon="4.45275">
        <ele>513.4</ele>
      </trkpt>
      <trkpt lat="45.4791" lon="4.4527">
        <ele>513.2</ele>
      </trkpt>
      <trkpt lat="45.47915" lon="4.45264">
        <ele>513.1</ele>
      </trkpt>
      <trkpt lat="45.4792" lon="4.45259">
        <ele>512.8</ele>
        <time>2025-11-25T13:45:37.000Z</time>
      </trkpt>
      <trkpt lat="45.47924" lon="4.45256">
        <ele>512.7</ele>
      </trkpt>
      <trkpt lat="45.47928" lon="4.45254">
        <ele>512.5</ele>
      </trkpt>
      <trkpt lat="45.47932" lon="4.45251">
        <ele>512.4</ele>
      </trkpt>
      <trkpt lat="45.47937" lon="4.45248">
        <ele>512.2</ele>
      </trkpt>
      <trkpt lat="45.47941" lon="4.45245">
        <ele>511.9</ele>
      </trkpt>
      <trkpt lat="45.47945" lon="4.45243">
        <ele>511.7</ele>
      </trkpt>
      <trkpt lat="45.47949" lon="4.4524">
        <ele>511.6</ele>
      </trkpt>
      <trkpt lat="45.47953" lon="4.45237">
        <ele>511.5</ele>
        <time>2025-11-25T13:45:55.000Z</time>
      </trkpt>
      <trkpt lat="45.47957" lon="4.45231">
        <ele>511.5</ele>
        <time>2025-11-25T13:45:58.000Z</time>
      </trkpt>
      <trkpt lat="45.47963" lon="4.45232">
        <ele>511.6</ele>
      </trkpt>
      <trkpt lat="45.4797" lon="4.45233">
        <ele>511.6</ele>
      </trkpt>
      <trkpt lat="45.47976" lon="4.45234">
        <ele>511.4</ele>
      </trkpt>
      <trkpt lat="45.47982" lon="4.45235">
        <ele>511</ele>
        <time>2025-11-25T13:46:11.000Z</time>
      </trkpt>
      <trkpt lat="45.47988" lon="4.45233">
        <ele>510.8</ele>
      </trkpt>
      <trkpt lat="45.47993" lon="4.45231">
        <ele>510.7</ele>
      </trkpt>
      <trkpt lat="45.47999" lon="4.45229">
        <ele>510.6</ele>
      </trkpt>
      <trkpt lat="45.48004" lon="4.45227">
        <ele>510.4</ele>
        <time>2025-11-25T13:46:22.000Z</time>
      </trkpt>
      <trkpt lat="45.48009" lon="4.45221">
        <ele>510.3</ele>
      </trkpt>
      <trkpt lat="45.48015" lon="4.45214">
        <ele>510.1</ele>
      </trkpt>
      <trkpt lat="45.4802" lon="4.45208">
        <ele>509.9</ele>
      </trkpt>
      <trkpt lat="45.48026" lon="4.45202">
        <ele>509.8</ele>
      </trkpt>
      <trkpt lat="45.48031" lon="4.45195">
        <ele>510</ele>
      </trkpt>
      <trkpt lat="45.48036" lon="4.45189">
        <ele>509.9</ele>
      </trkpt>
      <trkpt lat="45.48042" lon="4.45182">
        <ele>509.8</ele>
      </trkpt>
      <trkpt lat="45.48047" lon="4.45176">
        <ele>509.8</ele>
        <time>2025-11-25T13:46:50.000Z</time>
      </trkpt>
      <trkpt lat="45.48048" lon="4.45171">
        <ele>509.8</ele>
        <time>2025-11-25T13:46:52.000Z</time>
      </trkpt>
      <trkpt lat="45.48054" lon="4.45171">
        <ele>509.9</ele>
      </trkpt>
      <trkpt lat="45.48059" lon="4.45171">
        <ele>510</ele>
      </trkpt>
      <trkpt lat="45.48065" lon="4.45171">
        <ele>510</ele>
      </trkpt>
      <trkpt lat="45.4807" lon="4.45171">
        <ele>510</ele>
        <time>2025-11-25T13:47:03.000Z</time>
      </trkpt>
      <trkpt lat="45.48077" lon="4.45169">
        <ele>510</ele>
      </trkpt>
      <trkpt lat="45.48084" lon="4.45167">
        <ele>510</ele>
      </trkpt>
      <trkpt lat="45.48091" lon="4.45165">
        <ele>510.2</ele>
      </trkpt>
      <trkpt lat="45.48098" lon="4.45163">
        <ele>510.3</ele>
      </trkpt>
      <trkpt lat="45.48105" lon="4.45161">
        <ele>510.4</ele>
      </trkpt>
      <trkpt lat="45.48112" lon="4.45159">
        <ele>510.4</ele>
      </trkpt>
      <trkpt lat="45.48119" lon="4.45157">
        <ele>510.2</ele>
      </trkpt>
      <trkpt lat="45.48126" lon="4.45155">
        <ele>510.1</ele>
        <time>2025-11-25T13:47:32.000Z</time>
      </trkpt>
      <trkpt lat="45.48133" lon="4.45151">
        <ele>510</ele>
      </trkpt>
      <trkpt lat="45.4814" lon="4.45147">
        <ele>510.1</ele>
        <time>2025-11-25T13:47:39.000Z</time>
      </trkpt>
      <trkpt lat="45.48144" lon="4.45142">
        <ele>510.2</ele>
      </trkpt>
      <trkpt lat="45.48147" lon="4.45137">
        <ele>510.3</ele>
        <time>2025-11-25T13:47:44.000Z</time>
      </trkpt>
      <trkpt lat="45.48149" lon="4.45129">
        <ele>510.3</ele>
      </trkpt>
      <trkpt lat="45.48152" lon="4.45121">
        <ele>510.4</ele>
      </trkpt>
      <trkpt lat="45.48154" lon="4.45113">
        <ele>510.6</ele>
      </trkpt>
      <trkpt lat="45.48156" lon="4.45105">
        <ele>510.7</ele>
      </trkpt>
      <trkpt lat="45.48158" lon="4.45096">
        <ele>510.7</ele>
      </trkpt>
      <trkpt lat="45.48161" lon="4.45088">
        <ele>510.7</ele>
      </trkpt>
      <trkpt lat="45.48163" lon="4.4508">
        <ele>510.7</ele>
      </trkpt>
      <trkpt lat="45.48165" lon="4.45072">
        <ele>510.9</ele>
        <time>2025-11-25T13:48:09.000Z</time>
      </trkpt>
      <trkpt lat="45.48168" lon="4.45067">
        <ele>511.1</ele>
      </trkpt>
      <trkpt lat="45.48172" lon="4.45062">
        <ele>511.2</ele>
      </trkpt>
      <trkpt lat="45.48175" lon="4.45056">
        <ele>511.3</ele>
      </trkpt>
      <trkpt lat="45.48178" lon="4.45051">
        <ele>511.3</ele>
        <time>2025-11-25T13:48:19.000Z</time>
      </trkpt>
      <trkpt lat="45.48184" lon="4.45044">
        <ele>511.5</ele>
      </trkpt>
      <trkpt lat="45.4819" lon="4.45037">
        <ele>511.7</ele>
      </trkpt>
      <trkpt lat="45.48196" lon="4.4503">
        <ele>512</ele>
      </trkpt>
      <trkpt lat="45.48202" lon="4.45023">
        <ele>512.3</ele>
      </trkpt>
      <trkpt lat="45.48207" lon="4.45016">
        <ele>512.5</ele>
      </trkpt>
      <trkpt lat="45.48213" lon="4.45009">
        <ele>512.7</ele>
      </trkpt>
      <trkpt lat="45.48219" lon="4.45002">
        <ele>512.9</ele>
      </trkpt>
      <trkpt lat="45.48225" lon="4.44995">
        <ele>513.2</ele>
        <time>2025-11-25T13:48:49.000Z</time>
      </trkpt>
      <trkpt lat="45.4823" lon="4.45004">
        <ele>513.6</ele>
        <time>2025-11-25T13:48:53.000Z</time>
      </trkpt>
      <trkpt lat="45.48233" lon="4.45014">
        <ele>513.7</ele>
      </trkpt>
      <trkpt lat="45.48235" lon="4.45025">
        <ele>513.9</ele>
      </trkpt>
      <trkpt lat="45.48238" lon="4.45035">
        <ele>514.4</ele>
      </trkpt>
      <trkpt lat="45.48241" lon="4.45045">
        <ele>514.9</ele>
      </trkpt>
      <trkpt lat="45.48243" lon="4.45055">
        <ele>515.5</ele>
      </trkpt>
      <trkpt lat="45.48246" lon="4.45066">
        <ele>516</ele>
      </trkpt>
      <trkpt lat="45.48248" lon="4.45076">
        <ele>516.6</ele>
      </trkpt>
      <trkpt lat="45.48251" lon="4.45086">
        <ele>517.1</ele>
        <time>2025-11-25T13:49:24.000Z</time>
      </trkpt>
      <trkpt lat="45.48252" lon="4.45094">
        <ele>517.2</ele>
      </trkpt>
      <trkpt lat="45.48254" lon="4.45102">
        <ele>517.3</ele>
      </trkpt>
      <trkpt lat="45.48255" lon="4.4511">
        <ele>517.4</ele>
      </trkpt>
      <trkpt lat="45.48257" lon="4.45118">
        <ele>517.7</ele>
      </trkpt>
      <trkpt lat="45.48258" lon="4.45126">
        <ele>518</ele>
      </trkpt>
      <trkpt lat="45.4826" lon="4.45134">
        <ele>518.2</ele>
      </trkpt>
      <trkpt lat="45.48261" lon="4.45142">
        <ele>518.4</ele>
      </trkpt>
      <trkpt lat="45.48263" lon="4.4515">
        <ele>518.4</ele>
      </trkpt>
      <trkpt lat="45.48264" lon="4.45158">
        <ele>518.5</ele>
      </trkpt>
      <trkpt lat="45.48265" lon="4.45166">
        <ele>518.6</ele>
      </trkpt>
      <trkpt lat="45.48267" lon="4.45174">
        <ele>518.3</ele>
      </trkpt>
      <trkpt lat="45.48268" lon="4.45182">
        <ele>518.1</ele>
      </trkpt>
      <trkpt lat="45.4827" lon="4.4519">
        <ele>517.9</ele>
      </trkpt>
      <trkpt lat="45.48271" lon="4.45198">
        <ele>517.7</ele>
      </trkpt>
      <trkpt lat="45.48273" lon="4.45206">
        <ele>517.7</ele>
      </trkpt>
      <trkpt lat="45.48274" lon="4.45214">
        <ele>517.8</ele>
        <time>2025-11-25T13:50:10.000Z</time>
      </trkpt>
      <trkpt lat="45.48278" lon="4.4522">
        <ele>518</ele>
      </trkpt>
      <trkpt lat="45.48281" lon="4.45226">
        <ele>517.8</ele>
        <time>2025-11-25T13:50:16.000Z</time>
      </trkpt>
      <trkpt lat="45.48286" lon="4.4523">
        <ele>517.7</ele>
      </trkpt>
      <trkpt lat="45.4829" lon="4.45234">
        <ele>517.6</ele>
        <time>2025-11-25T13:50:21.000Z</time>
      </trkpt>
      <trkpt lat="45.48296" lon="4.45237">
        <ele>517.6</ele>
      </trkpt>
      <trkpt lat="45.48302" lon="4.45239">
        <ele>517.7</ele>
        <time>2025-11-25T13:50:27.000Z</time>
      </trkpt>
      <trkpt lat="45.48307" lon="4.45239">
        <ele>517.9</ele>
      </trkpt>
      <trkpt lat="45.48312" lon="4.45239">
        <ele>518.1</ele>
      </trkpt>
      <trkpt lat="45.48318" lon="4.45239">
        <ele>518.4</ele>
      </trkpt>
      <trkpt lat="45.48323" lon="4.45239">
        <ele>518.6</ele>
      </trkpt>
      <trkpt lat="45.48328" lon="4.45239">
        <ele>518.9</ele>
      </trkpt>
      <trkpt lat="45.48333" lon="4.45239">
        <ele>519.1</ele>
      </trkpt>
      <trkpt lat="45.48338" lon="4.45239">
        <ele>519.3</ele>
      </trkpt>
      <trkpt lat="45.48344" lon="4.4524">
        <ele>519.5</ele>
      </trkpt>
      <trkpt lat="45.48349" lon="4.4524">
        <ele>519.7</ele>
      </trkpt>
      <trkpt lat="45.48354" lon="4.4524">
        <ele>519.9</ele>
      </trkpt>
      <trkpt lat="45.48359" lon="4.4524">
        <ele>520</ele>
      </trkpt>
      <trkpt lat="45.48364" lon="4.4524">
        <ele>520.3</ele>
      </trkpt>
      <trkpt lat="45.48369" lon="4.4524">
        <ele>520.6</ele>
      </trkpt>
      <trkpt lat="45.48375" lon="4.4524">
        <ele>520.9</ele>
      </trkpt>
      <trkpt lat="45.4838" lon="4.4524">
        <ele>521.2</ele>
      </trkpt>
      <trkpt lat="45.48385" lon="4.4524">
        <ele>521.5</ele>
        <time>2025-11-25T13:51:09.000Z</time>
      </trkpt>
      <trkpt lat="45.48391" lon="4.45243">
        <ele>521.7</ele>
      </trkpt>
      <trkpt lat="45.48396" lon="4.45246">
        <ele>522</ele>
      </trkpt>
      <trkpt lat="45.48402" lon="4.45248">
        <ele>522.4</ele>
      </trkpt>
      <trkpt lat="45.48407" lon="4.45251">
        <ele>522.9</ele>
      </trkpt>
      <trkpt lat="45.48413" lon="4.45254">
        <ele>523.4</ele>
      </trkpt>
      <trkpt lat="45.48418" lon="4.45257">
        <ele>523.8</ele>
      </trkpt>
      <trkpt lat="45.48424" lon="4.45259">
        <ele>524</ele>
      </trkpt>
      <trkpt lat="45.48429" lon="4.45262">
        <ele>524.2</ele>
        <time>2025-11-25T13:51:32.000Z</time>
      </trkpt>
      <trkpt lat="45.48435" lon="4.45263">
        <ele>524.5</ele>
      </trkpt>
      <trkpt lat="45.4844" lon="4.45264">
        <ele>524.8</ele>
        <time>2025-11-25T13:51:38.000Z</time>
      </trkpt>
      <trkpt lat="45.48445" lon="4.45263">
        <ele>525</ele>
      </trkpt>
      <trkpt lat="45.4845" lon="4.45262">
        <ele>525.1</ele>
        <time>2025-11-25T13:51:43.000Z</time>
      </trkpt>
      <trkpt lat="45.48454" lon="4.45259">
        <ele>525.2</ele>
      </trkpt>
      <trkpt lat="45.48459" lon="4.45257">
        <ele>525.4</ele>
      </trkpt>
      <trkpt lat="45.48463" lon="4.45254">
        <ele>525.6</ele>
      </trkpt>
      <trkpt lat="45.48468" lon="4.45251">
        <ele>525.8</ele>
      </trkpt>
      <trkpt lat="45.48472" lon="4.45249">
        <ele>526</ele>
      </trkpt>
      <trkpt lat="45.48476" lon="4.45246">
        <ele>526.4</ele>
      </trkpt>
      <trkpt lat="45.48481" lon="4.45243">
        <ele>526.8</ele>
      </trkpt>
      <trkpt lat="45.48485" lon="4.45241">
        <ele>527.3</ele>
      </trkpt>
      <trkpt lat="45.48489" lon="4.45238">
        <ele>527.7</ele>
      </trkpt>
      <trkpt lat="45.48494" lon="4.45235">
        <ele>528.1</ele>
      </trkpt>
      <trkpt lat="45.48498" lon="4.45232">
        <ele>528.5</ele>
      </trkpt>
      <trkpt lat="45.48503" lon="4.4523">
        <ele>528.8</ele>
      </trkpt>
      <trkpt lat="45.48507" lon="4.45227">
        <ele>529.1</ele>
      </trkpt>
      <trkpt lat="45.48511" lon="4.45224">
        <ele>529.3</ele>
      </trkpt>
      <trkpt lat="45.48516" lon="4.45222">
        <ele>529.6</ele>
      </trkpt>
      <trkpt lat="45.4852" lon="4.45219">
        <ele>529.8</ele>
        <time>2025-11-25T13:52:21.000Z</time>
      </trkpt>
      <trkpt lat="45.48526" lon="4.45227">
        <ele>529.8</ele>
        <time>2025-11-25T13:52:25.000Z</time>
      </trkpt>
      <trkpt lat="45.48525" lon="4.45235">
        <ele>529.4</ele>
      </trkpt>
      <trkpt lat="45.48524" lon="4.45243">
        <ele>529.1</ele>
        <time>2025-11-25T13:52:31.000Z</time>
      </trkpt>
      <trkpt lat="45.48527" lon="4.45253">
        <ele>528.9</ele>
      </trkpt>
      <trkpt lat="45.48531" lon="4.45263">
        <ele>528.8</ele>
      </trkpt>
      <trkpt lat="45.48534" lon="4.45273">
        <ele>528.7</ele>
      </trkpt>
      <trkpt lat="45.48538" lon="4.45283">
        <ele>528.5</ele>
      </trkpt>
      <trkpt lat="45.48541" lon="4.45292">
        <ele>528.2</ele>
      </trkpt>
      <trkpt lat="45.48544" lon="4.45302">
        <ele>527.8</ele>
      </trkpt>
      <trkpt lat="45.48548" lon="4.45312">
        <ele>527.3</ele>
      </trkpt>
      <trkpt lat="45.48551" lon="4.45322">
        <ele>526.7</ele>
        <time>2025-11-25T13:53:02.000Z</time>
      </trkpt>
      <trkpt lat="45.4855" lon="4.45334">
        <ele>526</ele>
        <time>2025-11-25T13:53:06.000Z</time>
      </trkpt>
      <trkpt lat="45.48547" lon="4.45342">
        <ele>525.4</ele>
      </trkpt>
      <trkpt lat="45.48545" lon="4.45349">
        <ele>524.9</ele>
      </trkpt>
      <trkpt lat="45.48542" lon="4.45357">
        <ele>524.3</ele>
      </trkpt>
      <trkpt lat="45.48539" lon="4.45364">
        <ele>523.7</ele>
        <time>2025-11-25T13:53:18.000Z</time>
      </trkpt>
      <trkpt lat="45.48542" lon="4.45375">
        <ele>522.5</ele>
        <time>2025-11-25T13:53:22.000Z</time>
      </trkpt>
      <trkpt lat="45.48549" lon="4.45377">
        <ele>522</ele>
        <time>2025-11-25T13:53:25.000Z</time>
      </trkpt>
      <trkpt lat="45.48556" lon="4.45375">
        <ele>522</ele>
      </trkpt>
      <trkpt lat="45.48563" lon="4.45372">
        <ele>521.4</ele>
      </trkpt>
      <trkpt lat="45.48569" lon="4.4537">
        <ele>520.9</ele>
      </trkpt>
      <trkpt lat="45.48576" lon="4.45367">
        <ele>520.5</ele>
        <time>2025-11-25T13:53:39.000Z</time>
      </trkpt>
      <trkpt lat="45.48581" lon="4.45367">
        <ele>520</ele>
      </trkpt>
      <trkpt lat="45.48585" lon="4.45366">
        <ele>519.6</ele>
        <time>2025-11-25T13:53:44.000Z</time>
      </trkpt>
      <trkpt lat="45.48593" lon="4.45367">
        <ele>518.4</ele>
      </trkpt>
      <trkpt lat="45.486" lon="4.45369">
        <ele>517.3</ele>
      </trkpt>
      <trkpt lat="45.48608" lon="4.4537">
        <ele>516.1</ele>
      </trkpt>
      <trkpt lat="45.48615" lon="4.45372">
        <ele>515.1</ele>
      </trkpt>
      <trkpt lat="45.48623" lon="4.45373">
        <ele>514.3</ele>
      </trkpt>
      <trkpt lat="45.4863" lon="4.45374">
        <ele>513.4</ele>
      </trkpt>
      <trkpt lat="45.48638" lon="4.45376">
        <ele>512.4</ele>
      </trkpt>
      <trkpt lat="45.48645" lon="4.45377">
        <ele>511.5</ele>
        <time>2025-11-25T13:54:14.000Z</time>
      </trkpt>
      <trkpt lat="45.48651" lon="4.45379">
        <ele>510.6</ele>
      </trkpt>
      <trkpt lat="45.48657" lon="4.4538">
        <ele>509.7</ele>
      </trkpt>
      <trkpt lat="45.48662" lon="4.45382">
        <ele>508.8</ele>
      </trkpt>
      <trkpt lat="45.48668" lon="4.45384">
        <ele>507.9</ele>
      </trkpt>
      <trkpt lat="45.48674" lon="4.45385">
        <ele>506.9</ele>
      </trkpt>
      <trkpt lat="45.4868" lon="4.45387">
        <ele>505.9</ele>
      </trkpt>
      <trkpt lat="45.48685" lon="4.45388">
        <ele>504.9</ele>
      </trkpt>
      <trkpt lat="45.48691" lon="4.4539">
        <ele>504</ele>
        <time>2025-11-25T13:54:38.000Z</time>
      </trkpt>
      <trkpt lat="45.48699" lon="4.45396">
        <ele>502.5</ele>
      </trkpt>
      <trkpt lat="45.48707" lon="4.45401">
        <ele>501.4</ele>
        <time>2025-11-25T13:54:46.000Z</time>
      </trkpt>
      <trkpt lat="45.48713" lon="4.45407">
        <ele>500.1</ele>
      </trkpt>
      <trkpt lat="45.4872" lon="4.45413">
        <ele>498.8</ele>
      </trkpt>
      <trkpt lat="45.48726" lon="4.45419">
        <ele>497.9</ele>
      </trkpt>
      <trkpt lat="45.48732" lon="4.45425">
        <ele>497</ele>
      </trkpt>
      <trkpt lat="45.48738" lon="4.45431">
        <ele>496</ele>
      </trkpt>
      <trkpt lat="45.48745" lon="4.45437">
        <ele>494.8</ele>
      </trkpt>
      <trkpt lat="45.48751" lon="4.45443">
        <ele>493.5</ele>
      </trkpt>
      <trkpt lat="45.48757" lon="4.45449">
        <ele>493.3</ele>
        <time>2025-11-25T13:55:17.000Z</time>
      </trkpt>
      <trkpt lat="45.4876" lon="4.45461">
        <ele>491.8</ele>
      </trkpt>
      <trkpt lat="45.48763" lon="4.45473">
        <ele>490.3</ele>
        <time>2025-11-25T13:55:26.000Z</time>
      </trkpt>
      <trkpt lat="45.48769" lon="4.45483">
        <ele>489.1</ele>
      </trkpt>
      <trkpt lat="45.48774" lon="4.45493">
        <ele>487.9</ele>
      </trkpt>
      <trkpt lat="45.4878" lon="4.45503">
        <ele>486.7</ele>
      </trkpt>
      <trkpt lat="45.48785" lon="4.45513">
        <ele>485.8</ele>
        <time>2025-11-25T13:55:43.000Z</time>
      </trkpt>
      <trkpt lat="45.48778" lon="4.45519">
        <ele>484.3</ele>
        <time>2025-11-25T13:55:48.000Z</time>
      </trkpt>
      <trkpt lat="45.48773" lon="4.45519">
        <ele>483.7</ele>
      </trkpt>
      <trkpt lat="45.48768" lon="4.45518">
        <ele>483.1</ele>
      </trkpt>
      <trkpt lat="45.48762" lon="4.45518">
        <ele>482.5</ele>
      </trkpt>
      <trkpt lat="45.48757" lon="4.45517">
        <ele>481.9</ele>
        <time>2025-11-25T13:55:58.000Z</time>
      </trkpt>
      <trkpt lat="45.4876" lon="4.45518">
        <ele>482.1</ele>
        <time>2025-11-25T13:56:00.000Z</time>
      </trkpt>
      <trkpt lat="45.48759" lon="4.4553">
        <ele>480</ele>
      </trkpt>
      <trkpt lat="45.48758" lon="4.45542">
        <ele>478.3</ele>
        <time>2025-11-25T13:56:08.000Z</time>
      </trkpt>
      <trkpt lat="45.48759" lon="4.45551">
        <ele>477.3</ele>
      </trkpt>
      <trkpt lat="45.48761" lon="4.45559">
        <ele>476.3</ele>
      </trkpt>
      <trkpt lat="45.48762" lon="4.45568">
        <ele>475.3</ele>
      </trkpt>
      <trkpt lat="45.48763" lon="4.45576">
        <ele>474.3</ele>
        <time>2025-11-25T13:56:20.000Z</time>
      </trkpt>
      <trkpt lat="45.48765" lon="4.45583">
        <ele>473.6</ele>
      </trkpt>
      <trkpt lat="45.48766" lon="4.4559">
        <ele>472.7</ele>
      </trkpt>
      <trkpt lat="45.48768" lon="4.45596">
        <ele>471.9</ele>
      </trkpt>
      <trkpt lat="45.48769" lon="4.45603">
        <ele>471</ele>
        <time>2025-11-25T13:56:30.000Z</time>
      </trkpt>
      <trkpt lat="45.48774" lon="4.45612">
        <ele>470.3</ele>
        <time>2025-11-25T13:56:34.000Z</time>
      </trkpt>
      <trkpt lat="45.48777" lon="4.45617">
        <ele>469.6</ele>
      </trkpt>
      <trkpt lat="45.4878" lon="4.45623">
        <ele>468.9</ele>
      </trkpt>
      <trkpt lat="45.48783" lon="4.45628">
        <ele>468.3</ele>
      </trkpt>
      <trkpt lat="45.48786" lon="4.45633">
        <ele>467.7</ele>
        <time>2025-11-25T13:56:44.000Z</time>
      </trkpt>
      <trkpt lat="45.48791" lon="4.45639">
        <ele>467.4</ele>
      </trkpt>
      <trkpt lat="45.48796" lon="4.45644">
        <ele>467.1</ele>
      </trkpt>
      <trkpt lat="45.48801" lon="4.4565">
        <ele>466.6</ele>
      </trkpt>
      <trkpt lat="45.48806" lon="4.45655">
        <ele>465.9</ele>
      </trkpt>
      <trkpt lat="45.4881" lon="4.45661">
        <ele>464.6</ele>
      </trkpt>
      <trkpt lat="45.48815" lon="4.45666">
        <ele>463.5</ele>
      </trkpt>
      <trkpt lat="45.4882" lon="4.45672">
        <ele>463</ele>
      </trkpt>
      <trkpt lat="45.48825" lon="4.45677">
        <ele>462.6</ele>
        <time>2025-11-25T13:57:09.000Z</time>
      </trkpt>
      <trkpt lat="45.48829" lon="4.4568">
        <ele>462.4</ele>
      </trkpt>
      <trkpt lat="45.48834" lon="4.45683">
        <ele>462.4</ele>
      </trkpt>
      <trkpt lat="45.48838" lon="4.45685">
        <ele>463</ele>
      </trkpt>
      <trkpt lat="45.48843" lon="4.45688">
        <ele>463.5</ele>
      </trkpt>
      <trkpt lat="45.48847" lon="4.45691">
        <ele>464</ele>
      </trkpt>
      <trkpt lat="45.48852" lon="4.45694">
        <ele>464.4</ele>
      </trkpt>
      <trkpt lat="45.48856" lon="4.45697">
        <ele>464.7</ele>
      </trkpt>
      <trkpt lat="45.48861" lon="4.457">
        <ele>464.8</ele>
      </trkpt>
      <trkpt lat="45.48865" lon="4.45702">
        <ele>465.1</ele>
      </trkpt>
      <trkpt lat="45.48869" lon="4.45705">
        <ele>465.4</ele>
      </trkpt>
      <trkpt lat="45.48874" lon="4.45708">
        <ele>465.6</ele>
      </trkpt>
      <trkpt lat="45.48878" lon="4.45711">
        <ele>465.7</ele>
      </trkpt>
      <trkpt lat="45.48883" lon="4.45714">
        <ele>465.7</ele>
      </trkpt>
      <trkpt lat="45.48887" lon="4.45716">
        <ele>465.6</ele>
      </trkpt>
      <trkpt lat="45.48892" lon="4.45719">
        <ele>465.5</ele>
      </trkpt>
      <trkpt lat="45.48896" lon="4.45722">
        <ele>465.4</ele>
      </trkpt>
      <trkpt lat="45.489" lon="4.45725">
        <ele>465.5</ele>
      </trkpt>
      <trkpt lat="45.48905" lon="4.45728">
        <ele>465.7</ele>
      </trkpt>
      <trkpt lat="45.48909" lon="4.4573">
        <ele>465.8</ele>
      </trkpt>
      <trkpt lat="45.48914" lon="4.45733">
        <ele>465.8</ele>
      </trkpt>
      <trkpt lat="45.48918" lon="4.45736">
        <ele>465.8</ele>
      </trkpt>
      <trkpt lat="45.48923" lon="4.45739">
        <ele>466.1</ele>
      </trkpt>
      <trkpt lat="45.48927" lon="4.45742">
        <ele>466.3</ele>
      </trkpt>
      <trkpt lat="45.48932" lon="4.45745">
        <ele>466.6</ele>
      </trkpt>
      <trkpt lat="45.48936" lon="4.45747">
        <ele>466.8</ele>
      </trkpt>
      <trkpt lat="45.4894" lon="4.4575">
        <ele>467.1</ele>
      </trkpt>
      <trkpt lat="45.48945" lon="4.45753">
        <ele>467.6</ele>
      </trkpt>
      <trkpt lat="45.48949" lon="4.45756">
        <ele>468.1</ele>
      </trkpt>
      <trkpt lat="45.48954" lon="4.45759">
        <ele>468.6</ele>
      </trkpt>
      <trkpt lat="45.48958" lon="4.45761">
        <ele>469</ele>
      </trkpt>
      <trkpt lat="45.48963" lon="4.45764">
        <ele>469.4</ele>
      </trkpt>
      <trkpt lat="45.48967" lon="4.45767">
        <ele>469.6</ele>
        <time>2025-11-25T13:58:26.000Z</time>
      </trkpt>
      <trkpt lat="45.48971" lon="4.45771">
        <ele>469.5</ele>
      </trkpt>
      <trkpt lat="45.48975" lon="4.45775">
        <ele>469.6</ele>
      </trkpt>
      <trkpt lat="45.48979" lon="4.45778">
        <ele>469.9</ele>
      </trkpt>
      <trkpt lat="45.48983" lon="4.45782">
        <ele>470.3</ele>
        <time>2025-11-25T13:58:36.000Z</time>
      </trkpt>
      <trkpt lat="45.48989" lon="4.45792">
        <ele>469.9</ele>
      </trkpt>
      <trkpt lat="45.48995" lon="4.45801">
        <ele>469.1</ele>
      </trkpt>
      <trkpt lat="45.49001" lon="4.45811">
        <ele>468.6</ele>
      </trkpt>
      <trkpt lat="45.49007" lon="4.45821">
        <ele>469.5</ele>
      </trkpt>
      <trkpt lat="45.49012" lon="4.4583">
        <ele>469.7</ele>
      </trkpt>
      <trkpt lat="45.49018" lon="4.4584">
        <ele>469.8</ele>
      </trkpt>
      <trkpt lat="45.49024" lon="4.45849">
        <ele>469.5</ele>
      </trkpt>
      <trkpt lat="45.4903" lon="4.45859">
        <ele>468.7</ele>
        <time>2025-11-25T13:59:12.000Z</time>
      </trkpt>
      <trkpt lat="45.49033" lon="4.45866">
        <ele>468.3</ele>
      </trkpt>
      <trkpt lat="45.49035" lon="4.45874">
        <ele>468</ele>
      </trkpt>
      <trkpt lat="45.49038" lon="4.45881">
        <ele>467.7</ele>
      </trkpt>
      <trkpt lat="45.4904" lon="4.45888">
        <ele>467.4</ele>
        <time>2025-11-25T13:59:23.000Z</time>
      </trkpt>
      <trkpt lat="45.49041" lon="4.459">
        <ele>467.3</ele>
      </trkpt>
      <trkpt lat="45.49042" lon="4.45911">
        <ele>467.1</ele>
      </trkpt>
      <trkpt lat="45.49043" lon="4.45923">
        <ele>467</ele>
      </trkpt>
      <trkpt lat="45.49044" lon="4.45934">
        <ele>467</ele>
      </trkpt>
      <trkpt lat="45.49044" lon="4.45946">
        <ele>467</ele>
      </trkpt>
      <trkpt lat="45.49045" lon="4.45957">
        <ele>467.2</ele>
      </trkpt>
      <trkpt lat="45.49046" lon="4.45969">
        <ele>467.3</ele>
      </trkpt>
      <trkpt lat="45.49047" lon="4.4598">
        <ele>467.4</ele>
        <time>2025-11-25T13:59:56.000Z</time>
      </trkpt>
      <trkpt lat="45.4905" lon="4.45988">
        <ele>467.3</ele>
      </trkpt>
      <trkpt lat="45.49053" lon="4.45995">
        <ele>467.2</ele>
        <time>2025-11-25T14:00:02.000Z</time>
      </trkpt>
      <trkpt lat="45.49057" lon="4.45998">
        <ele>467.1</ele>
      </trkpt>
      <trkpt lat="45.49061" lon="4.46002">
        <ele>467.3</ele>
      </trkpt>
      <trkpt lat="45.49065" lon="4.46005">
        <ele>467.6</ele>
      </trkpt>
      <trkpt lat="45.49069" lon="4.46008">
        <ele>467.8</ele>
        <time>2025-11-25T14:00:11.000Z</time>
      </trkpt>
      <trkpt lat="45.49075" lon="4.4601">
        <ele>467.9</ele>
      </trkpt>
      <trkpt lat="45.4908" lon="4.46011">
        <ele>468</ele>
      </trkpt>
      <trkpt lat="45.49086" lon="4.46013">
        <ele>468.1</ele>
      </trkpt>
      <trkpt lat="45.49091" lon="4.46014">
        <ele>468.4</ele>
        <time>2025-11-25T14:00:22.000Z</time>
      </trkpt>
      <trkpt lat="45.49097" lon="4.46014">
        <ele>468.7</ele>
      </trkpt>
      <trkpt lat="45.49103" lon="4.46014">
        <ele>469.1</ele>
      </trkpt>
      <trkpt lat="45.49109" lon="4.46014">
        <ele>469.4</ele>
      </trkpt>
      <trkpt lat="45.49116" lon="4.46014">
        <ele>469.7</ele>
      </trkpt>
      <trkpt lat="45.49122" lon="4.46014">
        <ele>469.9</ele>
      </trkpt>
      <trkpt lat="45.49128" lon="4.46014">
        <ele>470.1</ele>
      </trkpt>
      <trkpt lat="45.49134" lon="4.46014">
        <ele>470.3</ele>
      </trkpt>
      <trkpt lat="45.4914" lon="4.46014">
        <ele>470.5</ele>
        <time>2025-11-25T14:00:47.000Z</time>
      </trkpt>
      <trkpt lat="45.49145" lon="4.46016">
        <ele>470.6</ele>
      </trkpt>
      <trkpt lat="45.49149" lon="4.46019">
        <ele>470.7</ele>
      </trkpt>
      <trkpt lat="45.49154" lon="4.46021">
        <ele>470.8</ele>
      </trkpt>
      <trkpt lat="45.49158" lon="4.46023">
        <ele>470.9</ele>
        <time>2025-11-25T14:00:56.000Z</time>
      </trkpt>
      <trkpt lat="45.49164" lon="4.46022">
        <ele>471.1</ele>
        <time>2025-11-25T14:00:59.000Z</time>
      </trkpt>
      <trkpt lat="45.49167" lon="4.46019">
        <ele>471.3</ele>
        <time>2025-11-25T14:01:01.000Z</time>
      </trkpt>
      <trkpt lat="45.49171" lon="4.46013">
        <ele>471.6</ele>
      </trkpt>
      <trkpt lat="45.49175" lon="4.46006">
        <ele>471.8</ele>
      </trkpt>
      <trkpt lat="45.49178" lon="4.46">
        <ele>472</ele>
      </trkpt>
      <trkpt lat="45.49182" lon="4.45993">
        <ele>472.6</ele>
        <time>2025-11-25T14:01:13.000Z</time>
      </trkpt>
      <trkpt lat="45.49183" lon="4.45986">
        <ele>473.2</ele>
      </trkpt>
      <trkpt lat="45.49185" lon="4.45979">
        <ele>473.8</ele>
      </trkpt>
      <trkpt lat="45.49186" lon="4.45972">
        <ele>474.3</ele>
      </trkpt>
      <trkpt lat="45.49187" lon="4.45965">
        <ele>475.2</ele>
        <time>2025-11-25T14:01:23.000Z</time>
      </trkpt>
      <trkpt lat="45.49191" lon="4.45956">
        <ele>476.4</ele>
      </trkpt>
      <trkpt lat="45.49194" lon="4.45947">
        <ele>477.6</ele>
        <time>2025-11-25T14:01:30.000Z</time>
      </trkpt>
      <trkpt lat="45.49201" lon="4.45942">
        <ele>478.5</ele>
      </trkpt>
      <trkpt lat="45.49207" lon="4.45936">
        <ele>479.5</ele>
      </trkpt>
      <trkpt lat="45.49214" lon="4.45931">
        <ele>480.7</ele>
      </trkpt>
      <trkpt lat="45.49221" lon="4.45925">
        <ele>482.1</ele>
      </trkpt>
      <trkpt lat="45.49227" lon="4.4592">
        <ele>482.9</ele>
      </trkpt>
      <trkpt lat="45.49234" lon="4.45914">
        <ele>483.3</ele>
      </trkpt>
      <trkpt lat="45.4924" lon="4.45909">
        <ele>483.8</ele>
      </trkpt>
      <trkpt lat="45.49247" lon="4.45903">
        <ele>484.6</ele>
        <time>2025-11-25T14:02:01.000Z</time>
      </trkpt>
      <trkpt lat="45.49254" lon="4.45896">
        <ele>485.6</ele>
      </trkpt>
      <trkpt lat="45.4926" lon="4.45889">
        <ele>486.2</ele>
        <time>2025-11-25T14:02:09.000Z</time>
      </trkpt>
      <trkpt lat="45.49264" lon="4.4588">
        <ele>486.8</ele>
      </trkpt>
      <trkpt lat="45.49268" lon="4.45871">
        <ele>487.6</ele>
      </trkpt>
      <trkpt lat="45.49272" lon="4.45861">
        <ele>488.5</ele>
      </trkpt>
      <trkpt lat="45.49277" lon="4.45852">
        <ele>489.5</ele>
      </trkpt>
      <trkpt lat="45.49281" lon="4.45843">
        <ele>490</ele>
      </trkpt>
      <trkpt lat="45.49285" lon="4.45834">
        <ele>490.5</ele>
      </trkpt>
      <trkpt lat="45.49289" lon="4.45824">
        <ele>491</ele>
      </trkpt>
      <trkpt lat="45.49293" lon="4.45815">
        <ele>491.7</ele>
        <time>2025-11-25T14:02:40.000Z</time>
      </trkpt>
      <trkpt lat="45.49298" lon="4.45809">
        <ele>491.8</ele>
      </trkpt>
      <trkpt lat="45.49302" lon="4.45804">
        <ele>492</ele>
      </trkpt>
      <trkpt lat="45.49307" lon="4.45798">
        <ele>492.5</ele>
      </trkpt>
      <trkpt lat="45.49311" lon="4.45793">
        <ele>493</ele>
      </trkpt>
      <trkpt lat="45.49316" lon="4.45787">
        <ele>493.6</ele>
      </trkpt>
      <trkpt lat="45.4932" lon="4.45781">
        <ele>494.2</ele>
      </trkpt>
      <trkpt lat="45.49325" lon="4.45776">
        <ele>494.7</ele>
      </trkpt>
      <trkpt lat="45.49329" lon="4.4577">
        <ele>495.3</ele>
        <time>2025-11-25T14:03:04.000Z</time>
      </trkpt>
      <trkpt lat="45.49335" lon="4.45761">
        <ele>496.4</ele>
      </trkpt>
      <trkpt lat="45.4934" lon="4.45753">
        <ele>497.5</ele>
      </trkpt>
      <trkpt lat="45.49346" lon="4.45744">
        <ele>498.4</ele>
      </trkpt>
      <trkpt lat="45.49351" lon="4.45735">
        <ele>499.2</ele>
        <time>2025-11-25T14:03:20.000Z</time>
      </trkpt>
      <trkpt lat="45.49354" lon="4.45728">
        <ele>500</ele>
      </trkpt>
      <trkpt lat="45.49358" lon="4.4572">
        <ele>501</ele>
      </trkpt>
      <trkpt lat="45.49361" lon="4.45713">
        <ele>502.2</ele>
      </trkpt>
      <trkpt lat="45.49364" lon="4.45705">
        <ele>503.4</ele>
        <time>2025-11-25T14:03:33.000Z</time>
      </trkpt>
      <trkpt lat="45.49367" lon="4.457">
        <ele>504.2</ele>
      </trkpt>
      <trkpt lat="45.4937" lon="4.45695">
        <ele>505</ele>
      </trkpt>
      <trkpt lat="45.49373" lon="4.4569">
        <ele>505.7</ele>
      </trkpt>
      <trkpt lat="45.49376" lon="4.45685">
        <ele>506.5</ele>
      </trkpt>
      <trkpt lat="45.49378" lon="4.4568">
        <ele>507.3</ele>
      </trkpt>
      <trkpt lat="45.49381" lon="4.45675">
        <ele>508</ele>
      </trkpt>
      <trkpt lat="45.49384" lon="4.4567">
        <ele>508.8</ele>
      </trkpt>
      <trkpt lat="45.49387" lon="4.45665">
        <ele>509.6</ele>
      </trkpt>
      <trkpt lat="45.4939" lon="4.4566">
        <ele>510.3</ele>
      </trkpt>
      <trkpt lat="45.49393" lon="4.45655">
        <ele>511</ele>
      </trkpt>
      <trkpt lat="45.49396" lon="4.4565">
        <ele>511.6</ele>
      </trkpt>
      <trkpt lat="45.49399" lon="4.45645">
        <ele>512.3</ele>
      </trkpt>
      <trkpt lat="45.49401" lon="4.4564">
        <ele>513</ele>
      </trkpt>
      <trkpt lat="45.49404" lon="4.45635">
        <ele>513.6</ele>
      </trkpt>
      <trkpt lat="45.49407" lon="4.4563">
        <ele>514.2</ele>
      </trkpt>
      <trkpt lat="45.4941" lon="4.45625">
        <ele>514.8</ele>
        <time>2025-11-25T14:04:09.000Z</time>
      </trkpt>
      <trkpt lat="45.49414" lon="4.45615">
        <ele>516.4</ele>
      </trkpt>
      <trkpt lat="45.49418" lon="4.45606">
        <ele>517.8</ele>
      </trkpt>
      <trkpt lat="45.49422" lon="4.45596">
        <ele>519</ele>
      </trkpt>
      <trkpt lat="45.49426" lon="4.45586">
        <ele>520.2</ele>
        <time>2025-11-25T14:04:25.000Z</time>
      </trkpt>
      <trkpt lat="45.49428" lon="4.45579">
        <ele>521.2</ele>
      </trkpt>
      <trkpt lat="45.49429" lon="4.45572">
        <ele>522.2</ele>
      </trkpt>
      <trkpt lat="45.49431" lon="4.45565">
        <ele>523.3</ele>
      </trkpt>
      <trkpt lat="45.49433" lon="4.45558">
        <ele>524.3</ele>
      </trkpt>
      <trkpt lat="45.49434" lon="4.45551">
        <ele>525.2</ele>
      </trkpt>
      <trkpt lat="45.49436" lon="4.45544">
        <ele>526.2</ele>
      </trkpt>
      <trkpt lat="45.49437" lon="4.45537">
        <ele>527.2</ele>
      </trkpt>
      <trkpt lat="45.49439" lon="4.4553">
        <ele>528.2</ele>
        <time>2025-11-25T14:04:45.000Z</time>
      </trkpt>
      <trkpt lat="45.49446" lon="4.45523">
        <ele>528.6</ele>
      </trkpt>
      <trkpt lat="45.49453" lon="4.45515">
        <ele>528.9</ele>
        <time>2025-11-25T14:04:54.000Z</time>
      </trkpt>
      <trkpt lat="45.49461" lon="4.45509">
        <ele>529.2</ele>
      </trkpt>
      <trkpt lat="45.49468" lon="4.45503">
        <ele>529.7</ele>
      </trkpt>
      <trkpt lat="45.49476" lon="4.45497">
        <ele>530.4</ele>
      </trkpt>
      <trkpt lat="45.49483" lon="4.45491">
        <ele>531.2</ele>
        <time>2025-11-25T14:05:11.000Z</time>
      </trkpt>
      <trkpt lat="45.49491" lon="4.45489">
        <ele>531.4</ele>
      </trkpt>
      <trkpt lat="45.495" lon="4.45486">
        <ele>531.5</ele>
      </trkpt>
      <trkpt lat="45.49508" lon="4.45484">
        <ele>532.9</ele>
      </trkpt>
      <trkpt lat="45.49516" lon="4.45481">
        <ele>534.4</ele>
        <time>2025-11-25T14:05:28.000Z</time>
      </trkpt>
      <trkpt lat="45.49522" lon="4.45481">
        <ele>535.1</ele>
      </trkpt>
      <trkpt lat="45.49528" lon="4.45482">
        <ele>536</ele>
      </trkpt>
      <trkpt lat="45.49533" lon="4.45482">
        <ele>537</ele>
      </trkpt>
      <trkpt lat="45.49539" lon="4.45482">
        <ele>538</ele>
        <time>2025-11-25T14:05:40.000Z</time>
      </trkpt>
      <trkpt lat="45.49545" lon="4.45485">
        <ele>538.8</ele>
      </trkpt>
      <trkpt lat="45.49551" lon="4.45487">
        <ele>539.6</ele>
        <time>2025-11-25T14:05:46.000Z</time>
      </trkpt>
      <trkpt lat="45.49557" lon="4.45487">
        <ele>540.6</ele>
      </trkpt>
      <trkpt lat="45.49562" lon="4.45486">
        <ele>541.4</ele>
        <time>2025-11-25T14:05:52.000Z</time>
      </trkpt>
      <trkpt lat="45.49566" lon="4.45495">
        <ele>541</ele>
      </trkpt>
      <trkpt lat="45.4957" lon="4.45505">
        <ele>540.5</ele>
      </trkpt>
      <trkpt lat="45.49574" lon="4.45514">
        <ele>539.8</ele>
      </trkpt>
      <trkpt lat="45.49578" lon="4.45523">
        <ele>539.1</ele>
        <time>2025-11-25T14:06:07.000Z</time>
      </trkpt>
      <trkpt lat="45.49584" lon="4.4553">
        <ele>538.6</ele>
      </trkpt>
      <trkpt lat="45.49589" lon="4.45537">
        <ele>537.4</ele>
      </trkpt>
      <trkpt lat="45.49595" lon="4.45544">
        <ele>536.3</ele>
      </trkpt>
      <trkpt lat="45.496" lon="4.45551">
        <ele>535.3</ele>
        <time>2025-11-25T14:06:22.000Z</time>
      </trkpt>
      <trkpt lat="45.49608" lon="4.45557">
        <ele>534.6</ele>
      </trkpt>
      <trkpt lat="45.49615" lon="4.45563">
        <ele>533.4</ele>
      </trkpt>
      <trkpt lat="45.49623" lon="4.45569">
        <ele>532.3</ele>
      </trkpt>
      <trkpt lat="45.4963" lon="4.45575">
        <ele>531.3</ele>
        <time>2025-11-25T14:06:39.000Z</time>
      </trkpt>
      <trkpt lat="45.49635" lon="4.45578">
        <ele>530.9</ele>
      </trkpt>
      <trkpt lat="45.49639" lon="4.45581">
        <ele>530.5</ele>
      </trkpt>
      <trkpt lat="45.49644" lon="4.45584">
        <ele>530.1</ele>
      </trkpt>
      <trkpt lat="45.49649" lon="4.45587">
        <ele>529.9</ele>
      </trkpt>
      <trkpt lat="45.49653" lon="4.45589">
        <ele>529.6</ele>
      </trkpt>
      <trkpt lat="45.49658" lon="4.45592">
        <ele>529.5</ele>
      </trkpt>
      <trkpt lat="45.49662" lon="4.45595">
        <ele>529.4</ele>
      </trkpt>
      <trkpt lat="45.49667" lon="4.45598">
        <ele>529.4</ele>
        <time>2025-11-25T14:06:59.000Z</time>
      </trkpt>
      <trkpt lat="45.49672" lon="4.45601">
        <ele>528.7</ele>
      </trkpt>
      <trkpt lat="45.49678" lon="4.45604">
        <ele>527.9</ele>
      </trkpt>
      <trkpt lat="45.49683" lon="4.45606">
        <ele>527</ele>
      </trkpt>
      <trkpt lat="45.49688" lon="4.45609">
        <ele>526</ele>
        <time>2025-11-25T14:07:10.000Z</time>
      </trkpt>
      <trkpt lat="45.49694" lon="4.45609">
        <ele>525.4</ele>
      </trkpt>
      <trkpt lat="45.497" lon="4.45609">
        <ele>525</ele>
      </trkpt>
      <trkpt lat="45.49706" lon="4.45609">
        <ele>524.5</ele>
      </trkpt>
      <trkpt lat="45.49712" lon="4.4561">
        <ele>524.1</ele>
      </trkpt>
      <trkpt lat="45.49717" lon="4.4561">
        <ele>523.7</ele>
      </trkpt>
      <trkpt lat="45.49723" lon="4.4561">
        <ele>523.2</ele>
      </trkpt>
      <trkpt lat="45.49729" lon="4.4561">
        <ele>522.5</ele>
      </trkpt>
      <trkpt lat="45.49735" lon="4.4561">
        <ele>521.8</ele>
        <time>2025-11-25T14:07:34.000Z</time>
      </trkpt>
      <trkpt lat="45.49742" lon="4.45612">
        <ele>520.9</ele>
      </trkpt>
      <trkpt lat="45.49748" lon="4.45613">
        <ele>520</ele>
        <time>2025-11-25T14:07:40.000Z</time>
      </trkpt>
      <trkpt lat="45.49753" lon="4.45617">
        <ele>519.3</ele>
      </trkpt>
      <trkpt lat="45.49757" lon="4.4562">
        <ele>518.7</ele>
        <time>2025-11-25T14:07:45.000Z</time>
      </trkpt>
      <trkpt lat="45.49764" lon="4.45628">
        <ele>517.4</ele>
      </trkpt>
      <trkpt lat="45.4977" lon="4.45636">
        <ele>515.9</ele>
        <time>2025-11-25T14:07:54.000Z</time>
      </trkpt>
      <trkpt lat="45.49776" lon="4.4564">
        <ele>515</ele>
      </trkpt>
      <trkpt lat="45.49782" lon="4.45644">
        <ele>513.7</ele>
        <time>2025-11-25T14:08:01.000Z</time>
      </trkpt>
      <trkpt lat="45.49789" lon="4.45646">
        <ele>512.6</ele>
      </trkpt>
      <trkpt lat="45.49796" lon="4.45648">
        <ele>511.5</ele>
        <time>2025-11-25T14:08:08.000Z</time>
      </trkpt>
      <trkpt lat="45.49802" lon="4.45645">
        <ele>511.1</ele>
      </trkpt>
      <trkpt lat="45.49807" lon="4.45642">
        <ele>510.7</ele>
      </trkpt>
      <trkpt lat="45.49813" lon="4.45638">
        <ele>510.6</ele>
      </trkpt>
      <trkpt lat="45.49818" lon="4.45635">
        <ele>510.7</ele>
        <time>2025-11-25T14:08:20.000Z</time>
      </trkpt>
      <trkpt lat="45.49825" lon="4.45632">
        <ele>510.5</ele>
      </trkpt>
      <trkpt lat="45.49832" lon="4.4563">
        <ele>510.1</ele>
      </trkpt>
      <trkpt lat="45.49839" lon="4.45627">
        <ele>510.7</ele>
      </trkpt>
      <trkpt lat="45.49846" lon="4.45624">
        <ele>511.2</ele>
        <time>2025-11-25T14:08:34.000Z</time>
      </trkpt>
      <trkpt lat="45.49854" lon="4.45619">
        <ele>511.5</ele>
      </trkpt>
      <trkpt lat="45.49863" lon="4.45615">
        <ele>511.3</ele>
      </trkpt>
      <trkpt lat="45.49871" lon="4.4561">
        <ele>511.4</ele>
      </trkpt>
      <trkpt lat="45.49879" lon="4.45605">
        <ele>511.6</ele>
        <time>2025-11-25T14:08:52.000Z</time>
      </trkpt>
      <trkpt lat="45.49886" lon="4.45599">
        <ele>511.5</ele>
      </trkpt>
      <trkpt lat="45.49894" lon="4.45592">
        <ele>511.6</ele>
      </trkpt>
      <trkpt lat="45.49901" lon="4.45586">
        <ele>511.6</ele>
      </trkpt>
      <trkpt lat="45.49908" lon="4.45579">
        <ele>512</ele>
        <time>2025-11-25T14:09:09.000Z</time>
      </trkpt>
      <trkpt lat="45.49915" lon="4.45578">
        <ele>512.2</ele>
      </trkpt>
      <trkpt lat="45.49922" lon="4.45577">
        <ele>512.7</ele>
        <time>2025-11-25T14:09:16.000Z</time>
      </trkpt>
      <trkpt lat="45.49929" lon="4.45579">
        <ele>513.3</ele>
        <time>2025-11-25T14:09:20.000Z</time>
      </trkpt>
      <trkpt lat="45.49936" lon="4.45585">
        <ele>514.4</ele>
        <time>2025-11-25T14:09:24.000Z</time>
      </trkpt>
      <trkpt lat="45.49936" lon="4.45593">
        <ele>515.7</ele>
        <time>2025-11-25T14:09:27.000Z</time>
      </trkpt>
      <trkpt lat="45.49933" lon="4.45598">
        <ele>516.2</ele>
        <time>2025-11-25T14:09:29.000Z</time>
      </trkpt>
      <trkpt lat="45.49929" lon="4.45604">
        <ele>516.6</ele>
      </trkpt>
      <trkpt lat="45.49924" lon="4.4561">
        <ele>516.9</ele>
      </trkpt>
      <trkpt lat="45.4992" lon="4.45616">
        <ele>517.6</ele>
      </trkpt>
      <trkpt lat="45.49916" lon="4.45622">
        <ele>518.5</ele>
      </trkpt>
      <trkpt lat="45.49911" lon="4.45627">
        <ele>519.3</ele>
      </trkpt>
      <trkpt lat="45.49907" lon="4.45633">
        <ele>520.2</ele>
      </trkpt>
      <trkpt lat="45.49902" lon="4.45639">
        <ele>521</ele>
      </trkpt>
      <trkpt lat="45.49898" lon="4.45645">
        <ele>521.9</ele>
        <time>2025-11-25T14:09:53.000Z</time>
      </trkpt>
      <trkpt lat="45.49894" lon="4.45653">
        <ele>523.2</ele>
      </trkpt>
      <trkpt lat="45.4989" lon="4.4566">
        <ele>524.5</ele>
        <time>2025-11-25T14:10:00.000Z</time>
      </trkpt>
      <trkpt lat="45.49888" lon="4.45668">
        <ele>525.8</ele>
      </trkpt>
      <trkpt lat="45.49886" lon="4.45677">
        <ele>525.8</ele>
      </trkpt>
      <trkpt lat="45.49883" lon="4.45685">
        <ele>525.8</ele>
      </trkpt>
      <trkpt lat="45.49881" lon="4.45693">
        <ele>525.9</ele>
      </trkpt>
      <trkpt lat="45.49879" lon="4.45701">
        <ele>526.1</ele>
      </trkpt>
      <trkpt lat="45.49877" lon="4.4571">
        <ele>526.3</ele>
      </trkpt>
      <trkpt lat="45.49874" lon="4.45718">
        <ele>526.4</ele>
      </trkpt>
      <trkpt lat="45.49872" lon="4.45726">
        <ele>526.8</ele>
        <time>2025-11-25T14:10:24.000Z</time>
      </trkpt>
      <trkpt lat="45.49868" lon="4.45737">
        <ele>527.5</ele>
      </trkpt>
      <trkpt lat="45.49865" lon="4.45748">
        <ele>527.9</ele>
      </trkpt>
      <trkpt lat="45.49861" lon="4.45759">
        <ele>528.8</ele>
      </trkpt>
      <trkpt lat="45.49857" lon="4.4577">
        <ele>529.9</ele>
      </trkpt>
      <trkpt lat="45.49853" lon="4.45781">
        <ele>530.8</ele>
      </trkpt>
      <trkpt lat="45.4985" lon="4.45792">
        <ele>531.4</ele>
      </trkpt>
      <trkpt lat="45.49846" lon="4.45803">
        <ele>532</ele>
      </trkpt>
      <trkpt lat="45.49842" lon="4.45814">
        <ele>532.1</ele>
        <time>2025-11-25T14:10:59.000Z</time>
      </trkpt>
      <trkpt lat="45.49841" lon="4.45822">
        <ele>532.6</ele>
      </trkpt>
      <trkpt lat="45.49839" lon="4.45829">
        <ele>533.1</ele>
        <time>2025-11-25T14:11:04.000Z</time>
      </trkpt>
      <trkpt lat="45.4984" lon="4.45836">
        <ele>534</ele>
      </trkpt>
      <trkpt lat="45.49841" lon="4.45842">
        <ele>534.4</ele>
        <time>2025-11-25T14:11:09.000Z</time>
      </trkpt>
      <trkpt lat="45.49845" lon="4.45849">
        <ele>535.7</ele>
      </trkpt>
      <trkpt lat="45.49849" lon="4.45855">
        <ele>536.9</ele>
        <time>2025-11-25T14:11:15.000Z</time>
      </trkpt>
      <trkpt lat="45.49853" lon="4.45859">
        <ele>537.9</ele>
      </trkpt>
      <trkpt lat="45.49857" lon="4.45863">
        <ele>538.7</ele>
        <time>2025-11-25T14:11:20.000Z</time>
      </trkpt>
      <trkpt lat="45.49866" lon="4.45865">
        <ele>540.6</ele>
      </trkpt>
      <trkpt lat="45.49874" lon="4.45867">
        <ele>542.2</ele>
        <time>2025-11-25T14:11:29.000Z</time>
      </trkpt>
      <trkpt lat="45.4988" lon="4.45871">
        <ele>543.2</ele>
      </trkpt>
      <trkpt lat="45.49885" lon="4.45874">
        <ele>544.2</ele>
      </trkpt>
      <trkpt lat="45.49891" lon="4.45878">
        <ele>545.2</ele>
      </trkpt>
      <trkpt lat="45.49896" lon="4.45881">
        <ele>546.2</ele>
      </trkpt>
      <trkpt lat="45.49902" lon="4.45885">
        <ele>547.2</ele>
      </trkpt>
      <trkpt lat="45.49907" lon="4.45888">
        <ele>548.1</ele>
      </trkpt>
      <trkpt lat="45.49913" lon="4.45892">
        <ele>548.9</ele>
      </trkpt>
      <trkpt lat="45.49919" lon="4.45895">
        <ele>549.8</ele>
      </trkpt>
      <trkpt lat="45.49924" lon="4.45899">
        <ele>550.7</ele>
      </trkpt>
      <trkpt lat="45.4993" lon="4.45902">
        <ele>551.4</ele>
      </trkpt>
      <trkpt lat="45.49935" lon="4.45906">
        <ele>552.1</ele>
      </trkpt>
      <trkpt lat="45.49941" lon="4.45909">
        <ele>552.7</ele>
      </trkpt>
      <trkpt lat="45.49946" lon="4.45913">
        <ele>553</ele>
      </trkpt>
      <trkpt lat="45.49952" lon="4.45916">
        <ele>553.2</ele>
      </trkpt>
      <trkpt lat="45.49957" lon="4.4592">
        <ele>553.5</ele>
      </trkpt>
      <trkpt lat="45.49963" lon="4.45923">
        <ele>553.8</ele>
        <time>2025-11-25T14:12:17.000Z</time>
      </trkpt>
      <trkpt lat="45.49972" lon="4.45927">
        <ele>554.4</ele>
      </trkpt>
      <trkpt lat="45.4998" lon="4.45931">
        <ele>555.5</ele>
      </trkpt>
      <trkpt lat="45.49989" lon="4.45934">
        <ele>556.6</ele>
      </trkpt>
      <trkpt lat="45.49997" lon="4.45938">
        <ele>557.6</ele>
        <time>2025-11-25T14:12:35.000Z</time>
      </trkpt>
      <trkpt lat="45.50004" lon="4.45943">
        <ele>558.3</ele>
      </trkpt>
      <trkpt lat="45.5001" lon="4.45947">
        <ele>559</ele>
      </trkpt>
      <trkpt lat="45.50017" lon="4.45952">
        <ele>559.7</ele>
      </trkpt>
      <trkpt lat="45.50023" lon="4.45956">
        <ele>560.4</ele>
      </trkpt>
      <trkpt lat="45.5003" lon="4.45961">
        <ele>561</ele>
      </trkpt>
      <trkpt lat="45.50036" lon="4.45965">
        <ele>561.7</ele>
      </trkpt>
      <trkpt lat="45.50043" lon="4.4597">
        <ele>562.3</ele>
      </trkpt>
      <trkpt lat="45.5005" lon="4.45974">
        <ele>563</ele>
      </trkpt>
      <trkpt lat="45.50056" lon="4.45979">
        <ele>563.5</ele>
      </trkpt>
      <trkpt lat="45.50063" lon="4.45983">
        <ele>563.7</ele>
      </trkpt>
      <trkpt lat="45.50069" lon="4.45988">
        <ele>563.9</ele>
      </trkpt>
      <trkpt lat="45.50076" lon="4.45992">
        <ele>564.2</ele>
      </trkpt>
      <trkpt lat="45.50082" lon="4.45997">
        <ele>564.5</ele>
      </trkpt>
      <trkpt lat="45.50089" lon="4.46001">
        <ele>565</ele>
      </trkpt>
      <trkpt lat="45.50095" lon="4.46006">
        <ele>565.5</ele>
      </trkpt>
      <trkpt lat="45.50102" lon="4.4601">
        <ele>566.1</ele>
        <time>2025-11-25T14:13:33.000Z</time>
      </trkpt>
      <trkpt lat="45.50102" lon="4.45998">
        <ele>568.5</ele>
        <time>2025-11-25T14:13:38.000Z</time>
      </trkpt>
      <trkpt lat="45.50101" lon="4.45992">
        <ele>569.5</ele>
      </trkpt>
      <trkpt lat="45.50099" lon="4.45986">
        <ele>570.5</ele>
      </trkpt>
      <trkpt lat="45.50098" lon="4.45979">
        <ele>571.5</ele>
      </trkpt>
      <trkpt lat="45.50096" lon="4.45973">
        <ele>572.6</ele>
      </trkpt>
      <trkpt lat="45.50095" lon="4.45967">
        <ele>573.5</ele>
      </trkpt>
      <trkpt lat="45.50093" lon="4.45961">
        <ele>574.5</ele>
      </trkpt>
      <trkpt lat="45.50092" lon="4.45954">
        <ele>575.5</ele>
      </trkpt>
      <trkpt lat="45.5009" lon="4.45948">
        <ele>576.5</ele>
        <time>2025-11-25T14:13:56.000Z</time>
      </trkpt>
      <trkpt lat="45.50088" lon="4.45942">
        <ele>577.4</ele>
      </trkpt>
      <trkpt lat="45.50085" lon="4.45935">
        <ele>578.4</ele>
      </trkpt>
      <trkpt lat="45.50083" lon="4.45929">
        <ele>579.4</ele>
      </trkpt>
      <trkpt lat="45.50081" lon="4.45922">
        <ele>580.2</ele>
      </trkpt>
      <trkpt lat="45.50078" lon="4.45916">
        <ele>581.1</ele>
      </trkpt>
      <trkpt lat="45.50076" lon="4.45909">
        <ele>582</ele>
      </trkpt>
      <trkpt lat="45.50073" lon="4.45903">
        <ele>582.9</ele>
      </trkpt>
      <trkpt lat="45.50071" lon="4.45896">
        <ele>583.8</ele>
        <time>2025-11-25T14:14:17.000Z</time>
      </trkpt>
      <trkpt lat="45.50069" lon="4.45887">
        <ele>585.3</ele>
        <time>2025-11-25T14:14:20.000Z</time>
      </trkpt>
      <trkpt lat="45.50071" lon="4.45878">
        <ele>587.7</ele>
        <time>2025-11-25T14:14:23.000Z</time>
      </trkpt>
      <trkpt lat="45.50077" lon="4.45877">
        <ele>589.2</ele>
      </trkpt>
      <trkpt lat="45.50084" lon="4.45877">
        <ele>590.6</ele>
      </trkpt>
      <trkpt lat="45.5009" lon="4.45876">
        <ele>591.6</ele>
      </trkpt>
      <trkpt lat="45.50096" lon="4.45876">
        <ele>592.5</ele>
      </trkpt>
      <trkpt lat="45.50102" lon="4.45875">
        <ele>593.4</ele>
      </trkpt>
      <trkpt lat="45.50109" lon="4.45874">
        <ele>594.3</ele>
      </trkpt>
      <trkpt lat="45.50115" lon="4.45874">
        <ele>595.2</ele>
      </trkpt>
      <trkpt lat="45.50121" lon="4.45873">
        <ele>596.1</ele>
        <time>2025-11-25T14:14:48.000Z</time>
      </trkpt>
      <trkpt lat="45.50129" lon="4.45871">
        <ele>597.4</ele>
      </trkpt>
      <trkpt lat="45.50136" lon="4.45868">
        <ele>598.7</ele>
        <time>2025-11-25T14:14:56.000Z</time>
      </trkpt>
      <trkpt lat="45.50141" lon="4.45864">
        <ele>599.9</ele>
      </trkpt>
      <trkpt lat="45.50147" lon="4.45861">
        <ele>601.1</ele>
      </trkpt>
      <trkpt lat="45.50152" lon="4.45857">
        <ele>601.8</ele>
      </trkpt>
      <trkpt lat="45.50157" lon="4.45853">
        <ele>602.4</ele>
        <time>2025-11-25T14:15:08.000Z</time>
      </trkpt>
      <trkpt lat="45.50164" lon="4.45852">
        <ele>603.3</ele>
        <time>2025-11-25T14:15:11.000Z</time>
      </trkpt>
      <trkpt lat="45.50169" lon="4.45853">
        <ele>604.1</ele>
      </trkpt>
      <trkpt lat="45.50174" lon="4.45855">
        <ele>604.9</ele>
      </trkpt>
      <trkpt lat="45.50178" lon="4.45856">
        <ele>605.7</ele>
      </trkpt>
      <trkpt lat="45.50183" lon="4.45857">
        <ele>606.6</ele>
        <time>2025-11-25T14:15:21.000Z</time>
      </trkpt>
      <trkpt lat="45.5019" lon="4.45856">
        <ele>607.8</ele>
      </trkpt>
      <trkpt lat="45.50198" lon="4.45855">
        <ele>609.1</ele>
      </trkpt>
      <trkpt lat="45.50205" lon="4.45854">
        <ele>610.8</ele>
      </trkpt>
      <trkpt lat="45.50213" lon="4.45853">
        <ele>612.5</ele>
      </trkpt>
      <trkpt lat="45.5022" lon="4.45852">
        <ele>614.2</ele>
      </trkpt>
      <trkpt lat="45.50227" lon="4.45851">
        <ele>615.9</ele>
      </trkpt>
      <trkpt lat="45.50235" lon="4.4585">
        <ele>617.6</ele>
      </trkpt>
      <trkpt lat="45.50242" lon="4.4585">
        <ele>619.3</ele>
      </trkpt>
      <trkpt lat="45.50249" lon="4.45849">
        <ele>621</ele>
      </trkpt>
      <trkpt lat="45.50257" lon="4.45848">
        <ele>622.7</ele>
      </trkpt>
      <trkpt lat="45.50264" lon="4.45847">
        <ele>624.5</ele>
      </trkpt>
      <trkpt lat="45.50272" lon="4.45846">
        <ele>626.3</ele>
      </trkpt>
      <trkpt lat="45.50279" lon="4.45845">
        <ele>628</ele>
      </trkpt>
      <trkpt lat="45.50286" lon="4.45844">
        <ele>629.3</ele>
      </trkpt>
      <trkpt lat="45.50294" lon="4.45843">
        <ele>630.5</ele>
      </trkpt>
      <trkpt lat="45.50301" lon="4.45842">
        <ele>631.8</ele>
        <time>2025-11-25T14:16:20.000Z</time>
      </trkpt>
      <trkpt lat="45.50306" lon="4.45843">
        <ele>632.7</ele>
      </trkpt>
      <trkpt lat="45.50311" lon="4.45844">
        <ele>633.6</ele>
      </trkpt>
      <trkpt lat="45.50316" lon="4.45844">
        <ele>634.4</ele>
      </trkpt>
      <trkpt lat="45.50321" lon="4.45845">
        <ele>635.3</ele>
      </trkpt>
      <trkpt lat="45.50326" lon="4.45846">
        <ele>636.2</ele>
      </trkpt>
      <trkpt lat="45.50331" lon="4.45847">
        <ele>637</ele>
      </trkpt>
      <trkpt lat="45.50336" lon="4.45848">
        <ele>637.9</ele>
      </trkpt>
      <trkpt lat="45.50341" lon="4.45849">
        <ele>638.7</ele>
      </trkpt>
      <trkpt lat="45.50345" lon="4.45849">
        <ele>639.5</ele>
      </trkpt>
      <trkpt lat="45.5035" lon="4.4585">
        <ele>640.3</ele>
      </trkpt>
      <trkpt lat="45.50355" lon="4.45851">
        <ele>641.1</ele>
      </trkpt>
      <trkpt lat="45.5036" lon="4.45852">
        <ele>641.9</ele>
      </trkpt>
      <trkpt lat="45.50365" lon="4.45853">
        <ele>642.6</ele>
      </trkpt>
      <trkpt lat="45.5037" lon="4.45853">
        <ele>643.3</ele>
      </trkpt>
      <trkpt lat="45.50375" lon="4.45854">
        <ele>644</ele>
      </trkpt>
      <trkpt lat="45.5038" lon="4.45855">
        <ele>644.8</ele>
        <time>2025-11-25T14:17:00.000Z</time>
      </trkpt>
      <trkpt lat="45.50388" lon="4.45858">
        <ele>646.2</ele>
      </trkpt>
      <trkpt lat="45.50395" lon="4.4586">
        <ele>647.7</ele>
        <time>2025-11-25T14:17:08.000Z</time>
      </trkpt>
      <trkpt lat="45.50403" lon="4.45858">
        <ele>648.3</ele>
      </trkpt>
      <trkpt lat="45.5041" lon="4.45856">
        <ele>648.9</ele>
      </trkpt>
      <trkpt lat="45.50418" lon="4.45854">
        <ele>649.5</ele>
      </trkpt>
      <trkpt lat="45.50425" lon="4.45852">
        <ele>649.8</ele>
      </trkpt>
      <trkpt lat="45.50433" lon="4.45849">
        <ele>650.2</ele>
      </trkpt>
      <trkpt lat="45.5044" lon="4.45847">
        <ele>650.5</ele>
      </trkpt>
      <trkpt lat="45.50448" lon="4.45845">
        <ele>650.9</ele>
      </trkpt>
      <trkpt lat="45.50455" lon="4.45843">
        <ele>651.2</ele>
      </trkpt>
      <trkpt lat="45.50463" lon="4.45841">
        <ele>651.6</ele>
      </trkpt>
      <trkpt lat="45.5047" lon="4.45839">
        <ele>651.9</ele>
      </trkpt>
      <trkpt lat="45.50478" lon="4.45837">
        <ele>652.1</ele>
      </trkpt>
      <trkpt lat="45.50485" lon="4.45835">
        <ele>652.2</ele>
      </trkpt>
      <trkpt lat="45.50493" lon="4.45832">
        <ele>652.2</ele>
      </trkpt>
      <trkpt lat="45.505" lon="4.4583">
        <ele>652.2</ele>
      </trkpt>
      <trkpt lat="45.50508" lon="4.45828">
        <ele>651.9</ele>
      </trkpt>
      <trkpt lat="45.50515" lon="4.45826">
        <ele>651.5</ele>
        <time>2025-11-25T14:18:09.000Z</time>
      </trkpt>
      <trkpt lat="45.50521" lon="4.45827">
        <ele>652</ele>
      </trkpt>
      <trkpt lat="45.50527" lon="4.45829">
        <ele>652.6</ele>
      </trkpt>
      <trkpt lat="45.50532" lon="4.4583">
        <ele>652.9</ele>
      </trkpt>
      <trkpt lat="45.50538" lon="4.45831">
        <ele>653</ele>
        <time>2025-11-25T14:18:21.000Z</time>
      </trkpt>
      <trkpt lat="45.50546" lon="4.45835">
        <ele>653.7</ele>
      </trkpt>
      <trkpt lat="45.50554" lon="4.45839">
        <ele>654.3</ele>
      </trkpt>
      <trkpt lat="45.50561" lon="4.45843">
        <ele>655</ele>
      </trkpt>
      <trkpt lat="45.50569" lon="4.45847">
        <ele>655.7</ele>
        <time>2025-11-25T14:18:37.000Z</time>
      </trkpt>
      <trkpt lat="45.50575" lon="4.45852">
        <ele>656.5</ele>
      </trkpt>
      <trkpt lat="45.50581" lon="4.45857">
        <ele>657.2</ele>
      </trkpt>
      <trkpt lat="45.50587" lon="4.45861">
        <ele>657.9</ele>
      </trkpt>
      <trkpt lat="45.50594" lon="4.45866">
        <ele>658.4</ele>
      </trkpt>
      <trkpt lat="45.506" lon="4.45871">
        <ele>659</ele>
      </trkpt>
      <trkpt lat="45.50606" lon="4.45876">
        <ele>659.4</ele>
      </trkpt>
      <trkpt lat="45.50612" lon="4.4588">
        <ele>659.8</ele>
      </trkpt>
      <trkpt lat="45.50618" lon="4.45885">
        <ele>660.4</ele>
        <time>2025-11-25T14:19:05.000Z</time>
      </trkpt>
      <trkpt lat="45.50624" lon="4.45887">
        <ele>660.7</ele>
      </trkpt>
      <trkpt lat="45.5063" lon="4.45889">
        <ele>661.1</ele>
      </trkpt>
      <trkpt lat="45.50636" lon="4.45891">
        <ele>661.3</ele>
      </trkpt>
      <trkpt lat="45.50642" lon="4.45894">
        <ele>661.4</ele>
      </trkpt>
      <trkpt lat="45.50647" lon="4.45896">
        <ele>661.4</ele>
      </trkpt>
      <trkpt lat="45.50653" lon="4.45898">
        <ele>661.4</ele>
      </trkpt>
      <trkpt lat="45.50659" lon="4.459">
        <ele>661.5</ele>
      </trkpt>
      <trkpt lat="45.50665" lon="4.45902">
        <ele>661.5</ele>
        <time>2025-11-25T14:19:29.000Z</time>
      </trkpt>
      <trkpt lat="45.50672" lon="4.45907">
        <ele>661.5</ele>
      </trkpt>
      <trkpt lat="45.50679" lon="4.45913">
        <ele>661.6</ele>
      </trkpt>
      <trkpt lat="45.50686" lon="4.45918">
        <ele>661.7</ele>
      </trkpt>
      <trkpt lat="45.50693" lon="4.45923">
        <ele>661.6</ele>
        <time>2025-11-25T14:19:45.000Z</time>
      </trkpt>
      <trkpt lat="45.50697" lon="4.4593">
        <ele>661.7</ele>
      </trkpt>
      <trkpt lat="45.50701" lon="4.45938">
        <ele>661.7</ele>
      </trkpt>
      <trkpt lat="45.50705" lon="4.45945">
        <ele>661.9</ele>
      </trkpt>
      <trkpt lat="45.50709" lon="4.45952">
        <ele>661.3</ele>
        <time>2025-11-25T14:19:58.000Z</time>
      </trkpt>
      <trkpt lat="45.50713" lon="4.45956">
        <ele>660.7</ele>
      </trkpt>
      <trkpt lat="45.50717" lon="4.45961">
        <ele>660.1</ele>
      </trkpt>
      <trkpt lat="45.50721" lon="4.45965">
        <ele>659.5</ele>
      </trkpt>
      <trkpt lat="45.50725" lon="4.45969">
        <ele>659</ele>
      </trkpt>
      <trkpt lat="45.50728" lon="4.45973">
        <ele>658.7</ele>
      </trkpt>
      <trkpt lat="45.50732" lon="4.45978">
        <ele>658.2</ele>
      </trkpt>
      <trkpt lat="45.50736" lon="4.45982">
        <ele>657.8</ele>
      </trkpt>
      <trkpt lat="45.5074" lon="4.45986">
        <ele>657.5</ele>
        <time>2025-11-25T14:20:18.000Z</time>
      </trkpt>
      <trkpt lat="45.50746" lon="4.45991">
        <ele>657.3</ele>
      </trkpt>
      <trkpt lat="45.50752" lon="4.45995">
        <ele>657.2</ele>
      </trkpt>
      <trkpt lat="45.50757" lon="4.46">
        <ele>657</ele>
      </trkpt>
      <trkpt lat="45.50763" lon="4.46004">
        <ele>656.6</ele>
        <time>2025-11-25T14:20:31.000Z</time>
      </trkpt>
      <trkpt lat="45.50769" lon="4.46008">
        <ele>656.4</ele>
      </trkpt>
      <trkpt lat="45.50776" lon="4.46012">
        <ele>656.5</ele>
      </trkpt>
      <trkpt lat="45.50782" lon="4.46016">
        <ele>656.9</ele>
      </trkpt>
      <trkpt lat="45.50789" lon="4.46021">
        <ele>657.6</ele>
      </trkpt>
      <trkpt lat="45.50795" lon="4.46025">
        <ele>658.4</ele>
      </trkpt>
      <trkpt lat="45.50801" lon="4.46029">
        <ele>659.4</ele>
      </trkpt>
      <trkpt lat="45.50808" lon="4.46033">
        <ele>660.4</ele>
      </trkpt>
      <trkpt lat="45.50814" lon="4.46037">
        <ele>661.6</ele>
        <time>2025-11-25T14:20:59.000Z</time>
      </trkpt>
      <trkpt lat="45.50813" lon="4.46041">
        <ele>661.5</ele>
        <time>2025-11-25T14:21:00.000Z</time>
      </trkpt>
      <trkpt lat="45.50818" lon="4.46052">
        <ele>662.5</ele>
      </trkpt>
      <trkpt lat="45.50822" lon="4.46063">
        <ele>663.1</ele>
      </trkpt>
      <trkpt lat="45.50827" lon="4.46074">
        <ele>663.5</ele>
      </trkpt>
      <trkpt lat="45.50831" lon="4.46085">
        <ele>664.1</ele>
        <time>2025-11-25T14:21:18.000Z</time>
      </trkpt>
      <trkpt lat="45.50834" lon="4.46091">
        <ele>664.2</ele>
      </trkpt>
      <trkpt lat="45.50837" lon="4.46098">
        <ele>664.2</ele>
      </trkpt>
      <trkpt lat="45.50839" lon="4.46104">
        <ele>664.3</ele>
      </trkpt>
      <trkpt lat="45.50842" lon="4.46111">
        <ele>664.5</ele>
      </trkpt>
      <trkpt lat="45.50845" lon="4.46117">
        <ele>664.6</ele>
      </trkpt>
      <trkpt lat="45.50848" lon="4.46123">
        <ele>664.8</ele>
      </trkpt>
      <trkpt lat="45.5085" lon="4.4613">
        <ele>665</ele>
      </trkpt>
      <trkpt lat="45.50853" lon="4.46136">
        <ele>665.3</ele>
        <time>2025-11-25T14:21:39.000Z</time>
      </trkpt>
      <trkpt lat="45.50858" lon="4.46144">
        <ele>666</ele>
      </trkpt>
      <trkpt lat="45.50862" lon="4.46151">
        <ele>666.5</ele>
        <time>2025-11-25T14:21:46.000Z</time>
      </trkpt>
      <trkpt lat="45.50868" lon="4.46157">
        <ele>667.2</ele>
      </trkpt>
      <trkpt lat="45.50874" lon="4.46164">
        <ele>668</ele>
      </trkpt>
      <trkpt lat="45.50879" lon="4.4617">
        <ele>668.8</ele>
      </trkpt>
      <trkpt lat="45.50885" lon="4.46176">
        <ele>669.5</ele>
      </trkpt>
      <trkpt lat="45.50891" lon="4.46182">
        <ele>670.1</ele>
      </trkpt>
      <trkpt lat="45.50897" lon="4.46189">
        <ele>670.5</ele>
      </trkpt>
      <trkpt lat="45.50902" lon="4.46195">
        <ele>670.8</ele>
      </trkpt>
      <trkpt lat="45.50908" lon="4.46201">
        <ele>670.9</ele>
        <time>2025-11-25T14:22:15.000Z</time>
      </trkpt>
      <trkpt lat="45.50912" lon="4.46205">
        <ele>671.2</ele>
      </trkpt>
      <trkpt lat="45.50916" lon="4.46208">
        <ele>671.4</ele>
      </trkpt>
      <trkpt lat="45.5092" lon="4.46212">
        <ele>671.4</ele>
      </trkpt>
      <trkpt lat="45.50924" lon="4.46215">
        <ele>671.4</ele>
        <time>2025-11-25T14:22:24.000Z</time>
      </trkpt>
      <trkpt lat="45.5093" lon="4.46218">
        <ele>671.6</ele>
      </trkpt>
      <trkpt lat="45.50936" lon="4.46222">
        <ele>671.9</ele>
      </trkpt>
      <trkpt lat="45.50942" lon="4.46225">
        <ele>672</ele>
      </trkpt>
      <trkpt lat="45.50948" lon="4.46228">
        <ele>672.3</ele>
      </trkpt>
      <trkpt lat="45.50953" lon="4.46231">
        <ele>672.7</ele>
      </trkpt>
      <trkpt lat="45.50959" lon="4.46235">
        <ele>673</ele>
      </trkpt>
      <trkpt lat="45.50965" lon="4.46238">
        <ele>673.4</ele>
      </trkpt>
      <trkpt lat="45.50971" lon="4.46241">
        <ele>673.7</ele>
        <time>2025-11-25T14:22:50.000Z</time>
      </trkpt>
      <trkpt lat="45.50975" lon="4.46244">
        <ele>673.7</ele>
      </trkpt>
      <trkpt lat="45.50979" lon="4.46248">
        <ele>673.7</ele>
      </trkpt>
      <trkpt lat="45.50983" lon="4.46251">
        <ele>673.8</ele>
      </trkpt>
      <trkpt lat="45.50988" lon="4.46255">
        <ele>673.8</ele>
      </trkpt>
      <trkpt lat="45.50992" lon="4.46258">
        <ele>673.9</ele>
      </trkpt>
      <trkpt lat="45.50996" lon="4.46261">
        <ele>674.1</ele>
      </trkpt>
      <trkpt lat="45.51" lon="4.46265">
        <ele>674.4</ele>
      </trkpt>
      <trkpt lat="45.51004" lon="4.46268">
        <ele>674.1</ele>
        <time>2025-11-25T14:23:09.000Z</time>
      </trkpt>
      <trkpt lat="45.5101" lon="4.46271">
        <ele>674</ele>
      </trkpt>
      <trkpt lat="45.51015" lon="4.46274">
        <ele>673.9</ele>
      </trkpt>
      <trkpt lat="45.51021" lon="4.46277">
        <ele>673.7</ele>
      </trkpt>
      <trkpt lat="45.51027" lon="4.4628">
        <ele>673.5</ele>
      </trkpt>
      <trkpt lat="45.51032" lon="4.46282">
        <ele>672.9</ele>
      </trkpt>
      <trkpt lat="45.51038" lon="4.46285">
        <ele>672.2</ele>
      </trkpt>
      <trkpt lat="45.51043" lon="4.46288">
        <ele>671.6</ele>
      </trkpt>
      <trkpt lat="45.51049" lon="4.46291">
        <ele>671</ele>
        <time>2025-11-25T14:23:33.000Z</time>
      </trkpt>
      <trkpt lat="45.51057" lon="4.46296">
        <ele>670.2</ele>
      </trkpt>
      <trkpt lat="45.51064" lon="4.46301">
        <ele>669.3</ele>
      </trkpt>
      <trkpt lat="45.51072" lon="4.46305">
        <ele>668.6</ele>
      </trkpt>
      <trkpt lat="45.51079" lon="4.4631">
        <ele>668.1</ele>
        <time>2025-11-25T14:23:49.000Z</time>
      </trkpt>
      <trkpt lat="45.51085" lon="4.46311">
        <ele>668.4</ele>
      </trkpt>
      <trkpt lat="45.51092" lon="4.46311">
        <ele>668.5</ele>
      </trkpt>
      <trkpt lat="45.51098" lon="4.46312">
        <ele>668.7</ele>
      </trkpt>
      <trkpt lat="45.51104" lon="4.46313">
        <ele>668.9</ele>
      </trkpt>
      <trkpt lat="45.5111" lon="4.46313">
        <ele>669.1</ele>
      </trkpt>
      <trkpt lat="45.51117" lon="4.46314">
        <ele>668.9</ele>
      </trkpt>
      <trkpt lat="45.51123" lon="4.46314">
        <ele>668.6</ele>
      </trkpt>
      <trkpt lat="45.51129" lon="4.46315">
        <ele>668.3</ele>
        <time>2025-11-25T14:24:14.000Z</time>
      </trkpt>
      <trkpt lat="45.51134" lon="4.46317">
        <ele>668</ele>
      </trkpt>
      <trkpt lat="45.51138" lon="4.46319">
        <ele>667.6</ele>
      </trkpt>
      <trkpt lat="45.51143" lon="4.4632">
        <ele>667</ele>
      </trkpt>
      <trkpt lat="45.51147" lon="4.46322">
        <ele>666.3</ele>
        <time>2025-11-25T14:24:23.000Z</time>
      </trkpt>
      <trkpt lat="45.51153" lon="4.46323">
        <ele>665.6</ele>
      </trkpt>
      <trkpt lat="45.51159" lon="4.46325">
        <ele>664.8</ele>
      </trkpt>
      <trkpt lat="45.51164" lon="4.46326">
        <ele>664.1</ele>
      </trkpt>
      <trkpt lat="45.5117" lon="4.46327">
        <ele>663.4</ele>
        <time>2025-11-25T14:24:35.000Z</time>
      </trkpt>
      <trkpt lat="45.51178" lon="4.46331">
        <ele>662.4</ele>
      </trkpt>
      <trkpt lat="45.51187" lon="4.46334">
        <ele>661.5</ele>
      </trkpt>
      <trkpt lat="45.51195" lon="4.46338">
        <ele>660.5</ele>
      </trkpt>
      <trkpt lat="45.51203" lon="4.46341">
        <ele>659.6</ele>
      </trkpt>
      <trkpt lat="45.51211" lon="4.46345">
        <ele>658.8</ele>
      </trkpt>
      <trkpt lat="45.5122" lon="4.46348">
        <ele>658.1</ele>
      </trkpt>
      <trkpt lat="45.51228" lon="4.46352">
        <ele>657.6</ele>
      </trkpt>
      <trkpt lat="45.51236" lon="4.46355">
        <ele>657.2</ele>
        <time>2025-11-25T14:25:10.000Z</time>
      </trkpt>
      <trkpt lat="45.5124" lon="4.4636">
        <ele>657</ele>
      </trkpt>
      <trkpt lat="45.51244" lon="4.46365">
        <ele>656.8</ele>
      </trkpt>
      <trkpt lat="45.51247" lon="4.4637">
        <ele>656.6</ele>
      </trkpt>
      <trkpt lat="45.51251" lon="4.46375">
        <ele>656.5</ele>
        <time>2025-11-25T14:25:20.000Z</time>
      </trkpt>
      <trkpt lat="45.51254" lon="4.4638">
        <ele>656.3</ele>
      </trkpt>
      <trkpt lat="45.51258" lon="4.46385">
        <ele>656.1</ele>
      </trkpt>
      <trkpt lat="45.51261" lon="4.46391">
        <ele>655.9</ele>
      </trkpt>
      <trkpt lat="45.51264" lon="4.46396">
        <ele>655.6</ele>
      </trkpt>
      <trkpt lat="45.51267" lon="4.46401">
        <ele>655.4</ele>
      </trkpt>
      <trkpt lat="45.51271" lon="4.46406">
        <ele>655.2</ele>
      </trkpt>
      <trkpt lat="45.51274" lon="4.46411">
        <ele>655.1</ele>
      </trkpt>
      <trkpt lat="45.51277" lon="4.46416">
        <ele>655</ele>
      </trkpt>
      <trkpt lat="45.5128" lon="4.46421">
        <ele>654.8</ele>
      </trkpt>
      <trkpt lat="45.51284" lon="4.46427">
        <ele>654.5</ele>
      </trkpt>
      <trkpt lat="45.51287" lon="4.46432">
        <ele>654.3</ele>
      </trkpt>
      <trkpt lat="45.5129" lon="4.46437">
        <ele>654.2</ele>
      </trkpt>
      <trkpt lat="45.51293" lon="4.46442">
        <ele>654</ele>
      </trkpt>
      <trkpt lat="45.51297" lon="4.46447">
        <ele>654</ele>
      </trkpt>
      <trkpt lat="45.513" lon="4.46452">
        <ele>653.9</ele>
      </trkpt>
      <trkpt lat="45.51303" lon="4.46458">
        <ele>654</ele>
      </trkpt>
      <trkpt lat="45.51306" lon="4.46463">
        <ele>654</ele>
      </trkpt>
      <trkpt lat="45.5131" lon="4.46468">
        <ele>654.1</ele>
      </trkpt>
      <trkpt lat="45.51313" lon="4.46473">
        <ele>654.3</ele>
      </trkpt>
      <trkpt lat="45.51316" lon="4.46478">
        <ele>654.5</ele>
      </trkpt>
      <trkpt lat="45.51319" lon="4.46483">
        <ele>654.7</ele>
      </trkpt>
      <trkpt lat="45.51323" lon="4.46488">
        <ele>655</ele>
      </trkpt>
      <trkpt lat="45.51326" lon="4.46494">
        <ele>655.3</ele>
      </trkpt>
      <trkpt lat="45.51329" lon="4.46499">
        <ele>655.6</ele>
      </trkpt>
      <trkpt lat="45.51332" lon="4.46504">
        <ele>655.9</ele>
      </trkpt>
      <trkpt lat="45.51336" lon="4.46509">
        <ele>656.1</ele>
      </trkpt>
      <trkpt lat="45.51339" lon="4.46514">
        <ele>656.1</ele>
      </trkpt>
      <trkpt lat="45.51342" lon="4.46519">
        <ele>656.1</ele>
      </trkpt>
      <trkpt lat="45.51345" lon="4.46525">
        <ele>656.1</ele>
      </trkpt>
      <trkpt lat="45.51349" lon="4.4653">
        <ele>656</ele>
      </trkpt>
      <trkpt lat="45.51352" lon="4.46535">
        <ele>655.9</ele>
      </trkpt>
      <trkpt lat="45.51355" lon="4.4654">
        <ele>655.9</ele>
        <time>2025-11-25T14:26:38.000Z</time>
      </trkpt>
      <trkpt lat="45.5136" lon="4.46542">
        <ele>656</ele>
      </trkpt>
      <trkpt lat="45.51364" lon="4.46544">
        <ele>656.1</ele>
        <time>2025-11-25T14:26:42.000Z</time>
      </trkpt>
      <trkpt lat="45.51367" lon="4.46551">
        <ele>656.2</ele>
      </trkpt>
      <trkpt lat="45.5137" lon="4.46558">
        <ele>656.2</ele>
      </trkpt>
      <trkpt lat="45.51372" lon="4.46564">
        <ele>655.9</ele>
      </trkpt>
      <trkpt lat="45.51375" lon="4.46571">
        <ele>655.7</ele>
      </trkpt>
      <trkpt lat="45.51378" lon="4.46578">
        <ele>655.5</ele>
      </trkpt>
      <trkpt lat="45.51381" lon="4.46585">
        <ele>655.4</ele>
      </trkpt>
      <trkpt lat="45.51383" lon="4.46591">
        <ele>655.3</ele>
      </trkpt>
      <trkpt lat="45.51386" lon="4.46598">
        <ele>655.3</ele>
        <time>2025-11-25T14:27:04.000Z</time>
      </trkpt>
      <trkpt lat="45.51388" lon="4.46605">
        <ele>655.2</ele>
      </trkpt>
      <trkpt lat="45.51391" lon="4.46612">
        <ele>655.1</ele>
      </trkpt>
      <trkpt lat="45.51393" lon="4.46619">
        <ele>655.4</ele>
      </trkpt>
      <trkpt lat="45.51396" lon="4.46626">
        <ele>655.6</ele>
      </trkpt>
      <trkpt lat="45.51398" lon="4.46632">
        <ele>655.8</ele>
      </trkpt>
      <trkpt lat="45.51401" lon="4.46639">
        <ele>656</ele>
      </trkpt>
      <trkpt lat="45.51403" lon="4.46646">
        <ele>656.1</ele>
      </trkpt>
      <trkpt lat="45.51406" lon="4.46653">
        <ele>656.2</ele>
      </trkpt>
      <trkpt lat="45.51408" lon="4.4666">
        <ele>656.2</ele>
      </trkpt>
      <trkpt lat="45.5141" lon="4.46667">
        <ele>656.2</ele>
      </trkpt>
      <trkpt lat="45.51413" lon="4.46674">
        <ele>656.4</ele>
      </trkpt>
      <trkpt lat="45.51415" lon="4.46681">
        <ele>656.5</ele>
      </trkpt>
      <trkpt lat="45.51418" lon="4.46687">
        <ele>656.7</ele>
      </trkpt>
      <trkpt lat="45.5142" lon="4.46694">
        <ele>656.9</ele>
      </trkpt>
      <trkpt lat="45.51423" lon="4.46701">
        <ele>657</ele>
      </trkpt>
      <trkpt lat="45.51425" lon="4.46708">
        <ele>657.2</ele>
        <time>2025-11-25T14:27:47.000Z</time>
      </trkpt>
      <trkpt lat="45.51428" lon="4.46715">
        <ele>657.3</ele>
      </trkpt>
      <trkpt lat="45.51431" lon="4.46722">
        <ele>657.5</ele>
      </trkpt>
      <trkpt lat="45.51434" lon="4.46729">
        <ele>657.6</ele>
      </trkpt>
      <trkpt lat="45.51438" lon="4.46736">
        <ele>657.7</ele>
      </trkpt>
      <trkpt lat="45.51441" lon="4.46743">
        <ele>657.9</ele>
      </trkpt>
      <trkpt lat="45.51444" lon="4.4675">
        <ele>658</ele>
      </trkpt>
      <trkpt lat="45.51447" lon="4.46757">
        <ele>658.3</ele>
      </trkpt>
      <trkpt lat="45.5145" lon="4.46764">
        <ele>658.6</ele>
        <time>2025-11-25T14:28:11.000Z</time>
      </trkpt>
      <trkpt lat="45.51453" lon="4.46769">
        <ele>658.9</ele>
      </trkpt>
      <trkpt lat="45.51456" lon="4.46775">
        <ele>659.3</ele>
      </trkpt>
      <trkpt lat="45.5146" lon="4.4678">
        <ele>659.6</ele>
      </trkpt>
      <trkpt lat="45.51463" lon="4.46785">
        <ele>659.8</ele>
      </trkpt>
      <trkpt lat="45.51466" lon="4.4679">
        <ele>659.9</ele>
      </trkpt>
      <trkpt lat="45.51469" lon="4.46796">
        <ele>660</ele>
      </trkpt>
      <trkpt lat="45.51472" lon="4.46801">
        <ele>660</ele>
      </trkpt>
      <trkpt lat="45.51476" lon="4.46806">
        <ele>660.3</ele>
      </trkpt>
      <trkpt lat="45.51479" lon="4.46812">
        <ele>660.6</ele>
      </trkpt>
      <trkpt lat="45.51482" lon="4.46817">
        <ele>661</ele>
      </trkpt>
      <trkpt lat="45.51485" lon="4.46822">
        <ele>661.2</ele>
      </trkpt>
      <trkpt lat="45.51488" lon="4.46827">
        <ele>661.5</ele>
      </trkpt>
      <trkpt lat="45.51491" lon="4.46833">
        <ele>661.7</ele>
      </trkpt>
      <trkpt lat="45.51495" lon="4.46838">
        <ele>662</ele>
      </trkpt>
      <trkpt lat="45.51498" lon="4.46843">
        <ele>662.3</ele>
      </trkpt>
      <trkpt lat="45.51501" lon="4.46849">
        <ele>662.6</ele>
      </trkpt>
      <trkpt lat="45.51504" lon="4.46854">
        <ele>662.9</ele>
      </trkpt>
      <trkpt lat="45.51507" lon="4.46859">
        <ele>663.2</ele>
      </trkpt>
      <trkpt lat="45.51511" lon="4.46864">
        <ele>663.4</ele>
      </trkpt>
      <trkpt lat="45.51514" lon="4.4687">
        <ele>663.5</ele>
      </trkpt>
      <trkpt lat="45.51517" lon="4.46875">
        <ele>663.6</ele>
      </trkpt>
      <trkpt lat="45.5152" lon="4.4688">
        <ele>663.7</ele>
      </trkpt>
      <trkpt lat="45.51523" lon="4.46886">
        <ele>663.8</ele>
      </trkpt>
      <trkpt lat="45.51527" lon="4.46891">
        <ele>664</ele>
      </trkpt>
      <trkpt lat="45.5153" lon="4.46896">
        <ele>664</ele>
      </trkpt>
      <trkpt lat="45.51533" lon="4.46901">
        <ele>663.9</ele>
      </trkpt>
      <trkpt lat="45.51536" lon="4.46907">
        <ele>663.8</ele>
      </trkpt>
      <trkpt lat="45.51539" lon="4.46912">
        <ele>663.7</ele>
      </trkpt>
      <trkpt lat="45.51542" lon="4.46917">
        <ele>663.5</ele>
      </trkpt>
      <trkpt lat="45.51546" lon="4.46922">
        <ele>663.3</ele>
      </trkpt>
      <trkpt lat="45.51549" lon="4.46928">
        <ele>663.1</ele>
      </trkpt>
      <trkpt lat="45.51552" lon="4.46933">
        <ele>663.1</ele>
        <time>2025-11-25T14:29:29.000Z</time>
      </trkpt>
      <trkpt lat="45.51557" lon="4.4694">
        <ele>663</ele>
      </trkpt>
      <trkpt lat="45.51562" lon="4.46946">
        <ele>663</ele>
      </trkpt>
      <trkpt lat="45.51567" lon="4.46953">
        <ele>663</ele>
      </trkpt>
      <trkpt lat="45.51573" lon="4.46959">
        <ele>663</ele>
      </trkpt>
      <trkpt lat="45.51578" lon="4.46966">
        <ele>663</ele>
      </trkpt>
      <trkpt lat="45.51583" lon="4.46972">
        <ele>663</ele>
      </trkpt>
      <trkpt lat="45.51588" lon="4.46979">
        <ele>663.2</ele>
      </trkpt>
      <trkpt lat="45.51593" lon="4.46985">
        <ele>663.5</ele>
        <time>2025-11-25T14:29:56.000Z</time>
      </trkpt>
      <trkpt lat="45.51596" lon="4.46991">
        <ele>663.7</ele>
      </trkpt>
      <trkpt lat="45.516" lon="4.46996">
        <ele>663.9</ele>
      </trkpt>
      <trkpt lat="45.51603" lon="4.47002">
        <ele>664.1</ele>
      </trkpt>
      <trkpt lat="45.51606" lon="4.47007">
        <ele>664.5</ele>
        <time>2025-11-25T14:30:07.000Z</time>
      </trkpt>
      <trkpt lat="45.51611" lon="4.47005">
        <ele>664.4</ele>
      </trkpt>
      <trkpt lat="45.51616" lon="4.47004">
        <ele>664.4</ele>
      </trkpt>
      <trkpt lat="45.5162" lon="4.47002">
        <ele>664.5</ele>
      </trkpt>
      <trkpt lat="45.51625" lon="4.47001">
        <ele>664.5</ele>
      </trkpt>
      <trkpt lat="45.5163" lon="4.46999">
        <ele>664.6</ele>
      </trkpt>
      <trkpt lat="45.51635" lon="4.46997">
        <ele>664.6</ele>
      </trkpt>
      <trkpt lat="45.51639" lon="4.46996">
        <ele>664.5</ele>
      </trkpt>
      <trkpt lat="45.51644" lon="4.46994">
        <ele>664.4</ele>
        <time>2025-11-25T14:30:26.000Z</time>
      </trkpt>
      <trkpt lat="45.51653" lon="4.46993">
        <ele>664.3</ele>
      </trkpt>
      <trkpt lat="45.51661" lon="4.46993">
        <ele>664.2</ele>
      </trkpt>
      <trkpt lat="45.5167" lon="4.46992">
        <ele>664.1</ele>
      </trkpt>
      <trkpt lat="45.51678" lon="4.46991">
        <ele>663.9</ele>
        <time>2025-11-25T14:30:43.000Z</time>
      </trkpt>
      <trkpt lat="45.51684" lon="4.46992">
        <ele>663.8</ele>
      </trkpt>
      <trkpt lat="45.51689" lon="4.46992">
        <ele>663.8</ele>
      </trkpt>
      <trkpt lat="45.51695" lon="4.46993">
        <ele>663.7</ele>
      </trkpt>
      <trkpt lat="45.517" lon="4.46993">
        <ele>663.7</ele>
      </trkpt>
      <trkpt lat="45.51706" lon="4.46994">
        <ele>663.7</ele>
      </trkpt>
      <trkpt lat="45.51711" lon="4.46994">
        <ele>663.7</ele>
      </trkpt>
      <trkpt lat="45.51717" lon="4.46995">
        <ele>663.6</ele>
      </trkpt>
      <trkpt lat="45.51723" lon="4.46995">
        <ele>663.6</ele>
      </trkpt>
      <trkpt lat="45.51728" lon="4.46996">
        <ele>663.1</ele>
      </trkpt>
      <trkpt lat="45.51734" lon="4.46996">
        <ele>662.7</ele>
      </trkpt>
      <trkpt lat="45.51739" lon="4.46997">
        <ele>662.1</ele>
      </trkpt>
      <trkpt lat="45.51745" lon="4.46997">
        <ele>661.6</ele>
      </trkpt>
      <trkpt lat="45.5175" lon="4.46998">
        <ele>661.1</ele>
      </trkpt>
      <trkpt lat="45.51756" lon="4.46998">
        <ele>660.6</ele>
      </trkpt>
      <trkpt lat="45.51761" lon="4.46999">
        <ele>660.2</ele>
      </trkpt>
      <trkpt lat="45.51767" lon="4.46999">
        <ele>659.8</ele>
        <time>2025-11-25T14:31:28.000Z</time>
      </trkpt>
      <trkpt lat="45.51773" lon="4.47001">
        <ele>659.3</ele>
      </trkpt>
      <trkpt lat="45.5178" lon="4.47003">
        <ele>658.7</ele>
      </trkpt>
      <trkpt lat="45.51786" lon="4.47005">
        <ele>657.6</ele>
      </trkpt>
      <trkpt lat="45.51792" lon="4.47007">
        <ele>656.6</ele>
        <time>2025-11-25T14:31:41.000Z</time>
      </trkpt>
      <trkpt lat="45.51796" lon="4.4701">
        <ele>655.9</ele>
      </trkpt>
      <trkpt lat="45.518" lon="4.47014">
        <ele>655.4</ele>
      </trkpt>
      <trkpt lat="45.51804" lon="4.47017">
        <ele>654.8</ele>
      </trkpt>
      <trkpt lat="45.51809" lon="4.47021">
        <ele>654.4</ele>
      </trkpt>
      <trkpt lat="45.51813" lon="4.47024">
        <ele>654</ele>
      </trkpt>
      <trkpt lat="45.51817" lon="4.47027">
        <ele>653.8</ele>
      </trkpt>
      <trkpt lat="45.51821" lon="4.47031">
        <ele>653.8</ele>
      </trkpt>
      <trkpt lat="45.51825" lon="4.47034">
        <ele>654</ele>
        <time>2025-11-25T14:32:00.000Z</time>
      </trkpt>
      <trkpt lat="45.51832" lon="4.47034">
        <ele>653.3</ele>
      </trkpt>
      <trkpt lat="45.51839" lon="4.47033">
        <ele>653.4</ele>
        <time>2025-11-25T14:32:07.000Z</time>
      </trkpt>
      <trkpt lat="45.51845" lon="4.4703">
        <ele>653.2</ele>
      </trkpt>
      <trkpt lat="45.51851" lon="4.47027">
        <ele>653.2</ele>
        <time>2025-11-25T14:32:13.000Z</time>
      </trkpt>
      <trkpt lat="45.51858" lon="4.4702">
        <ele>653.1</ele>
      </trkpt>
      <trkpt lat="45.51864" lon="4.47013">
        <ele>653.1</ele>
        <time>2025-11-25T14:32:21.000Z</time>
      </trkpt>
      <trkpt lat="45.51867" lon="4.47007">
        <ele>652.9</ele>
      </trkpt>
      <trkpt lat="45.51869" lon="4.47001">
        <ele>652.9</ele>
      </trkpt>
      <trkpt lat="45.51872" lon="4.46994">
        <ele>653.3</ele>
      </trkpt>
      <trkpt lat="45.51874" lon="4.46988">
        <ele>653.8</ele>
        <time>2025-11-25T14:32:31.000Z</time>
      </trkpt>
      <trkpt lat="45.51876" lon="4.46977">
        <ele>654.4</ele>
      </trkpt>
      <trkpt lat="45.51877" lon="4.46966">
        <ele>655.3</ele>
      </trkpt>
      <trkpt lat="45.51879" lon="4.46955">
        <ele>656.2</ele>
      </trkpt>
      <trkpt lat="45.51881" lon="4.46944">
        <ele>657.3</ele>
      </trkpt>
      <trkpt lat="45.51882" lon="4.46932">
        <ele>658.4</ele>
      </trkpt>
      <trkpt lat="45.51884" lon="4.46921">
        <ele>659.6</ele>
      </trkpt>
      <trkpt lat="45.51885" lon="4.4691">
        <ele>660.7</ele>
      </trkpt>
      <trkpt lat="45.51887" lon="4.46899">
        <ele>661.9</ele>
        <time>2025-11-25T14:33:03.000Z</time>
      </trkpt>
      <trkpt lat="45.5189" lon="4.4689">
        <ele>663.1</ele>
      </trkpt>
      <trkpt lat="45.51892" lon="4.46882">
        <ele>664.5</ele>
      </trkpt>
      <trkpt lat="45.51895" lon="4.46873">
        <ele>665.9</ele>
      </trkpt>
      <trkpt lat="45.51897" lon="4.46865">
        <ele>667.2</ele>
      </trkpt>
      <trkpt lat="45.519" lon="4.46856">
        <ele>668.4</ele>
      </trkpt>
      <trkpt lat="45.51902" lon="4.46848">
        <ele>669.6</ele>
      </trkpt>
      <trkpt lat="45.51905" lon="4.46839">
        <ele>670.7</ele>
      </trkpt>
      <trkpt lat="45.51908" lon="4.46831">
        <ele>671.8</ele>
      </trkpt>
      <trkpt lat="45.5191" lon="4.46822">
        <ele>672.7</ele>
      </trkpt>
      <trkpt lat="45.51913" lon="4.46813">
        <ele>673.6</ele>
      </trkpt>
      <trkpt lat="45.51915" lon="4.46805">
        <ele>674.6</ele>
      </trkpt>
      <trkpt lat="45.51918" lon="4.46796">
        <ele>675.4</ele>
      </trkpt>
      <trkpt lat="45.5192" lon="4.46788">
        <ele>676.3</ele>
      </trkpt>
      <trkpt lat="45.51923" lon="4.46779">
        <ele>677.2</ele>
      </trkpt>
      <trkpt lat="45.51925" lon="4.46771">
        <ele>678</ele>
      </trkpt>
      <trkpt lat="45.51928" lon="4.46762">
        <ele>678.7</ele>
        <time>2025-11-25T14:33:55.000Z</time>
      </trkpt>
      <trkpt lat="45.51931" lon="4.46756">
        <ele>679.7</ele>
      </trkpt>
      <trkpt lat="45.51934" lon="4.46749">
        <ele>680.6</ele>
      </trkpt>
      <trkpt lat="45.51936" lon="4.46743">
        <ele>681.2</ele>
      </trkpt>
      <trkpt lat="45.51939" lon="4.46737">
        <ele>681.9</ele>
      </trkpt>
      <trkpt lat="45.51942" lon="4.4673">
        <ele>682.5</ele>
      </trkpt>
      <trkpt lat="45.51945" lon="4.46724">
        <ele>683.1</ele>
      </trkpt>
      <trkpt lat="45.51947" lon="4.46717">
        <ele>683.8</ele>
      </trkpt>
      <trkpt lat="45.5195" lon="4.46711">
        <ele>684.4</ele>
      </trkpt>
      <trkpt lat="45.51953" lon="4.46705">
        <ele>685</ele>
      </trkpt>
      <trkpt lat="45.51956" lon="4.46698">
        <ele>685.7</ele>
      </trkpt>
      <trkpt lat="45.51958" lon="4.46692">
        <ele>686.3</ele>
      </trkpt>
      <trkpt lat="45.51961" lon="4.46686">
        <ele>686.9</ele>
      </trkpt>
      <trkpt lat="45.51964" lon="4.46679">
        <ele>687.6</ele>
      </trkpt>
      <trkpt lat="45.51967" lon="4.46673">
        <ele>688.2</ele>
      </trkpt>
      <trkpt lat="45.51969" lon="4.46666">
        <ele>688.9</ele>
      </trkpt>
      <trkpt lat="45.51972" lon="4.4666">
        <ele>689.7</ele>
        <time>2025-11-25T14:34:37.000Z</time>
      </trkpt>
      <trkpt lat="45.51978" lon="4.46652">
        <ele>690.5</ele>
      </trkpt>
      <trkpt lat="45.51983" lon="4.46644">
        <ele>691.2</ele>
        <time>2025-11-25T14:34:45.000Z</time>
      </trkpt>
      <trkpt lat="45.51989" lon="4.46642">
        <ele>692.1</ele>
      </trkpt>
      <trkpt lat="45.51994" lon="4.46639">
        <ele>692.9</ele>
      </trkpt>
      <trkpt lat="45.52" lon="4.46637">
        <ele>693.6</ele>
      </trkpt>
      <trkpt lat="45.52005" lon="4.46634">
        <ele>694.3</ele>
        <time>2025-11-25T14:34:57.000Z</time>
      </trkpt>
      <trkpt lat="45.52011" lon="4.46627">
        <ele>694.6</ele>
      </trkpt>
      <trkpt lat="45.52017" lon="4.46621">
        <ele>695.2</ele>
      </trkpt>
      <trkpt lat="45.52023" lon="4.46614">
        <ele>696</ele>
      </trkpt>
      <trkpt lat="45.52029" lon="4.46607">
        <ele>697.3</ele>
        <time>2025-11-25T14:35:12.000Z</time>
      </trkpt>
      <trkpt lat="45.52031" lon="4.46599">
        <ele>697.7</ele>
      </trkpt>
      <trkpt lat="45.52033" lon="4.46591">
        <ele>698.1</ele>
        <time>2025-11-25T14:35:18.000Z</time>
      </trkpt>
      <trkpt lat="45.52033" lon="4.4658">
        <ele>698.2</ele>
      </trkpt>
      <trkpt lat="45.52032" lon="4.46569">
        <ele>698.9</ele>
      </trkpt>
      <trkpt lat="45.52032" lon="4.46558">
        <ele>699.5</ele>
      </trkpt>
      <trkpt lat="45.52031" lon="4.46547">
        <ele>700.2</ele>
        <time>2025-11-25T14:35:33.000Z</time>
      </trkpt>
      <trkpt lat="45.52033" lon="4.46538">
        <ele>701.2</ele>
      </trkpt>
      <trkpt lat="45.52036" lon="4.46529">
        <ele>702.1</ele>
      </trkpt>
      <trkpt lat="45.52038" lon="4.46519">
        <ele>703.4</ele>
      </trkpt>
      <trkpt lat="45.5204" lon="4.4651">
        <ele>704.7</ele>
        <time>2025-11-25T14:35:47.000Z</time>
      </trkpt>
      <trkpt lat="45.52044" lon="4.46503">
        <ele>705.9</ele>
      </trkpt>
      <trkpt lat="45.52047" lon="4.46496">
        <ele>707.2</ele>
        <time>2025-11-25T14:35:53.000Z</time>
      </trkpt>
      <trkpt lat="45.52055" lon="4.46496">
        <ele>708.4</ele>
        <time>2025-11-25T14:35:57.000Z</time>
      </trkpt>
      <trkpt lat="45.52063" lon="4.46503">
        <ele>708.5</ele>
      </trkpt>
      <trkpt lat="45.5207" lon="4.46509">
        <ele>708.8</ele>
        <time>2025-11-25T14:36:06.000Z</time>
      </trkpt>
      <trkpt lat="45.52075" lon="4.46508">
        <ele>709.4</ele>
      </trkpt>
      <trkpt lat="45.52079" lon="4.46507">
        <ele>710</ele>
        <time>2025-11-25T14:36:11.000Z</time>
      </trkpt>
      <trkpt lat="45.52084" lon="4.46513">
        <ele>710.1</ele>
      </trkpt>
      <trkpt lat="45.52089" lon="4.4652">
        <ele>710</ele>
      </trkpt>
      <trkpt lat="45.52094" lon="4.46526">
        <ele>709.9</ele>
      </trkpt>
      <trkpt lat="45.521" lon="4.46533">
        <ele>710</ele>
      </trkpt>
      <trkpt lat="45.52105" lon="4.46539">
        <ele>710.1</ele>
      </trkpt>
      <trkpt lat="45.5211" lon="4.46545">
        <ele>710.3</ele>
      </trkpt>
      <trkpt lat="45.52115" lon="4.46552">
        <ele>710.3</ele>
      </trkpt>
      <trkpt lat="45.5212" lon="4.46558">
        <ele>710.3</ele>
        <time>2025-11-25T14:36:38.000Z</time>
      </trkpt>
      <trkpt lat="45.52123" lon="4.46563">
        <ele>710.6</ele>
      </trkpt>
      <trkpt lat="45.52126" lon="4.46569">
        <ele>710.8</ele>
      </trkpt>
      <trkpt lat="45.52129" lon="4.46574">
        <ele>711.1</ele>
      </trkpt>
      <trkpt lat="45.52132" lon="4.46579">
        <ele>711.4</ele>
      </trkpt>
      <trkpt lat="45.52136" lon="4.46585">
        <ele>711.8</ele>
      </trkpt>
      <trkpt lat="45.52139" lon="4.4659">
        <ele>712.2</ele>
      </trkpt>
      <trkpt lat="45.52142" lon="4.46595">
        <ele>712.4</ele>
      </trkpt>
      <trkpt lat="45.52145" lon="4.46601">
        <ele>712.6</ele>
      </trkpt>
      <trkpt lat="45.52148" lon="4.46606">
        <ele>712.8</ele>
      </trkpt>
      <trkpt lat="45.52151" lon="4.46611">
        <ele>713</ele>
      </trkpt>
      <trkpt lat="45.52154" lon="4.46616">
        <ele>713.2</ele>
      </trkpt>
      <trkpt lat="45.52157" lon="4.46622">
        <ele>713.4</ele>
      </trkpt>
      <trkpt lat="45.5216" lon="4.46627">
        <ele>713.6</ele>
      </trkpt>
      <trkpt lat="45.52163" lon="4.46632">
        <ele>713.8</ele>
      </trkpt>
      <trkpt lat="45.52166" lon="4.46638">
        <ele>714</ele>
      </trkpt>
      <trkpt lat="45.5217" lon="4.46643">
        <ele>714.3</ele>
      </trkpt>
      <trkpt lat="45.52173" lon="4.46648">
        <ele>714.7</ele>
      </trkpt>
      <trkpt lat="45.52176" lon="4.46654">
        <ele>715.1</ele>
      </trkpt>
      <trkpt lat="45.52179" lon="4.46659">
        <ele>715.4</ele>
      </trkpt>
      <trkpt lat="45.52182" lon="4.46664">
        <ele>715.8</ele>
      </trkpt>
      <trkpt lat="45.52185" lon="4.4667">
        <ele>716.1</ele>
      </trkpt>
      <trkpt lat="45.52188" lon="4.46675">
        <ele>716.4</ele>
      </trkpt>
      <trkpt lat="45.52191" lon="4.4668">
        <ele>716.5</ele>
      </trkpt>
      <trkpt lat="45.52194" lon="4.46686">
        <ele>716.7</ele>
      </trkpt>
      <trkpt lat="45.52197" lon="4.46691">
        <ele>716.8</ele>
      </trkpt>
      <trkpt lat="45.522" lon="4.46696">
        <ele>716.9</ele>
      </trkpt>
      <trkpt lat="45.52204" lon="4.46701">
        <ele>717.1</ele>
      </trkpt>
      <trkpt lat="45.52207" lon="4.46707">
        <ele>717.3</ele>
      </trkpt>
      <trkpt lat="45.5221" lon="4.46712">
        <ele>717.4</ele>
      </trkpt>
      <trkpt lat="45.52213" lon="4.46717">
        <ele>717.4</ele>
      </trkpt>
      <trkpt lat="45.52216" lon="4.46723">
        <ele>717.5</ele>
      </trkpt>
      <trkpt lat="45.52219" lon="4.46728">
        <ele>717.3</ele>
        <time>2025-11-25T14:37:55.000Z</time>
      </trkpt>
      <trkpt lat="45.5222" lon="4.46735">
        <ele>717.2</ele>
      </trkpt>
      <trkpt lat="45.52221" lon="4.46743">
        <ele>717.1</ele>
      </trkpt>
      <trkpt lat="45.52222" lon="4.4675">
        <ele>717</ele>
      </trkpt>
      <trkpt lat="45.52223" lon="4.46758">
        <ele>716.6</ele>
      </trkpt>
      <trkpt lat="45.52224" lon="4.46765">
        <ele>716.2</ele>
      </trkpt>
      <trkpt lat="45.52225" lon="4.46773">
        <ele>715.8</ele>
      </trkpt>
      <trkpt lat="45.52226" lon="4.4678">
        <ele>715.4</ele>
      </trkpt>
      <trkpt lat="45.52227" lon="4.46788">
        <ele>715.2</ele>
      </trkpt>
      <trkpt lat="45.52227" lon="4.46795">
        <ele>715.1</ele>
      </trkpt>
      <trkpt lat="45.52228" lon="4.46802">
        <ele>714.9</ele>
      </trkpt>
      <trkpt lat="45.52229" lon="4.4681">
        <ele>714.9</ele>
      </trkpt>
      <trkpt lat="45.5223" lon="4.46817">
        <ele>715</ele>
      </trkpt>
      <trkpt lat="45.52231" lon="4.46825">
        <ele>715.1</ele>
      </trkpt>
      <trkpt lat="45.52232" lon="4.46832">
        <ele>715.2</ele>
      </trkpt>
      <trkpt lat="45.52233" lon="4.4684">
        <ele>715.2</ele>
      </trkpt>
      <trkpt lat="45.52234" lon="4.46847">
        <ele>715.3</ele>
        <time>2025-11-25T14:38:38.000Z</time>
      </trkpt>
      <trkpt lat="45.52237" lon="4.46856">
        <ele>715.3</ele>
      </trkpt>
      <trkpt lat="45.52239" lon="4.46865">
        <ele>715.1</ele>
      </trkpt>
      <trkpt lat="45.52241" lon="4.46874">
        <ele>714.8</ele>
      </trkpt>
      <trkpt lat="45.52244" lon="4.46883">
        <ele>714.5</ele>
      </trkpt>
      <trkpt lat="45.52246" lon="4.46892">
        <ele>714.5</ele>
      </trkpt>
      <trkpt lat="45.52249" lon="4.46901">
        <ele>714.9</ele>
      </trkpt>
      <trkpt lat="45.52251" lon="4.4691">
        <ele>715.4</ele>
      </trkpt>
      <trkpt lat="45.52254" lon="4.46919">
        <ele>715.6</ele>
      </trkpt>
      <trkpt lat="45.52256" lon="4.46928">
        <ele>715.6</ele>
      </trkpt>
      <trkpt lat="45.52259" lon="4.46937">
        <ele>715.7</ele>
      </trkpt>
      <trkpt lat="45.52261" lon="4.46946">
        <ele>716</ele>
      </trkpt>
      <trkpt lat="45.52264" lon="4.46955">
        <ele>716.4</ele>
      </trkpt>
      <trkpt lat="45.52266" lon="4.46964">
        <ele>716.8</ele>
      </trkpt>
      <trkpt lat="45.52269" lon="4.46973">
        <ele>717.4</ele>
      </trkpt>
      <trkpt lat="45.52271" lon="4.46982">
        <ele>717.8</ele>
      </trkpt>
      <trkpt lat="45.52274" lon="4.46991">
        <ele>718.3</ele>
      </trkpt>
      <trkpt lat="45.52276" lon="4.47">
        <ele>718.8</ele>
      </trkpt>
      <trkpt lat="45.52278" lon="4.47009">
        <ele>719.7</ele>
      </trkpt>
      <trkpt lat="45.52281" lon="4.47018">
        <ele>720.6</ele>
      </trkpt>
      <trkpt lat="45.52283" lon="4.47027">
        <ele>721.6</ele>
      </trkpt>
      <trkpt lat="45.52286" lon="4.47036">
        <ele>722.5</ele>
      </trkpt>
      <trkpt lat="45.52288" lon="4.47045">
        <ele>723.6</ele>
      </trkpt>
      <trkpt lat="45.52291" lon="4.47054">
        <ele>724.7</ele>
      </trkpt>
      <trkpt lat="45.52293" lon="4.47063">
        <ele>725.4</ele>
      </trkpt>
      <trkpt lat="45.52296" lon="4.47072">
        <ele>726</ele>
      </trkpt>
      <trkpt lat="45.52298" lon="4.47081">
        <ele>726.6</ele>
      </trkpt>
      <trkpt lat="45.52301" lon="4.4709">
        <ele>726.8</ele>
      </trkpt>
      <trkpt lat="45.52303" lon="4.47099">
        <ele>726.9</ele>
      </trkpt>
      <trkpt lat="45.52306" lon="4.47108">
        <ele>727.1</ele>
      </trkpt>
      <trkpt lat="45.52308" lon="4.47117">
        <ele>727.4</ele>
      </trkpt>
      <trkpt lat="45.52311" lon="4.47126">
        <ele>727.7</ele>
      </trkpt>
      <trkpt lat="45.52313" lon="4.47135">
        <ele>728.2</ele>
        <time>2025-11-25T14:40:26.000Z</time>
      </trkpt>
      <trkpt lat="45.52315" lon="4.47144">
        <ele>728.7</ele>
      </trkpt>
      <trkpt lat="45.52317" lon="4.47153">
        <ele>729.3</ele>
      </trkpt>
      <trkpt lat="45.52318" lon="4.47162">
        <ele>730</ele>
      </trkpt>
      <trkpt lat="45.5232" lon="4.47171">
        <ele>730.8</ele>
      </trkpt>
      <trkpt lat="45.52322" lon="4.4718">
        <ele>731.6</ele>
      </trkpt>
      <trkpt lat="45.52324" lon="4.47189">
        <ele>732.4</ele>
      </trkpt>
      <trkpt lat="45.52325" lon="4.47198">
        <ele>733.1</ele>
      </trkpt>
      <trkpt lat="45.52327" lon="4.47208">
        <ele>733.8</ele>
      </trkpt>
      <trkpt lat="45.52329" lon="4.47217">
        <ele>734.5</ele>
      </trkpt>
      <trkpt lat="45.52331" lon="4.47226">
        <ele>735.2</ele>
      </trkpt>
      <trkpt lat="45.52332" lon="4.47235">
        <ele>736.1</ele>
      </trkpt>
      <trkpt lat="45.52334" lon="4.47244">
        <ele>736.9</ele>
      </trkpt>
      <trkpt lat="45.52336" lon="4.47253">
        <ele>737.2</ele>
      </trkpt>
      <trkpt lat="45.52338" lon="4.47262">
        <ele>736.8</ele>
      </trkpt>
      <trkpt lat="45.52339" lon="4.47271">
        <ele>736.5</ele>
      </trkpt>
      <trkpt lat="45.52341" lon="4.4728">
        <ele>735.8</ele>
        <time>2025-11-25T14:41:19.000Z</time>
      </trkpt>
      <trkpt lat="45.52344" lon="4.47287">
        <ele>734.9</ele>
      </trkpt>
      <trkpt lat="45.52348" lon="4.47294">
        <ele>734.4</ele>
      </trkpt>
      <trkpt lat="45.52351" lon="4.47301">
        <ele>734.4</ele>
      </trkpt>
      <trkpt lat="45.52354" lon="4.47308">
        <ele>734.5</ele>
      </trkpt>
      <trkpt lat="45.52358" lon="4.47315">
        <ele>734.5</ele>
      </trkpt>
      <trkpt lat="45.52361" lon="4.47322">
        <ele>734.4</ele>
      </trkpt>
      <trkpt lat="45.52364" lon="4.47329">
        <ele>733.8</ele>
      </trkpt>
      <trkpt lat="45.52368" lon="4.47336">
        <ele>733.4</ele>
      </trkpt>
      <trkpt lat="45.52371" lon="4.47342">
        <ele>733.2</ele>
      </trkpt>
      <trkpt lat="45.52374" lon="4.47349">
        <ele>733.1</ele>
      </trkpt>
      <trkpt lat="45.52377" lon="4.47356">
        <ele>733.2</ele>
      </trkpt>
      <trkpt lat="45.52381" lon="4.47363">
        <ele>733.5</ele>
      </trkpt>
      <trkpt lat="45.52384" lon="4.4737">
        <ele>733.9</ele>
      </trkpt>
      <trkpt lat="45.52387" lon="4.47377">
        <ele>734.2</ele>
      </trkpt>
      <trkpt lat="45.52391" lon="4.47384">
        <ele>734.2</ele>
      </trkpt>
      <trkpt lat="45.52394" lon="4.47391">
        <ele>734.5</ele>
        <time>2025-11-25T14:42:06.000Z</time>
      </trkpt>
      <trkpt lat="45.52397" lon="4.47399">
        <ele>735.6</ele>
      </trkpt>
      <trkpt lat="45.524" lon="4.47407">
        <ele>736.6</ele>
      </trkpt>
      <trkpt lat="45.52403" lon="4.47414">
        <ele>737.5</ele>
      </trkpt>
      <trkpt lat="45.52406" lon="4.47422">
        <ele>738.5</ele>
        <time>2025-11-25T14:42:18.000Z</time>
      </trkpt>
      <trkpt lat="45.52405" lon="4.47428">
        <ele>738.4</ele>
      </trkpt>
      <trkpt lat="45.52404" lon="4.47435">
        <ele>738.3</ele>
      </trkpt>
      <trkpt lat="45.52402" lon="4.47441">
        <ele>738.3</ele>
      </trkpt>
      <trkpt lat="45.52401" lon="4.47448">
        <ele>738.3</ele>
      </trkpt>
      <trkpt lat="45.524" lon="4.47454">
        <ele>738.4</ele>
      </trkpt>
      <trkpt lat="45.52399" lon="4.47461">
        <ele>738.4</ele>
      </trkpt>
      <trkpt lat="45.52398" lon="4.47467">
        <ele>738.4</ele>
      </trkpt>
      <trkpt lat="45.52397" lon="4.47474">
        <ele>738.4</ele>
      </trkpt>
      <trkpt lat="45.52395" lon="4.4748">
        <ele>738.2</ele>
      </trkpt>
      <trkpt lat="45.52394" lon="4.47486">
        <ele>737.9</ele>
      </trkpt>
      <trkpt lat="45.52393" lon="4.47493">
        <ele>737.7</ele>
      </trkpt>
      <trkpt lat="45.52392" lon="4.47499">
        <ele>737.5</ele>
      </trkpt>
      <trkpt lat="45.52391" lon="4.47506">
        <ele>737.3</ele>
      </trkpt>
      <trkpt lat="45.52389" lon="4.47512">
        <ele>737.1</ele>
      </trkpt>
      <trkpt lat="45.52388" lon="4.47519">
        <ele>736.9</ele>
      </trkpt>
      <trkpt lat="45.52387" lon="4.47525">
        <ele>736.7</ele>
        <time>2025-11-25T14:42:56.000Z</time>
      </trkpt>
      <trkpt lat="45.52387" lon="4.47535">
        <ele>736.3</ele>
      </trkpt>
      <trkpt lat="45.52388" lon="4.47546">
        <ele>735.6</ele>
      </trkpt>
      <trkpt lat="45.52388" lon="4.47556">
        <ele>734.9</ele>
      </trkpt>
      <trkpt lat="45.52388" lon="4.47566">
        <ele>734.2</ele>
        <time>2025-11-25T14:43:10.000Z</time>
      </trkpt>
      <trkpt lat="45.52389" lon="4.47575">
        <ele>733.6</ele>
      </trkpt>
      <trkpt lat="45.5239" lon="4.47584">
        <ele>733.1</ele>
      </trkpt>
      <trkpt lat="45.52391" lon="4.47592">
        <ele>732.2</ele>
      </trkpt>
      <trkpt lat="45.52392" lon="4.47601">
        <ele>731.3</ele>
      </trkpt>
      <trkpt lat="45.52393" lon="4.4761">
        <ele>730.4</ele>
      </trkpt>
      <trkpt lat="45.52394" lon="4.47619">
        <ele>729.8</ele>
      </trkpt>
      <trkpt lat="45.52395" lon="4.47627">
        <ele>729.3</ele>
      </trkpt>
      <trkpt lat="45.52396" lon="4.47636">
        <ele>728.7</ele>
        <time>2025-11-25T14:43:35.000Z</time>
      </trkpt>
      <trkpt lat="45.52395" lon="4.47643">
        <ele>728.2</ele>
      </trkpt>
      <trkpt lat="45.52394" lon="4.47649">
        <ele>727.6</ele>
        <time>2025-11-25T14:43:40.000Z</time>
      </trkpt>
      <trkpt lat="45.52391" lon="4.47654">
        <ele>727.1</ele>
        <time>2025-11-25T14:43:42.000Z</time>
      </trkpt>
      <trkpt lat="45.52393" lon="4.47665">
        <ele>726.4</ele>
      </trkpt>
      <trkpt lat="45.52394" lon="4.47676">
        <ele>726.3</ele>
        <time>2025-11-25T14:43:50.000Z</time>
      </trkpt>
      <trkpt lat="45.52394" lon="4.47687">
        <ele>726.2</ele>
      </trkpt>
      <trkpt lat="45.52393" lon="4.47698">
        <ele>726.1</ele>
        <time>2025-11-25T14:43:58.000Z</time>
      </trkpt>
      <trkpt lat="45.52398" lon="4.47699">
        <ele>726.3</ele>
      </trkpt>
      <trkpt lat="45.52403" lon="4.477">
        <ele>726.5</ele>
      </trkpt>
      <trkpt lat="45.52408" lon="4.47701">
        <ele>726.7</ele>
      </trkpt>
      <trkpt lat="45.52413" lon="4.47702">
        <ele>726.9</ele>
      </trkpt>
      <trkpt lat="45.52418" lon="4.47703">
        <ele>727</ele>
      </trkpt>
      <trkpt lat="45.52423" lon="4.47704">
        <ele>726.8</ele>
      </trkpt>
      <trkpt lat="45.52428" lon="4.47705">
        <ele>726.6</ele>
      </trkpt>
      <trkpt lat="45.52433" lon="4.47707">
        <ele>726.4</ele>
      </trkpt>
      <trkpt lat="45.52438" lon="4.47708">
        <ele>726.2</ele>
      </trkpt>
      <trkpt lat="45.52443" lon="4.47709">
        <ele>726.1</ele>
      </trkpt>
      <trkpt lat="45.52448" lon="4.4771">
        <ele>725.7</ele>
      </trkpt>
      <trkpt lat="45.52453" lon="4.47711">
        <ele>725.2</ele>
      </trkpt>
      <trkpt lat="45.52458" lon="4.47712">
        <ele>724.7</ele>
      </trkpt>
      <trkpt lat="45.52463" lon="4.47713">
        <ele>724.2</ele>
      </trkpt>
      <trkpt lat="45.52468" lon="4.47714">
        <ele>723.7</ele>
      </trkpt>
      <trkpt lat="45.52473" lon="4.47715">
        <ele>723.2</ele>
        <time>2025-11-25T14:44:38.000Z</time>
      </trkpt>
      <trkpt lat="45.52478" lon="4.47716">
        <ele>722.5</ele>
      </trkpt>
      <trkpt lat="45.52482" lon="4.47718">
        <ele>721.8</ele>
      </trkpt>
      <trkpt lat="45.52487" lon="4.47719">
        <ele>721.1</ele>
      </trkpt>
      <trkpt lat="45.52492" lon="4.47721">
        <ele>720.3</ele>
      </trkpt>
      <trkpt lat="45.52496" lon="4.47722">
        <ele>719.6</ele>
      </trkpt>
      <trkpt lat="45.52501" lon="4.47723">
        <ele>719</ele>
      </trkpt>
      <trkpt lat="45.52505" lon="4.47725">
        <ele>718.4</ele>
      </trkpt>
      <trkpt lat="45.5251" lon="4.47726">
        <ele>717.8</ele>
      </trkpt>
      <trkpt lat="45.52515" lon="4.47727">
        <ele>717.2</ele>
      </trkpt>
      <trkpt lat="45.52519" lon="4.47729">
        <ele>716.5</ele>
      </trkpt>
      <trkpt lat="45.52524" lon="4.4773">
        <ele>715.9</ele>
      </trkpt>
      <trkpt lat="45.52529" lon="4.47732">
        <ele>715.2</ele>
      </trkpt>
      <trkpt lat="45.52533" lon="4.47733">
        <ele>714.6</ele>
      </trkpt>
      <trkpt lat="45.52538" lon="4.47734">
        <ele>714</ele>
      </trkpt>
      <trkpt lat="45.52542" lon="4.47736">
        <ele>713.4</ele>
      </trkpt>
      <trkpt lat="45.52547" lon="4.47737">
        <ele>712.8</ele>
        <time>2025-11-25T14:45:16.000Z</time>
      </trkpt>
      <trkpt lat="45.52555" lon="4.47738">
        <ele>711.8</ele>
      </trkpt>
      <trkpt lat="45.52563" lon="4.47739">
        <ele>710.9</ele>
      </trkpt>
      <trkpt lat="45.5257" lon="4.4774">
        <ele>710</ele>
      </trkpt>
      <trkpt lat="45.52578" lon="4.47741">
        <ele>709.1</ele>
        <time>2025-11-25T14:45:31.000Z</time>
      </trkpt>
      <trkpt lat="45.52583" lon="4.47743">
        <ele>708.6</ele>
      </trkpt>
      <trkpt lat="45.52588" lon="4.47746">
        <ele>707.8</ele>
      </trkpt>
      <trkpt lat="45.52593" lon="4.47748">
        <ele>707.1</ele>
      </trkpt>
      <trkpt lat="45.52598" lon="4.4775">
        <ele>706.4</ele>
        <time>2025-11-25T14:45:42.000Z</time>
      </trkpt>
      <trkpt lat="45.52602" lon="4.47756">
        <ele>706.2</ele>
      </trkpt>
      <trkpt lat="45.52607" lon="4.47761">
        <ele>706</ele>
      </trkpt>
      <trkpt lat="45.52611" lon="4.47767">
        <ele>705.9</ele>
      </trkpt>
      <trkpt lat="45.52615" lon="4.47773">
        <ele>705.5</ele>
      </trkpt>
      <trkpt lat="45.52619" lon="4.47778">
        <ele>705</ele>
      </trkpt>
      <trkpt lat="45.52624" lon="4.47784">
        <ele>704.4</ele>
      </trkpt>
      <trkpt lat="45.52628" lon="4.4779">
        <ele>703.9</ele>
      </trkpt>
      <trkpt lat="45.52632" lon="4.47795">
        <ele>703.4</ele>
      </trkpt>
      <trkpt lat="45.52637" lon="4.47801">
        <ele>703</ele>
      </trkpt>
      <trkpt lat="45.52641" lon="4.47807">
        <ele>702.5</ele>
      </trkpt>
      <trkpt lat="45.52645" lon="4.47812">
        <ele>701.7</ele>
      </trkpt>
      <trkpt lat="45.52649" lon="4.47818">
        <ele>701</ele>
      </trkpt>
      <trkpt lat="45.52654" lon="4.47824">
        <ele>700.4</ele>
      </trkpt>
      <trkpt lat="45.52658" lon="4.47829">
        <ele>699.8</ele>
      </trkpt>
      <trkpt lat="45.52662" lon="4.47835">
        <ele>699.3</ele>
      </trkpt>
      <trkpt lat="45.52667" lon="4.47841">
        <ele>698.8</ele>
      </trkpt>
      <trkpt lat="45.52671" lon="4.47846">
        <ele>697.9</ele>
      </trkpt>
      <trkpt lat="45.52675" lon="4.47852">
        <ele>697</ele>
      </trkpt>
      <trkpt lat="45.52679" lon="4.47858">
        <ele>696.1</ele>
      </trkpt>
      <trkpt lat="45.52684" lon="4.47863">
        <ele>695</ele>
      </trkpt>
      <trkpt lat="45.52688" lon="4.47869">
        <ele>693.6</ele>
      </trkpt>
      <trkpt lat="45.52692" lon="4.47874">
        <ele>692.3</ele>
      </trkpt>
      <trkpt lat="45.52697" lon="4.4788">
        <ele>691.2</ele>
      </trkpt>
      <trkpt lat="45.52701" lon="4.47886">
        <ele>690.3</ele>
      </trkpt>
      <trkpt lat="45.52705" lon="4.47891">
        <ele>689.3</ele>
      </trkpt>
      <trkpt lat="45.52709" lon="4.47897">
        <ele>688.1</ele>
      </trkpt>
      <trkpt lat="45.52714" lon="4.47903">
        <ele>686.8</ele>
      </trkpt>
      <trkpt lat="45.52718" lon="4.47908">
        <ele>685.5</ele>
      </trkpt>
      <trkpt lat="45.52722" lon="4.47914">
        <ele>684.1</ele>
      </trkpt>
      <trkpt lat="45.52726" lon="4.4792">
        <ele>683.2</ele>
      </trkpt>
      <trkpt lat="45.52731" lon="4.47925">
        <ele>682.4</ele>
      </trkpt>
      <trkpt lat="45.52735" lon="4.47931">
        <ele>681.7</ele>
        <time>2025-11-25T14:47:15.000Z</time>
      </trkpt>
      <trkpt lat="45.52733" lon="4.47938">
        <ele>681.9</ele>
      </trkpt>
      <trkpt lat="45.52731" lon="4.47945">
        <ele>682.1</ele>
      </trkpt>
      <trkpt lat="45.52728" lon="4.47952">
        <ele>682.4</ele>
      </trkpt>
      <trkpt lat="45.52726" lon="4.47959">
        <ele>682.6</ele>
        <time>2025-11-25T14:47:26.000Z</time>
      </trkpt>
      <trkpt lat="45.52726" lon="4.47966">
        <ele>682.6</ele>
      </trkpt>
      <trkpt lat="45.52727" lon="4.47973">
        <ele>682.5</ele>
      </trkpt>
      <trkpt lat="45.52727" lon="4.47979">
        <ele>682.4</ele>
      </trkpt>
      <trkpt lat="45.52727" lon="4.47986">
        <ele>682.2</ele>
        <time>2025-11-25T14:47:36.000Z</time>
      </trkpt>
      <trkpt lat="45.5273" lon="4.47997">
        <ele>682</ele>
      </trkpt>
      <trkpt lat="45.52733" lon="4.48007">
        <ele>682.2</ele>
      </trkpt>
      <trkpt lat="45.52735" lon="4.48018">
        <ele>682.6</ele>
      </trkpt>
      <trkpt lat="45.52738" lon="4.48028">
        <ele>683.1</ele>
        <time>2025-11-25T14:47:51.000Z</time>
      </trkpt>
      <trkpt lat="45.52739" lon="4.48036">
        <ele>683.6</ele>
      </trkpt>
      <trkpt lat="45.52741" lon="4.48044">
        <ele>684.1</ele>
      </trkpt>
      <trkpt lat="45.52742" lon="4.48052">
        <ele>684.7</ele>
      </trkpt>
      <trkpt lat="45.52744" lon="4.48061">
        <ele>685.3</ele>
      </trkpt>
      <trkpt lat="45.52745" lon="4.48069">
        <ele>685.8</ele>
      </trkpt>
      <trkpt lat="45.52746" lon="4.48077">
        <ele>686.3</ele>
      </trkpt>
      <trkpt lat="45.52748" lon="4.48085">
        <ele>686.8</ele>
      </trkpt>
      <trkpt lat="45.52749" lon="4.48093">
        <ele>687.6</ele>
        <time>2025-11-25T14:48:15.000Z</time>
      </trkpt>
      <trkpt lat="45.52753" lon="4.48102">
        <ele>688.7</ele>
        <time>2025-11-25T14:48:18.000Z</time>
      </trkpt>
      <trkpt lat="45.52759" lon="4.48111">
        <ele>690</ele>
      </trkpt>
      <trkpt lat="45.52766" lon="4.4812">
        <ele>691</ele>
      </trkpt>
      <trkpt lat="45.52772" lon="4.48128">
        <ele>692</ele>
      </trkpt>
      <trkpt lat="45.52778" lon="4.48137">
        <ele>693</ele>
        <time>2025-11-25T14:48:36.000Z</time>
      </trkpt>
      <trkpt lat="45.52783" lon="4.48142">
        <ele>693.9</ele>
      </trkpt>
      <trkpt lat="45.52788" lon="4.48148">
        <ele>694.8</ele>
      </trkpt>
      <trkpt lat="45.52793" lon="4.48153">
        <ele>695.8</ele>
      </trkpt>
      <trkpt lat="45.52799" lon="4.48158">
        <ele>696.7</ele>
      </trkpt>
      <trkpt lat="45.52804" lon="4.48163">
        <ele>697.6</ele>
      </trkpt>
      <trkpt lat="45.52809" lon="4.48169">
        <ele>698.5</ele>
      </trkpt>
      <trkpt lat="45.52814" lon="4.48174">
        <ele>699.5</ele>
      </trkpt>
      <trkpt lat="45.52819" lon="4.48179">
        <ele>700.4</ele>
        <time>2025-11-25T14:49:01.000Z</time>
      </trkpt>
      <trkpt lat="45.52816" lon="4.48184">
        <ele>700.1</ele>
      </trkpt>
      <trkpt lat="45.52812" lon="4.48189">
        <ele>699.7</ele>
      </trkpt>
      <trkpt lat="45.52809" lon="4.48194">
        <ele>699.4</ele>
      </trkpt>
      <trkpt lat="45.52805" lon="4.482">
        <ele>699.3</ele>
      </trkpt>
      <trkpt lat="45.52802" lon="4.48205">
        <ele>699.2</ele>
      </trkpt>
      <trkpt lat="45.52798" lon="4.4821">
        <ele>699.1</ele>
      </trkpt>
      <trkpt lat="45.52795" lon="4.48215">
        <ele>699</ele>
      </trkpt>
      <trkpt lat="45.52791" lon="4.4822">
        <ele>698.8</ele>
        <time>2025-11-25T14:49:21.000Z</time>
      </trkpt>
      <trkpt lat="45.52787" lon="4.48226">
        <ele>698.4</ele>
      </trkpt>
      <trkpt lat="45.52783" lon="4.48231">
        <ele>697.9</ele>
      </trkpt>
      <trkpt lat="45.52778" lon="4.48237">
        <ele>697.6</ele>
      </trkpt>
      <trkpt lat="45.52774" lon="4.48243">
        <ele>697.2</ele>
      </trkpt>
      <trkpt lat="45.5277" lon="4.48248">
        <ele>696.8</ele>
      </trkpt>
      <trkpt lat="45.52766" lon="4.48254">
        <ele>696.3</ele>
      </trkpt>
      <trkpt lat="45.52761" lon="4.48259">
        <ele>695.8</ele>
      </trkpt>
      <trkpt lat="45.52757" lon="4.48265">
        <ele>695.4</ele>
      </trkpt>
      <trkpt lat="45.52753" lon="4.48271">
        <ele>695.1</ele>
      </trkpt>
      <trkpt lat="45.52749" lon="4.48276">
        <ele>694.8</ele>
      </trkpt>
      <trkpt lat="45.52744" lon="4.48282">
        <ele>694.7</ele>
      </trkpt>
      <trkpt lat="45.5274" lon="4.48288">
        <ele>694.5</ele>
      </trkpt>
      <trkpt lat="45.52736" lon="4.48293">
        <ele>694.2</ele>
      </trkpt>
      <trkpt lat="45.52732" lon="4.48299">
        <ele>693.9</ele>
      </trkpt>
      <trkpt lat="45.52727" lon="4.48304">
        <ele>693.5</ele>
      </trkpt>
      <trkpt lat="45.52723" lon="4.4831">
        <ele>693.2</ele>
        <time>2025-11-25T14:50:08.000Z</time>
      </trkpt>
      <trkpt lat="45.52721" lon="4.48316">
        <ele>693.3</ele>
      </trkpt>
      <trkpt lat="45.52719" lon="4.48323">
        <ele>693.3</ele>
      </trkpt>
      <trkpt lat="45.52717" lon="4.48329">
        <ele>693.3</ele>
      </trkpt>
      <trkpt lat="45.52715" lon="4.48335">
        <ele>693.3</ele>
      </trkpt>
      <trkpt lat="45.52713" lon="4.48341">
        <ele>693.4</ele>
      </trkpt>
      <trkpt lat="45.52711" lon="4.48348">
        <ele>693.5</ele>
      </trkpt>
      <trkpt lat="45.52709" lon="4.48354">
        <ele>693.7</ele>
      </trkpt>
      <trkpt lat="45.52707" lon="4.4836">
        <ele>693.8</ele>
        <time>2025-11-25T14:50:27.000Z</time>
      </trkpt>
      <trkpt lat="45.52703" lon="4.48366">
        <ele>693.9</ele>
      </trkpt>
      <trkpt lat="45.527" lon="4.48372">
        <ele>694.1</ele>
      </trkpt>
      <trkpt lat="45.52696" lon="4.48378">
        <ele>694.3</ele>
      </trkpt>
      <trkpt lat="45.52692" lon="4.48384">
        <ele>694.6</ele>
        <time>2025-11-25T14:50:38.000Z</time>
      </trkpt>
      <trkpt lat="45.52688" lon="4.48387">
        <ele>694.8</ele>
      </trkpt>
      <trkpt lat="45.52683" lon="4.4839">
        <ele>695.1</ele>
      </trkpt>
      <trkpt lat="45.52679" lon="4.48392">
        <ele>695.3</ele>
      </trkpt>
      <trkpt lat="45.52674" lon="4.48395">
        <ele>695.6</ele>
      </trkpt>
      <trkpt lat="45.5267" lon="4.48398">
        <ele>695.9</ele>
      </trkpt>
      <trkpt lat="45.52665" lon="4.48401">
        <ele>696.2</ele>
      </trkpt>
      <trkpt lat="45.52661" lon="4.48403">
        <ele>696.3</ele>
      </trkpt>
      <trkpt lat="45.52656" lon="4.48406">
        <ele>696.5</ele>
        <time>2025-11-25T14:50:58.000Z</time>
      </trkpt>
      <trkpt lat="45.52657" lon="4.48413">
        <ele>697.3</ele>
      </trkpt>
      <trkpt lat="45.52657" lon="4.48421">
        <ele>698.3</ele>
      </trkpt>
      <trkpt lat="45.52658" lon="4.48428">
        <ele>699.3</ele>
      </trkpt>
      <trkpt lat="45.52659" lon="4.48436">
        <ele>700.4</ele>
      </trkpt>
      <trkpt lat="45.52659" lon="4.48443">
        <ele>701.5</ele>
      </trkpt>
      <trkpt lat="45.5266" lon="4.4845">
        <ele>702.4</ele>
      </trkpt>
      <trkpt lat="45.5266" lon="4.48458">
        <ele>703.2</ele>
      </trkpt>
      <trkpt lat="45.52661" lon="4.48465">
        <ele>704</ele>
        <time>2025-11-25T14:51:19.000Z</time>
      </trkpt>
      <trkpt lat="45.52661" lon="4.48473">
        <ele>704.9</ele>
      </trkpt>
      <trkpt lat="45.5266" lon="4.48481">
        <ele>705.8</ele>
      </trkpt>
      <trkpt lat="45.5266" lon="4.48489">
        <ele>706.7</ele>
      </trkpt>
      <trkpt lat="45.5266" lon="4.48497">
        <ele>707.6</ele>
      </trkpt>
      <trkpt lat="45.52659" lon="4.48505">
        <ele>708.6</ele>
      </trkpt>
      <trkpt lat="45.52659" lon="4.48513">
        <ele>709.5</ele>
      </trkpt>
      <trkpt lat="45.52658" lon="4.48521">
        <ele>710.5</ele>
      </trkpt>
      <trkpt lat="45.52658" lon="4.48529">
        <ele>711.5</ele>
        <time>2025-11-25T14:51:41.000Z</time>
      </trkpt>
      <trkpt lat="45.52656" lon="4.48537">
        <ele>712.5</ele>
      </trkpt>
      <trkpt lat="45.52654" lon="4.48544">
        <ele>713.5</ele>
      </trkpt>
      <trkpt lat="45.52652" lon="4.48552">
        <ele>714.5</ele>
      </trkpt>
      <trkpt lat="45.5265" lon="4.48559">
        <ele>715.4</ele>
      </trkpt>
      <trkpt lat="45.52648" lon="4.48567">
        <ele>716.4</ele>
      </trkpt>
      <trkpt lat="45.52646" lon="4.48574">
        <ele>717.4</ele>
      </trkpt>
      <trkpt lat="45.52644" lon="4.48582">
        <ele>718.4</ele>
      </trkpt>
      <trkpt lat="45.52642" lon="4.4859">
        <ele>719.2</ele>
      </trkpt>
      <trkpt lat="45.5264" lon="4.48597">
        <ele>719.9</ele>
      </trkpt>
      <trkpt lat="45.52638" lon="4.48605">
        <ele>720.5</ele>
      </trkpt>
      <trkpt lat="45.52636" lon="4.48612">
        <ele>721.1</ele>
      </trkpt>
      <trkpt lat="45.52634" lon="4.4862">
        <ele>721.6</ele>
      </trkpt>
      <trkpt lat="45.52632" lon="4.48627">
        <ele>722.2</ele>
      </trkpt>
      <trkpt lat="45.5263" lon="4.48635">
        <ele>722.7</ele>
      </trkpt>
      <trkpt lat="45.52628" lon="4.48642">
        <ele>723.3</ele>
      </trkpt>
      <trkpt lat="45.52626" lon="4.4865">
        <ele>724</ele>
        <time>2025-11-25T14:52:27.000Z</time>
      </trkpt>
      <trkpt lat="45.52625" lon="4.48658">
        <ele>724.7</ele>
      </trkpt>
      <trkpt lat="45.52624" lon="4.48666">
        <ele>725.5</ele>
      </trkpt>
      <trkpt lat="45.52623" lon="4.48674">
        <ele>725.9</ele>
      </trkpt>
      <trkpt lat="45.52622" lon="4.48682">
        <ele>726.4</ele>
      </trkpt>
      <trkpt lat="45.52621" lon="4.4869">
        <ele>726.8</ele>
      </trkpt>
      <trkpt lat="45.5262" lon="4.48698">
        <ele>727.2</ele>
      </trkpt>
      <trkpt lat="45.52619" lon="4.48706">
        <ele>727.7</ele>
      </trkpt>
      <trkpt lat="45.52619" lon="4.48714">
        <ele>728.2</ele>
      </trkpt>
      <trkpt lat="45.52618" lon="4.48722">
        <ele>728.8</ele>
      </trkpt>
      <trkpt lat="45.52617" lon="4.4873">
        <ele>729.1</ele>
      </trkpt>
      <trkpt lat="45.52616" lon="4.48738">
        <ele>729.4</ele>
      </trkpt>
      <trkpt lat="45.52615" lon="4.48746">
        <ele>729.7</ele>
      </trkpt>
      <trkpt lat="45.52614" lon="4.48754">
        <ele>730.2</ele>
      </trkpt>
      <trkpt lat="45.52613" lon="4.48762">
        <ele>730.8</ele>
      </trkpt>
      <trkpt lat="45.52612" lon="4.4877">
        <ele>731.4</ele>
      </trkpt>
      <trkpt lat="45.52611" lon="4.48778">
        <ele>732</ele>
        <time>2025-11-25T14:53:12.000Z</time>
      </trkpt>
      <trkpt lat="45.52611" lon="4.48785">
        <ele>732.6</ele>
      </trkpt>
      <trkpt lat="45.52611" lon="4.48793">
        <ele>733.1</ele>
      </trkpt>
      <trkpt lat="45.52611" lon="4.488">
        <ele>733.6</ele>
      </trkpt>
      <trkpt lat="45.52611" lon="4.48808">
        <ele>734.2</ele>
      </trkpt>
      <trkpt lat="45.5261" lon="4.48815">
        <ele>734.7</ele>
      </trkpt>
      <trkpt lat="45.5261" lon="4.48823">
        <ele>735.3</ele>
      </trkpt>
      <trkpt lat="45.5261" lon="4.4883">
        <ele>735.8</ele>
      </trkpt>
      <trkpt lat="45.5261" lon="4.48838">
        <ele>736.2</ele>
      </trkpt>
      <trkpt lat="45.5261" lon="4.48845">
        <ele>736.5</ele>
      </trkpt>
      <trkpt lat="45.5261" lon="4.48852">
        <ele>736.7</ele>
      </trkpt>
      <trkpt lat="45.5261" lon="4.4886">
        <ele>737</ele>
      </trkpt>
      <trkpt lat="45.5261" lon="4.48867">
        <ele>736.9</ele>
      </trkpt>
      <trkpt lat="45.52609" lon="4.48875">
        <ele>736.6</ele>
      </trkpt>
      <trkpt lat="45.52609" lon="4.48882">
        <ele>736.4</ele>
      </trkpt>
      <trkpt lat="45.52609" lon="4.4889">
        <ele>736.1</ele>
      </trkpt>
      <trkpt lat="45.52609" lon="4.48897">
        <ele>735.9</ele>
        <time>2025-11-25T14:53:54.000Z</time>
      </trkpt>
      <trkpt lat="45.52617" lon="4.489">
        <ele>735.2</ele>
      </trkpt>
      <trkpt lat="45.52624" lon="4.48904">
        <ele>734.5</ele>
      </trkpt>
      <trkpt lat="45.52632" lon="4.48907">
        <ele>733.9</ele>
      </trkpt>
      <trkpt lat="45.52639" lon="4.4891">
        <ele>733.2</ele>
      </trkpt>
      <trkpt lat="45.52647" lon="4.48913">
        <ele>732.3</ele>
      </trkpt>
      <trkpt lat="45.52654" lon="4.48917">
        <ele>731.4</ele>
      </trkpt>
      <trkpt lat="45.52662" lon="4.4892">
        <ele>730.5</ele>
      </trkpt>
      <trkpt lat="45.52669" lon="4.48923">
        <ele>729.9</ele>
        <time>2025-11-25T14:54:25.000Z</time>
      </trkpt>
      <trkpt lat="45.52674" lon="4.48924">
        <ele>729.7</ele>
      </trkpt>
      <trkpt lat="45.52679" lon="4.48924">
        <ele>729.6</ele>
      </trkpt>
      <trkpt lat="45.52684" lon="4.48924">
        <ele>729.4</ele>
      </trkpt>
      <trkpt lat="45.52689" lon="4.48925">
        <ele>729.2</ele>
      </trkpt>
      <trkpt lat="45.52694" lon="4.48925">
        <ele>729</ele>
      </trkpt>
      <trkpt lat="45.52699" lon="4.48926">
        <ele>728.7</ele>
      </trkpt>
      <trkpt lat="45.52704" lon="4.48926">
        <ele>728.3</ele>
      </trkpt>
      <trkpt lat="45.52709" lon="4.48927">
        <ele>727.9</ele>
      </trkpt>
      <trkpt lat="45.52714" lon="4.48927">
        <ele>727.6</ele>
      </trkpt>
      <trkpt lat="45.52719" lon="4.48928">
        <ele>727.2</ele>
      </trkpt>
      <trkpt lat="45.52724" lon="4.48928">
        <ele>727</ele>
      </trkpt>
      <trkpt lat="45.52729" lon="4.48929">
        <ele>726.9</ele>
      </trkpt>
      <trkpt lat="45.52734" lon="4.48929">
        <ele>726.8</ele>
      </trkpt>
      <trkpt lat="45.52739" lon="4.4893">
        <ele>726.7</ele>
      </trkpt>
      <trkpt lat="45.52745" lon="4.4893">
        <ele>726.6</ele>
      </trkpt>
      <trkpt lat="45.5275" lon="4.48931">
        <ele>726.5</ele>
      </trkpt>
      <trkpt lat="45.52755" lon="4.48931">
        <ele>726.5</ele>
      </trkpt>
      <trkpt lat="45.5276" lon="4.48931">
        <ele>726.5</ele>
      </trkpt>
      <trkpt lat="45.52765" lon="4.48932">
        <ele>726.5</ele>
      </trkpt>
      <trkpt lat="45.5277" lon="4.48932">
        <ele>726.6</ele>
      </trkpt>
      <trkpt lat="45.52775" lon="4.48933">
        <ele>726.6</ele>
      </trkpt>
      <trkpt lat="45.5278" lon="4.48933">
        <ele>726.6</ele>
      </trkpt>
      <trkpt lat="45.52785" lon="4.48934">
        <ele>726.5</ele>
      </trkpt>
      <trkpt lat="45.5279" lon="4.48934">
        <ele>726.4</ele>
      </trkpt>
      <trkpt lat="45.52795" lon="4.48935">
        <ele>726.3</ele>
      </trkpt>
      <trkpt lat="45.528" lon="4.48935">
        <ele>726.1</ele>
      </trkpt>
      <trkpt lat="45.52805" lon="4.48936">
        <ele>726</ele>
      </trkpt>
      <trkpt lat="45.5281" lon="4.48936">
        <ele>726</ele>
      </trkpt>
      <trkpt lat="45.52815" lon="4.48937">
        <ele>726</ele>
      </trkpt>
      <trkpt lat="45.5282" lon="4.48937">
        <ele>726</ele>
      </trkpt>
      <trkpt lat="45.52825" lon="4.48938">
        <ele>726</ele>
      </trkpt>
      <trkpt lat="45.5283" lon="4.48938">
        <ele>726</ele>
        <time>2025-11-25T14:55:46.000Z</time>
      </trkpt>
      <trkpt lat="45.52838" lon="4.48936">
        <ele>726</ele>
      </trkpt>
      <trkpt lat="45.52846" lon="4.48934">
        <ele>726</ele>
      </trkpt>
      <trkpt lat="45.52854" lon="4.48931">
        <ele>726</ele>
      </trkpt>
      <trkpt lat="45.52863" lon="4.48929">
        <ele>726</ele>
      </trkpt>
      <trkpt lat="45.52871" lon="4.48927">
        <ele>726.3</ele>
      </trkpt>
      <trkpt lat="45.52879" lon="4.48925">
        <ele>726.6</ele>
      </trkpt>
      <trkpt lat="45.52887" lon="4.48922">
        <ele>726.9</ele>
      </trkpt>
      <trkpt lat="45.52895" lon="4.4892">
        <ele>727.2</ele>
        <time>2025-11-25T14:56:19.000Z</time>
      </trkpt>
      <trkpt lat="45.529" lon="4.48918">
        <ele>727.4</ele>
      </trkpt>
      <trkpt lat="45.52905" lon="4.48915">
        <ele>727.5</ele>
      </trkpt>
      <trkpt lat="45.5291" lon="4.48913">
        <ele>727.6</ele>
      </trkpt>
      <trkpt lat="45.52915" lon="4.48911">
        <ele>727.7</ele>
      </trkpt>
      <trkpt lat="45.5292" lon="4.48908">
        <ele>728.2</ele>
      </trkpt>
      <trkpt lat="45.52925" lon="4.48906">
        <ele>728.7</ele>
      </trkpt>
      <trkpt lat="45.5293" lon="4.48903">
        <ele>729.3</ele>
      </trkpt>
      <trkpt lat="45.52936" lon="4.48901">
        <ele>729.8</ele>
      </trkpt>
      <trkpt lat="45.52941" lon="4.48899">
        <ele>730.2</ele>
      </trkpt>
      <trkpt lat="45.52946" lon="4.48896">
        <ele>730.7</ele>
      </trkpt>
      <trkpt lat="45.52951" lon="4.48894">
        <ele>731.3</ele>
      </trkpt>
      <trkpt lat="45.52956" lon="4.48892">
        <ele>731.9</ele>
      </trkpt>
      <trkpt lat="45.52961" lon="4.48889">
        <ele>732.4</ele>
      </trkpt>
      <trkpt lat="45.52966" lon="4.48887">
        <ele>732.9</ele>
      </trkpt>
      <trkpt lat="45.52971" lon="4.48884">
        <ele>733.3</ele>
      </trkpt>
      <trkpt lat="45.52976" lon="4.48882">
        <ele>733.7</ele>
        <time>2025-11-25T14:57:02.000Z</time>
      </trkpt>
      <trkpt lat="45.52982" lon="4.48882">
        <ele>734.3</ele>
      </trkpt>
      <trkpt lat="45.52989" lon="4.48882">
        <ele>735</ele>
      </trkpt>
      <trkpt lat="45.52995" lon="4.48881">
        <ele>735.6</ele>
      </trkpt>
      <trkpt lat="45.53001" lon="4.48881">
        <ele>736.3</ele>
      </trkpt>
      <trkpt lat="45.53008" lon="4.48881">
        <ele>736.9</ele>
      </trkpt>
      <trkpt lat="45.53014" lon="4.48881">
        <ele>737.4</ele>
      </trkpt>
      <trkpt lat="45.5302" lon="4.4888">
        <ele>738</ele>
      </trkpt>
      <trkpt lat="45.53027" lon="4.4888">
        <ele>738.6</ele>
      </trkpt>
      <trkpt lat="45.53033" lon="4.4888">
        <ele>738.9</ele>
      </trkpt>
      <trkpt lat="45.53039" lon="4.4888">
        <ele>739.2</ele>
      </trkpt>
      <trkpt lat="45.53045" lon="4.48879">
        <ele>739.5</ele>
      </trkpt>
      <trkpt lat="45.53052" lon="4.48879">
        <ele>739.7</ele>
      </trkpt>
      <trkpt lat="45.53058" lon="4.48879">
        <ele>739.9</ele>
      </trkpt>
      <trkpt lat="45.53064" lon="4.48879">
        <ele>740</ele>
      </trkpt>
      <trkpt lat="45.53071" lon="4.48878">
        <ele>740.1</ele>
      </trkpt>
      <trkpt lat="45.53077" lon="4.48878">
        <ele>740.1</ele>
        <time>2025-11-25T14:57:52.000Z</time>
      </trkpt>
      <trkpt lat="45.53082" lon="4.48879">
        <ele>740.3</ele>
      </trkpt>
      <trkpt lat="45.53088" lon="4.48881">
        <ele>740.6</ele>
      </trkpt>
      <trkpt lat="45.53093" lon="4.48882">
        <ele>740.8</ele>
      </trkpt>
      <trkpt lat="45.53099" lon="4.48883">
        <ele>741.1</ele>
      </trkpt>
      <trkpt lat="45.53104" lon="4.48884">
        <ele>741.4</ele>
      </trkpt>
      <trkpt lat="45.53109" lon="4.48886">
        <ele>741.7</ele>
      </trkpt>
      <trkpt lat="45.53115" lon="4.48887">
        <ele>742</ele>
      </trkpt>
      <trkpt lat="45.5312" lon="4.48888">
        <ele>742.3</ele>
        <time>2025-11-25T14:58:14.000Z</time>
      </trkpt>
      <trkpt lat="45.53126" lon="4.48886">
        <ele>742.4</ele>
      </trkpt>
      <trkpt lat="45.53132" lon="4.48883">
        <ele>742.5</ele>
      </trkpt>
      <trkpt lat="45.53137" lon="4.48881">
        <ele>742.6</ele>
      </trkpt>
      <trkpt lat="45.53143" lon="4.48879">
        <ele>742.8</ele>
      </trkpt>
      <trkpt lat="45.53149" lon="4.48876">
        <ele>742.9</ele>
      </trkpt>
      <trkpt lat="45.53155" lon="4.48874">
        <ele>743</ele>
      </trkpt>
      <trkpt lat="45.5316" lon="4.48871">
        <ele>743.1</ele>
      </trkpt>
      <trkpt lat="45.53166" lon="4.48869">
        <ele>743.3</ele>
        <time>2025-11-25T14:58:38.000Z</time>
      </trkpt>
      <trkpt lat="45.53172" lon="4.48867">
        <ele>743.7</ele>
      </trkpt>
      <trkpt lat="45.53177" lon="4.48865">
        <ele>744.3</ele>
      </trkpt>
      <trkpt lat="45.53183" lon="4.48863">
        <ele>744.8</ele>
      </trkpt>
      <trkpt lat="45.53189" lon="4.48862">
        <ele>745.4</ele>
      </trkpt>
      <trkpt lat="45.53194" lon="4.4886">
        <ele>745.9</ele>
      </trkpt>
      <trkpt lat="45.532" lon="4.48858">
        <ele>746.5</ele>
      </trkpt>
      <trkpt lat="45.53205" lon="4.48856">
        <ele>747</ele>
      </trkpt>
      <trkpt lat="45.53211" lon="4.48854">
        <ele>747.5</ele>
        <time>2025-11-25T14:59:01.000Z</time>
      </trkpt>
      <trkpt lat="45.53216" lon="4.48851">
        <ele>748</ele>
      </trkpt>
      <trkpt lat="45.53222" lon="4.48849">
        <ele>748.5</ele>
      </trkpt>
      <trkpt lat="45.53227" lon="4.48846">
        <ele>748.6</ele>
      </trkpt>
      <trkpt lat="45.53233" lon="4.48844">
        <ele>748.8</ele>
      </trkpt>
      <trkpt lat="45.53238" lon="4.48841">
        <ele>749.1</ele>
      </trkpt>
      <trkpt lat="45.53243" lon="4.48838">
        <ele>749.4</ele>
      </trkpt>
      <trkpt lat="45.53249" lon="4.48836">
        <ele>749.8</ele>
      </trkpt>
      <trkpt lat="45.53254" lon="4.48833">
        <ele>750.3</ele>
        <time>2025-11-25T14:59:24.000Z</time>
      </trkpt>
      <trkpt lat="45.53258" lon="4.48829">
        <ele>750.7</ele>
      </trkpt>
      <trkpt lat="45.53262" lon="4.48826">
        <ele>751.1</ele>
      </trkpt>
      <trkpt lat="45.53265" lon="4.48822">
        <ele>751.5</ele>
      </trkpt>
      <trkpt lat="45.53269" lon="4.48819">
        <ele>751.9</ele>
      </trkpt>
      <trkpt lat="45.53273" lon="4.48815">
        <ele>752.3</ele>
      </trkpt>
      <trkpt lat="45.53277" lon="4.48811">
        <ele>752.7</ele>
      </trkpt>
      <trkpt lat="45.5328" lon="4.48808">
        <ele>753.1</ele>
      </trkpt>
      <trkpt lat="45.53284" lon="4.48804">
        <ele>753.6</ele>
        <time>2025-11-25T14:59:42.000Z</time>
      </trkpt>
      <trkpt lat="45.53287" lon="4.48797">
        <ele>754.6</ele>
      </trkpt>
      <trkpt lat="45.5329" lon="4.48791">
        <ele>755.5</ele>
      </trkpt>
      <trkpt lat="45.53294" lon="4.48784">
        <ele>756.5</ele>
      </trkpt>
      <trkpt lat="45.53297" lon="4.48777">
        <ele>757.4</ele>
      </trkpt>
      <trkpt lat="45.533" lon="4.4877">
        <ele>757.9</ele>
      </trkpt>
      <trkpt lat="45.53303" lon="4.48764">
        <ele>758.4</ele>
      </trkpt>
      <trkpt lat="45.53306" lon="4.48757">
        <ele>758.8</ele>
      </trkpt>
      <trkpt lat="45.5331" lon="4.4875">
        <ele>759</ele>
      </trkpt>
      <trkpt lat="45.53313" lon="4.48743">
        <ele>759.4</ele>
      </trkpt>
      <trkpt lat="45.53316" lon="4.48737">
        <ele>759.6</ele>
      </trkpt>
      <trkpt lat="45.53319" lon="4.4873">
        <ele>759.7</ele>
      </trkpt>
      <trkpt lat="45.53322" lon="4.48723">
        <ele>759.8</ele>
      </trkpt>
      <trkpt lat="45.53325" lon="4.48716">
        <ele>760</ele>
      </trkpt>
      <trkpt lat="45.53329" lon="4.4871">
        <ele>760.3</ele>
      </trkpt>
      <trkpt lat="45.53332" lon="4.48703">
        <ele>760.5</ele>
      </trkpt>
      <trkpt lat="45.53335" lon="4.48696">
        <ele>760.6</ele>
        <time>2025-11-25T15:00:28.000Z</time>
      </trkpt>
      <trkpt lat="45.53339" lon="4.48691">
        <ele>760.4</ele>
      </trkpt>
      <trkpt lat="45.53343" lon="4.48686">
        <ele>760.2</ele>
      </trkpt>
      <trkpt lat="45.53347" lon="4.48681">
        <ele>759.9</ele>
      </trkpt>
      <trkpt lat="45.53352" lon="4.48677">
        <ele>759.7</ele>
      </trkpt>
      <trkpt lat="45.53356" lon="4.48672">
        <ele>759.4</ele>
      </trkpt>
      <trkpt lat="45.5336" lon="4.48667">
        <ele>759.2</ele>
      </trkpt>
      <trkpt lat="45.53364" lon="4.48662">
        <ele>758.8</ele>
      </trkpt>
      <trkpt lat="45.53368" lon="4.48657">
        <ele>758.5</ele>
        <time>2025-11-25T15:00:49.000Z</time>
      </trkpt>
      <trkpt lat="45.53374" lon="4.48654">
        <ele>757.7</ele>
      </trkpt>
      <trkpt lat="45.53379" lon="4.4865">
        <ele>757.1</ele>
      </trkpt>
      <trkpt lat="45.53385" lon="4.48647">
        <ele>756.5</ele>
      </trkpt>
      <trkpt lat="45.5339" lon="4.48643">
        <ele>756.1</ele>
      </trkpt>
      <trkpt lat="45.53396" lon="4.4864">
        <ele>755.7</ele>
      </trkpt>
      <trkpt lat="45.53401" lon="4.48636">
        <ele>755.4</ele>
      </trkpt>
      <trkpt lat="45.53407" lon="4.48633">
        <ele>755.1</ele>
      </trkpt>
      <trkpt lat="45.53412" lon="4.48629">
        <ele>754.9</ele>
        <time>2025-11-25T15:01:13.000Z</time>
      </trkpt>
      <trkpt lat="45.53417" lon="4.48627">
        <ele>754.7</ele>
      </trkpt>
      <trkpt lat="45.53421" lon="4.48624">
        <ele>755.3</ele>
      </trkpt>
      <trkpt lat="45.53426" lon="4.48622">
        <ele>755.8</ele>
      </trkpt>
      <trkpt lat="45.5343" lon="4.48619">
        <ele>756.2</ele>
      </trkpt>
      <trkpt lat="45.53435" lon="4.48617">
        <ele>756.6</ele>
      </trkpt>
      <trkpt lat="45.53439" lon="4.48614">
        <ele>756.8</ele>
      </trkpt>
      <trkpt lat="45.53444" lon="4.48612">
        <ele>757</ele>
      </trkpt>
      <trkpt lat="45.53448" lon="4.48609">
        <ele>756.9</ele>
        <time>2025-11-25T15:01:33.000Z</time>
      </trkpt>
      <trkpt lat="45.53453" lon="4.48608">
        <ele>756.7</ele>
      </trkpt>
      <trkpt lat="45.53457" lon="4.48607">
        <ele>756.5</ele>
        <time>2025-11-25T15:01:37.000Z</time>
      </trkpt>
      <trkpt lat="45.53462" lon="4.48607">
        <ele>756.3</ele>
      </trkpt>
      <trkpt lat="45.53467" lon="4.48607">
        <ele>756.1</ele>
        <time>2025-11-25T15:01:42.000Z</time>
      </trkpt>
      <trkpt lat="45.53474" lon="4.48609">
        <ele>755.7</ele>
      </trkpt>
      <trkpt lat="45.53481" lon="4.48611">
        <ele>754.7</ele>
        <time>2025-11-25T15:01:49.000Z</time>
      </trkpt>
      <trkpt lat="45.53487" lon="4.48615">
        <ele>753.8</ele>
      </trkpt>
      <trkpt lat="45.53493" lon="4.48619">
        <ele>752.9</ele>
        <time>2025-11-25T15:01:56.000Z</time>
      </trkpt>
      <trkpt lat="45.53498" lon="4.48625">
        <ele>752.3</ele>
      </trkpt>
      <trkpt lat="45.53503" lon="4.48631">
        <ele>751.5</ele>
        <time>2025-11-25T15:02:02.000Z</time>
      </trkpt>
      <trkpt lat="45.53509" lon="4.48636">
        <ele>750.7</ele>
      </trkpt>
      <trkpt lat="45.53515" lon="4.4864">
        <ele>749.8</ele>
        <time>2025-11-25T15:02:09.000Z</time>
      </trkpt>
      <trkpt lat="45.53524" lon="4.48644">
        <ele>748.6</ele>
      </trkpt>
      <trkpt lat="45.53532" lon="4.48648">
        <ele>747.5</ele>
        <time>2025-11-25T15:02:18.000Z</time>
      </trkpt>
      <trkpt lat="45.53536" lon="4.48651">
        <ele>747.1</ele>
      </trkpt>
      <trkpt lat="45.5354" lon="4.48654">
        <ele>746.7</ele>
      </trkpt>
      <trkpt lat="45.53544" lon="4.48657">
        <ele>746.4</ele>
      </trkpt>
      <trkpt lat="45.53548" lon="4.4866">
        <ele>746.2</ele>
        <time>2025-11-25T15:02:27.000Z</time>
      </trkpt>
      <trkpt lat="45.53553" lon="4.48662">
        <ele>745.9</ele>
      </trkpt>
      <trkpt lat="45.53557" lon="4.48663">
        <ele>745.7</ele>
      </trkpt>
      <trkpt lat="45.53562" lon="4.48665">
        <ele>745.4</ele>
      </trkpt>
      <trkpt lat="45.53566" lon="4.48667">
        <ele>745.2</ele>
      </trkpt>
      <trkpt lat="45.53571" lon="4.48668">
        <ele>745</ele>
      </trkpt>
      <trkpt lat="45.53575" lon="4.4867">
        <ele>744.8</ele>
      </trkpt>
      <trkpt lat="45.5358" lon="4.48671">
        <ele>744.6</ele>
      </trkpt>
      <trkpt lat="45.53584" lon="4.48673">
        <ele>744.4</ele>
        <time>2025-11-25T15:02:46.000Z</time>
      </trkpt>
      <trkpt lat="45.53589" lon="4.48672">
        <ele>744.2</ele>
      </trkpt>
      <trkpt lat="45.53593" lon="4.4867">
        <ele>743.9</ele>
      </trkpt>
      <trkpt lat="45.53598" lon="4.48669">
        <ele>743.7</ele>
      </trkpt>
      <trkpt lat="45.53602" lon="4.48667">
        <ele>743.4</ele>
        <time>2025-11-25T15:02:55.000Z</time>
      </trkpt>
      <trkpt lat="45.53609" lon="4.48667">
        <ele>743.1</ele>
      </trkpt>
      <trkpt lat="45.53616" lon="4.48668">
        <ele>742.9</ele>
      </trkpt>
      <trkpt lat="45.53623" lon="4.48668">
        <ele>742.7</ele>
      </trkpt>
      <trkpt lat="45.5363" lon="4.48668">
        <ele>742.5</ele>
      </trkpt>
      <trkpt lat="45.53637" lon="4.48668">
        <ele>742.2</ele>
      </trkpt>
      <trkpt lat="45.53644" lon="4.48669">
        <ele>741.8</ele>
      </trkpt>
      <trkpt lat="45.53651" lon="4.48669">
        <ele>741.4</ele>
      </trkpt>
      <trkpt lat="45.53658" lon="4.48669">
        <ele>740.9</ele>
        <time>2025-11-25T15:03:23.000Z</time>
      </trkpt>
      <trkpt lat="45.53663" lon="4.48667">
        <ele>740.3</ele>
      </trkpt>
      <trkpt lat="45.53668" lon="4.48665">
        <ele>739.8</ele>
        <time>2025-11-25T15:03:28.000Z</time>
      </trkpt>
      <trkpt lat="45.53674" lon="4.48658">
        <ele>738.9</ele>
        <time>2025-11-25T15:03:32.000Z</time>
      </trkpt>
      <trkpt lat="45.5368" lon="4.48659">
        <ele>738.7</ele>
      </trkpt>
      <trkpt lat="45.53686" lon="4.48661">
        <ele>738.6</ele>
      </trkpt>
      <trkpt lat="45.53692" lon="4.48662">
        <ele>738.4</ele>
      </trkpt>
      <trkpt lat="45.53698" lon="4.48663">
        <ele>738</ele>
      </trkpt>
      <trkpt lat="45.53703" lon="4.48664">
        <ele>737.3</ele>
      </trkpt>
      <trkpt lat="45.53709" lon="4.48666">
        <ele>736.7</ele>
      </trkpt>
      <trkpt lat="45.53715" lon="4.48667">
        <ele>736</ele>
      </trkpt>
      <trkpt lat="45.53721" lon="4.48668">
        <ele>735.4</ele>
        <time>2025-11-25T15:03:56.000Z</time>
      </trkpt>
      <trkpt lat="45.53725" lon="4.48671">
        <ele>735.2</ele>
      </trkpt>
      <trkpt lat="45.5373" lon="4.48673">
        <ele>735.1</ele>
      </trkpt>
      <trkpt lat="45.53734" lon="4.48676">
        <ele>734.9</ele>
      </trkpt>
      <trkpt lat="45.53738" lon="4.48679">
        <ele>734.6</ele>
      </trkpt>
      <trkpt lat="45.53742" lon="4.48681">
        <ele>734.3</ele>
      </trkpt>
      <trkpt lat="45.53747" lon="4.48684">
        <ele>734</ele>
      </trkpt>
      <trkpt lat="45.53751" lon="4.48686">
        <ele>733.8</ele>
      </trkpt>
      <trkpt lat="45.53755" lon="4.48689">
        <ele>734</ele>
        <time>2025-11-25T15:04:14.000Z</time>
      </trkpt>
      <trkpt lat="45.53762" lon="4.48691">
        <ele>734</ele>
      </trkpt>
      <trkpt lat="45.53768" lon="4.48693">
        <ele>734.1</ele>
        <time>2025-11-25T15:04:21.000Z</time>
      </trkpt>
      <trkpt lat="45.53774" lon="4.48693">
        <ele>733.8</ele>
      </trkpt>
      <trkpt lat="45.5378" lon="4.48692">
        <ele>733.6</ele>
        <time>2025-11-25T15:04:27.000Z</time>
      </trkpt>
      <trkpt lat="45.53786" lon="4.4869">
        <ele>733.5</ele>
      </trkpt>
      <trkpt lat="45.53792" lon="4.48688">
        <ele>733.4</ele>
      </trkpt>
      <trkpt lat="45.53798" lon="4.48686">
        <ele>733.3</ele>
      </trkpt>
      <trkpt lat="45.53804" lon="4.48685">
        <ele>733.2</ele>
      </trkpt>
      <trkpt lat="45.5381" lon="4.48683">
        <ele>732.9</ele>
      </trkpt>
      <trkpt lat="45.53816" lon="4.48681">
        <ele>732.5</ele>
      </trkpt>
      <trkpt lat="45.53822" lon="4.48679">
        <ele>732.2</ele>
      </trkpt>
      <trkpt lat="45.53828" lon="4.48677">
        <ele>731.9</ele>
        <time>2025-11-25T15:04:52.000Z</time>
      </trkpt>
      <trkpt lat="45.53835" lon="4.48676">
        <ele>731.6</ele>
      </trkpt>
      <trkpt lat="45.53842" lon="4.48675">
        <ele>731.3</ele>
      </trkpt>
      <trkpt lat="45.53849" lon="4.48674">
        <ele>730.9</ele>
      </trkpt>
      <trkpt lat="45.53856" lon="4.48673">
        <ele>730.5</ele>
        <time>2025-11-25T15:05:06.000Z</time>
      </trkpt>
      <trkpt lat="45.53862" lon="4.48674">
        <ele>730.5</ele>
      </trkpt>
      <trkpt lat="45.53869" lon="4.48675">
        <ele>730.5</ele>
      </trkpt>
      <trkpt lat="45.53875" lon="4.48676">
        <ele>730.4</ele>
      </trkpt>
      <trkpt lat="45.53881" lon="4.48677">
        <ele>730.2</ele>
        <time>2025-11-25T15:05:18.000Z</time>
      </trkpt>
      <trkpt lat="45.53888" lon="4.4868">
        <ele>730.4</ele>
      </trkpt>
      <trkpt lat="45.53894" lon="4.48683">
        <ele>730.6</ele>
      </trkpt>
      <trkpt lat="45.53901" lon="4.48685">
        <ele>730.6</ele>
      </trkpt>
      <trkpt lat="45.53907" lon="4.48688">
        <ele>730.5</ele>
        <time>2025-11-25T15:05:31.589Z</time>
      </trkpt>
      <trkpt lat="45.53907" lon="4.48688">
        <ele>730.5</ele>
        <time>2025-11-25T15:05:31.689Z</time>
      </trkpt>
      <trkpt lat="45.53911" lon="4.48691">
        <ele>730.4</ele>
        <time>2025-11-25T15:05:34.192Z</time>
      </trkpt>
      <trkpt lat="45.53916" lon="4.48693">
        <ele>730</ele>
      </trkpt>
      <trkpt lat="45.53921" lon="4.48696">
        <ele>730.4</ele>
      </trkpt>
      <trkpt lat="45.53926" lon="4.48698">
        <ele>730.9</ele>
      </trkpt>
      <trkpt lat="45.53931" lon="4.48701">
        <ele>731.4</ele>
      </trkpt>
      <trkpt lat="45.53935" lon="4.48703">
        <ele>731.7</ele>
      </trkpt>
      <trkpt lat="45.5394" lon="4.48705">
        <ele>731.9</ele>
      </trkpt>
      <trkpt lat="45.53945" lon="4.48708">
        <ele>731.9</ele>
      </trkpt>
      <trkpt lat="45.5395" lon="4.4871">
        <ele>732.1</ele>
        <time>2025-11-25T15:05:54.829Z</time>
      </trkpt>
      <trkpt lat="45.53955" lon="4.48713">
        <ele>732.2</ele>
      </trkpt>
      <trkpt lat="45.53959" lon="4.48717">
        <ele>732.3</ele>
      </trkpt>
      <trkpt lat="45.53964" lon="4.4872">
        <ele>732.3</ele>
      </trkpt>
      <trkpt lat="45.53968" lon="4.48723">
        <ele>732.3</ele>
        <time>2025-11-25T15:06:04.830Z</time>
      </trkpt>
      <trkpt lat="45.53973" lon="4.48727">
        <ele>732.7</ele>
      </trkpt>
      <trkpt lat="45.53977" lon="4.48731">
        <ele>733.1</ele>
        <time>2025-11-25T15:06:09.880Z</time>
      </trkpt>
      <trkpt lat="45.53982" lon="4.48736">
        <ele>733.5</ele>
      </trkpt>
      <trkpt lat="45.53987" lon="4.48741">
        <ele>733.7</ele>
      </trkpt>
      <trkpt lat="45.53991" lon="4.48746">
        <ele>733.7</ele>
      </trkpt>
      <trkpt lat="45.53996" lon="4.48751">
        <ele>733.6</ele>
        <time>2025-11-25T15:06:21.973Z</time>
      </trkpt>
      <trkpt lat="45.54002" lon="4.48758">
        <ele>734</ele>
      </trkpt>
      <trkpt lat="45.54007" lon="4.48764">
        <ele>734.6</ele>
        <time>2025-11-25T15:06:29.074Z</time>
      </trkpt>
      <trkpt lat="45.54011" lon="4.48769">
        <ele>734.9</ele>
      </trkpt>
      <trkpt lat="45.54015" lon="4.48774">
        <ele>735.1</ele>
      </trkpt>
      <trkpt lat="45.54018" lon="4.48779">
        <ele>735.2</ele>
      </trkpt>
      <trkpt lat="45.54022" lon="4.48784">
        <ele>735.4</ele>
      </trkpt>
      <trkpt lat="45.54026" lon="4.48789">
        <ele>735.5</ele>
      </trkpt>
      <trkpt lat="45.5403" lon="4.48794">
        <ele>735.7</ele>
      </trkpt>
      <trkpt lat="45.54033" lon="4.48799">
        <ele>736.2</ele>
      </trkpt>
      <trkpt lat="45.54037" lon="4.48804">
        <ele>736.5</ele>
        <time>2025-11-25T15:06:49.511Z</time>
      </trkpt>
      <trkpt lat="45.54041" lon="4.48808">
        <ele>736.8</ele>
      </trkpt>
      <trkpt lat="45.54046" lon="4.48812">
        <ele>736.9</ele>
      </trkpt>
      <trkpt lat="45.5405" lon="4.48815">
        <ele>737</ele>
      </trkpt>
      <trkpt lat="45.54054" lon="4.48819">
        <ele>737.1</ele>
        <time>2025-11-25T15:06:59.770Z</time>
      </trkpt>
      <trkpt lat="45.54058" lon="4.48822">
        <ele>737.3</ele>
      </trkpt>
      <trkpt lat="45.54062" lon="4.48824">
        <ele>737.7</ele>
      </trkpt>
      <trkpt lat="45.54067" lon="4.48827">
        <ele>737.9</ele>
      </trkpt>
      <trkpt lat="45.54071" lon="4.4883">
        <ele>738</ele>
      </trkpt>
      <trkpt lat="45.54075" lon="4.48832">
        <ele>738</ele>
      </trkpt>
      <trkpt lat="45.54079" lon="4.48835">
        <ele>738</ele>
      </trkpt>
      <trkpt lat="45.54083" lon="4.48837">
        <ele>738</ele>
      </trkpt>
      <trkpt lat="45.54088" lon="4.4884">
        <ele>738.6</ele>
      </trkpt>
      <trkpt lat="45.54092" lon="4.48843">
        <ele>739.1</ele>
      </trkpt>
      <trkpt lat="45.54096" lon="4.48845">
        <ele>739.6</ele>
      </trkpt>
      <trkpt lat="45.541" lon="4.48848">
        <ele>740.1</ele>
      </trkpt>
      <trkpt lat="45.54104" lon="4.48851">
        <ele>740.6</ele>
      </trkpt>
      <trkpt lat="45.54108" lon="4.48853">
        <ele>741</ele>
      </trkpt>
      <trkpt lat="45.54113" lon="4.48856">
        <ele>741.4</ele>
      </trkpt>
      <trkpt lat="45.54117" lon="4.48858">
        <ele>742</ele>
      </trkpt>
      <trkpt lat="45.54121" lon="4.48861">
        <ele>742.4</ele>
        <time>2025-11-25T15:07:36.273Z</time>
      </trkpt>
      <trkpt lat="45.54126" lon="4.48864">
        <ele>743</ele>
      </trkpt>
      <trkpt lat="45.5413" lon="4.48867">
        <ele>743.5</ele>
        <time>2025-11-25T15:07:41.327Z</time>
      </trkpt>
      <trkpt lat="45.54134" lon="4.48871">
        <ele>743.9</ele>
      </trkpt>
      <trkpt lat="45.54138" lon="4.48875">
        <ele>744.4</ele>
      </trkpt>
      <trkpt lat="45.54142" lon="4.48878">
        <ele>745.2</ele>
      </trkpt>
      <trkpt lat="45.54146" lon="4.48882">
        <ele>746</ele>
        <time>2025-11-25T15:07:50.938Z</time>
      </trkpt>
      <trkpt lat="45.54152" lon="4.4889">
        <ele>746.7</ele>
      </trkpt>
      <trkpt lat="45.54157" lon="4.48897">
        <ele>747.7</ele>
        <time>2025-11-25T15:07:58.500Z</time>
      </trkpt>
      <trkpt lat="45.54161" lon="4.48903">
        <ele>748.6</ele>
      </trkpt>
      <trkpt lat="45.54166" lon="4.4891">
        <ele>749.7</ele>
      </trkpt>
      <trkpt lat="45.5417" lon="4.48916">
        <ele>750.6</ele>
      </trkpt>
      <trkpt lat="45.54174" lon="4.48922">
        <ele>750.8</ele>
        <time>2025-11-25T15:08:10.755Z</time>
      </trkpt>
      <trkpt lat="45.54179" lon="4.48929">
        <ele>751.1</ele>
        <time>2025-11-25T15:08:14.310Z</time>
      </trkpt>
      <trkpt lat="45.54183" lon="4.48932">
        <ele>751.6</ele>
        <time>2025-11-25T15:08:16.599Z</time>
      </trkpt>
      <trkpt lat="45.54187" lon="4.48933">
        <ele>752.3</ele>
        <time>2025-11-25T15:08:18.696Z</time>
      </trkpt>
      <trkpt lat="45.54191" lon="4.48934">
        <ele>753.1</ele>
        <time>2025-11-25T15:08:20.551Z</time>
      </trkpt>
      <trkpt lat="45.54196" lon="4.48933">
        <ele>754</ele>
        <time>2025-11-25T15:08:23.171Z</time>
      </trkpt>
      <trkpt lat="45.54201" lon="4.48931">
        <ele>754.7</ele>
        <time>2025-11-25T15:08:25.552Z</time>
      </trkpt>
      <trkpt lat="45.54207" lon="4.48928">
        <ele>755.6</ele>
      </trkpt>
      <trkpt lat="45.54212" lon="4.48924">
        <ele>756.7</ele>
        <time>2025-11-25T15:08:31.540Z</time>
      </trkpt>
      <trkpt lat="45.54217" lon="4.48919">
        <ele>757.9</ele>
      </trkpt>
      <trkpt lat="45.54221" lon="4.48913">
        <ele>759.1</ele>
        <time>2025-11-25T15:08:37.621Z</time>
      </trkpt>
      <trkpt lat="45.54225" lon="4.48908">
        <ele>759.7</ele>
      </trkpt>
      <trkpt lat="45.54229" lon="4.48904">
        <ele>760.3</ele>
      </trkpt>
      <trkpt lat="45.54232" lon="4.48899">
        <ele>760.9</ele>
      </trkpt>
      <trkpt lat="45.54236" lon="4.48894">
        <ele>761.5</ele>
      </trkpt>
      <trkpt lat="45.5424" lon="4.48889">
        <ele>762.2</ele>
      </trkpt>
      <trkpt lat="45.54244" lon="4.48885">
        <ele>763</ele>
      </trkpt>
      <trkpt lat="45.54247" lon="4.4888">
        <ele>763.8</ele>
      </trkpt>
      <trkpt lat="45.54251" lon="4.48875">
        <ele>764.6</ele>
        <time>2025-11-25T15:08:57.811Z</time>
      </trkpt>
      <trkpt lat="45.54255" lon="4.48871">
        <ele>765.4</ele>
      </trkpt>
      <trkpt lat="45.54258" lon="4.48867">
        <ele>766.2</ele>
      </trkpt>
      <trkpt lat="45.54262" lon="4.48862">
        <ele>767.1</ele>
      </trkpt>
      <trkpt lat="45.54265" lon="4.48858">
        <ele>767.8</ele>
        <time>2025-11-25T15:09:06.742Z</time>
      </trkpt>
      <trkpt lat="45.54269" lon="4.48853">
        <ele>768.6</ele>
      </trkpt>
      <trkpt lat="45.54273" lon="4.48848">
        <ele>769.4</ele>
      </trkpt>
      <trkpt lat="45.54277" lon="4.48843">
        <ele>770.2</ele>
      </trkpt>
      <trkpt lat="45.54281" lon="4.48838">
        <ele>771</ele>
      </trkpt>
      <trkpt lat="45.54285" lon="4.48833">
        <ele>771.9</ele>
      </trkpt>
      <trkpt lat="45.54289" lon="4.48828">
        <ele>772.7</ele>
      </trkpt>
      <trkpt lat="45.54293" lon="4.48823">
        <ele>773.5</ele>
      </trkpt>
      <trkpt lat="45.54298" lon="4.48818">
        <ele>774.3</ele>
      </trkpt>
      <trkpt lat="45.54302" lon="4.48812">
        <ele>775.1</ele>
      </trkpt>
      <trkpt lat="45.54306" lon="4.48807">
        <ele>775.9</ele>
      </trkpt>
      <trkpt lat="45.5431" lon="4.48802">
        <ele>776.8</ele>
      </trkpt>
      <trkpt lat="45.54314" lon="4.48797">
        <ele>777.8</ele>
      </trkpt>
      <trkpt lat="45.54318" lon="4.48792">
        <ele>778.7</ele>
      </trkpt>
      <trkpt lat="45.54322" lon="4.48787">
        <ele>779.7</ele>
      </trkpt>
      <trkpt lat="45.54326" lon="4.48782">
        <ele>780.6</ele>
      </trkpt>
      <trkpt lat="45.5433" lon="4.48777">
        <ele>781.6</ele>
        <time>2025-11-25T15:09:49.952Z</time>
      </trkpt>
      <trkpt lat="45.5433" lon="4.48777">
        <ele>781.6</ele>
        <time>2025-11-25T15:09:50.074Z</time>
      </trkpt>
      <trkpt lat="45.54334" lon="4.48773">
        <ele>782.4</ele>
      </trkpt>
      <trkpt lat="45.54338" lon="4.4877">
        <ele>783.3</ele>
      </trkpt>
      <trkpt lat="45.54342" lon="4.48766">
        <ele>784.1</ele>
      </trkpt>
      <trkpt lat="45.54346" lon="4.48762">
        <ele>785</ele>
        <time>2025-11-25T15:09:59.568Z</time>
      </trkpt>
      <trkpt lat="45.54351" lon="4.48757">
        <ele>786.1</ele>
      </trkpt>
      <trkpt lat="45.54356" lon="4.48751">
        <ele>787.2</ele>
        <time>2025-11-25T15:10:05.845Z</time>
      </trkpt>
      <trkpt lat="45.54359" lon="4.48746">
        <ele>788</ele>
      </trkpt>
      <trkpt lat="45.54362" lon="4.4874">
        <ele>788.9</ele>
        <time>2025-11-25T15:10:10.759Z</time>
      </trkpt>
      <trkpt lat="45.54366" lon="4.48729">
        <ele>790.3</ele>
      </trkpt>
      <trkpt lat="45.54369" lon="4.48718">
        <ele>791.8</ele>
      </trkpt>
      <trkpt lat="45.54373" lon="4.48706">
        <ele>793.2</ele>
      </trkpt>
      <trkpt lat="45.54376" lon="4.48695">
        <ele>794.6</ele>
        <time>2025-11-25T15:10:27.929Z</time>
      </trkpt>
      <trkpt lat="45.54382" lon="4.48687">
        <ele>796.5</ele>
        <time>2025-11-25T15:10:32.096Z</time>
      </trkpt>
      <trkpt lat="45.54379" lon="4.48678">
        <ele>796.8</ele>
      </trkpt>
      <trkpt lat="45.54376" lon="4.48668">
        <ele>797</ele>
      </trkpt>
      <trkpt lat="45.54372" lon="4.48659">
        <ele>796.7</ele>
      </trkpt>
      <trkpt lat="45.54369" lon="4.48649">
        <ele>796.3</ele>
        <time>2025-11-25T15:10:46.629Z</time>
      </trkpt>
      <trkpt lat="45.54367" lon="4.4864">
        <ele>796.1</ele>
      </trkpt>
      <trkpt lat="45.54364" lon="4.48631">
        <ele>795.9</ele>
      </trkpt>
      <trkpt lat="45.54362" lon="4.48621">
        <ele>795.7</ele>
      </trkpt>
      <trkpt lat="45.54359" lon="4.48612">
        <ele>795.6</ele>
        <time>2025-11-25T15:11:00.525Z</time>
      </trkpt>
      <trkpt lat="45.54359" lon="4.48604">
        <ele>795.4</ele>
      </trkpt>
      <trkpt lat="45.54359" lon="4.48595">
        <ele>795.1</ele>
        <time>2025-11-25T15:11:06.518Z</time>
      </trkpt>
      <trkpt lat="45.54363" lon="4.48596">
        <ele>795.7</ele>
        <time>2025-11-25T15:11:08.206Z</time>
      </trkpt>
      <trkpt lat="45.54369" lon="4.48603">
        <ele>796.8</ele>
        <time>2025-11-25T15:11:12.505Z</time>
      </trkpt>
      <trkpt lat="45.54374" lon="4.48609">
        <ele>797.7</ele>
      </trkpt>
      <trkpt lat="45.54378" lon="4.48615">
        <ele>798.5</ele>
        <time>2025-11-25T15:11:18.268Z</time>
      </trkpt>
    </trkseg>
  </trk>
</gpx>